<?xml version="1.0" encoding="UTF-8" standalone="no" ?>
<gpx xmlns="http://www.topografix.com/GPX/1/1" xmlns:xsi="http://www.w3.org/2001/XMLSchema-instance" xsi:schemaLocation="http://www.topografix.com/GPX/1/1 http://www.topografix.com/GPX/1/1/gpx.xsd" version="1.1" creator="VisuGPX - https://www.visugpx.com">
  <metadata>
    <name>Pornichet 30/01/2020</name>
    <desc><![CDATA[Sortie VTT du jeudi 30 janvier 2020]]></desc>
  </metadata>
  <trk>
    <name><![CDATA[Pornichet Cyclisme]]></name>
    <trkseg>
      <trkpt lat="47.26407" lon="-2.31582">
        <ele>9.7</ele>
        <time>2020-01-30T08:26:52.000Z</time>
      </trkpt>
      <trkpt lat="47.26407" lon="-2.31597">
        <ele>9.7</ele>
        <time>2020-01-30T08:26:55.000Z</time>
      </trkpt>
      <trkpt lat="47.26407" lon="-2.31602">
        <ele>-0.20000000298023</ele>
        <time>2020-01-30T08:26:56.000Z</time>
      </trkpt>
      <trkpt lat="47.26407" lon="-2.31608">
        <ele>0.20000000298023</ele>
        <time>2020-01-30T08:26:57.000Z</time>
      </trkpt>
      <trkpt lat="47.26407" lon="-2.3162">
        <ele>0.20000000298023</ele>
        <time>2020-01-30T08:26:59.000Z</time>
      </trkpt>
      <trkpt lat="47.26408" lon="-2.31643">
        <ele>0.20000000298023</ele>
        <time>2020-01-30T08:27:03.000Z</time>
      </trkpt>
      <trkpt lat="47.26408" lon="-2.31653">
        <ele>0.20000000298023</ele>
        <time>2020-01-30T08:27:05.000Z</time>
      </trkpt>
      <trkpt lat="47.26402" lon="-2.31662">
        <ele>0.20000000298023</ele>
        <time>2020-01-30T08:27:08.000Z</time>
      </trkpt>
      <trkpt lat="47.26395" lon="-2.31665">
        <ele>0.20000000298023</ele>
        <time>2020-01-30T08:27:10.000Z</time>
      </trkpt>
      <trkpt lat="47.26382" lon="-2.31673">
        <ele>-0.40000000596046</ele>
        <time>2020-01-30T08:27:13.000Z</time>
      </trkpt>
      <trkpt lat="47.26379" lon="-2.31675">
        <ele>-1</ele>
        <time>2020-01-30T08:27:14.000Z</time>
      </trkpt>
      <trkpt lat="47.26374" lon="-2.31678">
        <ele>-1.6000000238419</ele>
        <time>2020-01-30T08:27:15.000Z</time>
      </trkpt>
      <trkpt lat="47.26369" lon="-2.31681">
        <ele>-2.2000000476837</ele>
        <time>2020-01-30T08:27:16.000Z</time>
      </trkpt>
      <trkpt lat="47.26363" lon="-2.31683">
        <ele>-2.7999999523163</ele>
        <time>2020-01-30T08:27:17.000Z</time>
      </trkpt>
      <trkpt lat="47.26352" lon="-2.31688">
        <ele>-2.7999999523163</ele>
        <time>2020-01-30T08:27:19.000Z</time>
      </trkpt>
      <trkpt lat="47.26314" lon="-2.31706">
        <ele>-2.7999999523163</ele>
        <time>2020-01-30T08:27:26.000Z</time>
      </trkpt>
      <trkpt lat="47.2631" lon="-2.31708">
        <ele>-2.7999999523163</ele>
        <time>2020-01-30T08:27:27.000Z</time>
      </trkpt>
      <trkpt lat="47.26303" lon="-2.31709">
        <ele>-3.2000000476837</ele>
        <time>2020-01-30T08:27:29.000Z</time>
      </trkpt>
      <trkpt lat="47.26301" lon="-2.31709">
        <ele>-3.5999999046326</ele>
        <time>2020-01-30T08:27:30.000Z</time>
      </trkpt>
      <trkpt lat="47.26298" lon="-2.31708">
        <ele>-4</ele>
        <time>2020-01-30T08:27:31.000Z</time>
      </trkpt>
      <trkpt lat="47.26295" lon="-2.31705">
        <ele>-4.4000000953674</ele>
        <time>2020-01-30T08:27:32.000Z</time>
      </trkpt>
      <trkpt lat="47.26293" lon="-2.31702">
        <ele>-4.8000001907349</ele>
        <time>2020-01-30T08:27:33.000Z</time>
      </trkpt>
      <trkpt lat="47.26289" lon="-2.31694">
        <ele>-4.8000001907349</ele>
        <time>2020-01-30T08:27:35.000Z</time>
      </trkpt>
      <trkpt lat="47.26276" lon="-2.31667">
        <ele>-4.8000001907349</ele>
        <time>2020-01-30T08:27:41.000Z</time>
      </trkpt>
      <trkpt lat="47.26263" lon="-2.3164">
        <ele>-4.8000001907349</ele>
        <time>2020-01-30T08:27:47.000Z</time>
      </trkpt>
      <trkpt lat="47.26248" lon="-2.31615">
        <ele>-4.8000001907349</ele>
        <time>2020-01-30T08:27:53.000Z</time>
      </trkpt>
      <trkpt lat="47.26241" lon="-2.31608">
        <ele>-4.8000001907349</ele>
        <time>2020-01-30T08:27:55.000Z</time>
      </trkpt>
      <trkpt lat="47.26225" lon="-2.31599">
        <ele>-4.8000001907349</ele>
        <time>2020-01-30T08:27:59.000Z</time>
      </trkpt>
      <trkpt lat="47.26213" lon="-2.31596">
        <ele>-4.8000001907349</ele>
        <time>2020-01-30T08:28:02.000Z</time>
      </trkpt>
      <trkpt lat="47.26204" lon="-2.31596">
        <ele>-4.8000001907349</ele>
        <time>2020-01-30T08:28:04.000Z</time>
      </trkpt>
      <trkpt lat="47.26174" lon="-2.31602">
        <ele>-4.8000001907349</ele>
        <time>2020-01-30T08:28:11.000Z</time>
      </trkpt>
      <trkpt lat="47.26169" lon="-2.31604">
        <ele>-4.8000001907349</ele>
        <time>2020-01-30T08:28:12.000Z</time>
      </trkpt>
      <trkpt lat="47.26157" lon="-2.31609">
        <ele>-4.8000001907349</ele>
        <time>2020-01-30T08:28:15.000Z</time>
      </trkpt>
      <trkpt lat="47.26131" lon="-2.31614">
        <ele>-4.8000001907349</ele>
        <time>2020-01-30T08:28:21.000Z</time>
      </trkpt>
      <trkpt lat="47.26108" lon="-2.31615">
        <ele>-4.8000001907349</ele>
        <time>2020-01-30T08:28:28.000Z</time>
      </trkpt>
      <trkpt lat="47.26098" lon="-2.31602">
        <ele>-4.8000001907349</ele>
        <time>2020-01-30T08:28:32.000Z</time>
      </trkpt>
      <trkpt lat="47.26089" lon="-2.31588">
        <ele>-4.8000001907349</ele>
        <time>2020-01-30T08:28:36.000Z</time>
      </trkpt>
      <trkpt lat="47.26087" lon="-2.31588">
        <ele>-4.8000001907349</ele>
        <time>2020-01-30T08:28:37.000Z</time>
      </trkpt>
      <trkpt lat="47.26076" lon="-2.31599">
        <ele>-4.8000001907349</ele>
        <time>2020-01-30T08:28:41.000Z</time>
      </trkpt>
      <trkpt lat="47.26053" lon="-2.31627">
        <ele>-4.8000001907349</ele>
        <time>2020-01-30T08:28:48.000Z</time>
      </trkpt>
      <trkpt lat="47.26018" lon="-2.31663">
        <ele>-4.8000001907349</ele>
        <time>2020-01-30T08:28:58.000Z</time>
      </trkpt>
      <trkpt lat="47.25995" lon="-2.31678">
        <ele>-4.8000001907349</ele>
        <time>2020-01-30T08:29:04.000Z</time>
      </trkpt>
      <trkpt lat="47.25976" lon="-2.31688">
        <ele>-4.4000000953674</ele>
        <time>2020-01-30T08:29:09.000Z</time>
      </trkpt>
      <trkpt lat="47.25972" lon="-2.3169">
        <ele>-4</ele>
        <time>2020-01-30T08:29:10.000Z</time>
      </trkpt>
      <trkpt lat="47.25968" lon="-2.31693">
        <ele>-3.4000000953674</ele>
        <time>2020-01-30T08:29:11.000Z</time>
      </trkpt>
      <trkpt lat="47.25964" lon="-2.31696">
        <ele>-3</ele>
        <time>2020-01-30T08:29:12.000Z</time>
      </trkpt>
      <trkpt lat="47.2596" lon="-2.31698">
        <ele>-2.5999999046326</ele>
        <time>2020-01-30T08:29:13.000Z</time>
      </trkpt>
      <trkpt lat="47.25956" lon="-2.31701">
        <ele>-2.5999999046326</ele>
        <time>2020-01-30T08:29:14.000Z</time>
      </trkpt>
      <trkpt lat="47.25943" lon="-2.31718">
        <ele>-2.5999999046326</ele>
        <time>2020-01-30T08:29:18.000Z</time>
      </trkpt>
      <trkpt lat="47.2594" lon="-2.31723">
        <ele>-2.5999999046326</ele>
        <time>2020-01-30T08:29:19.000Z</time>
      </trkpt>
      <trkpt lat="47.25927" lon="-2.31744">
        <ele>-2.5999999046326</ele>
        <time>2020-01-30T08:29:23.000Z</time>
      </trkpt>
      <trkpt lat="47.25921" lon="-2.31755">
        <ele>-2.5999999046326</ele>
        <time>2020-01-30T08:29:25.000Z</time>
      </trkpt>
      <trkpt lat="47.25898" lon="-2.31807">
        <ele>-2.5999999046326</ele>
        <time>2020-01-30T08:29:34.000Z</time>
      </trkpt>
      <trkpt lat="47.25874" lon="-2.31856">
        <ele>-2.5999999046326</ele>
        <time>2020-01-30T08:29:43.000Z</time>
      </trkpt>
      <trkpt lat="47.25863" lon="-2.31874">
        <ele>-2.5999999046326</ele>
        <time>2020-01-30T08:29:47.000Z</time>
      </trkpt>
      <trkpt lat="47.25849" lon="-2.31889">
        <ele>-2.5999999046326</ele>
        <time>2020-01-30T08:29:51.000Z</time>
      </trkpt>
      <trkpt lat="47.25818" lon="-2.31915">
        <ele>-2.5999999046326</ele>
        <time>2020-01-30T08:30:00.000Z</time>
      </trkpt>
      <trkpt lat="47.258" lon="-2.31927">
        <ele>-2.5999999046326</ele>
        <time>2020-01-30T08:30:05.000Z</time>
      </trkpt>
      <trkpt lat="47.25782" lon="-2.31945">
        <ele>-2.2000000476837</ele>
        <time>2020-01-30T08:30:11.000Z</time>
      </trkpt>
      <trkpt lat="47.25778" lon="-2.31948">
        <ele>-1.7999999523163</ele>
        <time>2020-01-30T08:30:12.000Z</time>
      </trkpt>
      <trkpt lat="47.25775" lon="-2.31951">
        <ele>-1.3999999761581</ele>
        <time>2020-01-30T08:30:13.000Z</time>
      </trkpt>
      <trkpt lat="47.25772" lon="-2.31954">
        <ele>-1</ele>
        <time>2020-01-30T08:30:14.000Z</time>
      </trkpt>
      <trkpt lat="47.25769" lon="-2.31957">
        <ele>-0.60000002384186</ele>
        <time>2020-01-30T08:30:15.000Z</time>
      </trkpt>
      <trkpt lat="47.25754" lon="-2.3197">
        <ele>-0.20000000298023</ele>
        <time>2020-01-30T08:30:20.000Z</time>
      </trkpt>
      <trkpt lat="47.2575" lon="-2.31972">
        <ele>0.20000000298023</ele>
        <time>2020-01-30T08:30:21.000Z</time>
      </trkpt>
      <trkpt lat="47.25747" lon="-2.31974">
        <ele>0.60000002384186</ele>
        <time>2020-01-30T08:30:22.000Z</time>
      </trkpt>
      <trkpt lat="47.25743" lon="-2.31976">
        <ele>1</ele>
        <time>2020-01-30T08:30:23.000Z</time>
      </trkpt>
      <trkpt lat="47.2574" lon="-2.31978">
        <ele>1.3999999761581</ele>
        <time>2020-01-30T08:30:24.000Z</time>
      </trkpt>
      <trkpt lat="47.25726" lon="-2.31984">
        <ele>1.3999999761581</ele>
        <time>2020-01-30T08:30:28.000Z</time>
      </trkpt>
      <trkpt lat="47.25709" lon="-2.31992">
        <ele>1.3999999761581</ele>
        <time>2020-01-30T08:30:34.000Z</time>
      </trkpt>
      <trkpt lat="47.257" lon="-2.31995">
        <ele>1.3999999761581</ele>
        <time>2020-01-30T08:30:38.000Z</time>
      </trkpt>
      <trkpt lat="47.25696" lon="-2.31988">
        <ele>1.3999999761581</ele>
        <time>2020-01-30T08:30:43.000Z</time>
      </trkpt>
      <trkpt lat="47.2569" lon="-2.31966">
        <ele>1.3999999761581</ele>
        <time>2020-01-30T08:30:48.000Z</time>
      </trkpt>
      <trkpt lat="47.2568" lon="-2.31923">
        <ele>2</ele>
        <time>2020-01-30T08:30:56.000Z</time>
      </trkpt>
      <trkpt lat="47.25678" lon="-2.31917">
        <ele>2.4000000953674</ele>
        <time>2020-01-30T08:30:57.000Z</time>
      </trkpt>
      <trkpt lat="47.25677" lon="-2.31912">
        <ele>2.7999999523163</ele>
        <time>2020-01-30T08:30:58.000Z</time>
      </trkpt>
      <trkpt lat="47.25676" lon="-2.31906">
        <ele>3.2000000476837</ele>
        <time>2020-01-30T08:30:59.000Z</time>
      </trkpt>
      <trkpt lat="47.25674" lon="-2.319">
        <ele>3.5999999046326</ele>
        <time>2020-01-30T08:31:00.000Z</time>
      </trkpt>
      <trkpt lat="47.25666" lon="-2.3187">
        <ele>3.5999999046326</ele>
        <time>2020-01-30T08:31:06.000Z</time>
      </trkpt>
      <trkpt lat="47.25651" lon="-2.31824">
        <ele>3.5999999046326</ele>
        <time>2020-01-30T08:31:15.000Z</time>
      </trkpt>
      <trkpt lat="47.25639" lon="-2.31787">
        <ele>3.5999999046326</ele>
        <time>2020-01-30T08:31:23.000Z</time>
      </trkpt>
      <trkpt lat="47.25635" lon="-2.31777">
        <ele>3.5999999046326</ele>
        <time>2020-01-30T08:31:28.000Z</time>
      </trkpt>
      <trkpt lat="47.25634" lon="-2.31772">
        <ele>3.5999999046326</ele>
        <time>2020-01-30T08:31:32.000Z</time>
      </trkpt>
      <trkpt lat="47.25631" lon="-2.31771">
        <ele>3.5999999046326</ele>
        <time>2020-01-30T08:31:35.000Z</time>
      </trkpt>
      <trkpt lat="47.25621" lon="-2.31779">
        <ele>3.5999999046326</ele>
        <time>2020-01-30T08:31:39.000Z</time>
      </trkpt>
      <trkpt lat="47.25616" lon="-2.31781">
        <ele>3.5999999046326</ele>
        <time>2020-01-30T08:31:41.000Z</time>
      </trkpt>
      <trkpt lat="47.25613" lon="-2.31779">
        <ele>3.5999999046326</ele>
        <time>2020-01-30T08:31:42.000Z</time>
      </trkpt>
      <trkpt lat="47.25595" lon="-2.31768">
        <ele>3.5999999046326</ele>
        <time>2020-01-30T08:31:47.000Z</time>
      </trkpt>
      <trkpt lat="47.2558" lon="-2.31773">
        <ele>3.5999999046326</ele>
        <time>2020-01-30T08:31:51.000Z</time>
      </trkpt>
      <trkpt lat="47.25576" lon="-2.31775">
        <ele>3.5999999046326</ele>
        <time>2020-01-30T08:31:52.000Z</time>
      </trkpt>
      <trkpt lat="47.2557" lon="-2.3178">
        <ele>4</ele>
        <time>2020-01-30T08:31:54.000Z</time>
      </trkpt>
      <trkpt lat="47.25568" lon="-2.31784">
        <ele>4.4000000953674</ele>
        <time>2020-01-30T08:31:55.000Z</time>
      </trkpt>
      <trkpt lat="47.25565" lon="-2.31787">
        <ele>4.8000001907349</ele>
        <time>2020-01-30T08:31:56.000Z</time>
      </trkpt>
      <trkpt lat="47.25563" lon="-2.31791">
        <ele>5.1999998092651</ele>
        <time>2020-01-30T08:31:57.000Z</time>
      </trkpt>
      <trkpt lat="47.2556" lon="-2.31794">
        <ele>5.8000001907349</ele>
        <time>2020-01-30T08:31:58.000Z</time>
      </trkpt>
      <trkpt lat="47.25548" lon="-2.31801">
        <ele>6.1999998092651</ele>
        <time>2020-01-30T08:32:02.000Z</time>
      </trkpt>
      <trkpt lat="47.25544" lon="-2.31802">
        <ele>6.5999999046326</ele>
        <time>2020-01-30T08:32:03.000Z</time>
      </trkpt>
      <trkpt lat="47.25541" lon="-2.31804">
        <ele>7</ele>
        <time>2020-01-30T08:32:04.000Z</time>
      </trkpt>
      <trkpt lat="47.25538" lon="-2.31805">
        <ele>7.4000000953674</ele>
        <time>2020-01-30T08:32:05.000Z</time>
      </trkpt>
      <trkpt lat="47.25534" lon="-2.31806">
        <ele>7.8000001907349</ele>
        <time>2020-01-30T08:32:06.000Z</time>
      </trkpt>
      <trkpt lat="47.25525" lon="-2.31809">
        <ele>7.8000001907349</ele>
        <time>2020-01-30T08:32:09.000Z</time>
      </trkpt>
      <trkpt lat="47.25507" lon="-2.31818">
        <ele>7.8000001907349</ele>
        <time>2020-01-30T08:32:16.000Z</time>
      </trkpt>
      <trkpt lat="47.25507" lon="-2.31822">
        <ele>7.8000001907349</ele>
        <time>2020-01-30T08:32:17.000Z</time>
      </trkpt>
      <trkpt lat="47.25511" lon="-2.31827">
        <ele>7.8000001907349</ele>
        <time>2020-01-30T08:32:20.000Z</time>
      </trkpt>
      <trkpt lat="47.25518" lon="-2.31825">
        <ele>7.8000001907349</ele>
        <time>2020-01-30T08:32:23.000Z</time>
      </trkpt>
      <trkpt lat="47.25524" lon="-2.31823">
        <ele>7.8000001907349</ele>
        <time>2020-01-30T08:32:27.000Z</time>
      </trkpt>
      <trkpt lat="47.25525" lon="-2.31822">
        <ele>7.8000001907349</ele>
        <time>2020-01-30T08:32:30.000Z</time>
      </trkpt>
      <trkpt lat="47.25528" lon="-2.31831">
        <ele>7.8000001907349</ele>
        <time>2020-01-30T08:43:39.000Z</time>
      </trkpt>
      <trkpt lat="47.25527" lon="-2.31842">
        <ele>7.8000001907349</ele>
        <time>2020-01-30T08:43:43.000Z</time>
      </trkpt>
      <trkpt lat="47.25527" lon="-2.31845">
        <ele>7.8000001907349</ele>
        <time>2020-01-30T08:43:44.000Z</time>
      </trkpt>
      <trkpt lat="47.25528" lon="-2.31848">
        <ele>7.8000001907349</ele>
        <time>2020-01-30T08:43:47.000Z</time>
      </trkpt>
      <trkpt lat="47.25527" lon="-2.31854">
        <ele>7.8000001907349</ele>
        <time>2020-01-30T08:44:36.000Z</time>
      </trkpt>
      <trkpt lat="47.25526" lon="-2.3186">
        <ele>7.8000001907349</ele>
        <time>2020-01-30T08:44:38.000Z</time>
      </trkpt>
      <trkpt lat="47.25527" lon="-2.31883">
        <ele>7.8000001907349</ele>
        <time>2020-01-30T08:44:44.000Z</time>
      </trkpt>
      <trkpt lat="47.25532" lon="-2.31906">
        <ele>7.8000001907349</ele>
        <time>2020-01-30T08:44:50.000Z</time>
      </trkpt>
      <trkpt lat="47.25538" lon="-2.31921">
        <ele>7.8000001907349</ele>
        <time>2020-01-30T08:44:55.000Z</time>
      </trkpt>
      <trkpt lat="47.25548" lon="-2.3192">
        <ele>7.8000001907349</ele>
        <time>2020-01-30T08:44:59.000Z</time>
      </trkpt>
      <trkpt lat="47.25558" lon="-2.31917">
        <ele>7.8000001907349</ele>
        <time>2020-01-30T08:45:03.000Z</time>
      </trkpt>
      <trkpt lat="47.2556" lon="-2.31918">
        <ele>7.8000001907349</ele>
        <time>2020-01-30T08:45:04.000Z</time>
      </trkpt>
      <trkpt lat="47.25561" lon="-2.31927">
        <ele>7.8000001907349</ele>
        <time>2020-01-30T08:45:07.000Z</time>
      </trkpt>
      <trkpt lat="47.25564" lon="-2.31944">
        <ele>7.8000001907349</ele>
        <time>2020-01-30T08:45:10.000Z</time>
      </trkpt>
      <trkpt lat="47.25566" lon="-2.3195">
        <ele>7.8000001907349</ele>
        <time>2020-01-30T08:45:11.000Z</time>
      </trkpt>
      <trkpt lat="47.25575" lon="-2.31973">
        <ele>7.8000001907349</ele>
        <time>2020-01-30T08:45:15.000Z</time>
      </trkpt>
      <trkpt lat="47.25577" lon="-2.3198">
        <ele>7.8000001907349</ele>
        <time>2020-01-30T08:45:16.000Z</time>
      </trkpt>
      <trkpt lat="47.2558" lon="-2.31993">
        <ele>7.4000000953674</ele>
        <time>2020-01-30T08:45:18.000Z</time>
      </trkpt>
      <trkpt lat="47.25581" lon="-2.32">
        <ele>7</ele>
        <time>2020-01-30T08:45:19.000Z</time>
      </trkpt>
      <trkpt lat="47.25583" lon="-2.32008">
        <ele>6.5999999046326</ele>
        <time>2020-01-30T08:45:20.000Z</time>
      </trkpt>
      <trkpt lat="47.25585" lon="-2.32014">
        <ele>6.1999998092651</ele>
        <time>2020-01-30T08:45:21.000Z</time>
      </trkpt>
      <trkpt lat="47.25587" lon="-2.32021">
        <ele>5.8000001907349</ele>
        <time>2020-01-30T08:45:22.000Z</time>
      </trkpt>
      <trkpt lat="47.25592" lon="-2.32035">
        <ele>5.8000001907349</ele>
        <time>2020-01-30T08:45:24.000Z</time>
      </trkpt>
      <trkpt lat="47.25609" lon="-2.32086">
        <ele>5.8000001907349</ele>
        <time>2020-01-30T08:45:32.000Z</time>
      </trkpt>
      <trkpt lat="47.25628" lon="-2.32139">
        <ele>5.8000001907349</ele>
        <time>2020-01-30T08:45:40.000Z</time>
      </trkpt>
      <trkpt lat="47.25642" lon="-2.32189">
        <ele>5.8000001907349</ele>
        <time>2020-01-30T08:45:47.000Z</time>
      </trkpt>
      <trkpt lat="47.2565" lon="-2.32234">
        <ele>5.8000001907349</ele>
        <time>2020-01-30T08:45:53.000Z</time>
      </trkpt>
      <trkpt lat="47.25651" lon="-2.32261">
        <ele>5.1999998092651</ele>
        <time>2020-01-30T08:45:56.000Z</time>
      </trkpt>
      <trkpt lat="47.25652" lon="-2.32271">
        <ele>4.8000001907349</ele>
        <time>2020-01-30T08:45:57.000Z</time>
      </trkpt>
      <trkpt lat="47.25653" lon="-2.32282">
        <ele>4.4000000953674</ele>
        <time>2020-01-30T08:45:58.000Z</time>
      </trkpt>
      <trkpt lat="47.25653" lon="-2.32292">
        <ele>4</ele>
        <time>2020-01-30T08:45:59.000Z</time>
      </trkpt>
      <trkpt lat="47.25654" lon="-2.32303">
        <ele>3.5999999046326</ele>
        <time>2020-01-30T08:46:00.000Z</time>
      </trkpt>
      <trkpt lat="47.25655" lon="-2.32315">
        <ele>3.2000000476837</ele>
        <time>2020-01-30T08:46:01.000Z</time>
      </trkpt>
      <trkpt lat="47.25655" lon="-2.32327">
        <ele>2.5999999046326</ele>
        <time>2020-01-30T08:46:02.000Z</time>
      </trkpt>
      <trkpt lat="47.25657" lon="-2.32337">
        <ele>2.2000000476837</ele>
        <time>2020-01-30T08:46:03.000Z</time>
      </trkpt>
      <trkpt lat="47.25658" lon="-2.32347">
        <ele>1.7999999523163</ele>
        <time>2020-01-30T08:46:04.000Z</time>
      </trkpt>
      <trkpt lat="47.25659" lon="-2.32357">
        <ele>1.2000000476837</ele>
        <time>2020-01-30T08:46:05.000Z</time>
      </trkpt>
      <trkpt lat="47.2566" lon="-2.32366">
        <ele>0.20000000298023</ele>
        <time>2020-01-30T08:46:06.000Z</time>
      </trkpt>
      <trkpt lat="47.2566" lon="-2.32376">
        <ele>-0.20000000298023</ele>
        <time>2020-01-30T08:46:07.000Z</time>
      </trkpt>
      <trkpt lat="47.25661" lon="-2.32384">
        <ele>-0.80000001192093</ele>
        <time>2020-01-30T08:46:08.000Z</time>
      </trkpt>
      <trkpt lat="47.25662" lon="-2.32392">
        <ele>-1.3999999761581</ele>
        <time>2020-01-30T08:46:09.000Z</time>
      </trkpt>
      <trkpt lat="47.25665" lon="-2.32399">
        <ele>-2.2000000476837</ele>
        <time>2020-01-30T08:46:10.000Z</time>
      </trkpt>
      <trkpt lat="47.25668" lon="-2.32406">
        <ele>-2.7999999523163</ele>
        <time>2020-01-30T08:46:11.000Z</time>
      </trkpt>
      <trkpt lat="47.25672" lon="-2.32412">
        <ele>-3.4000000953674</ele>
        <time>2020-01-30T08:46:12.000Z</time>
      </trkpt>
      <trkpt lat="47.25676" lon="-2.32417">
        <ele>-3.4000000953674</ele>
        <time>2020-01-30T08:46:13.000Z</time>
      </trkpt>
      <trkpt lat="47.25682" lon="-2.3242">
        <ele>-3.7999999523163</ele>
        <time>2020-01-30T08:46:14.000Z</time>
      </trkpt>
      <trkpt lat="47.25688" lon="-2.32421">
        <ele>-4.1999998092651</ele>
        <time>2020-01-30T08:46:15.000Z</time>
      </trkpt>
      <trkpt lat="47.25695" lon="-2.32422">
        <ele>-4.5999999046326</ele>
        <time>2020-01-30T08:46:16.000Z</time>
      </trkpt>
      <trkpt lat="47.25701" lon="-2.32422">
        <ele>-5</ele>
        <time>2020-01-30T08:46:17.000Z</time>
      </trkpt>
      <trkpt lat="47.25708" lon="-2.32423">
        <ele>-5.4000000953674</ele>
        <time>2020-01-30T08:46:18.000Z</time>
      </trkpt>
      <trkpt lat="47.25727" lon="-2.32423">
        <ele>-5.4000000953674</ele>
        <time>2020-01-30T08:46:21.000Z</time>
      </trkpt>
      <trkpt lat="47.25745" lon="-2.32424">
        <ele>-5.8000001907349</ele>
        <time>2020-01-30T08:46:24.000Z</time>
      </trkpt>
      <trkpt lat="47.25751" lon="-2.32423">
        <ele>-6.1999998092651</ele>
        <time>2020-01-30T08:46:25.000Z</time>
      </trkpt>
      <trkpt lat="47.25757" lon="-2.32422">
        <ele>-6.8000001907349</ele>
        <time>2020-01-30T08:46:26.000Z</time>
      </trkpt>
      <trkpt lat="47.25762" lon="-2.3242">
        <ele>-7.1999998092651</ele>
        <time>2020-01-30T08:46:27.000Z</time>
      </trkpt>
      <trkpt lat="47.25767" lon="-2.32418">
        <ele>-7.5999999046326</ele>
        <time>2020-01-30T08:46:28.000Z</time>
      </trkpt>
      <trkpt lat="47.25771" lon="-2.32416">
        <ele>-7.5999999046326</ele>
        <time>2020-01-30T08:46:29.000Z</time>
      </trkpt>
      <trkpt lat="47.25784" lon="-2.32417">
        <ele>-7.5999999046326</ele>
        <time>2020-01-30T08:46:32.000Z</time>
      </trkpt>
      <trkpt lat="47.25788" lon="-2.32421">
        <ele>-7</ele>
        <time>2020-01-30T08:46:33.000Z</time>
      </trkpt>
      <trkpt lat="47.25791" lon="-2.32426">
        <ele>-6.5999999046326</ele>
        <time>2020-01-30T08:46:34.000Z</time>
      </trkpt>
      <trkpt lat="47.25794" lon="-2.32432">
        <ele>-6.1999998092651</ele>
        <time>2020-01-30T08:46:35.000Z</time>
      </trkpt>
      <trkpt lat="47.25797" lon="-2.32438">
        <ele>-5.8000001907349</ele>
        <time>2020-01-30T08:46:36.000Z</time>
      </trkpt>
      <trkpt lat="47.258" lon="-2.32444">
        <ele>-5.4000000953674</ele>
        <time>2020-01-30T08:46:37.000Z</time>
      </trkpt>
      <trkpt lat="47.25809" lon="-2.32463">
        <ele>-5.4000000953674</ele>
        <time>2020-01-30T08:46:41.000Z</time>
      </trkpt>
      <trkpt lat="47.25817" lon="-2.32482">
        <ele>-5.4000000953674</ele>
        <time>2020-01-30T08:46:45.000Z</time>
      </trkpt>
      <trkpt lat="47.2584" lon="-2.32513">
        <ele>-5.4000000953674</ele>
        <time>2020-01-30T08:46:51.000Z</time>
      </trkpt>
      <trkpt lat="47.25869" lon="-2.32556">
        <ele>-5.4000000953674</ele>
        <time>2020-01-30T08:46:58.000Z</time>
      </trkpt>
      <trkpt lat="47.25889" lon="-2.32586">
        <ele>-5.4000000953674</ele>
        <time>2020-01-30T08:47:03.000Z</time>
      </trkpt>
      <trkpt lat="47.25893" lon="-2.3259">
        <ele>-5.4000000953674</ele>
        <time>2020-01-30T08:47:04.000Z</time>
      </trkpt>
      <trkpt lat="47.2591" lon="-2.32606">
        <ele>-5.4000000953674</ele>
        <time>2020-01-30T08:47:08.000Z</time>
      </trkpt>
      <trkpt lat="47.25917" lon="-2.32615">
        <ele>-5.4000000953674</ele>
        <time>2020-01-30T08:47:10.000Z</time>
      </trkpt>
      <trkpt lat="47.2593" lon="-2.32634">
        <ele>-5.4000000953674</ele>
        <time>2020-01-30T08:47:14.000Z</time>
      </trkpt>
      <trkpt lat="47.25951" lon="-2.32657">
        <ele>-5.4000000953674</ele>
        <time>2020-01-30T08:47:20.000Z</time>
      </trkpt>
      <trkpt lat="47.25955" lon="-2.32659">
        <ele>-5.4000000953674</ele>
        <time>2020-01-30T08:47:21.000Z</time>
      </trkpt>
      <trkpt lat="47.25964" lon="-2.3266">
        <ele>-5.8000001907349</ele>
        <time>2020-01-30T08:47:23.000Z</time>
      </trkpt>
      <trkpt lat="47.25969" lon="-2.32659">
        <ele>-6.1999998092651</ele>
        <time>2020-01-30T08:47:24.000Z</time>
      </trkpt>
      <trkpt lat="47.25974" lon="-2.32659">
        <ele>-6.5999999046326</ele>
        <time>2020-01-30T08:47:25.000Z</time>
      </trkpt>
      <trkpt lat="47.25979" lon="-2.32659">
        <ele>-7</ele>
        <time>2020-01-30T08:47:26.000Z</time>
      </trkpt>
      <trkpt lat="47.25984" lon="-2.3266">
        <ele>-7.4000000953674</ele>
        <time>2020-01-30T08:47:27.000Z</time>
      </trkpt>
      <trkpt lat="47.25989" lon="-2.32659">
        <ele>-7.4000000953674</ele>
        <time>2020-01-30T08:47:28.000Z</time>
      </trkpt>
      <trkpt lat="47.25999" lon="-2.32658">
        <ele>-7.4000000953674</ele>
        <time>2020-01-30T08:47:30.000Z</time>
      </trkpt>
      <trkpt lat="47.26039" lon="-2.32651">
        <ele>-7.4000000953674</ele>
        <time>2020-01-30T08:47:38.000Z</time>
      </trkpt>
      <trkpt lat="47.26073" lon="-2.32644">
        <ele>-7</ele>
        <time>2020-01-30T08:47:45.000Z</time>
      </trkpt>
      <trkpt lat="47.26078" lon="-2.32644">
        <ele>-6.5999999046326</ele>
        <time>2020-01-30T08:47:46.000Z</time>
      </trkpt>
      <trkpt lat="47.26083" lon="-2.32643">
        <ele>-6.1999998092651</ele>
        <time>2020-01-30T08:47:47.000Z</time>
      </trkpt>
      <trkpt lat="47.26087" lon="-2.32642">
        <ele>-5.8000001907349</ele>
        <time>2020-01-30T08:47:48.000Z</time>
      </trkpt>
      <trkpt lat="47.26092" lon="-2.32642">
        <ele>-5.4000000953674</ele>
        <time>2020-01-30T08:47:49.000Z</time>
      </trkpt>
      <trkpt lat="47.26123" lon="-2.32638">
        <ele>-5.4000000953674</ele>
        <time>2020-01-30T08:47:55.000Z</time>
      </trkpt>
      <trkpt lat="47.26157" lon="-2.32647">
        <ele>-5.4000000953674</ele>
        <time>2020-01-30T08:48:02.000Z</time>
      </trkpt>
      <trkpt lat="47.26189" lon="-2.32668">
        <ele>-5.4000000953674</ele>
        <time>2020-01-30T08:48:09.000Z</time>
      </trkpt>
      <trkpt lat="47.26204" lon="-2.32685">
        <ele>-5</ele>
        <time>2020-01-30T08:48:13.000Z</time>
      </trkpt>
      <trkpt lat="47.26208" lon="-2.3269">
        <ele>-4.4000000953674</ele>
        <time>2020-01-30T08:48:14.000Z</time>
      </trkpt>
      <trkpt lat="47.26212" lon="-2.32695">
        <ele>-4</ele>
        <time>2020-01-30T08:48:15.000Z</time>
      </trkpt>
      <trkpt lat="47.26216" lon="-2.327">
        <ele>-3.5999999046326</ele>
        <time>2020-01-30T08:48:16.000Z</time>
      </trkpt>
      <trkpt lat="47.2622" lon="-2.32704">
        <ele>-3.2000000476837</ele>
        <time>2020-01-30T08:48:17.000Z</time>
      </trkpt>
      <trkpt lat="47.26239" lon="-2.32733">
        <ele>-3.7999999523163</ele>
        <time>2020-01-30T08:48:22.000Z</time>
      </trkpt>
      <trkpt lat="47.26243" lon="-2.32739">
        <ele>-4.1999998092651</ele>
        <time>2020-01-30T08:48:23.000Z</time>
      </trkpt>
      <trkpt lat="47.26247" lon="-2.32744">
        <ele>-4.5999999046326</ele>
        <time>2020-01-30T08:48:24.000Z</time>
      </trkpt>
      <trkpt lat="47.26251" lon="-2.3275">
        <ele>-5.1999998092651</ele>
        <time>2020-01-30T08:48:25.000Z</time>
      </trkpt>
      <trkpt lat="47.26256" lon="-2.32756">
        <ele>-5.5999999046326</ele>
        <time>2020-01-30T08:48:26.000Z</time>
      </trkpt>
      <trkpt lat="47.26273" lon="-2.32787">
        <ele>-5.5999999046326</ele>
        <time>2020-01-30T08:48:31.000Z</time>
      </trkpt>
      <trkpt lat="47.26278" lon="-2.328">
        <ele>-5.5999999046326</ele>
        <time>2020-01-30T08:48:33.000Z</time>
      </trkpt>
      <trkpt lat="47.26286" lon="-2.32829">
        <ele>-5.5999999046326</ele>
        <time>2020-01-30T08:48:37.000Z</time>
      </trkpt>
      <trkpt lat="47.26293" lon="-2.32856">
        <ele>-5.5999999046326</ele>
        <time>2020-01-30T08:48:41.000Z</time>
      </trkpt>
      <trkpt lat="47.26307" lon="-2.32864">
        <ele>-5.5999999046326</ele>
        <time>2020-01-30T08:48:44.000Z</time>
      </trkpt>
      <trkpt lat="47.26319" lon="-2.32877">
        <ele>-5.5999999046326</ele>
        <time>2020-01-30T08:48:47.000Z</time>
      </trkpt>
      <trkpt lat="47.26327" lon="-2.32905">
        <ele>-5.5999999046326</ele>
        <time>2020-01-30T08:48:51.000Z</time>
      </trkpt>
      <trkpt lat="47.26329" lon="-2.32912">
        <ele>-5.5999999046326</ele>
        <time>2020-01-30T08:48:52.000Z</time>
      </trkpt>
      <trkpt lat="47.26341" lon="-2.32944">
        <ele>-5.5999999046326</ele>
        <time>2020-01-30T08:48:57.000Z</time>
      </trkpt>
      <trkpt lat="47.26343" lon="-2.3295">
        <ele>-5.5999999046326</ele>
        <time>2020-01-30T08:48:58.000Z</time>
      </trkpt>
      <trkpt lat="47.2635" lon="-2.32969">
        <ele>-5.5999999046326</ele>
        <time>2020-01-30T08:49:01.000Z</time>
      </trkpt>
      <trkpt lat="47.26361" lon="-2.32984">
        <ele>-5.5999999046326</ele>
        <time>2020-01-30T08:49:04.000Z</time>
      </trkpt>
      <trkpt lat="47.26364" lon="-2.3299">
        <ele>-5.5999999046326</ele>
        <time>2020-01-30T08:49:05.000Z</time>
      </trkpt>
      <trkpt lat="47.26365" lon="-2.33004">
        <ele>-5.5999999046326</ele>
        <time>2020-01-30T08:49:07.000Z</time>
      </trkpt>
      <trkpt lat="47.26366" lon="-2.33019">
        <ele>-5.5999999046326</ele>
        <time>2020-01-30T08:49:09.000Z</time>
      </trkpt>
      <trkpt lat="47.26369" lon="-2.33049">
        <ele>-5.5999999046326</ele>
        <time>2020-01-30T08:49:13.000Z</time>
      </trkpt>
      <trkpt lat="47.26371" lon="-2.33094">
        <ele>-6</ele>
        <time>2020-01-30T08:49:19.000Z</time>
      </trkpt>
      <trkpt lat="47.26371" lon="-2.33101">
        <ele>-6.4000000953674</ele>
        <time>2020-01-30T08:49:20.000Z</time>
      </trkpt>
      <trkpt lat="47.26372" lon="-2.33108">
        <ele>-6.8000001907349</ele>
        <time>2020-01-30T08:49:21.000Z</time>
      </trkpt>
      <trkpt lat="47.26373" lon="-2.33116">
        <ele>-7.5999999046326</ele>
        <time>2020-01-30T08:49:22.000Z</time>
      </trkpt>
      <trkpt lat="47.26376" lon="-2.33168">
        <ele>-7.5999999046326</ele>
        <time>2020-01-30T08:49:29.000Z</time>
      </trkpt>
      <trkpt lat="47.26377" lon="-2.33182">
        <ele>-7.1999998092651</ele>
        <time>2020-01-30T08:49:31.000Z</time>
      </trkpt>
      <trkpt lat="47.26377" lon="-2.33189">
        <ele>-6.8000001907349</ele>
        <time>2020-01-30T08:49:32.000Z</time>
      </trkpt>
      <trkpt lat="47.26378" lon="-2.33196">
        <ele>-6.4000000953674</ele>
        <time>2020-01-30T08:49:33.000Z</time>
      </trkpt>
      <trkpt lat="47.26378" lon="-2.33203">
        <ele>-6</ele>
        <time>2020-01-30T08:49:34.000Z</time>
      </trkpt>
      <trkpt lat="47.26378" lon="-2.3321">
        <ele>-5.5999999046326</ele>
        <time>2020-01-30T08:49:35.000Z</time>
      </trkpt>
      <trkpt lat="47.26379" lon="-2.33223">
        <ele>-5.5999999046326</ele>
        <time>2020-01-30T08:49:37.000Z</time>
      </trkpt>
      <trkpt lat="47.26382" lon="-2.33249">
        <ele>-5.5999999046326</ele>
        <time>2020-01-30T08:49:41.000Z</time>
      </trkpt>
      <trkpt lat="47.26388" lon="-2.3326">
        <ele>-5.5999999046326</ele>
        <time>2020-01-30T08:49:43.000Z</time>
      </trkpt>
      <trkpt lat="47.26401" lon="-2.33268">
        <ele>-5.5999999046326</ele>
        <time>2020-01-30T08:49:46.000Z</time>
      </trkpt>
      <trkpt lat="47.26406" lon="-2.33268">
        <ele>-6.4000000953674</ele>
        <time>2020-01-30T08:49:47.000Z</time>
      </trkpt>
      <trkpt lat="47.26411" lon="-2.33268">
        <ele>-6.8000001907349</ele>
        <time>2020-01-30T08:49:48.000Z</time>
      </trkpt>
      <trkpt lat="47.26416" lon="-2.33269">
        <ele>-7.1999998092651</ele>
        <time>2020-01-30T08:49:49.000Z</time>
      </trkpt>
      <trkpt lat="47.26421" lon="-2.3327">
        <ele>-7.5999999046326</ele>
        <time>2020-01-30T08:49:50.000Z</time>
      </trkpt>
      <trkpt lat="47.26431" lon="-2.3327">
        <ele>-7.5999999046326</ele>
        <time>2020-01-30T08:49:52.000Z</time>
      </trkpt>
      <trkpt lat="47.26465" lon="-2.33276">
        <ele>-7.5999999046326</ele>
        <time>2020-01-30T08:49:59.000Z</time>
      </trkpt>
      <trkpt lat="47.26469" lon="-2.33277">
        <ele>-7.5999999046326</ele>
        <time>2020-01-30T08:50:00.000Z</time>
      </trkpt>
      <trkpt lat="47.26485" lon="-2.33278">
        <ele>-7.5999999046326</ele>
        <time>2020-01-30T08:50:04.000Z</time>
      </trkpt>
      <trkpt lat="47.26488" lon="-2.33279">
        <ele>-7.5999999046326</ele>
        <time>2020-01-30T08:50:05.000Z</time>
      </trkpt>
      <trkpt lat="47.26506" lon="-2.33286">
        <ele>-7.5999999046326</ele>
        <time>2020-01-30T08:50:10.000Z</time>
      </trkpt>
      <trkpt lat="47.26527" lon="-2.33289">
        <ele>-7.5999999046326</ele>
        <time>2020-01-30T08:50:15.000Z</time>
      </trkpt>
      <trkpt lat="47.26533" lon="-2.33293">
        <ele>-7.5999999046326</ele>
        <time>2020-01-30T08:50:17.000Z</time>
      </trkpt>
      <trkpt lat="47.26534" lon="-2.33297">
        <ele>-7.5999999046326</ele>
        <time>2020-01-30T08:50:18.000Z</time>
      </trkpt>
      <trkpt lat="47.26539" lon="-2.33301">
        <ele>-7.5999999046326</ele>
        <time>2020-01-30T08:50:20.000Z</time>
      </trkpt>
      <trkpt lat="47.26541" lon="-2.33299">
        <ele>-7.5999999046326</ele>
        <time>2020-01-30T08:50:21.000Z</time>
      </trkpt>
      <trkpt lat="47.26549" lon="-2.33287">
        <ele>-7.5999999046326</ele>
        <time>2020-01-30T08:50:24.000Z</time>
      </trkpt>
      <trkpt lat="47.26553" lon="-2.33284">
        <ele>-7.5999999046326</ele>
        <time>2020-01-30T08:50:25.000Z</time>
      </trkpt>
      <trkpt lat="47.26579" lon="-2.33257">
        <ele>-7.5999999046326</ele>
        <time>2020-01-30T08:50:32.000Z</time>
      </trkpt>
      <trkpt lat="47.26618" lon="-2.33216">
        <ele>-7.5999999046326</ele>
        <time>2020-01-30T08:50:41.000Z</time>
      </trkpt>
      <trkpt lat="47.26623" lon="-2.33211">
        <ele>-7.5999999046326</ele>
        <time>2020-01-30T08:50:42.000Z</time>
      </trkpt>
      <trkpt lat="47.26641" lon="-2.33193">
        <ele>-7.5999999046326</ele>
        <time>2020-01-30T08:50:46.000Z</time>
      </trkpt>
      <trkpt lat="47.2667" lon="-2.33164">
        <ele>-7.5999999046326</ele>
        <time>2020-01-30T08:50:54.000Z</time>
      </trkpt>
      <trkpt lat="47.26673" lon="-2.33162">
        <ele>-7.5999999046326</ele>
        <time>2020-01-30T08:50:57.000Z</time>
      </trkpt>
      <trkpt lat="47.26679" lon="-2.33166">
        <ele>-7.5999999046326</ele>
        <time>2020-01-30T08:51:01.000Z</time>
      </trkpt>
      <trkpt lat="47.26681" lon="-2.33168">
        <ele>-7.5999999046326</ele>
        <time>2020-01-30T08:51:02.000Z</time>
      </trkpt>
      <trkpt lat="47.26688" lon="-2.3318">
        <ele>-7.5999999046326</ele>
        <time>2020-01-30T08:51:05.000Z</time>
      </trkpt>
      <trkpt lat="47.26689" lon="-2.33186">
        <ele>-7.5999999046326</ele>
        <time>2020-01-30T08:51:06.000Z</time>
      </trkpt>
      <trkpt lat="47.26695" lon="-2.33207">
        <ele>-7.5999999046326</ele>
        <time>2020-01-30T08:51:10.000Z</time>
      </trkpt>
      <trkpt lat="47.26694" lon="-2.33212">
        <ele>-7.5999999046326</ele>
        <time>2020-01-30T08:51:11.000Z</time>
      </trkpt>
      <trkpt lat="47.26695" lon="-2.33222">
        <ele>-7.5999999046326</ele>
        <time>2020-01-30T08:51:13.000Z</time>
      </trkpt>
      <trkpt lat="47.26702" lon="-2.33244">
        <ele>-7.5999999046326</ele>
        <time>2020-01-30T08:51:17.000Z</time>
      </trkpt>
      <trkpt lat="47.26704" lon="-2.3325">
        <ele>-7.5999999046326</ele>
        <time>2020-01-30T08:51:18.000Z</time>
      </trkpt>
      <trkpt lat="47.26704" lon="-2.33256">
        <ele>-7.5999999046326</ele>
        <time>2020-01-30T08:51:19.000Z</time>
      </trkpt>
      <trkpt lat="47.26705" lon="-2.3327">
        <ele>-7.5999999046326</ele>
        <time>2020-01-30T08:51:21.000Z</time>
      </trkpt>
      <trkpt lat="47.26705" lon="-2.33276">
        <ele>-7.5999999046326</ele>
        <time>2020-01-30T08:51:22.000Z</time>
      </trkpt>
      <trkpt lat="47.26706" lon="-2.33283">
        <ele>-7.5999999046326</ele>
        <time>2020-01-30T08:51:23.000Z</time>
      </trkpt>
      <trkpt lat="47.2671" lon="-2.33302">
        <ele>-7.5999999046326</ele>
        <time>2020-01-30T08:51:26.000Z</time>
      </trkpt>
      <trkpt lat="47.26723" lon="-2.33324">
        <ele>-7.5999999046326</ele>
        <time>2020-01-30T08:51:30.000Z</time>
      </trkpt>
      <trkpt lat="47.26737" lon="-2.33334">
        <ele>-7.5999999046326</ele>
        <time>2020-01-30T08:51:34.000Z</time>
      </trkpt>
      <trkpt lat="47.26746" lon="-2.33343">
        <ele>-7.5999999046326</ele>
        <time>2020-01-30T08:51:38.000Z</time>
      </trkpt>
      <trkpt lat="47.26746" lon="-2.33346">
        <ele>-7.5999999046326</ele>
        <time>2020-01-30T08:51:39.000Z</time>
      </trkpt>
      <trkpt lat="47.26749" lon="-2.33369">
        <ele>-7.5999999046326</ele>
        <time>2020-01-30T08:51:44.000Z</time>
      </trkpt>
      <trkpt lat="47.26753" lon="-2.334">
        <ele>-7.5999999046326</ele>
        <time>2020-01-30T08:51:49.000Z</time>
      </trkpt>
      <trkpt lat="47.26758" lon="-2.33439">
        <ele>-7.5999999046326</ele>
        <time>2020-01-30T08:51:54.000Z</time>
      </trkpt>
      <trkpt lat="47.26759" lon="-2.33447">
        <ele>-7.5999999046326</ele>
        <time>2020-01-30T08:51:55.000Z</time>
      </trkpt>
      <trkpt lat="47.26768" lon="-2.33509">
        <ele>-7.5999999046326</ele>
        <time>2020-01-30T08:52:03.000Z</time>
      </trkpt>
      <trkpt lat="47.2677" lon="-2.33516">
        <ele>-7.5999999046326</ele>
        <time>2020-01-30T08:52:04.000Z</time>
      </trkpt>
      <trkpt lat="47.26776" lon="-2.33545">
        <ele>-7.5999999046326</ele>
        <time>2020-01-30T08:52:08.000Z</time>
      </trkpt>
      <trkpt lat="47.26782" lon="-2.33565">
        <ele>-7.5999999046326</ele>
        <time>2020-01-30T08:52:12.000Z</time>
      </trkpt>
      <trkpt lat="47.26786" lon="-2.33566">
        <ele>-7.5999999046326</ele>
        <time>2020-01-30T08:52:13.000Z</time>
      </trkpt>
      <trkpt lat="47.26805" lon="-2.3356">
        <ele>-7.5999999046326</ele>
        <time>2020-01-30T08:52:17.000Z</time>
      </trkpt>
      <trkpt lat="47.2681" lon="-2.33557">
        <ele>-7.5999999046326</ele>
        <time>2020-01-30T08:52:18.000Z</time>
      </trkpt>
      <trkpt lat="47.26831" lon="-2.3355">
        <ele>-7.5999999046326</ele>
        <time>2020-01-30T08:52:22.000Z</time>
      </trkpt>
      <trkpt lat="47.26864" lon="-2.33535">
        <ele>-7.5999999046326</ele>
        <time>2020-01-30T08:52:28.000Z</time>
      </trkpt>
      <trkpt lat="47.26884" lon="-2.33534">
        <ele>-7.1999998092651</ele>
        <time>2020-01-30T08:52:32.000Z</time>
      </trkpt>
      <trkpt lat="47.26888" lon="-2.33536">
        <ele>-6.8000001907349</ele>
        <time>2020-01-30T08:52:33.000Z</time>
      </trkpt>
      <trkpt lat="47.26891" lon="-2.3354">
        <ele>-6.4000000953674</ele>
        <time>2020-01-30T08:52:34.000Z</time>
      </trkpt>
      <trkpt lat="47.26892" lon="-2.33544">
        <ele>-5.8000001907349</ele>
        <time>2020-01-30T08:52:35.000Z</time>
      </trkpt>
      <trkpt lat="47.26894" lon="-2.33548">
        <ele>-5.4000000953674</ele>
        <time>2020-01-30T08:52:36.000Z</time>
      </trkpt>
      <trkpt lat="47.26906" lon="-2.33577">
        <ele>-5.4000000953674</ele>
        <time>2020-01-30T08:52:44.000Z</time>
      </trkpt>
      <trkpt lat="47.26909" lon="-2.33585">
        <ele>-5</ele>
        <time>2020-01-30T08:52:46.000Z</time>
      </trkpt>
      <trkpt lat="47.2691" lon="-2.33588">
        <ele>-4.5999999046326</ele>
        <time>2020-01-30T08:52:47.000Z</time>
      </trkpt>
      <trkpt lat="47.26912" lon="-2.33592">
        <ele>-4.1999998092651</ele>
        <time>2020-01-30T08:52:48.000Z</time>
      </trkpt>
      <trkpt lat="47.26914" lon="-2.33596">
        <ele>-3.7999999523163</ele>
        <time>2020-01-30T08:52:49.000Z</time>
      </trkpt>
      <trkpt lat="47.26915" lon="-2.33601">
        <ele>-3.4000000953674</ele>
        <time>2020-01-30T08:52:50.000Z</time>
      </trkpt>
      <trkpt lat="47.26917" lon="-2.33605">
        <ele>-3.4000000953674</ele>
        <time>2020-01-30T08:52:51.000Z</time>
      </trkpt>
      <trkpt lat="47.26925" lon="-2.33637">
        <ele>-3.4000000953674</ele>
        <time>2020-01-30T08:52:58.000Z</time>
      </trkpt>
      <trkpt lat="47.26932" lon="-2.33668">
        <ele>-3.4000000953674</ele>
        <time>2020-01-30T08:53:04.000Z</time>
      </trkpt>
      <trkpt lat="47.26934" lon="-2.33673">
        <ele>-3</ele>
        <time>2020-01-30T08:53:05.000Z</time>
      </trkpt>
      <trkpt lat="47.26935" lon="-2.33679">
        <ele>-2.5999999046326</ele>
        <time>2020-01-30T08:53:06.000Z</time>
      </trkpt>
      <trkpt lat="47.26936" lon="-2.33684">
        <ele>-2.2000000476837</ele>
        <time>2020-01-30T08:53:07.000Z</time>
      </trkpt>
      <trkpt lat="47.26937" lon="-2.3369">
        <ele>-1.7999999523163</ele>
        <time>2020-01-30T08:53:08.000Z</time>
      </trkpt>
      <trkpt lat="47.26938" lon="-2.33695">
        <ele>-1.3999999761581</ele>
        <time>2020-01-30T08:53:09.000Z</time>
      </trkpt>
      <trkpt lat="47.26939" lon="-2.33701">
        <ele>-1.3999999761581</ele>
        <time>2020-01-30T08:53:10.000Z</time>
      </trkpt>
      <trkpt lat="47.2694" lon="-2.3373">
        <ele>-1.3999999761581</ele>
        <time>2020-01-30T08:53:15.000Z</time>
      </trkpt>
      <trkpt lat="47.26939" lon="-2.33736">
        <ele>-1.3999999761581</ele>
        <time>2020-01-30T08:53:16.000Z</time>
      </trkpt>
      <trkpt lat="47.26931" lon="-2.33779">
        <ele>-1.3999999761581</ele>
        <time>2020-01-30T08:53:23.000Z</time>
      </trkpt>
      <trkpt lat="47.26934" lon="-2.33802">
        <ele>-1.3999999761581</ele>
        <time>2020-01-30T08:53:27.000Z</time>
      </trkpt>
      <trkpt lat="47.26944" lon="-2.33815">
        <ele>-1.3999999761581</ele>
        <time>2020-01-30T08:53:30.000Z</time>
      </trkpt>
      <trkpt lat="47.26948" lon="-2.33819">
        <ele>-1.3999999761581</ele>
        <time>2020-01-30T08:53:31.000Z</time>
      </trkpt>
      <trkpt lat="47.26955" lon="-2.33826">
        <ele>-1.3999999761581</ele>
        <time>2020-01-30T08:53:33.000Z</time>
      </trkpt>
      <trkpt lat="47.26972" lon="-2.33834">
        <ele>-1.3999999761581</ele>
        <time>2020-01-30T08:53:37.000Z</time>
      </trkpt>
      <trkpt lat="47.26995" lon="-2.33846">
        <ele>-1</ele>
        <time>2020-01-30T08:53:43.000Z</time>
      </trkpt>
      <trkpt lat="47.26999" lon="-2.33848">
        <ele>-0.40000000596046</ele>
        <time>2020-01-30T08:53:44.000Z</time>
      </trkpt>
      <trkpt lat="47.27003" lon="-2.3385">
        <ele>13.4</ele>
        <time>2020-01-30T08:53:45.000Z</time>
      </trkpt>
      <trkpt lat="47.27007" lon="-2.33852">
        <ele>0.40000000596046</ele>
        <time>2020-01-30T08:53:46.000Z</time>
      </trkpt>
      <trkpt lat="47.27011" lon="-2.33855">
        <ele>1</ele>
        <time>2020-01-30T08:53:47.000Z</time>
      </trkpt>
      <trkpt lat="47.27018" lon="-2.33862">
        <ele>1.3999999761581</ele>
        <time>2020-01-30T08:53:49.000Z</time>
      </trkpt>
      <trkpt lat="47.27022" lon="-2.33865">
        <ele>1.7999999523163</ele>
        <time>2020-01-30T08:53:50.000Z</time>
      </trkpt>
      <trkpt lat="47.27025" lon="-2.33867">
        <ele>2.2000000476837</ele>
        <time>2020-01-30T08:53:51.000Z</time>
      </trkpt>
      <trkpt lat="47.27028" lon="-2.3387">
        <ele>2.5999999046326</ele>
        <time>2020-01-30T08:53:52.000Z</time>
      </trkpt>
      <trkpt lat="47.27032" lon="-2.33873">
        <ele>3</ele>
        <time>2020-01-30T08:53:53.000Z</time>
      </trkpt>
      <trkpt lat="47.27044" lon="-2.33886">
        <ele>3</ele>
        <time>2020-01-30T08:53:57.000Z</time>
      </trkpt>
      <trkpt lat="47.27063" lon="-2.33902">
        <ele>3</ele>
        <time>2020-01-30T08:54:02.000Z</time>
      </trkpt>
      <trkpt lat="47.2707" lon="-2.33908">
        <ele>3.4000000953674</ele>
        <time>2020-01-30T08:54:04.000Z</time>
      </trkpt>
      <trkpt lat="47.27073" lon="-2.33911">
        <ele>4</ele>
        <time>2020-01-30T08:54:05.000Z</time>
      </trkpt>
      <trkpt lat="47.27077" lon="-2.33914">
        <ele>4.4000000953674</ele>
        <time>2020-01-30T08:54:06.000Z</time>
      </trkpt>
      <trkpt lat="47.2708" lon="-2.33916">
        <ele>4.8000001907349</ele>
        <time>2020-01-30T08:54:07.000Z</time>
      </trkpt>
      <trkpt lat="47.27082" lon="-2.33919">
        <ele>5.1999998092651</ele>
        <time>2020-01-30T08:54:08.000Z</time>
      </trkpt>
      <trkpt lat="47.27085" lon="-2.33922">
        <ele>5.1999998092651</ele>
        <time>2020-01-30T08:54:09.000Z</time>
      </trkpt>
      <trkpt lat="47.2709" lon="-2.33928">
        <ele>5.5999999046326</ele>
        <time>2020-01-30T08:54:11.000Z</time>
      </trkpt>
      <trkpt lat="47.27092" lon="-2.3393">
        <ele>6</ele>
        <time>2020-01-30T08:54:12.000Z</time>
      </trkpt>
      <trkpt lat="47.27094" lon="-2.33933">
        <ele>6.4000000953674</ele>
        <time>2020-01-30T08:54:13.000Z</time>
      </trkpt>
      <trkpt lat="47.27097" lon="-2.33935">
        <ele>6.8000001907349</ele>
        <time>2020-01-30T08:54:14.000Z</time>
      </trkpt>
      <trkpt lat="47.271" lon="-2.33938">
        <ele>7.1999998092651</ele>
        <time>2020-01-30T08:54:15.000Z</time>
      </trkpt>
      <trkpt lat="47.27102" lon="-2.33939">
        <ele>7.1999998092651</ele>
        <time>2020-01-30T08:54:16.000Z</time>
      </trkpt>
      <trkpt lat="47.2711" lon="-2.33944">
        <ele>7.8000001907349</ele>
        <time>2020-01-30T08:54:19.000Z</time>
      </trkpt>
      <trkpt lat="47.27112" lon="-2.33946">
        <ele>8.1999998092651</ele>
        <time>2020-01-30T08:54:20.000Z</time>
      </trkpt>
      <trkpt lat="47.27115" lon="-2.33949">
        <ele>8.6000003814697</ele>
        <time>2020-01-30T08:54:21.000Z</time>
      </trkpt>
      <trkpt lat="47.27118" lon="-2.33952">
        <ele>9</ele>
        <time>2020-01-30T08:54:22.000Z</time>
      </trkpt>
      <trkpt lat="47.27121" lon="-2.33955">
        <ele>9.3999996185303</ele>
        <time>2020-01-30T08:54:23.000Z</time>
      </trkpt>
      <trkpt lat="47.27139" lon="-2.33973">
        <ele>9.3999996185303</ele>
        <time>2020-01-30T08:54:29.000Z</time>
      </trkpt>
      <trkpt lat="47.27163" lon="-2.33998">
        <ele>9.3999996185303</ele>
        <time>2020-01-30T08:54:36.000Z</time>
      </trkpt>
      <trkpt lat="47.27176" lon="-2.34012">
        <ele>9.8000001907349</ele>
        <time>2020-01-30T08:54:40.000Z</time>
      </trkpt>
      <trkpt lat="47.2718" lon="-2.34015">
        <ele>10.199999809265</ele>
        <time>2020-01-30T08:54:41.000Z</time>
      </trkpt>
      <trkpt lat="47.27183" lon="-2.34019">
        <ele>10.60000038147</ele>
        <time>2020-01-30T08:54:42.000Z</time>
      </trkpt>
      <trkpt lat="47.27187" lon="-2.34023">
        <ele>11.39999961853</ele>
        <time>2020-01-30T08:54:43.000Z</time>
      </trkpt>
      <trkpt lat="47.27208" lon="-2.34044">
        <ele>11.39999961853</ele>
        <time>2020-01-30T08:54:49.000Z</time>
      </trkpt>
      <trkpt lat="47.27216" lon="-2.34051">
        <ele>11.39999961853</ele>
        <time>2020-01-30T08:54:51.000Z</time>
      </trkpt>
      <trkpt lat="47.27229" lon="-2.34053">
        <ele>11.800000190735</ele>
        <time>2020-01-30T08:54:54.000Z</time>
      </trkpt>
      <trkpt lat="47.27233" lon="-2.34052">
        <ele>12.39999961853</ele>
        <time>2020-01-30T08:54:55.000Z</time>
      </trkpt>
      <trkpt lat="47.27237" lon="-2.34052">
        <ele>12.800000190735</ele>
        <time>2020-01-30T08:54:56.000Z</time>
      </trkpt>
      <trkpt lat="47.27242" lon="-2.34052">
        <ele>13.199999809265</ele>
        <time>2020-01-30T08:54:57.000Z</time>
      </trkpt>
      <trkpt lat="47.27246" lon="-2.34051">
        <ele>13.60000038147</ele>
        <time>2020-01-30T08:54:58.000Z</time>
      </trkpt>
      <trkpt lat="47.27254" lon="-2.34051">
        <ele>13.60000038147</ele>
        <time>2020-01-30T08:55:00.000Z</time>
      </trkpt>
      <trkpt lat="47.27259" lon="-2.34052">
        <ele>13.60000038147</ele>
        <time>2020-01-30T08:55:01.000Z</time>
      </trkpt>
      <trkpt lat="47.2727" lon="-2.3406">
        <ele>13.60000038147</ele>
        <time>2020-01-30T08:55:04.000Z</time>
      </trkpt>
      <trkpt lat="47.27279" lon="-2.34081">
        <ele>13.60000038147</ele>
        <time>2020-01-30T08:55:08.000Z</time>
      </trkpt>
      <trkpt lat="47.2728" lon="-2.34087">
        <ele>13.60000038147</ele>
        <time>2020-01-30T08:55:09.000Z</time>
      </trkpt>
      <trkpt lat="47.27285" lon="-2.34114">
        <ele>13.60000038147</ele>
        <time>2020-01-30T08:55:13.000Z</time>
      </trkpt>
      <trkpt lat="47.27289" lon="-2.34119">
        <ele>13.60000038147</ele>
        <time>2020-01-30T08:55:14.000Z</time>
      </trkpt>
      <trkpt lat="47.27304" lon="-2.34131">
        <ele>13.60000038147</ele>
        <time>2020-01-30T08:55:18.000Z</time>
      </trkpt>
      <trkpt lat="47.27336" lon="-2.34153">
        <ele>13.60000038147</ele>
        <time>2020-01-30T08:55:25.000Z</time>
      </trkpt>
      <trkpt lat="47.27366" lon="-2.34171">
        <ele>13.60000038147</ele>
        <time>2020-01-30T08:55:32.000Z</time>
      </trkpt>
      <trkpt lat="47.27389" lon="-2.34189">
        <ele>13.60000038147</ele>
        <time>2020-01-30T08:55:38.000Z</time>
      </trkpt>
      <trkpt lat="47.27392" lon="-2.34194">
        <ele>13.60000038147</ele>
        <time>2020-01-30T08:55:40.000Z</time>
      </trkpt>
      <trkpt lat="47.27393" lon="-2.34197">
        <ele>13.199999809265</ele>
        <time>2020-01-30T08:55:41.000Z</time>
      </trkpt>
      <trkpt lat="47.27394" lon="-2.34198">
        <ele>12.800000190735</ele>
        <time>2020-01-30T08:55:42.000Z</time>
      </trkpt>
      <trkpt lat="47.27395" lon="-2.34199">
        <ele>12.39999961853</ele>
        <time>2020-01-30T08:55:43.000Z</time>
      </trkpt>
      <trkpt lat="47.27397" lon="-2.34202">
        <ele>11.800000190735</ele>
        <time>2020-01-30T08:55:44.000Z</time>
      </trkpt>
      <trkpt lat="47.27398" lon="-2.34205">
        <ele>11.39999961853</ele>
        <time>2020-01-30T08:55:45.000Z</time>
      </trkpt>
      <trkpt lat="47.27399" lon="-2.34209">
        <ele>11.39999961853</ele>
        <time>2020-01-30T08:55:46.000Z</time>
      </trkpt>
      <trkpt lat="47.27403" lon="-2.34233">
        <ele>11.39999961853</ele>
        <time>2020-01-30T08:55:52.000Z</time>
      </trkpt>
      <trkpt lat="47.27403" lon="-2.34235">
        <ele>11.39999961853</ele>
        <time>2020-01-30T08:55:54.000Z</time>
      </trkpt>
      <trkpt lat="47.27405" lon="-2.34237">
        <ele>11.39999961853</ele>
        <time>2020-01-30T08:55:58.000Z</time>
      </trkpt>
      <trkpt lat="47.27413" lon="-2.34249">
        <ele>11.39999961853</ele>
        <time>2020-01-30T08:56:02.000Z</time>
      </trkpt>
      <trkpt lat="47.27413" lon="-2.34261">
        <ele>11.39999961853</ele>
        <time>2020-01-30T08:56:04.000Z</time>
      </trkpt>
      <trkpt lat="47.27414" lon="-2.34267">
        <ele>11.39999961853</ele>
        <time>2020-01-30T08:56:05.000Z</time>
      </trkpt>
      <trkpt lat="47.27417" lon="-2.34292">
        <ele>11.39999961853</ele>
        <time>2020-01-30T08:56:09.000Z</time>
      </trkpt>
      <trkpt lat="47.27418" lon="-2.34299">
        <ele>11.39999961853</ele>
        <time>2020-01-30T08:56:10.000Z</time>
      </trkpt>
      <trkpt lat="47.27417" lon="-2.3432">
        <ele>11.39999961853</ele>
        <time>2020-01-30T08:56:13.000Z</time>
      </trkpt>
      <trkpt lat="47.27417" lon="-2.34326">
        <ele>11.800000190735</ele>
        <time>2020-01-30T08:56:14.000Z</time>
      </trkpt>
      <trkpt lat="47.27416" lon="-2.34332">
        <ele>12.39999961853</ele>
        <time>2020-01-30T08:56:15.000Z</time>
      </trkpt>
      <trkpt lat="47.27416" lon="-2.34336">
        <ele>12.800000190735</ele>
        <time>2020-01-30T08:56:16.000Z</time>
      </trkpt>
      <trkpt lat="47.27417" lon="-2.34341">
        <ele>13.199999809265</ele>
        <time>2020-01-30T08:56:17.000Z</time>
      </trkpt>
      <trkpt lat="47.27418" lon="-2.34345">
        <ele>13.60000038147</ele>
        <time>2020-01-30T08:56:18.000Z</time>
      </trkpt>
      <trkpt lat="47.27418" lon="-2.34349">
        <ele>13.60000038147</ele>
        <time>2020-01-30T08:56:19.000Z</time>
      </trkpt>
      <trkpt lat="47.27419" lon="-2.34357">
        <ele>13.60000038147</ele>
        <time>2020-01-30T08:56:21.000Z</time>
      </trkpt>
      <trkpt lat="47.27421" lon="-2.34385">
        <ele>13.60000038147</ele>
        <time>2020-01-30T08:56:27.000Z</time>
      </trkpt>
      <trkpt lat="47.27424" lon="-2.34417">
        <ele>13.60000038147</ele>
        <time>2020-01-30T08:56:33.000Z</time>
      </trkpt>
      <trkpt lat="47.27425" lon="-2.34458">
        <ele>14</ele>
        <time>2020-01-30T08:56:40.000Z</time>
      </trkpt>
      <trkpt lat="47.27426" lon="-2.34464">
        <ele>14.39999961853</ele>
        <time>2020-01-30T08:56:41.000Z</time>
      </trkpt>
      <trkpt lat="47.27427" lon="-2.34469">
        <ele>14.800000190735</ele>
        <time>2020-01-30T08:56:42.000Z</time>
      </trkpt>
      <trkpt lat="47.27427" lon="-2.34476">
        <ele>15.199999809265</ele>
        <time>2020-01-30T08:56:43.000Z</time>
      </trkpt>
      <trkpt lat="47.27427" lon="-2.34482">
        <ele>15.60000038147</ele>
        <time>2020-01-30T08:56:44.000Z</time>
      </trkpt>
      <trkpt lat="47.27428" lon="-2.34488">
        <ele>15.60000038147</ele>
        <time>2020-01-30T08:56:45.000Z</time>
      </trkpt>
      <trkpt lat="47.2743" lon="-2.34501">
        <ele>15.60000038147</ele>
        <time>2020-01-30T08:56:47.000Z</time>
      </trkpt>
      <trkpt lat="47.27442" lon="-2.34544">
        <ele>15.60000038147</ele>
        <time>2020-01-30T08:56:54.000Z</time>
      </trkpt>
      <trkpt lat="47.27449" lon="-2.3458">
        <ele>15.60000038147</ele>
        <time>2020-01-30T08:57:00.000Z</time>
      </trkpt>
      <trkpt lat="47.2745" lon="-2.34593">
        <ele>15.60000038147</ele>
        <time>2020-01-30T08:57:02.000Z</time>
      </trkpt>
      <trkpt lat="47.27452" lon="-2.34608">
        <ele>15.60000038147</ele>
        <time>2020-01-30T08:57:04.000Z</time>
      </trkpt>
      <trkpt lat="47.27454" lon="-2.34629">
        <ele>15.60000038147</ele>
        <time>2020-01-30T08:57:07.000Z</time>
      </trkpt>
      <trkpt lat="47.27456" lon="-2.34643">
        <ele>15.60000038147</ele>
        <time>2020-01-30T08:57:09.000Z</time>
      </trkpt>
      <trkpt lat="47.27456" lon="-2.3465">
        <ele>15.60000038147</ele>
        <time>2020-01-30T08:57:10.000Z</time>
      </trkpt>
      <trkpt lat="47.27457" lon="-2.34664">
        <ele>15.60000038147</ele>
        <time>2020-01-30T08:57:12.000Z</time>
      </trkpt>
      <trkpt lat="47.27459" lon="-2.34685">
        <ele>15.60000038147</ele>
        <time>2020-01-30T08:57:15.000Z</time>
      </trkpt>
      <trkpt lat="47.27469" lon="-2.34692">
        <ele>15.60000038147</ele>
        <time>2020-01-30T08:57:18.000Z</time>
      </trkpt>
      <trkpt lat="47.27482" lon="-2.34684">
        <ele>15.60000038147</ele>
        <time>2020-01-30T08:57:21.000Z</time>
      </trkpt>
      <trkpt lat="47.27486" lon="-2.34682">
        <ele>15.60000038147</ele>
        <time>2020-01-30T08:57:22.000Z</time>
      </trkpt>
      <trkpt lat="47.27509" lon="-2.34677">
        <ele>15.60000038147</ele>
        <time>2020-01-30T08:57:27.000Z</time>
      </trkpt>
      <trkpt lat="47.27536" lon="-2.34674">
        <ele>15.60000038147</ele>
        <time>2020-01-30T08:57:32.000Z</time>
      </trkpt>
      <trkpt lat="47.27554" lon="-2.34669">
        <ele>15.60000038147</ele>
        <time>2020-01-30T08:57:35.000Z</time>
      </trkpt>
      <trkpt lat="47.27565" lon="-2.34663">
        <ele>15.60000038147</ele>
        <time>2020-01-30T08:57:37.000Z</time>
      </trkpt>
      <trkpt lat="47.27576" lon="-2.34655">
        <ele>15.60000038147</ele>
        <time>2020-01-30T08:57:39.000Z</time>
      </trkpt>
      <trkpt lat="47.27598" lon="-2.34636">
        <ele>15.60000038147</ele>
        <time>2020-01-30T08:57:43.000Z</time>
      </trkpt>
      <trkpt lat="47.27613" lon="-2.34619">
        <ele>15.199999809265</ele>
        <time>2020-01-30T08:57:46.000Z</time>
      </trkpt>
      <trkpt lat="47.27619" lon="-2.34613">
        <ele>14.800000190735</ele>
        <time>2020-01-30T08:57:47.000Z</time>
      </trkpt>
      <trkpt lat="47.27624" lon="-2.34608">
        <ele>14.39999961853</ele>
        <time>2020-01-30T08:57:48.000Z</time>
      </trkpt>
      <trkpt lat="47.27629" lon="-2.34603">
        <ele>14</ele>
        <time>2020-01-30T08:57:49.000Z</time>
      </trkpt>
      <trkpt lat="47.27635" lon="-2.34598">
        <ele>13.60000038147</ele>
        <time>2020-01-30T08:57:50.000Z</time>
      </trkpt>
      <trkpt lat="47.27655" lon="-2.34579">
        <ele>13.60000038147</ele>
        <time>2020-01-30T08:57:54.000Z</time>
      </trkpt>
      <trkpt lat="47.27689" lon="-2.34545">
        <ele>13.60000038147</ele>
        <time>2020-01-30T08:58:01.000Z</time>
      </trkpt>
      <trkpt lat="47.27713" lon="-2.34521">
        <ele>13.60000038147</ele>
        <time>2020-01-30T08:58:06.000Z</time>
      </trkpt>
      <trkpt lat="47.27733" lon="-2.34504">
        <ele>13.60000038147</ele>
        <time>2020-01-30T08:58:10.000Z</time>
      </trkpt>
      <trkpt lat="47.27738" lon="-2.34501">
        <ele>13.60000038147</ele>
        <time>2020-01-30T08:58:11.000Z</time>
      </trkpt>
      <trkpt lat="47.2775" lon="-2.34493">
        <ele>13.60000038147</ele>
        <time>2020-01-30T08:58:14.000Z</time>
      </trkpt>
      <trkpt lat="47.27758" lon="-2.34487">
        <ele>13.60000038147</ele>
        <time>2020-01-30T08:58:16.000Z</time>
      </trkpt>
      <trkpt lat="47.2777" lon="-2.34479">
        <ele>13.60000038147</ele>
        <time>2020-01-30T08:58:19.000Z</time>
      </trkpt>
      <trkpt lat="47.2778" lon="-2.34468">
        <ele>13.60000038147</ele>
        <time>2020-01-30T08:58:22.000Z</time>
      </trkpt>
      <trkpt lat="47.27783" lon="-2.34464">
        <ele>13.60000038147</ele>
        <time>2020-01-30T08:58:23.000Z</time>
      </trkpt>
      <trkpt lat="47.27792" lon="-2.34448">
        <ele>13.60000038147</ele>
        <time>2020-01-30T08:58:26.000Z</time>
      </trkpt>
      <trkpt lat="47.2781" lon="-2.34419">
        <ele>13.60000038147</ele>
        <time>2020-01-30T08:58:33.000Z</time>
      </trkpt>
      <trkpt lat="47.27833" lon="-2.34386">
        <ele>13.60000038147</ele>
        <time>2020-01-30T08:58:40.000Z</time>
      </trkpt>
      <trkpt lat="47.2784" lon="-2.34376">
        <ele>14</ele>
        <time>2020-01-30T08:58:42.000Z</time>
      </trkpt>
      <trkpt lat="47.27843" lon="-2.34371">
        <ele>14.39999961853</ele>
        <time>2020-01-30T08:58:43.000Z</time>
      </trkpt>
      <trkpt lat="47.27847" lon="-2.34366">
        <ele>14.800000190735</ele>
        <time>2020-01-30T08:58:44.000Z</time>
      </trkpt>
      <trkpt lat="47.2785" lon="-2.34361">
        <ele>15.199999809265</ele>
        <time>2020-01-30T08:58:45.000Z</time>
      </trkpt>
      <trkpt lat="47.27853" lon="-2.34356">
        <ele>15.800000190735</ele>
        <time>2020-01-30T08:58:46.000Z</time>
      </trkpt>
      <trkpt lat="47.27856" lon="-2.34351">
        <ele>15.800000190735</ele>
        <time>2020-01-30T08:58:47.000Z</time>
      </trkpt>
      <trkpt lat="47.27883" lon="-2.34311">
        <ele>15.800000190735</ele>
        <time>2020-01-30T08:58:56.000Z</time>
      </trkpt>
      <trkpt lat="47.27892" lon="-2.34293">
        <ele>15.800000190735</ele>
        <time>2020-01-30T08:59:01.000Z</time>
      </trkpt>
      <trkpt lat="47.279" lon="-2.34285">
        <ele>15.800000190735</ele>
        <time>2020-01-30T08:59:05.000Z</time>
      </trkpt>
      <trkpt lat="47.27905" lon="-2.34288">
        <ele>15.800000190735</ele>
        <time>2020-01-30T08:59:07.000Z</time>
      </trkpt>
      <trkpt lat="47.27916" lon="-2.34307">
        <ele>15.800000190735</ele>
        <time>2020-01-30T08:59:11.000Z</time>
      </trkpt>
      <trkpt lat="47.27937" lon="-2.34349">
        <ele>15.800000190735</ele>
        <time>2020-01-30T08:59:18.000Z</time>
      </trkpt>
      <trkpt lat="47.2794" lon="-2.34356">
        <ele>16.200000762939</ele>
        <time>2020-01-30T08:59:19.000Z</time>
      </trkpt>
      <trkpt lat="47.27944" lon="-2.34362">
        <ele>16.60000038147</ele>
        <time>2020-01-30T08:59:20.000Z</time>
      </trkpt>
      <trkpt lat="47.27948" lon="-2.34368">
        <ele>17</ele>
        <time>2020-01-30T08:59:21.000Z</time>
      </trkpt>
      <trkpt lat="47.27951" lon="-2.34374">
        <ele>17.39999961853</ele>
        <time>2020-01-30T08:59:22.000Z</time>
      </trkpt>
      <trkpt lat="47.27955" lon="-2.3438">
        <ele>17.799999237061</ele>
        <time>2020-01-30T08:59:23.000Z</time>
      </trkpt>
      <trkpt lat="47.27967" lon="-2.34398">
        <ele>17.799999237061</ele>
        <time>2020-01-30T08:59:26.000Z</time>
      </trkpt>
      <trkpt lat="47.27989" lon="-2.3443">
        <ele>17.799999237061</ele>
        <time>2020-01-30T08:59:32.000Z</time>
      </trkpt>
      <trkpt lat="47.28004" lon="-2.34458">
        <ele>17.799999237061</ele>
        <time>2020-01-30T08:59:37.000Z</time>
      </trkpt>
      <trkpt lat="47.28004" lon="-2.34465">
        <ele>17.799999237061</ele>
        <time>2020-01-30T08:59:38.000Z</time>
      </trkpt>
      <trkpt lat="47.27999" lon="-2.34487">
        <ele>17.799999237061</ele>
        <time>2020-01-30T08:59:41.000Z</time>
      </trkpt>
      <trkpt lat="47.27989" lon="-2.34507">
        <ele>17.799999237061</ele>
        <time>2020-01-30T08:59:44.000Z</time>
      </trkpt>
      <trkpt lat="47.27983" lon="-2.3452">
        <ele>17.799999237061</ele>
        <time>2020-01-30T08:59:46.000Z</time>
      </trkpt>
      <trkpt lat="47.27978" lon="-2.34534">
        <ele>17.799999237061</ele>
        <time>2020-01-30T08:59:48.000Z</time>
      </trkpt>
      <trkpt lat="47.27974" lon="-2.34558">
        <ele>17.799999237061</ele>
        <time>2020-01-30T08:59:51.000Z</time>
      </trkpt>
      <trkpt lat="47.27981" lon="-2.34585">
        <ele>17.799999237061</ele>
        <time>2020-01-30T08:59:55.000Z</time>
      </trkpt>
      <trkpt lat="47.27983" lon="-2.34592">
        <ele>17.799999237061</ele>
        <time>2020-01-30T08:59:56.000Z</time>
      </trkpt>
      <trkpt lat="47.27996" lon="-2.34634">
        <ele>17.799999237061</ele>
        <time>2020-01-30T09:00:02.000Z</time>
      </trkpt>
      <trkpt lat="47.28001" lon="-2.3467">
        <ele>17.39999961853</ele>
        <time>2020-01-30T09:00:07.000Z</time>
      </trkpt>
      <trkpt lat="47.28002" lon="-2.34677">
        <ele>17</ele>
        <time>2020-01-30T09:00:08.000Z</time>
      </trkpt>
      <trkpt lat="47.28003" lon="-2.34685">
        <ele>16.60000038147</ele>
        <time>2020-01-30T09:00:09.000Z</time>
      </trkpt>
      <trkpt lat="47.28003" lon="-2.34693">
        <ele>16.200000762939</ele>
        <time>2020-01-30T09:00:10.000Z</time>
      </trkpt>
      <trkpt lat="47.28004" lon="-2.347">
        <ele>15.60000038147</ele>
        <time>2020-01-30T09:00:11.000Z</time>
      </trkpt>
      <trkpt lat="47.28005" lon="-2.34733">
        <ele>15.60000038147</ele>
        <time>2020-01-30T09:00:15.000Z</time>
      </trkpt>
      <trkpt lat="47.28006" lon="-2.34757">
        <ele>15.60000038147</ele>
        <time>2020-01-30T09:00:18.000Z</time>
      </trkpt>
      <trkpt lat="47.28011" lon="-2.34772">
        <ele>15.60000038147</ele>
        <time>2020-01-30T09:00:20.000Z</time>
      </trkpt>
      <trkpt lat="47.2803" lon="-2.34823">
        <ele>15.60000038147</ele>
        <time>2020-01-30T09:00:27.000Z</time>
      </trkpt>
      <trkpt lat="47.28049" lon="-2.3487">
        <ele>15.60000038147</ele>
        <time>2020-01-30T09:00:34.000Z</time>
      </trkpt>
      <trkpt lat="47.28051" lon="-2.34878">
        <ele>15.60000038147</ele>
        <time>2020-01-30T09:00:35.000Z</time>
      </trkpt>
      <trkpt lat="47.28054" lon="-2.34887">
        <ele>15.199999809265</ele>
        <time>2020-01-30T09:00:36.000Z</time>
      </trkpt>
      <trkpt lat="47.28056" lon="-2.34895">
        <ele>14.800000190735</ele>
        <time>2020-01-30T09:00:37.000Z</time>
      </trkpt>
      <trkpt lat="47.28058" lon="-2.34903">
        <ele>14.39999961853</ele>
        <time>2020-01-30T09:00:38.000Z</time>
      </trkpt>
      <trkpt lat="47.28059" lon="-2.34911">
        <ele>14</ele>
        <time>2020-01-30T09:00:39.000Z</time>
      </trkpt>
      <trkpt lat="47.28061" lon="-2.3492">
        <ele>13.60000038147</ele>
        <time>2020-01-30T09:00:40.000Z</time>
      </trkpt>
      <trkpt lat="47.28067" lon="-2.34957">
        <ele>13.60000038147</ele>
        <time>2020-01-30T09:00:44.000Z</time>
      </trkpt>
      <trkpt lat="47.28081" lon="-2.35">
        <ele>13.60000038147</ele>
        <time>2020-01-30T09:00:49.000Z</time>
      </trkpt>
      <trkpt lat="47.28101" lon="-2.35033">
        <ele>13.60000038147</ele>
        <time>2020-01-30T09:00:54.000Z</time>
      </trkpt>
      <trkpt lat="47.28118" lon="-2.35062">
        <ele>13.60000038147</ele>
        <time>2020-01-30T09:00:59.000Z</time>
      </trkpt>
      <trkpt lat="47.28126" lon="-2.35078">
        <ele>13.60000038147</ele>
        <time>2020-01-30T09:01:02.000Z</time>
      </trkpt>
      <trkpt lat="47.28138" lon="-2.35095">
        <ele>13.60000038147</ele>
        <time>2020-01-30T09:01:05.000Z</time>
      </trkpt>
      <trkpt lat="47.28166" lon="-2.35124">
        <ele>13.60000038147</ele>
        <time>2020-01-30T09:01:12.000Z</time>
      </trkpt>
      <trkpt lat="47.28179" lon="-2.35145">
        <ele>13.60000038147</ele>
        <time>2020-01-30T09:01:16.000Z</time>
      </trkpt>
      <trkpt lat="47.28181" lon="-2.35151">
        <ele>13.60000038147</ele>
        <time>2020-01-30T09:01:17.000Z</time>
      </trkpt>
      <trkpt lat="47.28185" lon="-2.35157">
        <ele>13.60000038147</ele>
        <time>2020-01-30T09:01:18.000Z</time>
      </trkpt>
      <trkpt lat="47.28195" lon="-2.35178">
        <ele>13.60000038147</ele>
        <time>2020-01-30T09:01:21.000Z</time>
      </trkpt>
      <trkpt lat="47.28224" lon="-2.35229">
        <ele>13.60000038147</ele>
        <time>2020-01-30T09:01:29.000Z</time>
      </trkpt>
      <trkpt lat="47.28242" lon="-2.35267">
        <ele>13.60000038147</ele>
        <time>2020-01-30T09:01:35.000Z</time>
      </trkpt>
      <trkpt lat="47.28245" lon="-2.35274">
        <ele>14</ele>
        <time>2020-01-30T09:01:36.000Z</time>
      </trkpt>
      <trkpt lat="47.28247" lon="-2.35281">
        <ele>14.60000038147</ele>
        <time>2020-01-30T09:01:37.000Z</time>
      </trkpt>
      <trkpt lat="47.28249" lon="-2.35289">
        <ele>15</ele>
        <time>2020-01-30T09:01:38.000Z</time>
      </trkpt>
      <trkpt lat="47.28251" lon="-2.35296">
        <ele>15.39999961853</ele>
        <time>2020-01-30T09:01:39.000Z</time>
      </trkpt>
      <trkpt lat="47.28252" lon="-2.35304">
        <ele>15.800000190735</ele>
        <time>2020-01-30T09:01:40.000Z</time>
      </trkpt>
      <trkpt lat="47.28254" lon="-2.35314">
        <ele>15.800000190735</ele>
        <time>2020-01-30T09:01:41.000Z</time>
      </trkpt>
      <trkpt lat="47.28255" lon="-2.35322">
        <ele>15.800000190735</ele>
        <time>2020-01-30T09:01:42.000Z</time>
      </trkpt>
      <trkpt lat="47.28258" lon="-2.35357">
        <ele>15.800000190735</ele>
        <time>2020-01-30T09:01:46.000Z</time>
      </trkpt>
      <trkpt lat="47.28258" lon="-2.35365">
        <ele>15.39999961853</ele>
        <time>2020-01-30T09:01:47.000Z</time>
      </trkpt>
      <trkpt lat="47.28257" lon="-2.35372">
        <ele>15</ele>
        <time>2020-01-30T09:01:48.000Z</time>
      </trkpt>
      <trkpt lat="47.28255" lon="-2.35379">
        <ele>14.60000038147</ele>
        <time>2020-01-30T09:01:49.000Z</time>
      </trkpt>
      <trkpt lat="47.28254" lon="-2.35384">
        <ele>14.199999809265</ele>
        <time>2020-01-30T09:01:50.000Z</time>
      </trkpt>
      <trkpt lat="47.28252" lon="-2.35388">
        <ele>13.800000190735</ele>
        <time>2020-01-30T09:01:51.000Z</time>
      </trkpt>
      <trkpt lat="47.2825" lon="-2.35401">
        <ele>13.800000190735</ele>
        <time>2020-01-30T09:01:55.000Z</time>
      </trkpt>
      <trkpt lat="47.28254" lon="-2.35407">
        <ele>13.800000190735</ele>
        <time>2020-01-30T09:01:57.000Z</time>
      </trkpt>
      <trkpt lat="47.28259" lon="-2.35411">
        <ele>13.800000190735</ele>
        <time>2020-01-30T09:02:00.000Z</time>
      </trkpt>
      <trkpt lat="47.28264" lon="-2.35412">
        <ele>13.800000190735</ele>
        <time>2020-01-30T09:02:02.000Z</time>
      </trkpt>
      <trkpt lat="47.2827" lon="-2.35408">
        <ele>13.800000190735</ele>
        <time>2020-01-30T09:02:05.000Z</time>
      </trkpt>
      <trkpt lat="47.28277" lon="-2.35398">
        <ele>13.800000190735</ele>
        <time>2020-01-30T09:02:09.000Z</time>
      </trkpt>
      <trkpt lat="47.28284" lon="-2.35382">
        <ele>13.800000190735</ele>
        <time>2020-01-30T09:02:13.000Z</time>
      </trkpt>
      <trkpt lat="47.28301" lon="-2.35367">
        <ele>13.800000190735</ele>
        <time>2020-01-30T09:02:18.000Z</time>
      </trkpt>
      <trkpt lat="47.28326" lon="-2.3535">
        <ele>13.800000190735</ele>
        <time>2020-01-30T09:02:25.000Z</time>
      </trkpt>
      <trkpt lat="47.28346" lon="-2.35338">
        <ele>13.800000190735</ele>
        <time>2020-01-30T09:02:31.000Z</time>
      </trkpt>
      <trkpt lat="47.28351" lon="-2.35337">
        <ele>13.800000190735</ele>
        <time>2020-01-30T09:02:35.000Z</time>
      </trkpt>
      <trkpt lat="47.28352" lon="-2.35338">
        <ele>13.800000190735</ele>
        <time>2020-01-30T09:02:36.000Z</time>
      </trkpt>
      <trkpt lat="47.28356" lon="-2.35346">
        <ele>13.800000190735</ele>
        <time>2020-01-30T09:02:40.000Z</time>
      </trkpt>
      <trkpt lat="47.2836" lon="-2.35353">
        <ele>13.800000190735</ele>
        <time>2020-01-30T09:02:43.000Z</time>
      </trkpt>
      <trkpt lat="47.28364" lon="-2.35357">
        <ele>13.800000190735</ele>
        <time>2020-01-30T09:02:46.000Z</time>
      </trkpt>
      <trkpt lat="47.28368" lon="-2.35363">
        <ele>14.199999809265</ele>
        <time>2020-01-30T09:02:49.000Z</time>
      </trkpt>
      <trkpt lat="47.28369" lon="-2.35365">
        <ele>14.60000038147</ele>
        <time>2020-01-30T09:02:50.000Z</time>
      </trkpt>
      <trkpt lat="47.28371" lon="-2.35368">
        <ele>15</ele>
        <time>2020-01-30T09:02:51.000Z</time>
      </trkpt>
      <trkpt lat="47.28372" lon="-2.3537">
        <ele>15.39999961853</ele>
        <time>2020-01-30T09:02:52.000Z</time>
      </trkpt>
      <trkpt lat="47.28374" lon="-2.35372">
        <ele>15.800000190735</ele>
        <time>2020-01-30T09:02:53.000Z</time>
      </trkpt>
      <trkpt lat="47.28375" lon="-2.35378">
        <ele>16.200000762939</ele>
        <time>2020-01-30T09:02:56.000Z</time>
      </trkpt>
      <trkpt lat="47.28376" lon="-2.35382">
        <ele>17.200000762939</ele>
        <time>2020-01-30T09:02:57.000Z</time>
      </trkpt>
      <trkpt lat="47.28377" lon="-2.35385">
        <ele>17.799999237061</ele>
        <time>2020-01-30T09:02:58.000Z</time>
      </trkpt>
      <trkpt lat="47.28377" lon="-2.35387">
        <ele>18.200000762939</ele>
        <time>2020-01-30T09:02:59.000Z</time>
      </trkpt>
      <trkpt lat="47.28377" lon="-2.35388">
        <ele>18.60000038147</ele>
        <time>2020-01-30T09:03:00.000Z</time>
      </trkpt>
      <trkpt lat="47.28381" lon="-2.35394">
        <ele>20</ele>
        <time>2020-01-30T09:03:03.000Z</time>
      </trkpt>
      <trkpt lat="47.28383" lon="-2.35397">
        <ele>20.39999961853</ele>
        <time>2020-01-30T09:03:04.000Z</time>
      </trkpt>
      <trkpt lat="47.28387" lon="-2.35404">
        <ele>20.799999237061</ele>
        <time>2020-01-30T09:03:06.000Z</time>
      </trkpt>
      <trkpt lat="47.28389" lon="-2.35407">
        <ele>21.200000762939</ele>
        <time>2020-01-30T09:03:07.000Z</time>
      </trkpt>
      <trkpt lat="47.2839" lon="-2.35409">
        <ele>21.60000038147</ele>
        <time>2020-01-30T09:03:08.000Z</time>
      </trkpt>
      <trkpt lat="47.28392" lon="-2.35411">
        <ele>22.200000762939</ele>
        <time>2020-01-30T09:03:09.000Z</time>
      </trkpt>
      <trkpt lat="47.28393" lon="-2.35412">
        <ele>22.60000038147</ele>
        <time>2020-01-30T09:03:10.000Z</time>
      </trkpt>
      <trkpt lat="47.28397" lon="-2.35417">
        <ele>22.60000038147</ele>
        <time>2020-01-30T09:03:14.000Z</time>
      </trkpt>
      <trkpt lat="47.28399" lon="-2.35421">
        <ele>22.60000038147</ele>
        <time>2020-01-30T09:04:40.000Z</time>
      </trkpt>
      <trkpt lat="47.28403" lon="-2.35424">
        <ele>22.60000038147</ele>
        <time>2020-01-30T09:04:43.000Z</time>
      </trkpt>
      <trkpt lat="47.28409" lon="-2.35427">
        <ele>22.60000038147</ele>
        <time>2020-01-30T09:04:47.000Z</time>
      </trkpt>
      <trkpt lat="47.28411" lon="-2.35425">
        <ele>22.60000038147</ele>
        <time>2020-01-30T09:04:48.000Z</time>
      </trkpt>
      <trkpt lat="47.28421" lon="-2.35412">
        <ele>22.60000038147</ele>
        <time>2020-01-30T09:04:54.000Z</time>
      </trkpt>
      <trkpt lat="47.28432" lon="-2.35409">
        <ele>23</ele>
        <time>2020-01-30T09:04:59.000Z</time>
      </trkpt>
      <trkpt lat="47.28434" lon="-2.35409">
        <ele>23.799999237061</ele>
        <time>2020-01-30T09:05:00.000Z</time>
      </trkpt>
      <trkpt lat="47.28437" lon="-2.35409">
        <ele>24.200000762939</ele>
        <time>2020-01-30T09:05:01.000Z</time>
      </trkpt>
      <trkpt lat="47.2844" lon="-2.35409">
        <ele>24.60000038147</ele>
        <time>2020-01-30T09:05:02.000Z</time>
      </trkpt>
      <trkpt lat="47.28446" lon="-2.35399">
        <ele>24.60000038147</ele>
        <time>2020-01-30T09:05:05.000Z</time>
      </trkpt>
      <trkpt lat="47.28448" lon="-2.35395">
        <ele>24.200000762939</ele>
        <time>2020-01-30T09:05:06.000Z</time>
      </trkpt>
      <trkpt lat="47.2845" lon="-2.35391">
        <ele>23.799999237061</ele>
        <time>2020-01-30T09:05:07.000Z</time>
      </trkpt>
      <trkpt lat="47.28452" lon="-2.35388">
        <ele>23.39999961853</ele>
        <time>2020-01-30T09:05:08.000Z</time>
      </trkpt>
      <trkpt lat="47.28453" lon="-2.35385">
        <ele>23</ele>
        <time>2020-01-30T09:05:09.000Z</time>
      </trkpt>
      <trkpt lat="47.28453" lon="-2.3538">
        <ele>22.60000038147</ele>
        <time>2020-01-30T09:05:10.000Z</time>
      </trkpt>
      <trkpt lat="47.28455" lon="-2.35377">
        <ele>22.200000762939</ele>
        <time>2020-01-30T09:05:11.000Z</time>
      </trkpt>
      <trkpt lat="47.28455" lon="-2.35371">
        <ele>21.60000038147</ele>
        <time>2020-01-30T09:05:12.000Z</time>
      </trkpt>
      <trkpt lat="47.28456" lon="-2.35365">
        <ele>21.200000762939</ele>
        <time>2020-01-30T09:05:13.000Z</time>
      </trkpt>
      <trkpt lat="47.28456" lon="-2.35359">
        <ele>20.799999237061</ele>
        <time>2020-01-30T09:05:14.000Z</time>
      </trkpt>
      <trkpt lat="47.28456" lon="-2.35356">
        <ele>20.200000762939</ele>
        <time>2020-01-30T09:05:15.000Z</time>
      </trkpt>
      <trkpt lat="47.28457" lon="-2.35352">
        <ele>19.39999961853</ele>
        <time>2020-01-30T09:05:16.000Z</time>
      </trkpt>
      <trkpt lat="47.28458" lon="-2.35349">
        <ele>18.799999237061</ele>
        <time>2020-01-30T09:05:17.000Z</time>
      </trkpt>
      <trkpt lat="47.28461" lon="-2.35349">
        <ele>18.200000762939</ele>
        <time>2020-01-30T09:05:18.000Z</time>
      </trkpt>
      <trkpt lat="47.28463" lon="-2.35349">
        <ele>17.60000038147</ele>
        <time>2020-01-30T09:05:19.000Z</time>
      </trkpt>
      <trkpt lat="47.28466" lon="-2.35349">
        <ele>17.200000762939</ele>
        <time>2020-01-30T09:05:20.000Z</time>
      </trkpt>
      <trkpt lat="47.28469" lon="-2.35351">
        <ele>16.60000038147</ele>
        <time>2020-01-30T09:05:21.000Z</time>
      </trkpt>
      <trkpt lat="47.28473" lon="-2.35355">
        <ele>16.200000762939</ele>
        <time>2020-01-30T09:05:22.000Z</time>
      </trkpt>
      <trkpt lat="47.28477" lon="-2.35359">
        <ele>15.800000190735</ele>
        <time>2020-01-30T09:05:23.000Z</time>
      </trkpt>
      <trkpt lat="47.28481" lon="-2.35363">
        <ele>15.39999961853</ele>
        <time>2020-01-30T09:05:24.000Z</time>
      </trkpt>
      <trkpt lat="47.28492" lon="-2.35385">
        <ele>15.39999961853</ele>
        <time>2020-01-30T09:05:28.000Z</time>
      </trkpt>
      <trkpt lat="47.28496" lon="-2.35413">
        <ele>15.39999961853</ele>
        <time>2020-01-30T09:05:33.000Z</time>
      </trkpt>
      <trkpt lat="47.28496" lon="-2.35419">
        <ele>15.800000190735</ele>
        <time>2020-01-30T09:05:35.000Z</time>
      </trkpt>
      <trkpt lat="47.28494" lon="-2.35421">
        <ele>16.200000762939</ele>
        <time>2020-01-30T09:05:36.000Z</time>
      </trkpt>
      <trkpt lat="47.28493" lon="-2.35424">
        <ele>16.60000038147</ele>
        <time>2020-01-30T09:05:37.000Z</time>
      </trkpt>
      <trkpt lat="47.28493" lon="-2.35425">
        <ele>17</ele>
        <time>2020-01-30T09:05:38.000Z</time>
      </trkpt>
      <trkpt lat="47.28492" lon="-2.35427">
        <ele>17.39999961853</ele>
        <time>2020-01-30T09:05:39.000Z</time>
      </trkpt>
      <trkpt lat="47.28487" lon="-2.35432">
        <ele>17.799999237061</ele>
        <time>2020-01-30T09:05:42.000Z</time>
      </trkpt>
      <trkpt lat="47.28486" lon="-2.35434">
        <ele>18.200000762939</ele>
        <time>2020-01-30T09:05:43.000Z</time>
      </trkpt>
      <trkpt lat="47.28483" lon="-2.35435">
        <ele>18.799999237061</ele>
        <time>2020-01-30T09:05:44.000Z</time>
      </trkpt>
      <trkpt lat="47.28481" lon="-2.35436">
        <ele>19.200000762939</ele>
        <time>2020-01-30T09:05:45.000Z</time>
      </trkpt>
      <trkpt lat="47.28479" lon="-2.35436">
        <ele>19.60000038147</ele>
        <time>2020-01-30T09:05:46.000Z</time>
      </trkpt>
      <trkpt lat="47.28476" lon="-2.35435">
        <ele>19.60000038147</ele>
        <time>2020-01-30T09:05:48.000Z</time>
      </trkpt>
      <trkpt lat="47.28474" lon="-2.35434">
        <ele>20</ele>
        <time>2020-01-30T09:05:49.000Z</time>
      </trkpt>
      <trkpt lat="47.28473" lon="-2.35434">
        <ele>20.39999961853</ele>
        <time>2020-01-30T09:05:50.000Z</time>
      </trkpt>
      <trkpt lat="47.28471" lon="-2.35433">
        <ele>21</ele>
        <time>2020-01-30T09:05:51.000Z</time>
      </trkpt>
      <trkpt lat="47.28469" lon="-2.35432">
        <ele>21.39999961853</ele>
        <time>2020-01-30T09:05:52.000Z</time>
      </trkpt>
      <trkpt lat="47.28468" lon="-2.35431">
        <ele>21.799999237061</ele>
        <time>2020-01-30T09:05:53.000Z</time>
      </trkpt>
      <trkpt lat="47.28463" lon="-2.35425">
        <ele>22.200000762939</ele>
        <time>2020-01-30T09:05:56.000Z</time>
      </trkpt>
      <trkpt lat="47.28461" lon="-2.35425">
        <ele>22.60000038147</ele>
        <time>2020-01-30T09:05:57.000Z</time>
      </trkpt>
      <trkpt lat="47.28459" lon="-2.35426">
        <ele>23</ele>
        <time>2020-01-30T09:05:58.000Z</time>
      </trkpt>
      <trkpt lat="47.28457" lon="-2.35426">
        <ele>23.39999961853</ele>
        <time>2020-01-30T09:05:59.000Z</time>
      </trkpt>
      <trkpt lat="47.28455" lon="-2.35427">
        <ele>23.799999237061</ele>
        <time>2020-01-30T09:06:00.000Z</time>
      </trkpt>
      <trkpt lat="47.28446" lon="-2.3543">
        <ele>23.799999237061</ele>
        <time>2020-01-30T09:06:04.000Z</time>
      </trkpt>
      <trkpt lat="47.28432" lon="-2.35437">
        <ele>23.799999237061</ele>
        <time>2020-01-30T09:06:09.000Z</time>
      </trkpt>
      <trkpt lat="47.28417" lon="-2.35434">
        <ele>23.799999237061</ele>
        <time>2020-01-30T09:06:14.000Z</time>
      </trkpt>
      <trkpt lat="47.28414" lon="-2.35435">
        <ele>23.799999237061</ele>
        <time>2020-01-30T09:06:15.000Z</time>
      </trkpt>
      <trkpt lat="47.28409" lon="-2.35438">
        <ele>23.799999237061</ele>
        <time>2020-01-30T09:06:18.000Z</time>
      </trkpt>
      <trkpt lat="47.28409" lon="-2.3544">
        <ele>23.799999237061</ele>
        <time>2020-01-30T09:06:19.000Z</time>
      </trkpt>
      <trkpt lat="47.28415" lon="-2.35451">
        <ele>23.799999237061</ele>
        <time>2020-01-30T09:06:22.000Z</time>
      </trkpt>
      <trkpt lat="47.28419" lon="-2.35466">
        <ele>23.39999961853</ele>
        <time>2020-01-30T09:06:25.000Z</time>
      </trkpt>
      <trkpt lat="47.2842" lon="-2.35471">
        <ele>23</ele>
        <time>2020-01-30T09:06:26.000Z</time>
      </trkpt>
      <trkpt lat="47.28422" lon="-2.35475">
        <ele>22.60000038147</ele>
        <time>2020-01-30T09:06:27.000Z</time>
      </trkpt>
      <trkpt lat="47.28422" lon="-2.3548">
        <ele>22.200000762939</ele>
        <time>2020-01-30T09:06:28.000Z</time>
      </trkpt>
      <trkpt lat="47.2842" lon="-2.35489">
        <ele>21.60000038147</ele>
        <time>2020-01-30T09:06:29.000Z</time>
      </trkpt>
      <trkpt lat="47.28419" lon="-2.35497">
        <ele>21.60000038147</ele>
        <time>2020-01-30T09:06:30.000Z</time>
      </trkpt>
      <trkpt lat="47.28414" lon="-2.35515">
        <ele>21.200000762939</ele>
        <time>2020-01-30T09:06:32.000Z</time>
      </trkpt>
      <trkpt lat="47.28413" lon="-2.35519">
        <ele>20.799999237061</ele>
        <time>2020-01-30T09:06:33.000Z</time>
      </trkpt>
      <trkpt lat="47.28412" lon="-2.35523">
        <ele>20.39999961853</ele>
        <time>2020-01-30T09:06:34.000Z</time>
      </trkpt>
      <trkpt lat="47.2841" lon="-2.35527">
        <ele>20</ele>
        <time>2020-01-30T09:06:35.000Z</time>
      </trkpt>
      <trkpt lat="47.28409" lon="-2.35531">
        <ele>19.60000038147</ele>
        <time>2020-01-30T09:06:36.000Z</time>
      </trkpt>
      <trkpt lat="47.28405" lon="-2.35544">
        <ele>19.60000038147</ele>
        <time>2020-01-30T09:06:39.000Z</time>
      </trkpt>
      <trkpt lat="47.284" lon="-2.3557">
        <ele>19.60000038147</ele>
        <time>2020-01-30T09:06:43.000Z</time>
      </trkpt>
      <trkpt lat="47.28395" lon="-2.35607">
        <ele>19.60000038147</ele>
        <time>2020-01-30T09:06:48.000Z</time>
      </trkpt>
      <trkpt lat="47.28397" lon="-2.3562">
        <ele>19.60000038147</ele>
        <time>2020-01-30T09:06:52.000Z</time>
      </trkpt>
      <trkpt lat="47.284" lon="-2.35622">
        <ele>19.60000038147</ele>
        <time>2020-01-30T09:06:54.000Z</time>
      </trkpt>
      <trkpt lat="47.28404" lon="-2.35629">
        <ele>19.60000038147</ele>
        <time>2020-01-30T09:06:56.000Z</time>
      </trkpt>
      <trkpt lat="47.28406" lon="-2.35642">
        <ele>19.60000038147</ele>
        <time>2020-01-30T09:06:59.000Z</time>
      </trkpt>
      <trkpt lat="47.28406" lon="-2.35651">
        <ele>19.60000038147</ele>
        <time>2020-01-30T09:07:01.000Z</time>
      </trkpt>
      <trkpt lat="47.28403" lon="-2.35677">
        <ele>19.60000038147</ele>
        <time>2020-01-30T09:07:07.000Z</time>
      </trkpt>
      <trkpt lat="47.28404" lon="-2.3568">
        <ele>19.60000038147</ele>
        <time>2020-01-30T09:07:08.000Z</time>
      </trkpt>
      <trkpt lat="47.28408" lon="-2.35686">
        <ele>19.60000038147</ele>
        <time>2020-01-30T09:07:11.000Z</time>
      </trkpt>
      <trkpt lat="47.28413" lon="-2.35677">
        <ele>19.60000038147</ele>
        <time>2020-01-30T09:07:15.000Z</time>
      </trkpt>
      <trkpt lat="47.28422" lon="-2.35663">
        <ele>19.60000038147</ele>
        <time>2020-01-30T09:07:19.000Z</time>
      </trkpt>
      <trkpt lat="47.28432" lon="-2.35644">
        <ele>19.60000038147</ele>
        <time>2020-01-30T09:07:24.000Z</time>
      </trkpt>
      <trkpt lat="47.28436" lon="-2.35639">
        <ele>19.60000038147</ele>
        <time>2020-01-30T09:07:26.000Z</time>
      </trkpt>
      <trkpt lat="47.28438" lon="-2.35639">
        <ele>19.60000038147</ele>
        <time>2020-01-30T09:07:27.000Z</time>
      </trkpt>
      <trkpt lat="47.2845" lon="-2.35645">
        <ele>19.60000038147</ele>
        <time>2020-01-30T09:07:32.000Z</time>
      </trkpt>
      <trkpt lat="47.28467" lon="-2.35655">
        <ele>19.60000038147</ele>
        <time>2020-01-30T09:07:37.000Z</time>
      </trkpt>
      <trkpt lat="47.28481" lon="-2.35667">
        <ele>19.60000038147</ele>
        <time>2020-01-30T09:07:41.000Z</time>
      </trkpt>
      <trkpt lat="47.28492" lon="-2.35677">
        <ele>19.60000038147</ele>
        <time>2020-01-30T09:07:45.000Z</time>
      </trkpt>
      <trkpt lat="47.28503" lon="-2.35692">
        <ele>19.60000038147</ele>
        <time>2020-01-30T09:07:49.000Z</time>
      </trkpt>
      <trkpt lat="47.2851" lon="-2.357">
        <ele>19.60000038147</ele>
        <time>2020-01-30T09:07:52.000Z</time>
      </trkpt>
      <trkpt lat="47.28512" lon="-2.35701">
        <ele>19.60000038147</ele>
        <time>2020-01-30T09:07:53.000Z</time>
      </trkpt>
      <trkpt lat="47.28519" lon="-2.35703">
        <ele>19.60000038147</ele>
        <time>2020-01-30T09:07:57.000Z</time>
      </trkpt>
      <trkpt lat="47.28521" lon="-2.35706">
        <ele>19.60000038147</ele>
        <time>2020-01-30T09:07:59.000Z</time>
      </trkpt>
      <trkpt lat="47.28526" lon="-2.35711">
        <ele>19.60000038147</ele>
        <time>2020-01-30T09:08:02.000Z</time>
      </trkpt>
      <trkpt lat="47.28529" lon="-2.35715">
        <ele>19.60000038147</ele>
        <time>2020-01-30T09:08:06.000Z</time>
      </trkpt>
      <trkpt lat="47.28532" lon="-2.35709">
        <ele>19.60000038147</ele>
        <time>2020-01-30T09:08:19.000Z</time>
      </trkpt>
      <trkpt lat="47.28532" lon="-2.35708">
        <ele>19.60000038147</ele>
        <time>2020-01-30T09:08:20.000Z</time>
      </trkpt>
      <trkpt lat="47.28536" lon="-2.35703">
        <ele>19.60000038147</ele>
        <time>2020-01-30T09:08:30.000Z</time>
      </trkpt>
      <trkpt lat="47.28537" lon="-2.35699">
        <ele>19.60000038147</ele>
        <time>2020-01-30T09:08:32.000Z</time>
      </trkpt>
      <trkpt lat="47.2854" lon="-2.35689">
        <ele>19.60000038147</ele>
        <time>2020-01-30T09:08:36.000Z</time>
      </trkpt>
      <trkpt lat="47.2854" lon="-2.35683">
        <ele>19.60000038147</ele>
        <time>2020-01-30T09:08:38.000Z</time>
      </trkpt>
      <trkpt lat="47.28538" lon="-2.35664">
        <ele>19.60000038147</ele>
        <time>2020-01-30T09:08:42.000Z</time>
      </trkpt>
      <trkpt lat="47.28538" lon="-2.35659">
        <ele>20.60000038147</ele>
        <time>2020-01-30T09:08:43.000Z</time>
      </trkpt>
      <trkpt lat="47.28539" lon="-2.35654">
        <ele>21</ele>
        <time>2020-01-30T09:08:44.000Z</time>
      </trkpt>
      <trkpt lat="47.28541" lon="-2.3565">
        <ele>21.39999961853</ele>
        <time>2020-01-30T09:08:45.000Z</time>
      </trkpt>
      <trkpt lat="47.28542" lon="-2.35645">
        <ele>21.799999237061</ele>
        <time>2020-01-30T09:08:46.000Z</time>
      </trkpt>
      <trkpt lat="47.28543" lon="-2.35638">
        <ele>21.799999237061</ele>
        <time>2020-01-30T09:08:48.000Z</time>
      </trkpt>
      <trkpt lat="47.28543" lon="-2.35632">
        <ele>22.39999961853</ele>
        <time>2020-01-30T09:08:50.000Z</time>
      </trkpt>
      <trkpt lat="47.28544" lon="-2.35629">
        <ele>22.799999237061</ele>
        <time>2020-01-30T09:08:51.000Z</time>
      </trkpt>
      <trkpt lat="47.28546" lon="-2.35627">
        <ele>23.200000762939</ele>
        <time>2020-01-30T09:08:52.000Z</time>
      </trkpt>
      <trkpt lat="47.28547" lon="-2.35624">
        <ele>23.799999237061</ele>
        <time>2020-01-30T09:08:53.000Z</time>
      </trkpt>
      <trkpt lat="47.28548" lon="-2.35622">
        <ele>24.200000762939</ele>
        <time>2020-01-30T09:08:54.000Z</time>
      </trkpt>
      <trkpt lat="47.28549" lon="-2.35619">
        <ele>24.200000762939</ele>
        <time>2020-01-30T09:08:57.000Z</time>
      </trkpt>
      <trkpt lat="47.2855" lon="-2.35617">
        <ele>24.60000038147</ele>
        <time>2020-01-30T09:08:59.000Z</time>
      </trkpt>
      <trkpt lat="47.2855" lon="-2.35615">
        <ele>25.200000762939</ele>
        <time>2020-01-30T09:09:00.000Z</time>
      </trkpt>
      <trkpt lat="47.2855" lon="-2.35614">
        <ele>25.60000038147</ele>
        <time>2020-01-30T09:09:01.000Z</time>
      </trkpt>
      <trkpt lat="47.28548" lon="-2.35611">
        <ele>26.39999961853</ele>
        <time>2020-01-30T09:09:07.000Z</time>
      </trkpt>
      <trkpt lat="47.28546" lon="-2.35611">
        <ele>26.39999961853</ele>
        <time>2020-01-30T09:09:08.000Z</time>
      </trkpt>
      <trkpt lat="47.28533" lon="-2.35611">
        <ele>26.39999961853</ele>
        <time>2020-01-30T09:09:14.000Z</time>
      </trkpt>
      <trkpt lat="47.28532" lon="-2.35606">
        <ele>26.39999961853</ele>
        <time>2020-01-30T09:09:16.000Z</time>
      </trkpt>
      <trkpt lat="47.28533" lon="-2.35599">
        <ele>26.39999961853</ele>
        <time>2020-01-30T09:09:18.000Z</time>
      </trkpt>
      <trkpt lat="47.28538" lon="-2.35576">
        <ele>26.39999961853</ele>
        <time>2020-01-30T09:09:22.000Z</time>
      </trkpt>
      <trkpt lat="47.28537" lon="-2.35549">
        <ele>26</ele>
        <time>2020-01-30T09:09:26.000Z</time>
      </trkpt>
      <trkpt lat="47.28535" lon="-2.35544">
        <ele>25.60000038147</ele>
        <time>2020-01-30T09:09:27.000Z</time>
      </trkpt>
      <trkpt lat="47.28532" lon="-2.35539">
        <ele>25.200000762939</ele>
        <time>2020-01-30T09:09:28.000Z</time>
      </trkpt>
      <trkpt lat="47.2853" lon="-2.35534">
        <ele>24.799999237061</ele>
        <time>2020-01-30T09:09:29.000Z</time>
      </trkpt>
      <trkpt lat="47.28528" lon="-2.35528">
        <ele>24.39999961853</ele>
        <time>2020-01-30T09:09:30.000Z</time>
      </trkpt>
      <trkpt lat="47.28525" lon="-2.35521">
        <ele>24</ele>
        <time>2020-01-30T09:09:31.000Z</time>
      </trkpt>
      <trkpt lat="47.28523" lon="-2.35515">
        <ele>23.200000762939</ele>
        <time>2020-01-30T09:09:32.000Z</time>
      </trkpt>
      <trkpt lat="47.28523" lon="-2.35509">
        <ele>22.60000038147</ele>
        <time>2020-01-30T09:09:33.000Z</time>
      </trkpt>
      <trkpt lat="47.28524" lon="-2.35505">
        <ele>22.200000762939</ele>
        <time>2020-01-30T09:09:34.000Z</time>
      </trkpt>
      <trkpt lat="47.28527" lon="-2.35502">
        <ele>21.60000038147</ele>
        <time>2020-01-30T09:09:35.000Z</time>
      </trkpt>
      <trkpt lat="47.28532" lon="-2.355">
        <ele>21</ele>
        <time>2020-01-30T09:09:36.000Z</time>
      </trkpt>
      <trkpt lat="47.28535" lon="-2.35498">
        <ele>20.39999961853</ele>
        <time>2020-01-30T09:09:37.000Z</time>
      </trkpt>
      <trkpt lat="47.28539" lon="-2.35497">
        <ele>19.799999237061</ele>
        <time>2020-01-30T09:09:38.000Z</time>
      </trkpt>
      <trkpt lat="47.28542" lon="-2.35497">
        <ele>19.799999237061</ele>
        <time>2020-01-30T09:09:39.000Z</time>
      </trkpt>
      <trkpt lat="47.28552" lon="-2.35498">
        <ele>19.799999237061</ele>
        <time>2020-01-30T09:09:42.000Z</time>
      </trkpt>
      <trkpt lat="47.2856" lon="-2.35503">
        <ele>19.799999237061</ele>
        <time>2020-01-30T09:09:45.000Z</time>
      </trkpt>
      <trkpt lat="47.28561" lon="-2.35506">
        <ele>19.799999237061</ele>
        <time>2020-01-30T09:09:46.000Z</time>
      </trkpt>
      <trkpt lat="47.28562" lon="-2.3552">
        <ele>19.799999237061</ele>
        <time>2020-01-30T09:09:52.000Z</time>
      </trkpt>
      <trkpt lat="47.28565" lon="-2.35534">
        <ele>19.799999237061</ele>
        <time>2020-01-30T09:09:57.000Z</time>
      </trkpt>
      <trkpt lat="47.28565" lon="-2.35542">
        <ele>19.799999237061</ele>
        <time>2020-01-30T09:10:01.000Z</time>
      </trkpt>
      <trkpt lat="47.28569" lon="-2.35556">
        <ele>19.799999237061</ele>
        <time>2020-01-30T09:10:07.000Z</time>
      </trkpt>
      <trkpt lat="47.28575" lon="-2.35578">
        <ele>19.799999237061</ele>
        <time>2020-01-30T09:10:14.000Z</time>
      </trkpt>
      <trkpt lat="47.2858" lon="-2.35596">
        <ele>19.799999237061</ele>
        <time>2020-01-30T09:10:19.000Z</time>
      </trkpt>
      <trkpt lat="47.28581" lon="-2.35599">
        <ele>20.200000762939</ele>
        <time>2020-01-30T09:10:20.000Z</time>
      </trkpt>
      <trkpt lat="47.28582" lon="-2.35602">
        <ele>20.60000038147</ele>
        <time>2020-01-30T09:10:21.000Z</time>
      </trkpt>
      <trkpt lat="47.28582" lon="-2.35607">
        <ele>21.39999961853</ele>
        <time>2020-01-30T09:10:22.000Z</time>
      </trkpt>
      <trkpt lat="47.28583" lon="-2.3561">
        <ele>21.799999237061</ele>
        <time>2020-01-30T09:10:23.000Z</time>
      </trkpt>
      <trkpt lat="47.28584" lon="-2.35614">
        <ele>21.799999237061</ele>
        <time>2020-01-30T09:10:24.000Z</time>
      </trkpt>
      <trkpt lat="47.28581" lon="-2.35634">
        <ele>21.799999237061</ele>
        <time>2020-01-30T09:10:30.000Z</time>
      </trkpt>
      <trkpt lat="47.28581" lon="-2.35637">
        <ele>21.799999237061</ele>
        <time>2020-01-30T09:10:31.000Z</time>
      </trkpt>
      <trkpt lat="47.28584" lon="-2.35655">
        <ele>22.200000762939</ele>
        <time>2020-01-30T09:10:35.000Z</time>
      </trkpt>
      <trkpt lat="47.28585" lon="-2.35659">
        <ele>22.60000038147</ele>
        <time>2020-01-30T09:10:36.000Z</time>
      </trkpt>
      <trkpt lat="47.28585" lon="-2.35663">
        <ele>23.200000762939</ele>
        <time>2020-01-30T09:10:37.000Z</time>
      </trkpt>
      <trkpt lat="47.28586" lon="-2.35667">
        <ele>23.60000038147</ele>
        <time>2020-01-30T09:10:38.000Z</time>
      </trkpt>
      <trkpt lat="47.28586" lon="-2.35671">
        <ele>24</ele>
        <time>2020-01-30T09:10:39.000Z</time>
      </trkpt>
      <trkpt lat="47.28586" lon="-2.35676">
        <ele>24</ele>
        <time>2020-01-30T09:10:40.000Z</time>
      </trkpt>
      <trkpt lat="47.2859" lon="-2.35701">
        <ele>24</ele>
        <time>2020-01-30T09:10:46.000Z</time>
      </trkpt>
      <trkpt lat="47.2859" lon="-2.35722">
        <ele>24</ele>
        <time>2020-01-30T09:10:51.000Z</time>
      </trkpt>
      <trkpt lat="47.2859" lon="-2.35734">
        <ele>24</ele>
        <time>2020-01-30T09:10:55.000Z</time>
      </trkpt>
      <trkpt lat="47.28588" lon="-2.35741">
        <ele>24</ele>
        <time>2020-01-30T09:10:57.000Z</time>
      </trkpt>
      <trkpt lat="47.28584" lon="-2.35746">
        <ele>24</ele>
        <time>2020-01-30T09:10:59.000Z</time>
      </trkpt>
      <trkpt lat="47.2858" lon="-2.35749">
        <ele>24</ele>
        <time>2020-01-30T09:11:02.000Z</time>
      </trkpt>
      <trkpt lat="47.2857" lon="-2.35759">
        <ele>24</ele>
        <time>2020-01-30T09:11:07.000Z</time>
      </trkpt>
      <trkpt lat="47.28567" lon="-2.35762">
        <ele>23.60000038147</ele>
        <time>2020-01-30T09:11:08.000Z</time>
      </trkpt>
      <trkpt lat="47.28563" lon="-2.35767">
        <ele>23</ele>
        <time>2020-01-30T09:11:09.000Z</time>
      </trkpt>
      <trkpt lat="47.2856" lon="-2.35771">
        <ele>22.200000762939</ele>
        <time>2020-01-30T09:11:10.000Z</time>
      </trkpt>
      <trkpt lat="47.28558" lon="-2.35775">
        <ele>21.799999237061</ele>
        <time>2020-01-30T09:11:11.000Z</time>
      </trkpt>
      <trkpt lat="47.28555" lon="-2.35784">
        <ele>21.799999237061</ele>
        <time>2020-01-30T09:11:13.000Z</time>
      </trkpt>
      <trkpt lat="47.28554" lon="-2.35795">
        <ele>21.799999237061</ele>
        <time>2020-01-30T09:11:15.000Z</time>
      </trkpt>
      <trkpt lat="47.28555" lon="-2.35802">
        <ele>21.799999237061</ele>
        <time>2020-01-30T09:11:17.000Z</time>
      </trkpt>
      <trkpt lat="47.28556" lon="-2.35805">
        <ele>21.799999237061</ele>
        <time>2020-01-30T09:11:18.000Z</time>
      </trkpt>
      <trkpt lat="47.28558" lon="-2.35813">
        <ele>21.799999237061</ele>
        <time>2020-01-30T09:11:21.000Z</time>
      </trkpt>
      <trkpt lat="47.28559" lon="-2.35824">
        <ele>21.799999237061</ele>
        <time>2020-01-30T09:11:25.000Z</time>
      </trkpt>
      <trkpt lat="47.2856" lon="-2.35826">
        <ele>21.799999237061</ele>
        <time>2020-01-30T09:11:26.000Z</time>
      </trkpt>
      <trkpt lat="47.28564" lon="-2.35832">
        <ele>21.799999237061</ele>
        <time>2020-01-30T09:11:29.000Z</time>
      </trkpt>
      <trkpt lat="47.28567" lon="-2.35849">
        <ele>21.799999237061</ele>
        <time>2020-01-30T09:11:34.000Z</time>
      </trkpt>
      <trkpt lat="47.28579" lon="-2.35871">
        <ele>21.799999237061</ele>
        <time>2020-01-30T09:11:40.000Z</time>
      </trkpt>
      <trkpt lat="47.28583" lon="-2.35891">
        <ele>21.799999237061</ele>
        <time>2020-01-30T09:11:45.000Z</time>
      </trkpt>
      <trkpt lat="47.28584" lon="-2.35895">
        <ele>22.200000762939</ele>
        <time>2020-01-30T09:11:46.000Z</time>
      </trkpt>
      <trkpt lat="47.28585" lon="-2.35898">
        <ele>22.60000038147</ele>
        <time>2020-01-30T09:11:47.000Z</time>
      </trkpt>
      <trkpt lat="47.28586" lon="-2.35902">
        <ele>23</ele>
        <time>2020-01-30T09:11:48.000Z</time>
      </trkpt>
      <trkpt lat="47.28587" lon="-2.35906">
        <ele>23.39999961853</ele>
        <time>2020-01-30T09:11:49.000Z</time>
      </trkpt>
      <trkpt lat="47.28588" lon="-2.35909">
        <ele>23.799999237061</ele>
        <time>2020-01-30T09:11:50.000Z</time>
      </trkpt>
      <trkpt lat="47.28589" lon="-2.35916">
        <ele>23.799999237061</ele>
        <time>2020-01-30T09:11:52.000Z</time>
      </trkpt>
      <trkpt lat="47.28586" lon="-2.35921">
        <ele>23.799999237061</ele>
        <time>2020-01-30T09:11:54.000Z</time>
      </trkpt>
      <trkpt lat="47.28579" lon="-2.35923">
        <ele>23.799999237061</ele>
        <time>2020-01-30T09:11:57.000Z</time>
      </trkpt>
      <trkpt lat="47.28576" lon="-2.35924">
        <ele>23.799999237061</ele>
        <time>2020-01-30T09:11:58.000Z</time>
      </trkpt>
      <trkpt lat="47.28569" lon="-2.35925">
        <ele>24.200000762939</ele>
        <time>2020-01-30T09:12:01.000Z</time>
      </trkpt>
      <trkpt lat="47.28566" lon="-2.35926">
        <ele>24.60000038147</ele>
        <time>2020-01-30T09:12:02.000Z</time>
      </trkpt>
      <trkpt lat="47.28565" lon="-2.35925">
        <ele>25.200000762939</ele>
        <time>2020-01-30T09:12:03.000Z</time>
      </trkpt>
      <trkpt lat="47.28564" lon="-2.35923">
        <ele>25.60000038147</ele>
        <time>2020-01-30T09:12:04.000Z</time>
      </trkpt>
      <trkpt lat="47.28562" lon="-2.35922">
        <ele>26</ele>
        <time>2020-01-30T09:12:05.000Z</time>
      </trkpt>
      <trkpt lat="47.2856" lon="-2.35919">
        <ele>26.39999961853</ele>
        <time>2020-01-30T09:12:07.000Z</time>
      </trkpt>
      <trkpt lat="47.28559" lon="-2.35918">
        <ele>27</ele>
        <time>2020-01-30T09:12:08.000Z</time>
      </trkpt>
      <trkpt lat="47.28559" lon="-2.35918">
        <ele>27.39999961853</ele>
        <time>2020-01-30T09:12:09.000Z</time>
      </trkpt>
      <trkpt lat="47.28558" lon="-2.35918">
        <ele>27.799999237061</ele>
        <time>2020-01-30T09:12:10.000Z</time>
      </trkpt>
      <trkpt lat="47.28558" lon="-2.35917">
        <ele>28.39999961853</ele>
        <time>2020-01-30T09:12:11.000Z</time>
      </trkpt>
      <trkpt lat="47.28554" lon="-2.35917">
        <ele>28.39999961853</ele>
        <time>2020-01-30T09:12:23.000Z</time>
      </trkpt>
      <trkpt lat="47.28554" lon="-2.35917">
        <ele>28.39999961853</ele>
        <time>2020-01-30T09:12:24.000Z</time>
      </trkpt>
      <trkpt lat="47.28552" lon="-2.3592">
        <ele>28.39999961853</ele>
        <time>2020-01-30T09:12:27.000Z</time>
      </trkpt>
      <trkpt lat="47.28547" lon="-2.35925">
        <ele>28.799999237061</ele>
        <time>2020-01-30T09:12:30.000Z</time>
      </trkpt>
      <trkpt lat="47.28546" lon="-2.35926">
        <ele>29.200000762939</ele>
        <time>2020-01-30T09:12:31.000Z</time>
      </trkpt>
      <trkpt lat="47.28545" lon="-2.35928">
        <ele>29.60000038147</ele>
        <time>2020-01-30T09:12:32.000Z</time>
      </trkpt>
      <trkpt lat="47.28544" lon="-2.35931">
        <ele>30</ele>
        <time>2020-01-30T09:12:33.000Z</time>
      </trkpt>
      <trkpt lat="47.28543" lon="-2.35933">
        <ele>30.39999961853</ele>
        <time>2020-01-30T09:12:34.000Z</time>
      </trkpt>
      <trkpt lat="47.2854" lon="-2.35936">
        <ele>30.39999961853</ele>
        <time>2020-01-30T09:12:36.000Z</time>
      </trkpt>
      <trkpt lat="47.28538" lon="-2.35936">
        <ele>30.799999237061</ele>
        <time>2020-01-30T09:12:37.000Z</time>
      </trkpt>
      <trkpt lat="47.28537" lon="-2.35937">
        <ele>31.200000762939</ele>
        <time>2020-01-30T09:12:38.000Z</time>
      </trkpt>
      <trkpt lat="47.28536" lon="-2.35937">
        <ele>31.60000038147</ele>
        <time>2020-01-30T09:12:39.000Z</time>
      </trkpt>
      <trkpt lat="47.28534" lon="-2.35936">
        <ele>32</ele>
        <time>2020-01-30T09:12:40.000Z</time>
      </trkpt>
      <trkpt lat="47.28533" lon="-2.35936">
        <ele>32.400001525879</ele>
        <time>2020-01-30T09:12:41.000Z</time>
      </trkpt>
      <trkpt lat="47.28525" lon="-2.35936">
        <ele>32.400001525879</ele>
        <time>2020-01-30T09:12:44.000Z</time>
      </trkpt>
      <trkpt lat="47.28518" lon="-2.35936">
        <ele>32.400001525879</ele>
        <time>2020-01-30T09:12:46.000Z</time>
      </trkpt>
      <trkpt lat="47.28507" lon="-2.35938">
        <ele>32.400001525879</ele>
        <time>2020-01-30T09:12:49.000Z</time>
      </trkpt>
      <trkpt lat="47.28492" lon="-2.35947">
        <ele>32.400001525879</ele>
        <time>2020-01-30T09:12:53.000Z</time>
      </trkpt>
      <trkpt lat="47.28481" lon="-2.3596">
        <ele>32.400001525879</ele>
        <time>2020-01-30T09:12:57.000Z</time>
      </trkpt>
      <trkpt lat="47.2847" lon="-2.3597">
        <ele>32.400001525879</ele>
        <time>2020-01-30T09:13:02.000Z</time>
      </trkpt>
      <trkpt lat="47.28468" lon="-2.35971">
        <ele>32.400001525879</ele>
        <time>2020-01-30T09:13:03.000Z</time>
      </trkpt>
      <trkpt lat="47.28464" lon="-2.35969">
        <ele>32.400001525879</ele>
        <time>2020-01-30T09:13:06.000Z</time>
      </trkpt>
      <trkpt lat="47.28464" lon="-2.35967">
        <ele>32.400001525879</ele>
        <time>2020-01-30T09:13:07.000Z</time>
      </trkpt>
      <trkpt lat="47.28467" lon="-2.35961">
        <ele>32.400001525879</ele>
        <time>2020-01-30T09:13:09.000Z</time>
      </trkpt>
      <trkpt lat="47.28469" lon="-2.35956">
        <ele>32</ele>
        <time>2020-01-30T09:13:10.000Z</time>
      </trkpt>
      <trkpt lat="47.28472" lon="-2.35951">
        <ele>31.60000038147</ele>
        <time>2020-01-30T09:13:11.000Z</time>
      </trkpt>
      <trkpt lat="47.28474" lon="-2.35944">
        <ele>31.200000762939</ele>
        <time>2020-01-30T09:13:12.000Z</time>
      </trkpt>
      <trkpt lat="47.28476" lon="-2.35938">
        <ele>30.39999961853</ele>
        <time>2020-01-30T09:13:13.000Z</time>
      </trkpt>
      <trkpt lat="47.28477" lon="-2.35932">
        <ele>30.39999961853</ele>
        <time>2020-01-30T09:13:14.000Z</time>
      </trkpt>
      <trkpt lat="47.28478" lon="-2.35925">
        <ele>30</ele>
        <time>2020-01-30T09:13:15.000Z</time>
      </trkpt>
      <trkpt lat="47.28478" lon="-2.3592">
        <ele>29.39999961853</ele>
        <time>2020-01-30T09:13:16.000Z</time>
      </trkpt>
      <trkpt lat="47.28478" lon="-2.35914">
        <ele>28.799999237061</ele>
        <time>2020-01-30T09:13:17.000Z</time>
      </trkpt>
      <trkpt lat="47.28476" lon="-2.35908">
        <ele>28.39999961853</ele>
        <time>2020-01-30T09:13:18.000Z</time>
      </trkpt>
      <trkpt lat="47.28474" lon="-2.35903">
        <ele>27.799999237061</ele>
        <time>2020-01-30T09:13:19.000Z</time>
      </trkpt>
      <trkpt lat="47.28472" lon="-2.35898">
        <ele>27.200000762939</ele>
        <time>2020-01-30T09:13:20.000Z</time>
      </trkpt>
      <trkpt lat="47.2847" lon="-2.35893">
        <ele>26.60000038147</ele>
        <time>2020-01-30T09:13:21.000Z</time>
      </trkpt>
      <trkpt lat="47.28468" lon="-2.35888">
        <ele>26</ele>
        <time>2020-01-30T09:13:22.000Z</time>
      </trkpt>
      <trkpt lat="47.28467" lon="-2.35883">
        <ele>25.39999961853</ele>
        <time>2020-01-30T09:13:23.000Z</time>
      </trkpt>
      <trkpt lat="47.28466" lon="-2.35878">
        <ele>25</ele>
        <time>2020-01-30T09:13:24.000Z</time>
      </trkpt>
      <trkpt lat="47.28466" lon="-2.35873">
        <ele>24.39999961853</ele>
        <time>2020-01-30T09:13:25.000Z</time>
      </trkpt>
      <trkpt lat="47.28466" lon="-2.35868">
        <ele>24</ele>
        <time>2020-01-30T09:13:26.000Z</time>
      </trkpt>
      <trkpt lat="47.28466" lon="-2.35862">
        <ele>23.60000038147</ele>
        <time>2020-01-30T09:13:27.000Z</time>
      </trkpt>
      <trkpt lat="47.28468" lon="-2.35857">
        <ele>23</ele>
        <time>2020-01-30T09:13:28.000Z</time>
      </trkpt>
      <trkpt lat="47.28473" lon="-2.35837">
        <ele>23</ele>
        <time>2020-01-30T09:13:33.000Z</time>
      </trkpt>
      <trkpt lat="47.28466" lon="-2.35827">
        <ele>23</ele>
        <time>2020-01-30T09:13:38.000Z</time>
      </trkpt>
      <trkpt lat="47.28456" lon="-2.35832">
        <ele>23</ele>
        <time>2020-01-30T09:13:41.000Z</time>
      </trkpt>
      <trkpt lat="47.28447" lon="-2.35833">
        <ele>23</ele>
        <time>2020-01-30T09:13:44.000Z</time>
      </trkpt>
      <trkpt lat="47.28433" lon="-2.35839">
        <ele>23</ele>
        <time>2020-01-30T09:13:49.000Z</time>
      </trkpt>
      <trkpt lat="47.28421" lon="-2.3584">
        <ele>23</ele>
        <time>2020-01-30T09:13:53.000Z</time>
      </trkpt>
      <trkpt lat="47.28409" lon="-2.35848">
        <ele>23</ele>
        <time>2020-01-30T09:13:58.000Z</time>
      </trkpt>
      <trkpt lat="47.28397" lon="-2.35857">
        <ele>22.60000038147</ele>
        <time>2020-01-30T09:14:02.000Z</time>
      </trkpt>
      <trkpt lat="47.28394" lon="-2.35857">
        <ele>21.799999237061</ele>
        <time>2020-01-30T09:14:03.000Z</time>
      </trkpt>
      <trkpt lat="47.2839" lon="-2.35857">
        <ele>21.39999961853</ele>
        <time>2020-01-30T09:14:04.000Z</time>
      </trkpt>
      <trkpt lat="47.28386" lon="-2.35857">
        <ele>21</ele>
        <time>2020-01-30T09:14:05.000Z</time>
      </trkpt>
      <trkpt lat="47.28369" lon="-2.35855">
        <ele>21</ele>
        <time>2020-01-30T09:14:09.000Z</time>
      </trkpt>
      <trkpt lat="47.28357" lon="-2.35858">
        <ele>21</ele>
        <time>2020-01-30T09:14:12.000Z</time>
      </trkpt>
      <trkpt lat="47.28353" lon="-2.35861">
        <ele>21</ele>
        <time>2020-01-30T09:14:13.000Z</time>
      </trkpt>
      <trkpt lat="47.28349" lon="-2.3587">
        <ele>21</ele>
        <time>2020-01-30T09:14:16.000Z</time>
      </trkpt>
      <trkpt lat="47.28349" lon="-2.35873">
        <ele>21</ele>
        <time>2020-01-30T09:14:18.000Z</time>
      </trkpt>
      <trkpt lat="47.28353" lon="-2.3588">
        <ele>21</ele>
        <time>2020-01-30T09:14:21.000Z</time>
      </trkpt>
      <trkpt lat="47.28361" lon="-2.35885">
        <ele>21</ele>
        <time>2020-01-30T09:14:25.000Z</time>
      </trkpt>
      <trkpt lat="47.28361" lon="-2.35887">
        <ele>21</ele>
        <time>2020-01-30T09:14:26.000Z</time>
      </trkpt>
      <trkpt lat="47.28358" lon="-2.35897">
        <ele>21</ele>
        <time>2020-01-30T09:14:32.000Z</time>
      </trkpt>
      <trkpt lat="47.28359" lon="-2.35901">
        <ele>21</ele>
        <time>2020-01-30T09:14:34.000Z</time>
      </trkpt>
      <trkpt lat="47.28363" lon="-2.35906">
        <ele>21</ele>
        <time>2020-01-30T09:14:37.000Z</time>
      </trkpt>
      <trkpt lat="47.28364" lon="-2.3591">
        <ele>21</ele>
        <time>2020-01-30T09:14:38.000Z</time>
      </trkpt>
      <trkpt lat="47.28369" lon="-2.35927">
        <ele>21</ele>
        <time>2020-01-30T09:14:42.000Z</time>
      </trkpt>
      <trkpt lat="47.28377" lon="-2.35953">
        <ele>21</ele>
        <time>2020-01-30T09:14:48.000Z</time>
      </trkpt>
      <trkpt lat="47.28374" lon="-2.3597">
        <ele>21</ele>
        <time>2020-01-30T09:14:53.000Z</time>
      </trkpt>
      <trkpt lat="47.28374" lon="-2.35973">
        <ele>21</ele>
        <time>2020-01-30T09:14:54.000Z</time>
      </trkpt>
      <trkpt lat="47.28375" lon="-2.35978">
        <ele>21.39999961853</ele>
        <time>2020-01-30T09:14:56.000Z</time>
      </trkpt>
      <trkpt lat="47.28374" lon="-2.3598">
        <ele>21.799999237061</ele>
        <time>2020-01-30T09:14:57.000Z</time>
      </trkpt>
      <trkpt lat="47.28373" lon="-2.35983">
        <ele>22.200000762939</ele>
        <time>2020-01-30T09:14:58.000Z</time>
      </trkpt>
      <trkpt lat="47.28371" lon="-2.35985">
        <ele>22.60000038147</ele>
        <time>2020-01-30T09:14:59.000Z</time>
      </trkpt>
      <trkpt lat="47.2837" lon="-2.35987">
        <ele>23</ele>
        <time>2020-01-30T09:15:00.000Z</time>
      </trkpt>
      <trkpt lat="47.28368" lon="-2.35991">
        <ele>23.60000038147</ele>
        <time>2020-01-30T09:15:02.000Z</time>
      </trkpt>
      <trkpt lat="47.28368" lon="-2.35993">
        <ele>24</ele>
        <time>2020-01-30T09:15:03.000Z</time>
      </trkpt>
      <trkpt lat="47.28369" lon="-2.35995">
        <ele>24.39999961853</ele>
        <time>2020-01-30T09:15:04.000Z</time>
      </trkpt>
      <trkpt lat="47.28369" lon="-2.35997">
        <ele>25</ele>
        <time>2020-01-30T09:15:05.000Z</time>
      </trkpt>
      <trkpt lat="47.2837" lon="-2.35998">
        <ele>25.39999961853</ele>
        <time>2020-01-30T09:15:06.000Z</time>
      </trkpt>
      <trkpt lat="47.28372" lon="-2.36001">
        <ele>25.39999961853</ele>
        <time>2020-01-30T09:15:09.000Z</time>
      </trkpt>
      <trkpt lat="47.28373" lon="-2.36009">
        <ele>27.60000038147</ele>
        <time>2020-01-30T09:15:31.000Z</time>
      </trkpt>
      <trkpt lat="47.28358" lon="-2.36016">
        <ele>27.60000038147</ele>
        <time>2020-01-30T09:15:36.000Z</time>
      </trkpt>
      <trkpt lat="47.28345" lon="-2.36027">
        <ele>27.60000038147</ele>
        <time>2020-01-30T09:15:39.000Z</time>
      </trkpt>
      <trkpt lat="47.28337" lon="-2.36035">
        <ele>27.60000038147</ele>
        <time>2020-01-30T09:15:41.000Z</time>
      </trkpt>
      <trkpt lat="47.28333" lon="-2.3604">
        <ele>27</ele>
        <time>2020-01-30T09:15:42.000Z</time>
      </trkpt>
      <trkpt lat="47.28329" lon="-2.36044">
        <ele>26.60000038147</ele>
        <time>2020-01-30T09:15:43.000Z</time>
      </trkpt>
      <trkpt lat="47.28325" lon="-2.36047">
        <ele>26.200000762939</ele>
        <time>2020-01-30T09:15:44.000Z</time>
      </trkpt>
      <trkpt lat="47.28321" lon="-2.36049">
        <ele>25.799999237061</ele>
        <time>2020-01-30T09:15:45.000Z</time>
      </trkpt>
      <trkpt lat="47.28317" lon="-2.36049">
        <ele>25.39999961853</ele>
        <time>2020-01-30T09:15:46.000Z</time>
      </trkpt>
      <trkpt lat="47.28305" lon="-2.36047">
        <ele>25.39999961853</ele>
        <time>2020-01-30T09:15:49.000Z</time>
      </trkpt>
      <trkpt lat="47.28291" lon="-2.36038">
        <ele>25</ele>
        <time>2020-01-30T09:15:53.000Z</time>
      </trkpt>
      <trkpt lat="47.28289" lon="-2.36034">
        <ele>24.39999961853</ele>
        <time>2020-01-30T09:15:54.000Z</time>
      </trkpt>
      <trkpt lat="47.28288" lon="-2.36031">
        <ele>24</ele>
        <time>2020-01-30T09:15:55.000Z</time>
      </trkpt>
      <trkpt lat="47.28286" lon="-2.36028">
        <ele>23.200000762939</ele>
        <time>2020-01-30T09:15:56.000Z</time>
      </trkpt>
      <trkpt lat="47.28285" lon="-2.36026">
        <ele>22.60000038147</ele>
        <time>2020-01-30T09:15:57.000Z</time>
      </trkpt>
      <trkpt lat="47.28283" lon="-2.36024">
        <ele>21.799999237061</ele>
        <time>2020-01-30T09:15:58.000Z</time>
      </trkpt>
      <trkpt lat="47.28283" lon="-2.36021">
        <ele>21</ele>
        <time>2020-01-30T09:15:59.000Z</time>
      </trkpt>
      <trkpt lat="47.28281" lon="-2.36017">
        <ele>20.39999961853</ele>
        <time>2020-01-30T09:16:00.000Z</time>
      </trkpt>
      <trkpt lat="47.28279" lon="-2.36013">
        <ele>19.799999237061</ele>
        <time>2020-01-30T09:16:01.000Z</time>
      </trkpt>
      <trkpt lat="47.28276" lon="-2.36011">
        <ele>19.200000762939</ele>
        <time>2020-01-30T09:16:02.000Z</time>
      </trkpt>
      <trkpt lat="47.28274" lon="-2.3601">
        <ele>18.60000038147</ele>
        <time>2020-01-30T09:16:03.000Z</time>
      </trkpt>
      <trkpt lat="47.28269" lon="-2.36013">
        <ele>18</ele>
        <time>2020-01-30T09:16:04.000Z</time>
      </trkpt>
      <trkpt lat="47.28265" lon="-2.36017">
        <ele>17.39999961853</ele>
        <time>2020-01-30T09:16:05.000Z</time>
      </trkpt>
      <trkpt lat="47.28262" lon="-2.36021">
        <ele>17</ele>
        <time>2020-01-30T09:16:06.000Z</time>
      </trkpt>
      <trkpt lat="47.2826" lon="-2.36025">
        <ele>15.800000190735</ele>
        <time>2020-01-30T09:16:07.000Z</time>
      </trkpt>
      <trkpt lat="47.28256" lon="-2.36037">
        <ele>15.800000190735</ele>
        <time>2020-01-30T09:16:10.000Z</time>
      </trkpt>
      <trkpt lat="47.28252" lon="-2.36055">
        <ele>15.800000190735</ele>
        <time>2020-01-30T09:16:14.000Z</time>
      </trkpt>
      <trkpt lat="47.28249" lon="-2.36074">
        <ele>15.800000190735</ele>
        <time>2020-01-30T09:16:19.000Z</time>
      </trkpt>
      <trkpt lat="47.28248" lon="-2.36095">
        <ele>15.800000190735</ele>
        <time>2020-01-30T09:16:24.000Z</time>
      </trkpt>
      <trkpt lat="47.28249" lon="-2.36101">
        <ele>15.800000190735</ele>
        <time>2020-01-30T09:16:25.000Z</time>
      </trkpt>
      <trkpt lat="47.28257" lon="-2.3612">
        <ele>15.800000190735</ele>
        <time>2020-01-30T09:16:29.000Z</time>
      </trkpt>
      <trkpt lat="47.28263" lon="-2.36135">
        <ele>15.800000190735</ele>
        <time>2020-01-30T09:16:32.000Z</time>
      </trkpt>
      <trkpt lat="47.28266" lon="-2.3614">
        <ele>15.800000190735</ele>
        <time>2020-01-30T09:16:33.000Z</time>
      </trkpt>
      <trkpt lat="47.28277" lon="-2.36157">
        <ele>15.800000190735</ele>
        <time>2020-01-30T09:16:37.000Z</time>
      </trkpt>
      <trkpt lat="47.28281" lon="-2.36167">
        <ele>15.800000190735</ele>
        <time>2020-01-30T09:16:39.000Z</time>
      </trkpt>
      <trkpt lat="47.2828" lon="-2.36187">
        <ele>15.800000190735</ele>
        <time>2020-01-30T09:16:43.000Z</time>
      </trkpt>
      <trkpt lat="47.28285" lon="-2.36217">
        <ele>15.800000190735</ele>
        <time>2020-01-30T09:16:49.000Z</time>
      </trkpt>
      <trkpt lat="47.28286" lon="-2.36218">
        <ele>15.800000190735</ele>
        <time>2020-01-30T09:16:50.000Z</time>
      </trkpt>
      <trkpt lat="47.28288" lon="-2.3622">
        <ele>15.800000190735</ele>
        <time>2020-01-30T09:16:52.000Z</time>
      </trkpt>
      <trkpt lat="47.28296" lon="-2.36218">
        <ele>15.800000190735</ele>
        <time>2020-01-30T09:16:56.000Z</time>
      </trkpt>
      <trkpt lat="47.28308" lon="-2.36213">
        <ele>15.800000190735</ele>
        <time>2020-01-30T09:17:01.000Z</time>
      </trkpt>
      <trkpt lat="47.28318" lon="-2.36208">
        <ele>15.800000190735</ele>
        <time>2020-01-30T09:17:05.000Z</time>
      </trkpt>
      <trkpt lat="47.2832" lon="-2.36206">
        <ele>15.800000190735</ele>
        <time>2020-01-30T09:17:06.000Z</time>
      </trkpt>
      <trkpt lat="47.28329" lon="-2.36193">
        <ele>15.800000190735</ele>
        <time>2020-01-30T09:17:12.000Z</time>
      </trkpt>
      <trkpt lat="47.28333" lon="-2.3619">
        <ele>15.800000190735</ele>
        <time>2020-01-30T09:17:15.000Z</time>
      </trkpt>
      <trkpt lat="47.28334" lon="-2.36189">
        <ele>16.200000762939</ele>
        <time>2020-01-30T09:17:16.000Z</time>
      </trkpt>
      <trkpt lat="47.28335" lon="-2.36188">
        <ele>16.799999237061</ele>
        <time>2020-01-30T09:17:17.000Z</time>
      </trkpt>
      <trkpt lat="47.28336" lon="-2.36186">
        <ele>17.200000762939</ele>
        <time>2020-01-30T09:17:18.000Z</time>
      </trkpt>
      <trkpt lat="47.28338" lon="-2.36185">
        <ele>17.60000038147</ele>
        <time>2020-01-30T09:17:19.000Z</time>
      </trkpt>
      <trkpt lat="47.2834" lon="-2.36183">
        <ele>18</ele>
        <time>2020-01-30T09:17:20.000Z</time>
      </trkpt>
      <trkpt lat="47.28346" lon="-2.36178">
        <ele>18</ele>
        <time>2020-01-30T09:17:24.000Z</time>
      </trkpt>
      <trkpt lat="47.28349" lon="-2.36175">
        <ele>18.60000038147</ele>
        <time>2020-01-30T09:17:26.000Z</time>
      </trkpt>
      <trkpt lat="47.2835" lon="-2.36173">
        <ele>19</ele>
        <time>2020-01-30T09:17:27.000Z</time>
      </trkpt>
      <trkpt lat="47.28351" lon="-2.36172">
        <ele>19.60000038147</ele>
        <time>2020-01-30T09:17:28.000Z</time>
      </trkpt>
      <trkpt lat="47.28352" lon="-2.3617">
        <ele>20</ele>
        <time>2020-01-30T09:17:29.000Z</time>
      </trkpt>
      <trkpt lat="47.28354" lon="-2.36169">
        <ele>20.39999961853</ele>
        <time>2020-01-30T09:17:30.000Z</time>
      </trkpt>
      <trkpt lat="47.28355" lon="-2.36168">
        <ele>20.39999961853</ele>
        <time>2020-01-30T09:17:31.000Z</time>
      </trkpt>
      <trkpt lat="47.28357" lon="-2.36165">
        <ele>21</ele>
        <time>2020-01-30T09:17:33.000Z</time>
      </trkpt>
      <trkpt lat="47.28357" lon="-2.36164">
        <ele>21.39999961853</ele>
        <time>2020-01-30T09:17:34.000Z</time>
      </trkpt>
      <trkpt lat="47.28359" lon="-2.36163">
        <ele>21.799999237061</ele>
        <time>2020-01-30T09:17:35.000Z</time>
      </trkpt>
      <trkpt lat="47.2836" lon="-2.36161">
        <ele>22.200000762939</ele>
        <time>2020-01-30T09:17:36.000Z</time>
      </trkpt>
      <trkpt lat="47.28361" lon="-2.36159">
        <ele>22.799999237061</ele>
        <time>2020-01-30T09:17:37.000Z</time>
      </trkpt>
      <trkpt lat="47.28365" lon="-2.36154">
        <ele>23.200000762939</ele>
        <time>2020-01-30T09:17:41.000Z</time>
      </trkpt>
      <trkpt lat="47.28366" lon="-2.36154">
        <ele>23.60000038147</ele>
        <time>2020-01-30T09:17:42.000Z</time>
      </trkpt>
      <trkpt lat="47.28367" lon="-2.36153">
        <ele>24</ele>
        <time>2020-01-30T09:17:43.000Z</time>
      </trkpt>
      <trkpt lat="47.28367" lon="-2.36153">
        <ele>24.39999961853</ele>
        <time>2020-01-30T09:17:44.000Z</time>
      </trkpt>
      <trkpt lat="47.28368" lon="-2.36152">
        <ele>24.799999237061</ele>
        <time>2020-01-30T09:17:45.000Z</time>
      </trkpt>
      <trkpt lat="47.2837" lon="-2.3615">
        <ele>25.200000762939</ele>
        <time>2020-01-30T09:17:47.000Z</time>
      </trkpt>
      <trkpt lat="47.28371" lon="-2.36149">
        <ele>25.60000038147</ele>
        <time>2020-01-30T09:17:48.000Z</time>
      </trkpt>
      <trkpt lat="47.28372" lon="-2.36148">
        <ele>26</ele>
        <time>2020-01-30T09:17:49.000Z</time>
      </trkpt>
      <trkpt lat="47.28372" lon="-2.36147">
        <ele>26.39999961853</ele>
        <time>2020-01-30T09:17:50.000Z</time>
      </trkpt>
      <trkpt lat="47.28373" lon="-2.36145">
        <ele>26.799999237061</ele>
        <time>2020-01-30T09:17:51.000Z</time>
      </trkpt>
      <trkpt lat="47.28375" lon="-2.36146">
        <ele>26.799999237061</ele>
        <time>2020-01-30T09:17:54.000Z</time>
      </trkpt>
      <trkpt lat="47.28377" lon="-2.36148">
        <ele>26.799999237061</ele>
        <time>2020-01-30T09:17:55.000Z</time>
      </trkpt>
      <trkpt lat="47.28382" lon="-2.36156">
        <ele>26.799999237061</ele>
        <time>2020-01-30T09:17:58.000Z</time>
      </trkpt>
      <trkpt lat="47.28385" lon="-2.36159">
        <ele>26.799999237061</ele>
        <time>2020-01-30T09:17:59.000Z</time>
      </trkpt>
      <trkpt lat="47.2839" lon="-2.36168">
        <ele>26.799999237061</ele>
        <time>2020-01-30T09:18:03.000Z</time>
      </trkpt>
      <trkpt lat="47.28394" lon="-2.36174">
        <ele>26.39999961853</ele>
        <time>2020-01-30T09:18:06.000Z</time>
      </trkpt>
      <trkpt lat="47.28395" lon="-2.36176">
        <ele>26</ele>
        <time>2020-01-30T09:18:07.000Z</time>
      </trkpt>
      <trkpt lat="47.28397" lon="-2.36178">
        <ele>25.60000038147</ele>
        <time>2020-01-30T09:18:08.000Z</time>
      </trkpt>
      <trkpt lat="47.28398" lon="-2.36179">
        <ele>25.200000762939</ele>
        <time>2020-01-30T09:18:09.000Z</time>
      </trkpt>
      <trkpt lat="47.28399" lon="-2.36179">
        <ele>24.799999237061</ele>
        <time>2020-01-30T09:18:10.000Z</time>
      </trkpt>
      <trkpt lat="47.28402" lon="-2.36186">
        <ele>24.799999237061</ele>
        <time>2020-01-30T09:18:14.000Z</time>
      </trkpt>
      <trkpt lat="47.28403" lon="-2.36187">
        <ele>24.39999961853</ele>
        <time>2020-01-30T09:18:15.000Z</time>
      </trkpt>
      <trkpt lat="47.28404" lon="-2.36187">
        <ele>24</ele>
        <time>2020-01-30T09:18:16.000Z</time>
      </trkpt>
      <trkpt lat="47.28398" lon="-2.36215">
        <ele>21</ele>
        <time>2020-01-30T09:18:45.000Z</time>
      </trkpt>
      <trkpt lat="47.28398" lon="-2.36218">
        <ele>20.60000038147</ele>
        <time>2020-01-30T09:18:46.000Z</time>
      </trkpt>
      <trkpt lat="47.28397" lon="-2.36221">
        <ele>20.60000038147</ele>
        <time>2020-01-30T09:18:47.000Z</time>
      </trkpt>
      <trkpt lat="47.28389" lon="-2.36232">
        <ele>20.200000762939</ele>
        <time>2020-01-30T09:18:51.000Z</time>
      </trkpt>
      <trkpt lat="47.28387" lon="-2.36234">
        <ele>19.799999237061</ele>
        <time>2020-01-30T09:18:52.000Z</time>
      </trkpt>
      <trkpt lat="47.28385" lon="-2.36237">
        <ele>19.39999961853</ele>
        <time>2020-01-30T09:18:53.000Z</time>
      </trkpt>
      <trkpt lat="47.28381" lon="-2.3624">
        <ele>19</ele>
        <time>2020-01-30T09:18:54.000Z</time>
      </trkpt>
      <trkpt lat="47.28378" lon="-2.36243">
        <ele>18.60000038147</ele>
        <time>2020-01-30T09:18:55.000Z</time>
      </trkpt>
      <trkpt lat="47.28374" lon="-2.36251">
        <ele>18.200000762939</ele>
        <time>2020-01-30T09:18:57.000Z</time>
      </trkpt>
      <trkpt lat="47.28372" lon="-2.36255">
        <ele>17.60000038147</ele>
        <time>2020-01-30T09:18:58.000Z</time>
      </trkpt>
      <trkpt lat="47.28372" lon="-2.36258">
        <ele>17.200000762939</ele>
        <time>2020-01-30T09:18:59.000Z</time>
      </trkpt>
      <trkpt lat="47.28372" lon="-2.3626">
        <ele>16.39999961853</ele>
        <time>2020-01-30T09:19:00.000Z</time>
      </trkpt>
      <trkpt lat="47.28371" lon="-2.36261">
        <ele>16.39999961853</ele>
        <time>2020-01-30T09:19:01.000Z</time>
      </trkpt>
      <trkpt lat="47.28373" lon="-2.36263">
        <ele>16.39999961853</ele>
        <time>2020-01-30T09:19:03.000Z</time>
      </trkpt>
      <trkpt lat="47.28381" lon="-2.36266">
        <ele>16.39999961853</ele>
        <time>2020-01-30T09:19:07.000Z</time>
      </trkpt>
      <trkpt lat="47.28392" lon="-2.36269">
        <ele>16.39999961853</ele>
        <time>2020-01-30T09:19:11.000Z</time>
      </trkpt>
      <trkpt lat="47.28405" lon="-2.36277">
        <ele>16.39999961853</ele>
        <time>2020-01-30T09:19:17.000Z</time>
      </trkpt>
      <trkpt lat="47.28412" lon="-2.36281">
        <ele>16.39999961853</ele>
        <time>2020-01-30T09:19:21.000Z</time>
      </trkpt>
      <trkpt lat="47.28413" lon="-2.36281">
        <ele>16.39999961853</ele>
        <time>2020-01-30T09:19:22.000Z</time>
      </trkpt>
      <trkpt lat="47.28414" lon="-2.36281">
        <ele>16.799999237061</ele>
        <time>2020-01-30T09:19:23.000Z</time>
      </trkpt>
      <trkpt lat="47.28416" lon="-2.36281">
        <ele>17.200000762939</ele>
        <time>2020-01-30T09:19:24.000Z</time>
      </trkpt>
      <trkpt lat="47.28416" lon="-2.36281">
        <ele>18</ele>
        <time>2020-01-30T09:19:25.000Z</time>
      </trkpt>
      <trkpt lat="47.28418" lon="-2.36283">
        <ele>18.39999961853</ele>
        <time>2020-01-30T09:19:26.000Z</time>
      </trkpt>
      <trkpt lat="47.28422" lon="-2.36284">
        <ele>18.39999961853</ele>
        <time>2020-01-30T09:19:28.000Z</time>
      </trkpt>
      <trkpt lat="47.28431" lon="-2.36287">
        <ele>18.39999961853</ele>
        <time>2020-01-30T09:19:32.000Z</time>
      </trkpt>
      <trkpt lat="47.28441" lon="-2.36291">
        <ele>18.39999961853</ele>
        <time>2020-01-30T09:19:36.000Z</time>
      </trkpt>
      <trkpt lat="47.28444" lon="-2.36292">
        <ele>18.799999237061</ele>
        <time>2020-01-30T09:19:37.000Z</time>
      </trkpt>
      <trkpt lat="47.28446" lon="-2.36292">
        <ele>19.200000762939</ele>
        <time>2020-01-30T09:19:38.000Z</time>
      </trkpt>
      <trkpt lat="47.28448" lon="-2.36292">
        <ele>19.60000038147</ele>
        <time>2020-01-30T09:19:39.000Z</time>
      </trkpt>
      <trkpt lat="47.2845" lon="-2.36293">
        <ele>20</ele>
        <time>2020-01-30T09:19:40.000Z</time>
      </trkpt>
      <trkpt lat="47.28452" lon="-2.36295">
        <ele>20.39999961853</ele>
        <time>2020-01-30T09:19:41.000Z</time>
      </trkpt>
      <trkpt lat="47.28453" lon="-2.36299">
        <ele>20.39999961853</ele>
        <time>2020-01-30T09:19:42.000Z</time>
      </trkpt>
      <trkpt lat="47.2846" lon="-2.36312">
        <ele>20.39999961853</ele>
        <time>2020-01-30T09:19:46.000Z</time>
      </trkpt>
      <trkpt lat="47.2846" lon="-2.36329">
        <ele>20.39999961853</ele>
        <time>2020-01-30T09:19:50.000Z</time>
      </trkpt>
      <trkpt lat="47.28462" lon="-2.36352">
        <ele>20.39999961853</ele>
        <time>2020-01-30T09:19:55.000Z</time>
      </trkpt>
      <trkpt lat="47.28467" lon="-2.36392">
        <ele>20.39999961853</ele>
        <time>2020-01-30T09:20:02.000Z</time>
      </trkpt>
      <trkpt lat="47.28471" lon="-2.36405">
        <ele>20.39999961853</ele>
        <time>2020-01-30T09:20:06.000Z</time>
      </trkpt>
      <trkpt lat="47.28472" lon="-2.36408">
        <ele>20.39999961853</ele>
        <time>2020-01-30T09:20:07.000Z</time>
      </trkpt>
      <trkpt lat="47.2848" lon="-2.36425">
        <ele>20.39999961853</ele>
        <time>2020-01-30T09:20:12.000Z</time>
      </trkpt>
      <trkpt lat="47.28495" lon="-2.36434">
        <ele>20.39999961853</ele>
        <time>2020-01-30T09:20:15.000Z</time>
      </trkpt>
      <trkpt lat="47.2851" lon="-2.36452">
        <ele>20.39999961853</ele>
        <time>2020-01-30T09:20:19.000Z</time>
      </trkpt>
      <trkpt lat="47.28518" lon="-2.36477">
        <ele>20.39999961853</ele>
        <time>2020-01-30T09:20:24.000Z</time>
      </trkpt>
      <trkpt lat="47.28519" lon="-2.36497">
        <ele>20.39999961853</ele>
        <time>2020-01-30T09:20:28.000Z</time>
      </trkpt>
      <trkpt lat="47.28512" lon="-2.36512">
        <ele>20.39999961853</ele>
        <time>2020-01-30T09:20:32.000Z</time>
      </trkpt>
      <trkpt lat="47.28509" lon="-2.36517">
        <ele>20.39999961853</ele>
        <time>2020-01-30T09:20:33.000Z</time>
      </trkpt>
      <trkpt lat="47.28494" lon="-2.36537">
        <ele>20.39999961853</ele>
        <time>2020-01-30T09:20:37.000Z</time>
      </trkpt>
      <trkpt lat="47.2849" lon="-2.36542">
        <ele>20</ele>
        <time>2020-01-30T09:20:38.000Z</time>
      </trkpt>
      <trkpt lat="47.28486" lon="-2.36548">
        <ele>19.200000762939</ele>
        <time>2020-01-30T09:20:39.000Z</time>
      </trkpt>
      <trkpt lat="47.28483" lon="-2.36553">
        <ele>18.799999237061</ele>
        <time>2020-01-30T09:20:40.000Z</time>
      </trkpt>
      <trkpt lat="47.28478" lon="-2.36558">
        <ele>18.39999961853</ele>
        <time>2020-01-30T09:20:41.000Z</time>
      </trkpt>
      <trkpt lat="47.28474" lon="-2.36562">
        <ele>18.39999961853</ele>
        <time>2020-01-30T09:20:42.000Z</time>
      </trkpt>
      <trkpt lat="47.2847" lon="-2.36568">
        <ele>18.39999961853</ele>
        <time>2020-01-30T09:20:43.000Z</time>
      </trkpt>
      <trkpt lat="47.28469" lon="-2.36583">
        <ele>18.39999961853</ele>
        <time>2020-01-30T09:20:45.000Z</time>
      </trkpt>
      <trkpt lat="47.28478" lon="-2.36617">
        <ele>18.39999961853</ele>
        <time>2020-01-30T09:20:50.000Z</time>
      </trkpt>
      <trkpt lat="47.28486" lon="-2.3664">
        <ele>18.39999961853</ele>
        <time>2020-01-30T09:20:55.000Z</time>
      </trkpt>
      <trkpt lat="47.28488" lon="-2.36644">
        <ele>18</ele>
        <time>2020-01-30T09:20:56.000Z</time>
      </trkpt>
      <trkpt lat="47.28489" lon="-2.36648">
        <ele>17.60000038147</ele>
        <time>2020-01-30T09:20:57.000Z</time>
      </trkpt>
      <trkpt lat="47.28491" lon="-2.36652">
        <ele>17.200000762939</ele>
        <time>2020-01-30T09:20:58.000Z</time>
      </trkpt>
      <trkpt lat="47.28493" lon="-2.36656">
        <ele>16.799999237061</ele>
        <time>2020-01-30T09:20:59.000Z</time>
      </trkpt>
      <trkpt lat="47.28494" lon="-2.3666">
        <ele>16.39999961853</ele>
        <time>2020-01-30T09:21:00.000Z</time>
      </trkpt>
      <trkpt lat="47.28501" lon="-2.36672">
        <ele>16.39999961853</ele>
        <time>2020-01-30T09:21:03.000Z</time>
      </trkpt>
      <trkpt lat="47.28513" lon="-2.36688">
        <ele>16.39999961853</ele>
        <time>2020-01-30T09:21:08.000Z</time>
      </trkpt>
      <trkpt lat="47.28518" lon="-2.36697">
        <ele>16.39999961853</ele>
        <time>2020-01-30T09:21:10.000Z</time>
      </trkpt>
      <trkpt lat="47.28526" lon="-2.36716">
        <ele>16.39999961853</ele>
        <time>2020-01-30T09:21:13.000Z</time>
      </trkpt>
      <trkpt lat="47.2853" lon="-2.36723">
        <ele>16</ele>
        <time>2020-01-30T09:21:14.000Z</time>
      </trkpt>
      <trkpt lat="47.28533" lon="-2.3673">
        <ele>15.60000038147</ele>
        <time>2020-01-30T09:21:15.000Z</time>
      </trkpt>
      <trkpt lat="47.28537" lon="-2.36738">
        <ele>15</ele>
        <time>2020-01-30T09:21:16.000Z</time>
      </trkpt>
      <trkpt lat="47.2854" lon="-2.36746">
        <ele>14.60000038147</ele>
        <time>2020-01-30T09:21:17.000Z</time>
      </trkpt>
      <trkpt lat="47.28545" lon="-2.36754">
        <ele>14.199999809265</ele>
        <time>2020-01-30T09:21:18.000Z</time>
      </trkpt>
      <trkpt lat="47.28561" lon="-2.36786">
        <ele>13.800000190735</ele>
        <time>2020-01-30T09:21:22.000Z</time>
      </trkpt>
      <trkpt lat="47.28565" lon="-2.36793">
        <ele>13.39999961853</ele>
        <time>2020-01-30T09:21:23.000Z</time>
      </trkpt>
      <trkpt lat="47.28569" lon="-2.368">
        <ele>13</ele>
        <time>2020-01-30T09:21:24.000Z</time>
      </trkpt>
      <trkpt lat="47.28573" lon="-2.36807">
        <ele>12.39999961853</ele>
        <time>2020-01-30T09:21:25.000Z</time>
      </trkpt>
      <trkpt lat="47.28577" lon="-2.36814">
        <ele>12</ele>
        <time>2020-01-30T09:21:26.000Z</time>
      </trkpt>
      <trkpt lat="47.28589" lon="-2.36833">
        <ele>12</ele>
        <time>2020-01-30T09:21:29.000Z</time>
      </trkpt>
      <trkpt lat="47.28597" lon="-2.36842">
        <ele>12</ele>
        <time>2020-01-30T09:21:31.000Z</time>
      </trkpt>
      <trkpt lat="47.28602" lon="-2.36844">
        <ele>11.60000038147</ele>
        <time>2020-01-30T09:21:32.000Z</time>
      </trkpt>
      <trkpt lat="47.28606" lon="-2.36845">
        <ele>11.199999809265</ele>
        <time>2020-01-30T09:21:33.000Z</time>
      </trkpt>
      <trkpt lat="47.28611" lon="-2.36844">
        <ele>10.60000038147</ele>
        <time>2020-01-30T09:21:34.000Z</time>
      </trkpt>
      <trkpt lat="47.28615" lon="-2.36841">
        <ele>10.199999809265</ele>
        <time>2020-01-30T09:21:35.000Z</time>
      </trkpt>
      <trkpt lat="47.28619" lon="-2.36838">
        <ele>9.8000001907349</ele>
        <time>2020-01-30T09:21:36.000Z</time>
      </trkpt>
      <trkpt lat="47.28622" lon="-2.36834">
        <ele>9.8000001907349</ele>
        <time>2020-01-30T09:21:37.000Z</time>
      </trkpt>
      <trkpt lat="47.28626" lon="-2.3683">
        <ele>9.8000001907349</ele>
        <time>2020-01-30T09:21:38.000Z</time>
      </trkpt>
      <trkpt lat="47.28634" lon="-2.3682">
        <ele>9.8000001907349</ele>
        <time>2020-01-30T09:21:41.000Z</time>
      </trkpt>
      <trkpt lat="47.28649" lon="-2.36805">
        <ele>9.8000001907349</ele>
        <time>2020-01-30T09:21:46.000Z</time>
      </trkpt>
      <trkpt lat="47.28661" lon="-2.36794">
        <ele>9.8000001907349</ele>
        <time>2020-01-30T09:21:51.000Z</time>
      </trkpt>
      <trkpt lat="47.28663" lon="-2.36794">
        <ele>9.8000001907349</ele>
        <time>2020-01-30T09:21:52.000Z</time>
      </trkpt>
      <trkpt lat="47.28667" lon="-2.36797">
        <ele>10.199999809265</ele>
        <time>2020-01-30T09:21:54.000Z</time>
      </trkpt>
      <trkpt lat="47.28667" lon="-2.36799">
        <ele>10.60000038147</ele>
        <time>2020-01-30T09:21:55.000Z</time>
      </trkpt>
      <trkpt lat="47.28668" lon="-2.368">
        <ele>11</ele>
        <time>2020-01-30T09:21:56.000Z</time>
      </trkpt>
      <trkpt lat="47.28669" lon="-2.36803">
        <ele>11.39999961853</ele>
        <time>2020-01-30T09:21:57.000Z</time>
      </trkpt>
      <trkpt lat="47.2867" lon="-2.36806">
        <ele>11.800000190735</ele>
        <time>2020-01-30T09:21:58.000Z</time>
      </trkpt>
      <trkpt lat="47.28673" lon="-2.36813">
        <ele>11.800000190735</ele>
        <time>2020-01-30T09:22:00.000Z</time>
      </trkpt>
      <trkpt lat="47.28679" lon="-2.3683">
        <ele>11.800000190735</ele>
        <time>2020-01-30T09:22:04.000Z</time>
      </trkpt>
      <trkpt lat="47.28686" lon="-2.36845">
        <ele>11.800000190735</ele>
        <time>2020-01-30T09:22:07.000Z</time>
      </trkpt>
      <trkpt lat="47.28691" lon="-2.36855">
        <ele>11.800000190735</ele>
        <time>2020-01-30T09:22:09.000Z</time>
      </trkpt>
      <trkpt lat="47.28697" lon="-2.36865">
        <ele>11.39999961853</ele>
        <time>2020-01-30T09:22:13.000Z</time>
      </trkpt>
      <trkpt lat="47.28699" lon="-2.36867">
        <ele>11</ele>
        <time>2020-01-30T09:22:14.000Z</time>
      </trkpt>
      <trkpt lat="47.28703" lon="-2.36869">
        <ele>10.60000038147</ele>
        <time>2020-01-30T09:22:15.000Z</time>
      </trkpt>
      <trkpt lat="47.28705" lon="-2.36871">
        <ele>10.199999809265</ele>
        <time>2020-01-30T09:22:16.000Z</time>
      </trkpt>
      <trkpt lat="47.28708" lon="-2.36872">
        <ele>9.8000001907349</ele>
        <time>2020-01-30T09:22:17.000Z</time>
      </trkpt>
      <trkpt lat="47.2871" lon="-2.36873">
        <ele>9.8000001907349</ele>
        <time>2020-01-30T09:22:18.000Z</time>
      </trkpt>
      <trkpt lat="47.28721" lon="-2.36887">
        <ele>9.8000001907349</ele>
        <time>2020-01-30T09:22:22.000Z</time>
      </trkpt>
      <trkpt lat="47.28724" lon="-2.36894">
        <ele>9.8000001907349</ele>
        <time>2020-01-30T09:22:23.000Z</time>
      </trkpt>
      <trkpt lat="47.28728" lon="-2.36902">
        <ele>9.3999996185303</ele>
        <time>2020-01-30T09:22:24.000Z</time>
      </trkpt>
      <trkpt lat="47.28731" lon="-2.36907">
        <ele>8.8000001907349</ele>
        <time>2020-01-30T09:22:25.000Z</time>
      </trkpt>
      <trkpt lat="47.28734" lon="-2.36912">
        <ele>8.3999996185303</ele>
        <time>2020-01-30T09:22:26.000Z</time>
      </trkpt>
      <trkpt lat="47.28737" lon="-2.36916">
        <ele>8</ele>
        <time>2020-01-30T09:22:27.000Z</time>
      </trkpt>
      <trkpt lat="47.2874" lon="-2.3692">
        <ele>7.5999999046326</ele>
        <time>2020-01-30T09:22:28.000Z</time>
      </trkpt>
      <trkpt lat="47.28743" lon="-2.36923">
        <ele>7.5999999046326</ele>
        <time>2020-01-30T09:22:29.000Z</time>
      </trkpt>
      <trkpt lat="47.28749" lon="-2.36933">
        <ele>7.5999999046326</ele>
        <time>2020-01-30T09:22:34.000Z</time>
      </trkpt>
      <trkpt lat="47.28753" lon="-2.36941">
        <ele>8</ele>
        <time>2020-01-30T09:22:37.000Z</time>
      </trkpt>
      <trkpt lat="47.28754" lon="-2.36943">
        <ele>8.3999996185303</ele>
        <time>2020-01-30T09:22:38.000Z</time>
      </trkpt>
      <trkpt lat="47.28756" lon="-2.36946">
        <ele>8.8000001907349</ele>
        <time>2020-01-30T09:22:39.000Z</time>
      </trkpt>
      <trkpt lat="47.28757" lon="-2.3695">
        <ele>9.1999998092651</ele>
        <time>2020-01-30T09:22:40.000Z</time>
      </trkpt>
      <trkpt lat="47.28758" lon="-2.36953">
        <ele>9.6000003814697</ele>
        <time>2020-01-30T09:22:41.000Z</time>
      </trkpt>
      <trkpt lat="47.28759" lon="-2.36956">
        <ele>10.39999961853</ele>
        <time>2020-01-30T09:22:42.000Z</time>
      </trkpt>
      <trkpt lat="47.28759" lon="-2.36958">
        <ele>10.800000190735</ele>
        <time>2020-01-30T09:22:43.000Z</time>
      </trkpt>
      <trkpt lat="47.28759" lon="-2.36959">
        <ele>11.39999961853</ele>
        <time>2020-01-30T09:22:44.000Z</time>
      </trkpt>
      <trkpt lat="47.28759" lon="-2.36961">
        <ele>11.800000190735</ele>
        <time>2020-01-30T09:22:45.000Z</time>
      </trkpt>
      <trkpt lat="47.28761" lon="-2.36967">
        <ele>11.800000190735</ele>
        <time>2020-01-30T09:22:48.000Z</time>
      </trkpt>
      <trkpt lat="47.28762" lon="-2.36971">
        <ele>11.800000190735</ele>
        <time>2020-01-30T09:22:49.000Z</time>
      </trkpt>
      <trkpt lat="47.28771" lon="-2.36985">
        <ele>11.800000190735</ele>
        <time>2020-01-30T09:22:54.000Z</time>
      </trkpt>
      <trkpt lat="47.28778" lon="-2.37001">
        <ele>11.800000190735</ele>
        <time>2020-01-30T09:22:59.000Z</time>
      </trkpt>
      <trkpt lat="47.28788" lon="-2.37033">
        <ele>11.800000190735</ele>
        <time>2020-01-30T09:23:05.000Z</time>
      </trkpt>
      <trkpt lat="47.28795" lon="-2.37055">
        <ele>11.800000190735</ele>
        <time>2020-01-30T09:23:08.000Z</time>
      </trkpt>
      <trkpt lat="47.28797" lon="-2.37063">
        <ele>11.199999809265</ele>
        <time>2020-01-30T09:23:09.000Z</time>
      </trkpt>
      <trkpt lat="47.28798" lon="-2.3707">
        <ele>10.800000190735</ele>
        <time>2020-01-30T09:23:10.000Z</time>
      </trkpt>
      <trkpt lat="47.28799" lon="-2.37076">
        <ele>10.39999961853</ele>
        <time>2020-01-30T09:23:11.000Z</time>
      </trkpt>
      <trkpt lat="47.28799" lon="-2.37081">
        <ele>9.6000003814697</ele>
        <time>2020-01-30T09:23:12.000Z</time>
      </trkpt>
      <trkpt lat="47.28799" lon="-2.37085">
        <ele>9</ele>
        <time>2020-01-30T09:23:13.000Z</time>
      </trkpt>
      <trkpt lat="47.288" lon="-2.37088">
        <ele>8.3999996185303</ele>
        <time>2020-01-30T09:23:14.000Z</time>
      </trkpt>
      <trkpt lat="47.28802" lon="-2.3709">
        <ele>7.8000001907349</ele>
        <time>2020-01-30T09:23:15.000Z</time>
      </trkpt>
      <trkpt lat="47.28804" lon="-2.37091">
        <ele>7.1999998092651</ele>
        <time>2020-01-30T09:23:16.000Z</time>
      </trkpt>
      <trkpt lat="47.28807" lon="-2.37093">
        <ele>7.1999998092651</ele>
        <time>2020-01-30T09:23:17.000Z</time>
      </trkpt>
      <trkpt lat="47.28809" lon="-2.37094">
        <ele>6.5999999046326</ele>
        <time>2020-01-30T09:23:18.000Z</time>
      </trkpt>
      <trkpt lat="47.28811" lon="-2.37094">
        <ele>6.1999998092651</ele>
        <time>2020-01-30T09:23:19.000Z</time>
      </trkpt>
      <trkpt lat="47.28814" lon="-2.37094">
        <ele>5.8000001907349</ele>
        <time>2020-01-30T09:23:20.000Z</time>
      </trkpt>
      <trkpt lat="47.28815" lon="-2.37094">
        <ele>5.1999998092651</ele>
        <time>2020-01-30T09:23:21.000Z</time>
      </trkpt>
      <trkpt lat="47.28817" lon="-2.37094">
        <ele>4.8000001907349</ele>
        <time>2020-01-30T09:23:22.000Z</time>
      </trkpt>
      <trkpt lat="47.28818" lon="-2.37093">
        <ele>4.4000000953674</ele>
        <time>2020-01-30T09:23:23.000Z</time>
      </trkpt>
      <trkpt lat="47.28818" lon="-2.37093">
        <ele>3.7999999523163</ele>
        <time>2020-01-30T09:23:24.000Z</time>
      </trkpt>
      <trkpt lat="47.2882" lon="-2.37093">
        <ele>3.4000000953674</ele>
        <time>2020-01-30T09:23:25.000Z</time>
      </trkpt>
      <trkpt lat="47.28821" lon="-2.37097">
        <ele>2.7999999523163</ele>
        <time>2020-01-30T09:23:26.000Z</time>
      </trkpt>
      <trkpt lat="47.28822" lon="-2.371">
        <ele>2.4000000953674</ele>
        <time>2020-01-30T09:23:27.000Z</time>
      </trkpt>
      <trkpt lat="47.28823" lon="-2.37105">
        <ele>2</ele>
        <time>2020-01-30T09:23:29.000Z</time>
      </trkpt>
      <trkpt lat="47.28824" lon="-2.37109">
        <ele>1.3999999761581</ele>
        <time>2020-01-30T09:23:30.000Z</time>
      </trkpt>
      <trkpt lat="47.28824" lon="-2.37115">
        <ele>1</ele>
        <time>2020-01-30T09:23:31.000Z</time>
      </trkpt>
      <trkpt lat="47.28823" lon="-2.37121">
        <ele>0.20000000298023</ele>
        <time>2020-01-30T09:23:32.000Z</time>
      </trkpt>
      <trkpt lat="47.28824" lon="-2.37141">
        <ele>0.20000000298023</ele>
        <time>2020-01-30T09:23:35.000Z</time>
      </trkpt>
      <trkpt lat="47.28826" lon="-2.37148">
        <ele>0.20000000298023</ele>
        <time>2020-01-30T09:23:36.000Z</time>
      </trkpt>
      <trkpt lat="47.28827" lon="-2.37155">
        <ele>0.20000000298023</ele>
        <time>2020-01-30T09:23:37.000Z</time>
      </trkpt>
      <trkpt lat="47.2883" lon="-2.37178">
        <ele>0.20000000298023</ele>
        <time>2020-01-30T09:23:40.000Z</time>
      </trkpt>
      <trkpt lat="47.28831" lon="-2.37185">
        <ele>0.20000000298023</ele>
        <time>2020-01-30T09:23:41.000Z</time>
      </trkpt>
      <trkpt lat="47.28837" lon="-2.37217">
        <ele>0.20000000298023</ele>
        <time>2020-01-30T09:23:46.000Z</time>
      </trkpt>
      <trkpt lat="47.28845" lon="-2.37233">
        <ele>0.20000000298023</ele>
        <time>2020-01-30T09:23:49.000Z</time>
      </trkpt>
      <trkpt lat="47.28849" lon="-2.37235">
        <ele>0.20000000298023</ele>
        <time>2020-01-30T09:23:50.000Z</time>
      </trkpt>
      <trkpt lat="47.28866" lon="-2.37232">
        <ele>0.20000000298023</ele>
        <time>2020-01-30T09:23:54.000Z</time>
      </trkpt>
      <trkpt lat="47.28876" lon="-2.37228">
        <ele>0.20000000298023</ele>
        <time>2020-01-30T09:23:56.000Z</time>
      </trkpt>
      <trkpt lat="47.28882" lon="-2.37226">
        <ele>0.20000000298023</ele>
        <time>2020-01-30T09:23:57.000Z</time>
      </trkpt>
      <trkpt lat="47.28886" lon="-2.37224">
        <ele>0.20000000298023</ele>
        <time>2020-01-30T09:23:58.000Z</time>
      </trkpt>
      <trkpt lat="47.28912" lon="-2.37214">
        <ele>0.20000000298023</ele>
        <time>2020-01-30T09:24:04.000Z</time>
      </trkpt>
      <trkpt lat="47.28933" lon="-2.37211">
        <ele>0.20000000298023</ele>
        <time>2020-01-30T09:24:10.000Z</time>
      </trkpt>
      <trkpt lat="47.28946" lon="-2.37206">
        <ele>0.20000000298023</ele>
        <time>2020-01-30T09:24:15.000Z</time>
      </trkpt>
      <trkpt lat="47.28954" lon="-2.37204">
        <ele>0.20000000298023</ele>
        <time>2020-01-30T09:24:21.000Z</time>
      </trkpt>
      <trkpt lat="47.28957" lon="-2.37204">
        <ele>0.20000000298023</ele>
        <time>2020-01-30T09:24:24.000Z</time>
      </trkpt>
      <trkpt lat="47.28959" lon="-2.37202">
        <ele>2.5999999046326</ele>
        <time>2020-01-30T09:24:44.000Z</time>
      </trkpt>
      <trkpt lat="47.28961" lon="-2.37201">
        <ele>2.5999999046326</ele>
        <time>2020-01-30T09:24:45.000Z</time>
      </trkpt>
      <trkpt lat="47.28968" lon="-2.37197">
        <ele>2.5999999046326</ele>
        <time>2020-01-30T09:24:48.000Z</time>
      </trkpt>
      <trkpt lat="47.28977" lon="-2.37191">
        <ele>2.5999999046326</ele>
        <time>2020-01-30T09:24:51.000Z</time>
      </trkpt>
      <trkpt lat="47.28987" lon="-2.37181">
        <ele>2.5999999046326</ele>
        <time>2020-01-30T09:24:55.000Z</time>
      </trkpt>
      <trkpt lat="47.29" lon="-2.37173">
        <ele>2.5999999046326</ele>
        <time>2020-01-30T09:25:01.000Z</time>
      </trkpt>
      <trkpt lat="47.29003" lon="-2.37173">
        <ele>3</ele>
        <time>2020-01-30T09:25:02.000Z</time>
      </trkpt>
      <trkpt lat="47.29005" lon="-2.37174">
        <ele>3.4000000953674</ele>
        <time>2020-01-30T09:25:03.000Z</time>
      </trkpt>
      <trkpt lat="47.29007" lon="-2.37175">
        <ele>3.7999999523163</ele>
        <time>2020-01-30T09:25:04.000Z</time>
      </trkpt>
      <trkpt lat="47.29009" lon="-2.37176">
        <ele>4.1999998092651</ele>
        <time>2020-01-30T09:25:05.000Z</time>
      </trkpt>
      <trkpt lat="47.29012" lon="-2.37177">
        <ele>4.5999999046326</ele>
        <time>2020-01-30T09:25:06.000Z</time>
      </trkpt>
      <trkpt lat="47.29019" lon="-2.37183">
        <ele>5</ele>
        <time>2020-01-30T09:25:09.000Z</time>
      </trkpt>
      <trkpt lat="47.29022" lon="-2.37185">
        <ele>5.4000000953674</ele>
        <time>2020-01-30T09:25:10.000Z</time>
      </trkpt>
      <trkpt lat="47.29024" lon="-2.37187">
        <ele>6.4000000953674</ele>
        <time>2020-01-30T09:25:11.000Z</time>
      </trkpt>
      <trkpt lat="47.29026" lon="-2.3719">
        <ele>6.8000001907349</ele>
        <time>2020-01-30T09:25:12.000Z</time>
      </trkpt>
      <trkpt lat="47.29038" lon="-2.37205">
        <ele>6.8000001907349</ele>
        <time>2020-01-30T09:25:17.000Z</time>
      </trkpt>
      <trkpt lat="47.2905" lon="-2.37217">
        <ele>7.1999998092651</ele>
        <time>2020-01-30T09:25:21.000Z</time>
      </trkpt>
      <trkpt lat="47.29053" lon="-2.37219">
        <ele>7.5999999046326</ele>
        <time>2020-01-30T09:25:22.000Z</time>
      </trkpt>
      <trkpt lat="47.29056" lon="-2.37222">
        <ele>8</ele>
        <time>2020-01-30T09:25:23.000Z</time>
      </trkpt>
      <trkpt lat="47.29059" lon="-2.37225">
        <ele>8.3999996185303</ele>
        <time>2020-01-30T09:25:24.000Z</time>
      </trkpt>
      <trkpt lat="47.29062" lon="-2.37228">
        <ele>8.8000001907349</ele>
        <time>2020-01-30T09:25:25.000Z</time>
      </trkpt>
      <trkpt lat="47.29077" lon="-2.37244">
        <ele>8.8000001907349</ele>
        <time>2020-01-30T09:25:30.000Z</time>
      </trkpt>
      <trkpt lat="47.29092" lon="-2.37259">
        <ele>9.6000003814697</ele>
        <time>2020-01-30T09:25:35.000Z</time>
      </trkpt>
      <trkpt lat="47.29095" lon="-2.37262">
        <ele>10</ele>
        <time>2020-01-30T09:25:36.000Z</time>
      </trkpt>
      <trkpt lat="47.29098" lon="-2.37265">
        <ele>10.39999961853</ele>
        <time>2020-01-30T09:25:37.000Z</time>
      </trkpt>
      <trkpt lat="47.29101" lon="-2.37268">
        <ele>10.800000190735</ele>
        <time>2020-01-30T09:25:38.000Z</time>
      </trkpt>
      <trkpt lat="47.2912" lon="-2.37285">
        <ele>10.800000190735</ele>
        <time>2020-01-30T09:25:44.000Z</time>
      </trkpt>
      <trkpt lat="47.29136" lon="-2.373">
        <ele>10.800000190735</ele>
        <time>2020-01-30T09:25:49.000Z</time>
      </trkpt>
      <trkpt lat="47.2915" lon="-2.3732">
        <ele>10.800000190735</ele>
        <time>2020-01-30T09:25:54.000Z</time>
      </trkpt>
      <trkpt lat="47.29166" lon="-2.37351">
        <ele>10.800000190735</ele>
        <time>2020-01-30T09:26:00.000Z</time>
      </trkpt>
      <trkpt lat="47.29178" lon="-2.37378">
        <ele>10.800000190735</ele>
        <time>2020-01-30T09:26:05.000Z</time>
      </trkpt>
      <trkpt lat="47.29184" lon="-2.37388">
        <ele>10.800000190735</ele>
        <time>2020-01-30T09:26:07.000Z</time>
      </trkpt>
      <trkpt lat="47.29206" lon="-2.37424">
        <ele>10.800000190735</ele>
        <time>2020-01-30T09:26:14.000Z</time>
      </trkpt>
      <trkpt lat="47.29233" lon="-2.37468">
        <ele>10.800000190735</ele>
        <time>2020-01-30T09:26:21.000Z</time>
      </trkpt>
      <trkpt lat="47.29258" lon="-2.37506">
        <ele>10.800000190735</ele>
        <time>2020-01-30T09:26:27.000Z</time>
      </trkpt>
      <trkpt lat="47.29263" lon="-2.3751">
        <ele>10.800000190735</ele>
        <time>2020-01-30T09:26:28.000Z</time>
      </trkpt>
      <trkpt lat="47.29272" lon="-2.37522">
        <ele>10.39999961853</ele>
        <time>2020-01-30T09:26:30.000Z</time>
      </trkpt>
      <trkpt lat="47.29275" lon="-2.37528">
        <ele>10</ele>
        <time>2020-01-30T09:26:31.000Z</time>
      </trkpt>
      <trkpt lat="47.29279" lon="-2.37535">
        <ele>9.3999996185303</ele>
        <time>2020-01-30T09:26:32.000Z</time>
      </trkpt>
      <trkpt lat="47.29282" lon="-2.37543">
        <ele>9</ele>
        <time>2020-01-30T09:26:33.000Z</time>
      </trkpt>
      <trkpt lat="47.29285" lon="-2.37551">
        <ele>8.3999996185303</ele>
        <time>2020-01-30T09:26:34.000Z</time>
      </trkpt>
      <trkpt lat="47.29289" lon="-2.37557">
        <ele>8.3999996185303</ele>
        <time>2020-01-30T09:26:35.000Z</time>
      </trkpt>
      <trkpt lat="47.29297" lon="-2.3757">
        <ele>8.3999996185303</ele>
        <time>2020-01-30T09:26:37.000Z</time>
      </trkpt>
      <trkpt lat="47.29311" lon="-2.37592">
        <ele>8.3999996185303</ele>
        <time>2020-01-30T09:26:41.000Z</time>
      </trkpt>
      <trkpt lat="47.29325" lon="-2.37622">
        <ele>8.3999996185303</ele>
        <time>2020-01-30T09:26:46.000Z</time>
      </trkpt>
      <trkpt lat="47.29328" lon="-2.37628">
        <ele>8.3999996185303</ele>
        <time>2020-01-30T09:26:47.000Z</time>
      </trkpt>
      <trkpt lat="47.29341" lon="-2.37667">
        <ele>8.3999996185303</ele>
        <time>2020-01-30T09:26:53.000Z</time>
      </trkpt>
      <trkpt lat="47.29341" lon="-2.37675">
        <ele>8.3999996185303</ele>
        <time>2020-01-30T09:26:54.000Z</time>
      </trkpt>
      <trkpt lat="47.29341" lon="-2.377">
        <ele>8.3999996185303</ele>
        <time>2020-01-30T09:26:57.000Z</time>
      </trkpt>
      <trkpt lat="47.29341" lon="-2.37741">
        <ele>8.3999996185303</ele>
        <time>2020-01-30T09:27:01.000Z</time>
      </trkpt>
      <trkpt lat="47.29341" lon="-2.37765">
        <ele>8</ele>
        <time>2020-01-30T09:27:03.000Z</time>
      </trkpt>
      <trkpt lat="47.29341" lon="-2.37777">
        <ele>7.5999999046326</ele>
        <time>2020-01-30T09:27:04.000Z</time>
      </trkpt>
      <trkpt lat="47.29341" lon="-2.37789">
        <ele>7.1999998092651</ele>
        <time>2020-01-30T09:27:05.000Z</time>
      </trkpt>
      <trkpt lat="47.29341" lon="-2.37801">
        <ele>6.5999999046326</ele>
        <time>2020-01-30T09:27:06.000Z</time>
      </trkpt>
      <trkpt lat="47.29341" lon="-2.37813">
        <ele>6</ele>
        <time>2020-01-30T09:27:07.000Z</time>
      </trkpt>
      <trkpt lat="47.29341" lon="-2.37825">
        <ele>5.4000000953674</ele>
        <time>2020-01-30T09:27:08.000Z</time>
      </trkpt>
      <trkpt lat="47.29342" lon="-2.37837">
        <ele>4.8000001907349</ele>
        <time>2020-01-30T09:27:09.000Z</time>
      </trkpt>
      <trkpt lat="47.29344" lon="-2.37849">
        <ele>4.1999998092651</ele>
        <time>2020-01-30T09:27:10.000Z</time>
      </trkpt>
      <trkpt lat="47.29347" lon="-2.37861">
        <ele>3.5999999046326</ele>
        <time>2020-01-30T09:27:11.000Z</time>
      </trkpt>
      <trkpt lat="47.29349" lon="-2.37872">
        <ele>3.2000000476837</ele>
        <time>2020-01-30T09:27:12.000Z</time>
      </trkpt>
      <trkpt lat="47.29353" lon="-2.37882">
        <ele>2.5999999046326</ele>
        <time>2020-01-30T09:27:13.000Z</time>
      </trkpt>
      <trkpt lat="47.29356" lon="-2.37893">
        <ele>2.2000000476837</ele>
        <time>2020-01-30T09:27:14.000Z</time>
      </trkpt>
      <trkpt lat="47.29359" lon="-2.37903">
        <ele>1.6000000238419</ele>
        <time>2020-01-30T09:27:15.000Z</time>
      </trkpt>
      <trkpt lat="47.29369" lon="-2.37932">
        <ele>1.6000000238419</ele>
        <time>2020-01-30T09:27:18.000Z</time>
      </trkpt>
      <trkpt lat="47.29372" lon="-2.37942">
        <ele>1.2000000476837</ele>
        <time>2020-01-30T09:27:19.000Z</time>
      </trkpt>
      <trkpt lat="47.29375" lon="-2.37951">
        <ele>0.60000002384186</ele>
        <time>2020-01-30T09:27:20.000Z</time>
      </trkpt>
      <trkpt lat="47.29379" lon="-2.3796">
        <ele>0.20000000298023</ele>
        <time>2020-01-30T09:27:21.000Z</time>
      </trkpt>
      <trkpt lat="47.29382" lon="-2.37969">
        <ele>-0.40000000596046</ele>
        <time>2020-01-30T09:27:22.000Z</time>
      </trkpt>
      <trkpt lat="47.29385" lon="-2.37979">
        <ele>-0.80000001192093</ele>
        <time>2020-01-30T09:27:23.000Z</time>
      </trkpt>
      <trkpt lat="47.29391" lon="-2.37996">
        <ele>-0.80000001192093</ele>
        <time>2020-01-30T09:27:25.000Z</time>
      </trkpt>
      <trkpt lat="47.2941" lon="-2.38049">
        <ele>-1.2000000476837</ele>
        <time>2020-01-30T09:27:31.000Z</time>
      </trkpt>
      <trkpt lat="47.29414" lon="-2.38058">
        <ele>-1.7999999523163</ele>
        <time>2020-01-30T09:27:32.000Z</time>
      </trkpt>
      <trkpt lat="47.29417" lon="-2.38066">
        <ele>-2.2000000476837</ele>
        <time>2020-01-30T09:27:33.000Z</time>
      </trkpt>
      <trkpt lat="47.2942" lon="-2.38075">
        <ele>-2.5999999046326</ele>
        <time>2020-01-30T09:27:34.000Z</time>
      </trkpt>
      <trkpt lat="47.29423" lon="-2.38082">
        <ele>-3.2000000476837</ele>
        <time>2020-01-30T09:27:35.000Z</time>
      </trkpt>
      <trkpt lat="47.2944" lon="-2.38128">
        <ele>-3.2000000476837</ele>
        <time>2020-01-30T09:27:41.000Z</time>
      </trkpt>
      <trkpt lat="47.29446" lon="-2.38146">
        <ele>-3.2000000476837</ele>
        <time>2020-01-30T09:27:44.000Z</time>
      </trkpt>
      <trkpt lat="47.29449" lon="-2.38151">
        <ele>-3.5999999046326</ele>
        <time>2020-01-30T09:27:45.000Z</time>
      </trkpt>
      <trkpt lat="47.29452" lon="-2.38153">
        <ele>-4</ele>
        <time>2020-01-30T09:27:46.000Z</time>
      </trkpt>
      <trkpt lat="47.29455" lon="-2.38152">
        <ele>-4.4000000953674</ele>
        <time>2020-01-30T09:27:47.000Z</time>
      </trkpt>
      <trkpt lat="47.29458" lon="-2.38152">
        <ele>-5</ele>
        <time>2020-01-30T09:27:48.000Z</time>
      </trkpt>
      <trkpt lat="47.2946" lon="-2.3815">
        <ele>-5.4000000953674</ele>
        <time>2020-01-30T09:27:49.000Z</time>
      </trkpt>
      <trkpt lat="47.29464" lon="-2.38144">
        <ele>-5.4000000953674</ele>
        <time>2020-01-30T09:27:52.000Z</time>
      </trkpt>
      <trkpt lat="47.29466" lon="-2.38141">
        <ele>-5.4000000953674</ele>
        <time>2020-01-30T09:27:54.000Z</time>
      </trkpt>
      <trkpt lat="47.29476" lon="-2.3813">
        <ele>-5.4000000953674</ele>
        <time>2020-01-30T09:27:59.000Z</time>
      </trkpt>
      <trkpt lat="47.29489" lon="-2.38123">
        <ele>-5.4000000953674</ele>
        <time>2020-01-30T09:28:04.000Z</time>
      </trkpt>
      <trkpt lat="47.29505" lon="-2.38122">
        <ele>-5</ele>
        <time>2020-01-30T09:28:08.000Z</time>
      </trkpt>
      <trkpt lat="47.29508" lon="-2.38123">
        <ele>-4.5999999046326</ele>
        <time>2020-01-30T09:28:09.000Z</time>
      </trkpt>
      <trkpt lat="47.29512" lon="-2.38124">
        <ele>-4.1999998092651</ele>
        <time>2020-01-30T09:28:10.000Z</time>
      </trkpt>
      <trkpt lat="47.29515" lon="-2.38125">
        <ele>-3.5999999046326</ele>
        <time>2020-01-30T09:28:11.000Z</time>
      </trkpt>
      <trkpt lat="47.29519" lon="-2.38125">
        <ele>-3.2000000476837</ele>
        <time>2020-01-30T09:28:12.000Z</time>
      </trkpt>
      <trkpt lat="47.29529" lon="-2.38125">
        <ele>-3.2000000476837</ele>
        <time>2020-01-30T09:28:15.000Z</time>
      </trkpt>
      <trkpt lat="47.29551" lon="-2.38125">
        <ele>-3.2000000476837</ele>
        <time>2020-01-30T09:28:21.000Z</time>
      </trkpt>
      <trkpt lat="47.29562" lon="-2.38123">
        <ele>-2.7999999523163</ele>
        <time>2020-01-30T09:28:24.000Z</time>
      </trkpt>
      <trkpt lat="47.29565" lon="-2.38122">
        <ele>-2.4000000953674</ele>
        <time>2020-01-30T09:28:25.000Z</time>
      </trkpt>
      <trkpt lat="47.29568" lon="-2.38121">
        <ele>-2</ele>
        <time>2020-01-30T09:28:26.000Z</time>
      </trkpt>
      <trkpt lat="47.29571" lon="-2.3812">
        <ele>-1.6000000238419</ele>
        <time>2020-01-30T09:28:27.000Z</time>
      </trkpt>
      <trkpt lat="47.29574" lon="-2.38119">
        <ele>-1.2000000476837</ele>
        <time>2020-01-30T09:28:28.000Z</time>
      </trkpt>
      <trkpt lat="47.29595" lon="-2.38115">
        <ele>-1.2000000476837</ele>
        <time>2020-01-30T09:28:34.000Z</time>
      </trkpt>
      <trkpt lat="47.29603" lon="-2.38113">
        <ele>-0.80000001192093</ele>
        <time>2020-01-30T09:28:37.000Z</time>
      </trkpt>
      <trkpt lat="47.29607" lon="-2.38112">
        <ele>-0.40000000596046</ele>
        <time>2020-01-30T09:28:38.000Z</time>
      </trkpt>
      <trkpt lat="47.2961" lon="-2.38111">
        <ele>11.9</ele>
        <time>2020-01-30T09:28:39.000Z</time>
      </trkpt>
      <trkpt lat="47.29613" lon="-2.3811">
        <ele>0.40000000596046</ele>
        <time>2020-01-30T09:28:40.000Z</time>
      </trkpt>
      <trkpt lat="47.29617" lon="-2.38109">
        <ele>0.80000001192093</ele>
        <time>2020-01-30T09:28:41.000Z</time>
      </trkpt>
      <trkpt lat="47.29633" lon="-2.38103">
        <ele>0.80000001192093</ele>
        <time>2020-01-30T09:28:46.000Z</time>
      </trkpt>
      <trkpt lat="47.29652" lon="-2.38095">
        <ele>0.80000001192093</ele>
        <time>2020-01-30T09:28:52.000Z</time>
      </trkpt>
      <trkpt lat="47.29654" lon="-2.38093">
        <ele>1.2000000476837</ele>
        <time>2020-01-30T09:28:53.000Z</time>
      </trkpt>
      <trkpt lat="47.29657" lon="-2.38092">
        <ele>2</ele>
        <time>2020-01-30T09:28:54.000Z</time>
      </trkpt>
      <trkpt lat="47.2966" lon="-2.38091">
        <ele>2.4000000953674</ele>
        <time>2020-01-30T09:28:55.000Z</time>
      </trkpt>
      <trkpt lat="47.29663" lon="-2.38089">
        <ele>2.7999999523163</ele>
        <time>2020-01-30T09:28:56.000Z</time>
      </trkpt>
      <trkpt lat="47.2967" lon="-2.38084">
        <ele>2.7999999523163</ele>
        <time>2020-01-30T09:28:59.000Z</time>
      </trkpt>
      <trkpt lat="47.29686" lon="-2.38076">
        <ele>2.7999999523163</ele>
        <time>2020-01-30T09:29:05.000Z</time>
      </trkpt>
      <trkpt lat="47.29688" lon="-2.38075">
        <ele>3.4000000953674</ele>
        <time>2020-01-30T09:29:06.000Z</time>
      </trkpt>
      <trkpt lat="47.2969" lon="-2.38074">
        <ele>3.7999999523163</ele>
        <time>2020-01-30T09:29:07.000Z</time>
      </trkpt>
      <trkpt lat="47.29691" lon="-2.38072">
        <ele>4.1999998092651</ele>
        <time>2020-01-30T09:29:08.000Z</time>
      </trkpt>
      <trkpt lat="47.29693" lon="-2.3807">
        <ele>4.5999999046326</ele>
        <time>2020-01-30T09:29:09.000Z</time>
      </trkpt>
      <trkpt lat="47.29695" lon="-2.38069">
        <ele>5.1999998092651</ele>
        <time>2020-01-30T09:29:10.000Z</time>
      </trkpt>
      <trkpt lat="47.29697" lon="-2.38067">
        <ele>5.1999998092651</ele>
        <time>2020-01-30T09:29:11.000Z</time>
      </trkpt>
      <trkpt lat="47.29702" lon="-2.38063">
        <ele>5.5999999046326</ele>
        <time>2020-01-30T09:29:13.000Z</time>
      </trkpt>
      <trkpt lat="47.29704" lon="-2.38061">
        <ele>6</ele>
        <time>2020-01-30T09:29:14.000Z</time>
      </trkpt>
      <trkpt lat="47.29706" lon="-2.3806">
        <ele>6.4000000953674</ele>
        <time>2020-01-30T09:29:15.000Z</time>
      </trkpt>
      <trkpt lat="47.29708" lon="-2.38059">
        <ele>6.8000001907349</ele>
        <time>2020-01-30T09:29:16.000Z</time>
      </trkpt>
      <trkpt lat="47.29709" lon="-2.38057">
        <ele>7.1999998092651</ele>
        <time>2020-01-30T09:29:17.000Z</time>
      </trkpt>
      <trkpt lat="47.29712" lon="-2.38054">
        <ele>7.5999999046326</ele>
        <time>2020-01-30T09:29:19.000Z</time>
      </trkpt>
      <trkpt lat="47.29714" lon="-2.38052">
        <ele>8</ele>
        <time>2020-01-30T09:29:20.000Z</time>
      </trkpt>
      <trkpt lat="47.29716" lon="-2.3805">
        <ele>8.3999996185303</ele>
        <time>2020-01-30T09:29:21.000Z</time>
      </trkpt>
      <trkpt lat="47.29717" lon="-2.38048">
        <ele>8.8000001907349</ele>
        <time>2020-01-30T09:29:22.000Z</time>
      </trkpt>
      <trkpt lat="47.29719" lon="-2.38047">
        <ele>9.1999998092651</ele>
        <time>2020-01-30T09:29:23.000Z</time>
      </trkpt>
      <trkpt lat="47.29723" lon="-2.38044">
        <ele>9.6000003814697</ele>
        <time>2020-01-30T09:29:25.000Z</time>
      </trkpt>
      <trkpt lat="47.29724" lon="-2.38043">
        <ele>10</ele>
        <time>2020-01-30T09:29:26.000Z</time>
      </trkpt>
      <trkpt lat="47.29726" lon="-2.38042">
        <ele>10.39999961853</ele>
        <time>2020-01-30T09:29:27.000Z</time>
      </trkpt>
      <trkpt lat="47.29728" lon="-2.38041">
        <ele>10.800000190735</ele>
        <time>2020-01-30T09:29:28.000Z</time>
      </trkpt>
      <trkpt lat="47.2973" lon="-2.38039">
        <ele>11.199999809265</ele>
        <time>2020-01-30T09:29:29.000Z</time>
      </trkpt>
      <trkpt lat="47.29731" lon="-2.38038">
        <ele>11.60000038147</ele>
        <time>2020-01-30T09:29:30.000Z</time>
      </trkpt>
      <trkpt lat="47.29732" lon="-2.38035">
        <ele>12</ele>
        <time>2020-01-30T09:29:31.000Z</time>
      </trkpt>
      <trkpt lat="47.29732" lon="-2.38033">
        <ele>12.39999961853</ele>
        <time>2020-01-30T09:29:32.000Z</time>
      </trkpt>
      <trkpt lat="47.29732" lon="-2.38031">
        <ele>13</ele>
        <time>2020-01-30T09:29:33.000Z</time>
      </trkpt>
      <trkpt lat="47.29732" lon="-2.38029">
        <ele>13.39999961853</ele>
        <time>2020-01-30T09:29:34.000Z</time>
      </trkpt>
      <trkpt lat="47.29733" lon="-2.38018">
        <ele>13.800000190735</ele>
        <time>2020-01-30T09:29:39.000Z</time>
      </trkpt>
      <trkpt lat="47.29733" lon="-2.38016">
        <ele>14.199999809265</ele>
        <time>2020-01-30T09:29:40.000Z</time>
      </trkpt>
      <trkpt lat="47.29733" lon="-2.38013">
        <ele>14.800000190735</ele>
        <time>2020-01-30T09:29:41.000Z</time>
      </trkpt>
      <trkpt lat="47.29733" lon="-2.38011">
        <ele>15.199999809265</ele>
        <time>2020-01-30T09:29:42.000Z</time>
      </trkpt>
      <trkpt lat="47.29734" lon="-2.3801">
        <ele>15.60000038147</ele>
        <time>2020-01-30T09:29:43.000Z</time>
      </trkpt>
      <trkpt lat="47.29734" lon="-2.38007">
        <ele>16</ele>
        <time>2020-01-30T09:29:44.000Z</time>
      </trkpt>
      <trkpt lat="47.29734" lon="-2.38005">
        <ele>16.39999961853</ele>
        <time>2020-01-30T09:29:45.000Z</time>
      </trkpt>
      <trkpt lat="47.29734" lon="-2.38003">
        <ele>17</ele>
        <time>2020-01-30T09:29:46.000Z</time>
      </trkpt>
      <trkpt lat="47.29733" lon="-2.38">
        <ele>17.39999961853</ele>
        <time>2020-01-30T09:29:47.000Z</time>
      </trkpt>
      <trkpt lat="47.29734" lon="-2.37998">
        <ele>17.799999237061</ele>
        <time>2020-01-30T09:29:48.000Z</time>
      </trkpt>
      <trkpt lat="47.29735" lon="-2.37992">
        <ele>17.799999237061</ele>
        <time>2020-01-30T09:29:51.000Z</time>
      </trkpt>
      <trkpt lat="47.29736" lon="-2.37989">
        <ele>18.200000762939</ele>
        <time>2020-01-30T09:29:52.000Z</time>
      </trkpt>
      <trkpt lat="47.29736" lon="-2.37987">
        <ele>18.799999237061</ele>
        <time>2020-01-30T09:29:53.000Z</time>
      </trkpt>
      <trkpt lat="47.29737" lon="-2.37985">
        <ele>19.200000762939</ele>
        <time>2020-01-30T09:29:54.000Z</time>
      </trkpt>
      <trkpt lat="47.29737" lon="-2.37982">
        <ele>19.799999237061</ele>
        <time>2020-01-30T09:29:55.000Z</time>
      </trkpt>
      <trkpt lat="47.29737" lon="-2.3798">
        <ele>20.200000762939</ele>
        <time>2020-01-30T09:29:56.000Z</time>
      </trkpt>
      <trkpt lat="47.29738" lon="-2.37972">
        <ele>20.200000762939</ele>
        <time>2020-01-30T09:29:59.000Z</time>
      </trkpt>
      <trkpt lat="47.29739" lon="-2.3797">
        <ele>20.60000038147</ele>
        <time>2020-01-30T09:30:00.000Z</time>
      </trkpt>
      <trkpt lat="47.2974" lon="-2.37968">
        <ele>21</ele>
        <time>2020-01-30T09:30:01.000Z</time>
      </trkpt>
      <trkpt lat="47.2974" lon="-2.37967">
        <ele>21.39999961853</ele>
        <time>2020-01-30T09:30:02.000Z</time>
      </trkpt>
      <trkpt lat="47.29741" lon="-2.37965">
        <ele>21.799999237061</ele>
        <time>2020-01-30T09:30:03.000Z</time>
      </trkpt>
      <trkpt lat="47.29742" lon="-2.37963">
        <ele>22.200000762939</ele>
        <time>2020-01-30T09:30:04.000Z</time>
      </trkpt>
      <trkpt lat="47.29747" lon="-2.37952">
        <ele>22.200000762939</ele>
        <time>2020-01-30T09:30:09.000Z</time>
      </trkpt>
      <trkpt lat="47.29748" lon="-2.3795">
        <ele>22.200000762939</ele>
        <time>2020-01-30T09:30:10.000Z</time>
      </trkpt>
      <trkpt lat="47.29749" lon="-2.37948">
        <ele>22.799999237061</ele>
        <time>2020-01-30T09:30:11.000Z</time>
      </trkpt>
      <trkpt lat="47.2975" lon="-2.37946">
        <ele>23.200000762939</ele>
        <time>2020-01-30T09:30:12.000Z</time>
      </trkpt>
      <trkpt lat="47.29751" lon="-2.37945">
        <ele>23.60000038147</ele>
        <time>2020-01-30T09:30:13.000Z</time>
      </trkpt>
      <trkpt lat="47.29752" lon="-2.37942">
        <ele>24</ele>
        <time>2020-01-30T09:30:14.000Z</time>
      </trkpt>
      <trkpt lat="47.29754" lon="-2.37941">
        <ele>24.39999961853</ele>
        <time>2020-01-30T09:30:15.000Z</time>
      </trkpt>
      <trkpt lat="47.29755" lon="-2.37939">
        <ele>24.39999961853</ele>
        <time>2020-01-30T09:30:16.000Z</time>
      </trkpt>
      <trkpt lat="47.29768" lon="-2.37924">
        <ele>24.39999961853</ele>
        <time>2020-01-30T09:30:24.000Z</time>
      </trkpt>
      <trkpt lat="47.29781" lon="-2.37914">
        <ele>24.39999961853</ele>
        <time>2020-01-30T09:30:30.000Z</time>
      </trkpt>
      <trkpt lat="47.29784" lon="-2.37913">
        <ele>24.799999237061</ele>
        <time>2020-01-30T09:30:31.000Z</time>
      </trkpt>
      <trkpt lat="47.29786" lon="-2.37912">
        <ele>25.799999237061</ele>
        <time>2020-01-30T09:30:32.000Z</time>
      </trkpt>
      <trkpt lat="47.29787" lon="-2.37911">
        <ele>26.200000762939</ele>
        <time>2020-01-30T09:30:33.000Z</time>
      </trkpt>
      <trkpt lat="47.29789" lon="-2.3791">
        <ele>26.60000038147</ele>
        <time>2020-01-30T09:30:34.000Z</time>
      </trkpt>
      <trkpt lat="47.29794" lon="-2.37906">
        <ele>26.60000038147</ele>
        <time>2020-01-30T09:30:37.000Z</time>
      </trkpt>
      <trkpt lat="47.298" lon="-2.37903">
        <ele>26.60000038147</ele>
        <time>2020-01-30T09:30:41.000Z</time>
      </trkpt>
      <trkpt lat="47.298" lon="-2.37901">
        <ele>26.60000038147</ele>
        <time>2020-01-30T09:30:42.000Z</time>
      </trkpt>
      <trkpt lat="47.29808" lon="-2.37895">
        <ele>26.60000038147</ele>
        <time>2020-01-30T09:30:45.000Z</time>
      </trkpt>
      <trkpt lat="47.29811" lon="-2.37893">
        <ele>26.60000038147</ele>
        <time>2020-01-30T09:30:46.000Z</time>
      </trkpt>
      <trkpt lat="47.2982" lon="-2.37887">
        <ele>26.60000038147</ele>
        <time>2020-01-30T09:30:49.000Z</time>
      </trkpt>
      <trkpt lat="47.29823" lon="-2.37885">
        <ele>26.60000038147</ele>
        <time>2020-01-30T09:30:50.000Z</time>
      </trkpt>
      <trkpt lat="47.29838" lon="-2.37873">
        <ele>26.60000038147</ele>
        <time>2020-01-30T09:30:56.000Z</time>
      </trkpt>
      <trkpt lat="47.29851" lon="-2.3785">
        <ele>26.60000038147</ele>
        <time>2020-01-30T09:31:01.000Z</time>
      </trkpt>
      <trkpt lat="47.29862" lon="-2.3783">
        <ele>26.60000038147</ele>
        <time>2020-01-30T09:31:07.000Z</time>
      </trkpt>
      <trkpt lat="47.29868" lon="-2.3781">
        <ele>26.60000038147</ele>
        <time>2020-01-30T09:31:13.000Z</time>
      </trkpt>
      <trkpt lat="47.29868" lon="-2.37797">
        <ele>26.60000038147</ele>
        <time>2020-01-30T09:31:18.000Z</time>
      </trkpt>
      <trkpt lat="47.2987" lon="-2.37793">
        <ele>26.60000038147</ele>
        <time>2020-01-30T09:31:20.000Z</time>
      </trkpt>
      <trkpt lat="47.29874" lon="-2.37793">
        <ele>26.60000038147</ele>
        <time>2020-01-30T09:31:22.000Z</time>
      </trkpt>
      <trkpt lat="47.29878" lon="-2.37798">
        <ele>26.60000038147</ele>
        <time>2020-01-30T09:31:25.000Z</time>
      </trkpt>
      <trkpt lat="47.29878" lon="-2.37801">
        <ele>26.60000038147</ele>
        <time>2020-01-30T09:31:27.000Z</time>
      </trkpt>
      <trkpt lat="47.29877" lon="-2.37813">
        <ele>26.60000038147</ele>
        <time>2020-01-30T09:31:33.000Z</time>
      </trkpt>
      <trkpt lat="47.29872" lon="-2.3781">
        <ele>26.60000038147</ele>
        <time>2020-01-30T09:31:38.000Z</time>
      </trkpt>
      <trkpt lat="47.29869" lon="-2.37803">
        <ele>26.60000038147</ele>
        <time>2020-01-30T09:31:42.000Z</time>
      </trkpt>
      <trkpt lat="47.29869" lon="-2.37798">
        <ele>26.60000038147</ele>
        <time>2020-01-30T09:31:44.000Z</time>
      </trkpt>
      <trkpt lat="47.29869" lon="-2.37797">
        <ele>26.60000038147</ele>
        <time>2020-01-30T09:31:45.000Z</time>
      </trkpt>
      <trkpt lat="47.29872" lon="-2.37792">
        <ele>26.60000038147</ele>
        <time>2020-01-30T09:31:49.000Z</time>
      </trkpt>
      <trkpt lat="47.29876" lon="-2.37798">
        <ele>26.60000038147</ele>
        <time>2020-01-30T09:31:54.000Z</time>
      </trkpt>
      <trkpt lat="47.29883" lon="-2.37818">
        <ele>26.60000038147</ele>
        <time>2020-01-30T09:31:58.000Z</time>
      </trkpt>
      <trkpt lat="47.29895" lon="-2.37835">
        <ele>26.200000762939</ele>
        <time>2020-01-30T09:32:01.000Z</time>
      </trkpt>
      <trkpt lat="47.299" lon="-2.37842">
        <ele>25.799999237061</ele>
        <time>2020-01-30T09:32:02.000Z</time>
      </trkpt>
      <trkpt lat="47.29906" lon="-2.3785">
        <ele>25.39999961853</ele>
        <time>2020-01-30T09:32:03.000Z</time>
      </trkpt>
      <trkpt lat="47.29912" lon="-2.37859">
        <ele>25</ele>
        <time>2020-01-30T09:32:04.000Z</time>
      </trkpt>
      <trkpt lat="47.29918" lon="-2.37867">
        <ele>24.60000038147</ele>
        <time>2020-01-30T09:32:05.000Z</time>
      </trkpt>
      <trkpt lat="47.29926" lon="-2.37876">
        <ele>24.60000038147</ele>
        <time>2020-01-30T09:32:06.000Z</time>
      </trkpt>
      <trkpt lat="47.29933" lon="-2.37885">
        <ele>24</ele>
        <time>2020-01-30T09:32:07.000Z</time>
      </trkpt>
      <trkpt lat="47.2994" lon="-2.37893">
        <ele>23.39999961853</ele>
        <time>2020-01-30T09:32:08.000Z</time>
      </trkpt>
      <trkpt lat="47.29946" lon="-2.37901">
        <ele>22.799999237061</ele>
        <time>2020-01-30T09:32:09.000Z</time>
      </trkpt>
      <trkpt lat="47.29953" lon="-2.37908">
        <ele>22.200000762939</ele>
        <time>2020-01-30T09:32:10.000Z</time>
      </trkpt>
      <trkpt lat="47.29959" lon="-2.37915">
        <ele>21.799999237061</ele>
        <time>2020-01-30T09:32:11.000Z</time>
      </trkpt>
      <trkpt lat="47.29972" lon="-2.37929">
        <ele>21.200000762939</ele>
        <time>2020-01-30T09:32:13.000Z</time>
      </trkpt>
      <trkpt lat="47.29978" lon="-2.37936">
        <ele>20.799999237061</ele>
        <time>2020-01-30T09:32:14.000Z</time>
      </trkpt>
      <trkpt lat="47.29984" lon="-2.37941">
        <ele>20.39999961853</ele>
        <time>2020-01-30T09:32:15.000Z</time>
      </trkpt>
      <trkpt lat="47.2999" lon="-2.37946">
        <ele>20</ele>
        <time>2020-01-30T09:32:16.000Z</time>
      </trkpt>
      <trkpt lat="47.29996" lon="-2.37948">
        <ele>19.60000038147</ele>
        <time>2020-01-30T09:32:17.000Z</time>
      </trkpt>
      <trkpt lat="47.3" lon="-2.37952">
        <ele>19.60000038147</ele>
        <time>2020-01-30T09:32:18.000Z</time>
      </trkpt>
      <trkpt lat="47.30006" lon="-2.37969">
        <ele>19.60000038147</ele>
        <time>2020-01-30T09:32:21.000Z</time>
      </trkpt>
      <trkpt lat="47.29998" lon="-2.37985">
        <ele>19.60000038147</ele>
        <time>2020-01-30T09:32:24.000Z</time>
      </trkpt>
      <trkpt lat="47.29994" lon="-2.3801">
        <ele>19.60000038147</ele>
        <time>2020-01-30T09:32:27.000Z</time>
      </trkpt>
      <trkpt lat="47.29993" lon="-2.38026">
        <ele>19.60000038147</ele>
        <time>2020-01-30T09:32:29.000Z</time>
      </trkpt>
      <trkpt lat="47.29992" lon="-2.38055">
        <ele>19.60000038147</ele>
        <time>2020-01-30T09:32:33.000Z</time>
      </trkpt>
      <trkpt lat="47.29992" lon="-2.38101">
        <ele>19.60000038147</ele>
        <time>2020-01-30T09:32:40.000Z</time>
      </trkpt>
      <trkpt lat="47.29992" lon="-2.38142">
        <ele>19.60000038147</ele>
        <time>2020-01-30T09:32:47.000Z</time>
      </trkpt>
      <trkpt lat="47.29992" lon="-2.38148">
        <ele>19.60000038147</ele>
        <time>2020-01-30T09:32:48.000Z</time>
      </trkpt>
      <trkpt lat="47.29993" lon="-2.38167">
        <ele>19.60000038147</ele>
        <time>2020-01-30T09:32:51.000Z</time>
      </trkpt>
      <trkpt lat="47.29994" lon="-2.38173">
        <ele>20</ele>
        <time>2020-01-30T09:32:52.000Z</time>
      </trkpt>
      <trkpt lat="47.29994" lon="-2.3818">
        <ele>20.39999961853</ele>
        <time>2020-01-30T09:32:53.000Z</time>
      </trkpt>
      <trkpt lat="47.29994" lon="-2.38186">
        <ele>20.799999237061</ele>
        <time>2020-01-30T09:32:54.000Z</time>
      </trkpt>
      <trkpt lat="47.29995" lon="-2.38192">
        <ele>21.39999961853</ele>
        <time>2020-01-30T09:32:55.000Z</time>
      </trkpt>
      <trkpt lat="47.29995" lon="-2.38198">
        <ele>21.799999237061</ele>
        <time>2020-01-30T09:32:56.000Z</time>
      </trkpt>
      <trkpt lat="47.29996" lon="-2.38216">
        <ele>21.799999237061</ele>
        <time>2020-01-30T09:32:59.000Z</time>
      </trkpt>
      <trkpt lat="47.29996" lon="-2.38235">
        <ele>21.799999237061</ele>
        <time>2020-01-30T09:33:02.000Z</time>
      </trkpt>
      <trkpt lat="47.29997" lon="-2.38248">
        <ele>22.200000762939</ele>
        <time>2020-01-30T09:33:04.000Z</time>
      </trkpt>
      <trkpt lat="47.29997" lon="-2.38254">
        <ele>22.60000038147</ele>
        <time>2020-01-30T09:33:05.000Z</time>
      </trkpt>
      <trkpt lat="47.29998" lon="-2.3826">
        <ele>23</ele>
        <time>2020-01-30T09:33:06.000Z</time>
      </trkpt>
      <trkpt lat="47.29998" lon="-2.38267">
        <ele>23.39999961853</ele>
        <time>2020-01-30T09:33:07.000Z</time>
      </trkpt>
      <trkpt lat="47.29998" lon="-2.38273">
        <ele>23.799999237061</ele>
        <time>2020-01-30T09:33:08.000Z</time>
      </trkpt>
      <trkpt lat="47.29998" lon="-2.38286">
        <ele>23.799999237061</ele>
        <time>2020-01-30T09:33:10.000Z</time>
      </trkpt>
      <trkpt lat="47.29999" lon="-2.38338">
        <ele>23.799999237061</ele>
        <time>2020-01-30T09:33:18.000Z</time>
      </trkpt>
      <trkpt lat="47.30001" lon="-2.38391">
        <ele>23.799999237061</ele>
        <time>2020-01-30T09:33:26.000Z</time>
      </trkpt>
      <trkpt lat="47.30007" lon="-2.38435">
        <ele>23.799999237061</ele>
        <time>2020-01-30T09:33:33.000Z</time>
      </trkpt>
      <trkpt lat="47.30012" lon="-2.38477">
        <ele>23.799999237061</ele>
        <time>2020-01-30T09:33:40.000Z</time>
      </trkpt>
      <trkpt lat="47.30018" lon="-2.38509">
        <ele>23.799999237061</ele>
        <time>2020-01-30T09:33:45.000Z</time>
      </trkpt>
      <trkpt lat="47.30021" lon="-2.38524">
        <ele>23.799999237061</ele>
        <time>2020-01-30T09:33:47.000Z</time>
      </trkpt>
      <trkpt lat="47.30026" lon="-2.38568">
        <ele>23.799999237061</ele>
        <time>2020-01-30T09:33:52.000Z</time>
      </trkpt>
      <trkpt lat="47.30028" lon="-2.38582">
        <ele>23.39999961853</ele>
        <time>2020-01-30T09:33:54.000Z</time>
      </trkpt>
      <trkpt lat="47.30028" lon="-2.38589">
        <ele>22.799999237061</ele>
        <time>2020-01-30T09:33:55.000Z</time>
      </trkpt>
      <trkpt lat="47.30029" lon="-2.38595">
        <ele>22.39999961853</ele>
        <time>2020-01-30T09:33:56.000Z</time>
      </trkpt>
      <trkpt lat="47.3003" lon="-2.38601">
        <ele>21.799999237061</ele>
        <time>2020-01-30T09:33:57.000Z</time>
      </trkpt>
      <trkpt lat="47.3003" lon="-2.38604">
        <ele>21.200000762939</ele>
        <time>2020-01-30T09:33:58.000Z</time>
      </trkpt>
      <trkpt lat="47.30031" lon="-2.38609">
        <ele>20.60000038147</ele>
        <time>2020-01-30T09:33:59.000Z</time>
      </trkpt>
      <trkpt lat="47.3003" lon="-2.38613">
        <ele>20.200000762939</ele>
        <time>2020-01-30T09:34:00.000Z</time>
      </trkpt>
      <trkpt lat="47.30029" lon="-2.38618">
        <ele>19.60000038147</ele>
        <time>2020-01-30T09:34:01.000Z</time>
      </trkpt>
      <trkpt lat="47.30028" lon="-2.38623">
        <ele>19</ele>
        <time>2020-01-30T09:34:02.000Z</time>
      </trkpt>
      <trkpt lat="47.30029" lon="-2.38635">
        <ele>19</ele>
        <time>2020-01-30T09:34:04.000Z</time>
      </trkpt>
      <trkpt lat="47.3003" lon="-2.38642">
        <ele>19</ele>
        <time>2020-01-30T09:34:05.000Z</time>
      </trkpt>
      <trkpt lat="47.30032" lon="-2.38685">
        <ele>19</ele>
        <time>2020-01-30T09:34:11.000Z</time>
      </trkpt>
      <trkpt lat="47.30032" lon="-2.38693">
        <ele>19</ele>
        <time>2020-01-30T09:34:12.000Z</time>
      </trkpt>
      <trkpt lat="47.3003" lon="-2.38709">
        <ele>18.60000038147</ele>
        <time>2020-01-30T09:34:14.000Z</time>
      </trkpt>
      <trkpt lat="47.30029" lon="-2.38718">
        <ele>17.799999237061</ele>
        <time>2020-01-30T09:34:15.000Z</time>
      </trkpt>
      <trkpt lat="47.30027" lon="-2.38727">
        <ele>17.39999961853</ele>
        <time>2020-01-30T09:34:16.000Z</time>
      </trkpt>
      <trkpt lat="47.30025" lon="-2.38736">
        <ele>16.799999237061</ele>
        <time>2020-01-30T09:34:17.000Z</time>
      </trkpt>
      <trkpt lat="47.30019" lon="-2.38764">
        <ele>16.39999961853</ele>
        <time>2020-01-30T09:34:20.000Z</time>
      </trkpt>
      <trkpt lat="47.30018" lon="-2.38774">
        <ele>16</ele>
        <time>2020-01-30T09:34:21.000Z</time>
      </trkpt>
      <trkpt lat="47.30016" lon="-2.38784">
        <ele>15.39999961853</ele>
        <time>2020-01-30T09:34:22.000Z</time>
      </trkpt>
      <trkpt lat="47.30015" lon="-2.38795">
        <ele>15</ele>
        <time>2020-01-30T09:34:23.000Z</time>
      </trkpt>
      <trkpt lat="47.30014" lon="-2.38806">
        <ele>14.39999961853</ele>
        <time>2020-01-30T09:34:24.000Z</time>
      </trkpt>
      <trkpt lat="47.30013" lon="-2.38827">
        <ele>14</ele>
        <time>2020-01-30T09:34:26.000Z</time>
      </trkpt>
      <trkpt lat="47.30011" lon="-2.38838">
        <ele>13.39999961853</ele>
        <time>2020-01-30T09:34:27.000Z</time>
      </trkpt>
      <trkpt lat="47.30011" lon="-2.38848">
        <ele>13</ele>
        <time>2020-01-30T09:34:28.000Z</time>
      </trkpt>
      <trkpt lat="47.3001" lon="-2.38858">
        <ele>12.60000038147</ele>
        <time>2020-01-30T09:34:29.000Z</time>
      </trkpt>
      <trkpt lat="47.30009" lon="-2.38868">
        <ele>12</ele>
        <time>2020-01-30T09:34:30.000Z</time>
      </trkpt>
      <trkpt lat="47.30009" lon="-2.38879">
        <ele>12</ele>
        <time>2020-01-30T09:34:31.000Z</time>
      </trkpt>
      <trkpt lat="47.30009" lon="-2.38888">
        <ele>11.60000038147</ele>
        <time>2020-01-30T09:34:32.000Z</time>
      </trkpt>
      <trkpt lat="47.3001" lon="-2.38899">
        <ele>11.199999809265</ele>
        <time>2020-01-30T09:34:33.000Z</time>
      </trkpt>
      <trkpt lat="47.3001" lon="-2.38909">
        <ele>10.800000190735</ele>
        <time>2020-01-30T09:34:34.000Z</time>
      </trkpt>
      <trkpt lat="47.3001" lon="-2.38919">
        <ele>10.39999961853</ele>
        <time>2020-01-30T09:34:35.000Z</time>
      </trkpt>
      <trkpt lat="47.3001" lon="-2.38929">
        <ele>9.6000003814697</ele>
        <time>2020-01-30T09:34:36.000Z</time>
      </trkpt>
      <trkpt lat="47.3001" lon="-2.38939">
        <ele>9</ele>
        <time>2020-01-30T09:34:37.000Z</time>
      </trkpt>
      <trkpt lat="47.30009" lon="-2.38949">
        <ele>8.3999996185303</ele>
        <time>2020-01-30T09:34:38.000Z</time>
      </trkpt>
      <trkpt lat="47.30009" lon="-2.38957">
        <ele>7.8000001907349</ele>
        <time>2020-01-30T09:34:39.000Z</time>
      </trkpt>
      <trkpt lat="47.3001" lon="-2.38964">
        <ele>7.1999998092651</ele>
        <time>2020-01-30T09:34:40.000Z</time>
      </trkpt>
      <trkpt lat="47.30012" lon="-2.3897">
        <ele>6.5999999046326</ele>
        <time>2020-01-30T09:34:41.000Z</time>
      </trkpt>
      <trkpt lat="47.30014" lon="-2.38974">
        <ele>6.1999998092651</ele>
        <time>2020-01-30T09:34:42.000Z</time>
      </trkpt>
      <trkpt lat="47.30017" lon="-2.38975">
        <ele>5.5999999046326</ele>
        <time>2020-01-30T09:34:43.000Z</time>
      </trkpt>
      <trkpt lat="47.30021" lon="-2.38976">
        <ele>5</ele>
        <time>2020-01-30T09:34:44.000Z</time>
      </trkpt>
      <trkpt lat="47.30024" lon="-2.38977">
        <ele>4.5999999046326</ele>
        <time>2020-01-30T09:34:45.000Z</time>
      </trkpt>
      <trkpt lat="47.3004" lon="-2.38966">
        <ele>4.5999999046326</ele>
        <time>2020-01-30T09:34:48.000Z</time>
      </trkpt>
      <trkpt lat="47.30048" lon="-2.38955">
        <ele>4.5999999046326</ele>
        <time>2020-01-30T09:34:50.000Z</time>
      </trkpt>
      <trkpt lat="47.30052" lon="-2.38951">
        <ele>4.5999999046326</ele>
        <time>2020-01-30T09:34:51.000Z</time>
      </trkpt>
      <trkpt lat="47.30056" lon="-2.38947">
        <ele>4.5999999046326</ele>
        <time>2020-01-30T09:34:52.000Z</time>
      </trkpt>
      <trkpt lat="47.30081" lon="-2.38929">
        <ele>4.5999999046326</ele>
        <time>2020-01-30T09:34:58.000Z</time>
      </trkpt>
      <trkpt lat="47.30102" lon="-2.38911">
        <ele>5</ele>
        <time>2020-01-30T09:35:04.000Z</time>
      </trkpt>
      <trkpt lat="47.30105" lon="-2.38909">
        <ele>5.8000001907349</ele>
        <time>2020-01-30T09:35:05.000Z</time>
      </trkpt>
      <trkpt lat="47.30108" lon="-2.38905">
        <ele>6.1999998092651</ele>
        <time>2020-01-30T09:35:06.000Z</time>
      </trkpt>
      <trkpt lat="47.3011" lon="-2.38902">
        <ele>6.5999999046326</ele>
        <time>2020-01-30T09:35:07.000Z</time>
      </trkpt>
      <trkpt lat="47.30115" lon="-2.38893">
        <ele>6.5999999046326</ele>
        <time>2020-01-30T09:35:09.000Z</time>
      </trkpt>
      <trkpt lat="47.30119" lon="-2.38889">
        <ele>6.5999999046326</ele>
        <time>2020-01-30T09:35:10.000Z</time>
      </trkpt>
      <trkpt lat="47.30126" lon="-2.38876">
        <ele>6.5999999046326</ele>
        <time>2020-01-30T09:35:13.000Z</time>
      </trkpt>
      <trkpt lat="47.30131" lon="-2.38868">
        <ele>7</ele>
        <time>2020-01-30T09:35:15.000Z</time>
      </trkpt>
      <trkpt lat="47.30133" lon="-2.38864">
        <ele>7.4000000953674</ele>
        <time>2020-01-30T09:35:16.000Z</time>
      </trkpt>
      <trkpt lat="47.30136" lon="-2.3886">
        <ele>7.8000001907349</ele>
        <time>2020-01-30T09:35:17.000Z</time>
      </trkpt>
      <trkpt lat="47.30138" lon="-2.38855">
        <ele>8.3999996185303</ele>
        <time>2020-01-30T09:35:18.000Z</time>
      </trkpt>
      <trkpt lat="47.3014" lon="-2.38851">
        <ele>8.8000001907349</ele>
        <time>2020-01-30T09:35:19.000Z</time>
      </trkpt>
      <trkpt lat="47.30146" lon="-2.38843">
        <ele>8.8000001907349</ele>
        <time>2020-01-30T09:35:21.000Z</time>
      </trkpt>
      <trkpt lat="47.30158" lon="-2.38822">
        <ele>9.1999998092651</ele>
        <time>2020-01-30T09:35:26.000Z</time>
      </trkpt>
      <trkpt lat="47.3016" lon="-2.38818">
        <ele>9.6000003814697</ele>
        <time>2020-01-30T09:35:27.000Z</time>
      </trkpt>
      <trkpt lat="47.30162" lon="-2.38816">
        <ele>10</ele>
        <time>2020-01-30T09:35:28.000Z</time>
      </trkpt>
      <trkpt lat="47.30165" lon="-2.38812">
        <ele>10.800000190735</ele>
        <time>2020-01-30T09:35:29.000Z</time>
      </trkpt>
      <trkpt lat="47.3017" lon="-2.38806">
        <ele>10.800000190735</ele>
        <time>2020-01-30T09:35:31.000Z</time>
      </trkpt>
      <trkpt lat="47.30176" lon="-2.38799">
        <ele>11.39999961853</ele>
        <time>2020-01-30T09:35:33.000Z</time>
      </trkpt>
      <trkpt lat="47.3018" lon="-2.38796">
        <ele>11.800000190735</ele>
        <time>2020-01-30T09:35:34.000Z</time>
      </trkpt>
      <trkpt lat="47.30182" lon="-2.38792">
        <ele>12.199999809265</ele>
        <time>2020-01-30T09:35:35.000Z</time>
      </trkpt>
      <trkpt lat="47.30185" lon="-2.38789">
        <ele>12.60000038147</ele>
        <time>2020-01-30T09:35:36.000Z</time>
      </trkpt>
      <trkpt lat="47.30187" lon="-2.38785">
        <ele>13.199999809265</ele>
        <time>2020-01-30T09:35:37.000Z</time>
      </trkpt>
      <trkpt lat="47.30199" lon="-2.38774">
        <ele>13.60000038147</ele>
        <time>2020-01-30T09:35:41.000Z</time>
      </trkpt>
      <trkpt lat="47.30202" lon="-2.38771">
        <ele>14</ele>
        <time>2020-01-30T09:35:42.000Z</time>
      </trkpt>
      <trkpt lat="47.30205" lon="-2.3877">
        <ele>14.60000038147</ele>
        <time>2020-01-30T09:35:43.000Z</time>
      </trkpt>
      <trkpt lat="47.30209" lon="-2.38771">
        <ele>15</ele>
        <time>2020-01-30T09:35:44.000Z</time>
      </trkpt>
      <trkpt lat="47.30213" lon="-2.38771">
        <ele>15.39999961853</ele>
        <time>2020-01-30T09:35:45.000Z</time>
      </trkpt>
      <trkpt lat="47.30215" lon="-2.38771">
        <ele>15.39999961853</ele>
        <time>2020-01-30T09:35:46.000Z</time>
      </trkpt>
      <trkpt lat="47.30221" lon="-2.38774">
        <ele>15.800000190735</ele>
        <time>2020-01-30T09:35:48.000Z</time>
      </trkpt>
      <trkpt lat="47.30224" lon="-2.38776">
        <ele>16.39999961853</ele>
        <time>2020-01-30T09:35:49.000Z</time>
      </trkpt>
      <trkpt lat="47.30226" lon="-2.38779">
        <ele>16.799999237061</ele>
        <time>2020-01-30T09:35:50.000Z</time>
      </trkpt>
      <trkpt lat="47.30228" lon="-2.38781">
        <ele>17.200000762939</ele>
        <time>2020-01-30T09:35:51.000Z</time>
      </trkpt>
      <trkpt lat="47.30231" lon="-2.38784">
        <ele>17.799999237061</ele>
        <time>2020-01-30T09:35:52.000Z</time>
      </trkpt>
      <trkpt lat="47.30233" lon="-2.38786">
        <ele>18.200000762939</ele>
        <time>2020-01-30T09:35:53.000Z</time>
      </trkpt>
      <trkpt lat="47.30236" lon="-2.38789">
        <ele>19</ele>
        <time>2020-01-30T09:35:54.000Z</time>
      </trkpt>
      <trkpt lat="47.30238" lon="-2.38792">
        <ele>19.39999961853</ele>
        <time>2020-01-30T09:35:55.000Z</time>
      </trkpt>
      <trkpt lat="47.3024" lon="-2.38795">
        <ele>19.799999237061</ele>
        <time>2020-01-30T09:35:56.000Z</time>
      </trkpt>
      <trkpt lat="47.30242" lon="-2.38798">
        <ele>19.799999237061</ele>
        <time>2020-01-30T09:35:57.000Z</time>
      </trkpt>
      <trkpt lat="47.30247" lon="-2.38804">
        <ele>20.200000762939</ele>
        <time>2020-01-30T09:35:59.000Z</time>
      </trkpt>
      <trkpt lat="47.3025" lon="-2.38808">
        <ele>20.60000038147</ele>
        <time>2020-01-30T09:36:00.000Z</time>
      </trkpt>
      <trkpt lat="47.30252" lon="-2.38812">
        <ele>21</ele>
        <time>2020-01-30T09:36:01.000Z</time>
      </trkpt>
      <trkpt lat="47.30254" lon="-2.38817">
        <ele>21.39999961853</ele>
        <time>2020-01-30T09:36:02.000Z</time>
      </trkpt>
      <trkpt lat="47.30256" lon="-2.3882">
        <ele>21.799999237061</ele>
        <time>2020-01-30T09:36:03.000Z</time>
      </trkpt>
      <trkpt lat="47.30258" lon="-2.38824">
        <ele>21.799999237061</ele>
        <time>2020-01-30T09:36:04.000Z</time>
      </trkpt>
      <trkpt lat="47.30262" lon="-2.38832">
        <ele>22.39999961853</ele>
        <time>2020-01-30T09:36:06.000Z</time>
      </trkpt>
      <trkpt lat="47.30263" lon="-2.38835">
        <ele>22.799999237061</ele>
        <time>2020-01-30T09:36:07.000Z</time>
      </trkpt>
      <trkpt lat="47.30265" lon="-2.3884">
        <ele>23.200000762939</ele>
        <time>2020-01-30T09:36:08.000Z</time>
      </trkpt>
      <trkpt lat="47.30267" lon="-2.38844">
        <ele>23.60000038147</ele>
        <time>2020-01-30T09:36:09.000Z</time>
      </trkpt>
      <trkpt lat="47.30268" lon="-2.38848">
        <ele>24</ele>
        <time>2020-01-30T09:36:10.000Z</time>
      </trkpt>
      <trkpt lat="47.30279" lon="-2.3887">
        <ele>24</ele>
        <time>2020-01-30T09:36:15.000Z</time>
      </trkpt>
      <trkpt lat="47.30283" lon="-2.3888">
        <ele>24.39999961853</ele>
        <time>2020-01-30T09:36:17.000Z</time>
      </trkpt>
      <trkpt lat="47.30284" lon="-2.38885">
        <ele>25.39999961853</ele>
        <time>2020-01-30T09:36:18.000Z</time>
      </trkpt>
      <trkpt lat="47.30285" lon="-2.3889">
        <ele>25.799999237061</ele>
        <time>2020-01-30T09:36:19.000Z</time>
      </trkpt>
      <trkpt lat="47.30287" lon="-2.38894">
        <ele>26.200000762939</ele>
        <time>2020-01-30T09:36:20.000Z</time>
      </trkpt>
      <trkpt lat="47.30291" lon="-2.38904">
        <ele>26.200000762939</ele>
        <time>2020-01-30T09:36:22.000Z</time>
      </trkpt>
      <trkpt lat="47.30302" lon="-2.38929">
        <ele>26.200000762939</ele>
        <time>2020-01-30T09:36:27.000Z</time>
      </trkpt>
      <trkpt lat="47.30314" lon="-2.38952">
        <ele>26.200000762939</ele>
        <time>2020-01-30T09:36:32.000Z</time>
      </trkpt>
      <trkpt lat="47.30331" lon="-2.3898">
        <ele>26.200000762939</ele>
        <time>2020-01-30T09:36:39.000Z</time>
      </trkpt>
      <trkpt lat="47.30335" lon="-2.38988">
        <ele>26.60000038147</ele>
        <time>2020-01-30T09:36:41.000Z</time>
      </trkpt>
      <trkpt lat="47.30338" lon="-2.38993">
        <ele>27</ele>
        <time>2020-01-30T09:36:42.000Z</time>
      </trkpt>
      <trkpt lat="47.3034" lon="-2.38997">
        <ele>28</ele>
        <time>2020-01-30T09:36:43.000Z</time>
      </trkpt>
      <trkpt lat="47.30341" lon="-2.39003">
        <ele>28.39999961853</ele>
        <time>2020-01-30T09:36:44.000Z</time>
      </trkpt>
      <trkpt lat="47.30345" lon="-2.39014">
        <ele>28.39999961853</ele>
        <time>2020-01-30T09:36:46.000Z</time>
      </trkpt>
      <trkpt lat="47.30352" lon="-2.39039">
        <ele>28.39999961853</ele>
        <time>2020-01-30T09:36:51.000Z</time>
      </trkpt>
      <trkpt lat="47.30361" lon="-2.39081">
        <ele>28.39999961853</ele>
        <time>2020-01-30T09:36:58.000Z</time>
      </trkpt>
      <trkpt lat="47.30369" lon="-2.39113">
        <ele>28.39999961853</ele>
        <time>2020-01-30T09:37:02.000Z</time>
      </trkpt>
      <trkpt lat="47.30371" lon="-2.39121">
        <ele>28.39999961853</ele>
        <time>2020-01-30T09:37:03.000Z</time>
      </trkpt>
      <trkpt lat="47.30384" lon="-2.39151">
        <ele>28.39999961853</ele>
        <time>2020-01-30T09:37:07.000Z</time>
      </trkpt>
      <trkpt lat="47.30394" lon="-2.39162">
        <ele>28.39999961853</ele>
        <time>2020-01-30T09:37:09.000Z</time>
      </trkpt>
      <trkpt lat="47.3041" lon="-2.3917">
        <ele>28</ele>
        <time>2020-01-30T09:37:12.000Z</time>
      </trkpt>
      <trkpt lat="47.30415" lon="-2.39171">
        <ele>27.60000038147</ele>
        <time>2020-01-30T09:37:13.000Z</time>
      </trkpt>
      <trkpt lat="47.3042" lon="-2.3917">
        <ele>27</ele>
        <time>2020-01-30T09:37:14.000Z</time>
      </trkpt>
      <trkpt lat="47.30425" lon="-2.39169">
        <ele>26.60000038147</ele>
        <time>2020-01-30T09:37:15.000Z</time>
      </trkpt>
      <trkpt lat="47.3043" lon="-2.39167">
        <ele>26.200000762939</ele>
        <time>2020-01-30T09:37:16.000Z</time>
      </trkpt>
      <trkpt lat="47.30435" lon="-2.39164">
        <ele>26.200000762939</ele>
        <time>2020-01-30T09:37:17.000Z</time>
      </trkpt>
      <trkpt lat="47.30448" lon="-2.39151">
        <ele>26.200000762939</ele>
        <time>2020-01-30T09:37:20.000Z</time>
      </trkpt>
      <trkpt lat="47.30452" lon="-2.39147">
        <ele>26.200000762939</ele>
        <time>2020-01-30T09:37:21.000Z</time>
      </trkpt>
      <trkpt lat="47.30478" lon="-2.39118">
        <ele>26.60000038147</ele>
        <time>2020-01-30T09:37:28.000Z</time>
      </trkpt>
      <trkpt lat="47.30481" lon="-2.39114">
        <ele>27</ele>
        <time>2020-01-30T09:37:29.000Z</time>
      </trkpt>
      <trkpt lat="47.30484" lon="-2.39111">
        <ele>27.39999961853</ele>
        <time>2020-01-30T09:37:30.000Z</time>
      </trkpt>
      <trkpt lat="47.30486" lon="-2.39107">
        <ele>27.799999237061</ele>
        <time>2020-01-30T09:37:31.000Z</time>
      </trkpt>
      <trkpt lat="47.3049" lon="-2.39103">
        <ele>28.200000762939</ele>
        <time>2020-01-30T09:37:32.000Z</time>
      </trkpt>
      <trkpt lat="47.30498" lon="-2.39095">
        <ele>28.200000762939</ele>
        <time>2020-01-30T09:37:34.000Z</time>
      </trkpt>
      <trkpt lat="47.30506" lon="-2.39087">
        <ele>28.60000038147</ele>
        <time>2020-01-30T09:37:36.000Z</time>
      </trkpt>
      <trkpt lat="47.3051" lon="-2.39083">
        <ele>29</ele>
        <time>2020-01-30T09:37:37.000Z</time>
      </trkpt>
      <trkpt lat="47.30515" lon="-2.39079">
        <ele>29.39999961853</ele>
        <time>2020-01-30T09:37:38.000Z</time>
      </trkpt>
      <trkpt lat="47.30518" lon="-2.39076">
        <ele>29.799999237061</ele>
        <time>2020-01-30T09:37:39.000Z</time>
      </trkpt>
      <trkpt lat="47.30522" lon="-2.39072">
        <ele>30.39999961853</ele>
        <time>2020-01-30T09:37:40.000Z</time>
      </trkpt>
      <trkpt lat="47.30529" lon="-2.39065">
        <ele>30.39999961853</ele>
        <time>2020-01-30T09:37:42.000Z</time>
      </trkpt>
      <trkpt lat="47.30545" lon="-2.39051">
        <ele>30.39999961853</ele>
        <time>2020-01-30T09:37:46.000Z</time>
      </trkpt>
      <trkpt lat="47.30552" lon="-2.39043">
        <ele>30.39999961853</ele>
        <time>2020-01-30T09:37:48.000Z</time>
      </trkpt>
      <trkpt lat="47.30567" lon="-2.39027">
        <ele>30.799999237061</ele>
        <time>2020-01-30T09:37:52.000Z</time>
      </trkpt>
      <trkpt lat="47.30571" lon="-2.39023">
        <ele>31.200000762939</ele>
        <time>2020-01-30T09:37:53.000Z</time>
      </trkpt>
      <trkpt lat="47.30575" lon="-2.39018">
        <ele>31.60000038147</ele>
        <time>2020-01-30T09:37:54.000Z</time>
      </trkpt>
      <trkpt lat="47.30578" lon="-2.39013">
        <ele>32</ele>
        <time>2020-01-30T09:37:55.000Z</time>
      </trkpt>
      <trkpt lat="47.30581" lon="-2.39008">
        <ele>32.400001525879</ele>
        <time>2020-01-30T09:37:56.000Z</time>
      </trkpt>
      <trkpt lat="47.30588" lon="-2.38998">
        <ele>32.400001525879</ele>
        <time>2020-01-30T09:37:58.000Z</time>
      </trkpt>
      <trkpt lat="47.30606" lon="-2.38976">
        <ele>32.799999237061</ele>
        <time>2020-01-30T09:38:03.000Z</time>
      </trkpt>
      <trkpt lat="47.30611" lon="-2.38971">
        <ele>33.200000762939</ele>
        <time>2020-01-30T09:38:04.000Z</time>
      </trkpt>
      <trkpt lat="47.30615" lon="-2.38967">
        <ele>33.799999237061</ele>
        <time>2020-01-30T09:38:05.000Z</time>
      </trkpt>
      <trkpt lat="47.3062" lon="-2.38963">
        <ele>34.200000762939</ele>
        <time>2020-01-30T09:38:06.000Z</time>
      </trkpt>
      <trkpt lat="47.30624" lon="-2.38959">
        <ele>34.799999237061</ele>
        <time>2020-01-30T09:38:07.000Z</time>
      </trkpt>
      <trkpt lat="47.30642" lon="-2.38942">
        <ele>34.799999237061</ele>
        <time>2020-01-30T09:38:11.000Z</time>
      </trkpt>
      <trkpt lat="47.30664" lon="-2.38921">
        <ele>34.799999237061</ele>
        <time>2020-01-30T09:38:17.000Z</time>
      </trkpt>
      <trkpt lat="47.30682" lon="-2.38909">
        <ele>34.799999237061</ele>
        <time>2020-01-30T09:38:23.000Z</time>
      </trkpt>
      <trkpt lat="47.30697" lon="-2.38913">
        <ele>34.799999237061</ele>
        <time>2020-01-30T09:38:28.000Z</time>
      </trkpt>
      <trkpt lat="47.30703" lon="-2.38932">
        <ele>35.200000762939</ele>
        <time>2020-01-30T09:38:31.000Z</time>
      </trkpt>
      <trkpt lat="47.30702" lon="-2.38939">
        <ele>35.599998474121</ele>
        <time>2020-01-30T09:38:32.000Z</time>
      </trkpt>
      <trkpt lat="47.30702" lon="-2.38946">
        <ele>36</ele>
        <time>2020-01-30T09:38:33.000Z</time>
      </trkpt>
      <trkpt lat="47.30703" lon="-2.38953">
        <ele>36.400001525879</ele>
        <time>2020-01-30T09:38:34.000Z</time>
      </trkpt>
      <trkpt lat="47.30705" lon="-2.38958">
        <ele>36.799999237061</ele>
        <time>2020-01-30T09:38:35.000Z</time>
      </trkpt>
      <trkpt lat="47.30712" lon="-2.38965">
        <ele>36.799999237061</ele>
        <time>2020-01-30T09:38:38.000Z</time>
      </trkpt>
      <trkpt lat="47.30714" lon="-2.38964">
        <ele>36.400001525879</ele>
        <time>2020-01-30T09:38:39.000Z</time>
      </trkpt>
      <trkpt lat="47.30717" lon="-2.38962">
        <ele>36</ele>
        <time>2020-01-30T09:38:40.000Z</time>
      </trkpt>
      <trkpt lat="47.30721" lon="-2.38959">
        <ele>35.400001525879</ele>
        <time>2020-01-30T09:38:41.000Z</time>
      </trkpt>
      <trkpt lat="47.30725" lon="-2.38957">
        <ele>35</ele>
        <time>2020-01-30T09:38:42.000Z</time>
      </trkpt>
      <trkpt lat="47.30729" lon="-2.38956">
        <ele>34.599998474121</ele>
        <time>2020-01-30T09:38:43.000Z</time>
      </trkpt>
      <trkpt lat="47.30743" lon="-2.38955">
        <ele>34.599998474121</ele>
        <time>2020-01-30T09:38:46.000Z</time>
      </trkpt>
      <trkpt lat="47.30764" lon="-2.38949">
        <ele>34.599998474121</ele>
        <time>2020-01-30T09:38:50.000Z</time>
      </trkpt>
      <trkpt lat="47.3077" lon="-2.38945">
        <ele>34.599998474121</ele>
        <time>2020-01-30T09:38:51.000Z</time>
      </trkpt>
      <trkpt lat="47.30788" lon="-2.38932">
        <ele>34.200000762939</ele>
        <time>2020-01-30T09:38:54.000Z</time>
      </trkpt>
      <trkpt lat="47.30795" lon="-2.38927">
        <ele>33.799999237061</ele>
        <time>2020-01-30T09:38:55.000Z</time>
      </trkpt>
      <trkpt lat="47.30801" lon="-2.38922">
        <ele>33.400001525879</ele>
        <time>2020-01-30T09:38:56.000Z</time>
      </trkpt>
      <trkpt lat="47.30807" lon="-2.38918">
        <ele>33</ele>
        <time>2020-01-30T09:38:57.000Z</time>
      </trkpt>
      <trkpt lat="47.30813" lon="-2.38913">
        <ele>32.599998474121</ele>
        <time>2020-01-30T09:38:58.000Z</time>
      </trkpt>
      <trkpt lat="47.30834" lon="-2.38896">
        <ele>32.599998474121</ele>
        <time>2020-01-30T09:39:02.000Z</time>
      </trkpt>
      <trkpt lat="47.30857" lon="-2.38877">
        <ele>32.599998474121</ele>
        <time>2020-01-30T09:39:08.000Z</time>
      </trkpt>
      <trkpt lat="47.30861" lon="-2.38873">
        <ele>32.599998474121</ele>
        <time>2020-01-30T09:39:09.000Z</time>
      </trkpt>
      <trkpt lat="47.30868" lon="-2.38858">
        <ele>33</ele>
        <time>2020-01-30T09:39:12.000Z</time>
      </trkpt>
      <trkpt lat="47.3087" lon="-2.38852">
        <ele>33.400001525879</ele>
        <time>2020-01-30T09:39:13.000Z</time>
      </trkpt>
      <trkpt lat="47.30873" lon="-2.38847">
        <ele>33.799999237061</ele>
        <time>2020-01-30T09:39:14.000Z</time>
      </trkpt>
      <trkpt lat="47.30875" lon="-2.38842">
        <ele>34.400001525879</ele>
        <time>2020-01-30T09:39:15.000Z</time>
      </trkpt>
      <trkpt lat="47.30879" lon="-2.38839">
        <ele>34.799999237061</ele>
        <time>2020-01-30T09:39:16.000Z</time>
      </trkpt>
      <trkpt lat="47.30883" lon="-2.38837">
        <ele>34.799999237061</ele>
        <time>2020-01-30T09:39:17.000Z</time>
      </trkpt>
      <trkpt lat="47.30899" lon="-2.38844">
        <ele>34.799999237061</ele>
        <time>2020-01-30T09:39:21.000Z</time>
      </trkpt>
      <trkpt lat="47.30904" lon="-2.38855">
        <ele>35.200000762939</ele>
        <time>2020-01-30T09:39:23.000Z</time>
      </trkpt>
      <trkpt lat="47.30906" lon="-2.38861">
        <ele>35.599998474121</ele>
        <time>2020-01-30T09:39:24.000Z</time>
      </trkpt>
      <trkpt lat="47.30908" lon="-2.38867">
        <ele>36</ele>
        <time>2020-01-30T09:39:25.000Z</time>
      </trkpt>
      <trkpt lat="47.3091" lon="-2.38874">
        <ele>36.400001525879</ele>
        <time>2020-01-30T09:39:26.000Z</time>
      </trkpt>
      <trkpt lat="47.30913" lon="-2.3888">
        <ele>36.799999237061</ele>
        <time>2020-01-30T09:39:27.000Z</time>
      </trkpt>
      <trkpt lat="47.3092" lon="-2.3889">
        <ele>36.799999237061</ele>
        <time>2020-01-30T09:39:29.000Z</time>
      </trkpt>
      <trkpt lat="47.30926" lon="-2.38899">
        <ele>36.799999237061</ele>
        <time>2020-01-30T09:39:31.000Z</time>
      </trkpt>
      <trkpt lat="47.30932" lon="-2.38917">
        <ele>36.799999237061</ele>
        <time>2020-01-30T09:39:34.000Z</time>
      </trkpt>
      <trkpt lat="47.30927" lon="-2.3894">
        <ele>36.799999237061</ele>
        <time>2020-01-30T09:39:38.000Z</time>
      </trkpt>
      <trkpt lat="47.30924" lon="-2.38946">
        <ele>36.799999237061</ele>
        <time>2020-01-30T09:39:39.000Z</time>
      </trkpt>
      <trkpt lat="47.30922" lon="-2.38952">
        <ele>36.799999237061</ele>
        <time>2020-01-30T09:39:40.000Z</time>
      </trkpt>
      <trkpt lat="47.30911" lon="-2.38975">
        <ele>37.200000762939</ele>
        <time>2020-01-30T09:39:44.000Z</time>
      </trkpt>
      <trkpt lat="47.30909" lon="-2.38982">
        <ele>37.799999237061</ele>
        <time>2020-01-30T09:39:45.000Z</time>
      </trkpt>
      <trkpt lat="47.30908" lon="-2.38989">
        <ele>38.200000762939</ele>
        <time>2020-01-30T09:39:46.000Z</time>
      </trkpt>
      <trkpt lat="47.30907" lon="-2.38996">
        <ele>38.599998474121</ele>
        <time>2020-01-30T09:39:47.000Z</time>
      </trkpt>
      <trkpt lat="47.30906" lon="-2.39003">
        <ele>39.200000762939</ele>
        <time>2020-01-30T09:39:48.000Z</time>
      </trkpt>
      <trkpt lat="47.30905" lon="-2.3901">
        <ele>39.200000762939</ele>
        <time>2020-01-30T09:39:49.000Z</time>
      </trkpt>
      <trkpt lat="47.30902" lon="-2.39065">
        <ele>39.200000762939</ele>
        <time>2020-01-30T09:39:56.000Z</time>
      </trkpt>
      <trkpt lat="47.30902" lon="-2.39073">
        <ele>39.200000762939</ele>
        <time>2020-01-30T09:39:57.000Z</time>
      </trkpt>
      <trkpt lat="47.30906" lon="-2.39094">
        <ele>39.200000762939</ele>
        <time>2020-01-30T09:40:00.000Z</time>
      </trkpt>
      <trkpt lat="47.30908" lon="-2.39101">
        <ele>39.200000762939</ele>
        <time>2020-01-30T09:40:01.000Z</time>
      </trkpt>
      <trkpt lat="47.30926" lon="-2.39147">
        <ele>39.200000762939</ele>
        <time>2020-01-30T09:40:08.000Z</time>
      </trkpt>
      <trkpt lat="47.30949" lon="-2.39201">
        <ele>39.200000762939</ele>
        <time>2020-01-30T09:40:16.000Z</time>
      </trkpt>
      <trkpt lat="47.30976" lon="-2.39266">
        <ele>39.200000762939</ele>
        <time>2020-01-30T09:40:25.000Z</time>
      </trkpt>
      <trkpt lat="47.30996" lon="-2.39326">
        <ele>39.200000762939</ele>
        <time>2020-01-30T09:40:33.000Z</time>
      </trkpt>
      <trkpt lat="47.31014" lon="-2.39379">
        <ele>39.200000762939</ele>
        <time>2020-01-30T09:40:40.000Z</time>
      </trkpt>
      <trkpt lat="47.31019" lon="-2.39395">
        <ele>38.799999237061</ele>
        <time>2020-01-30T09:40:42.000Z</time>
      </trkpt>
      <trkpt lat="47.31022" lon="-2.39402">
        <ele>38.400001525879</ele>
        <time>2020-01-30T09:40:43.000Z</time>
      </trkpt>
      <trkpt lat="47.31024" lon="-2.3941">
        <ele>38</ele>
        <time>2020-01-30T09:40:44.000Z</time>
      </trkpt>
      <trkpt lat="47.31027" lon="-2.39417">
        <ele>37.400001525879</ele>
        <time>2020-01-30T09:40:45.000Z</time>
      </trkpt>
      <trkpt lat="47.31029" lon="-2.39424">
        <ele>37</ele>
        <time>2020-01-30T09:40:46.000Z</time>
      </trkpt>
      <trkpt lat="47.31034" lon="-2.39439">
        <ele>37</ele>
        <time>2020-01-30T09:40:48.000Z</time>
      </trkpt>
      <trkpt lat="47.31039" lon="-2.39455">
        <ele>37</ele>
        <time>2020-01-30T09:40:50.000Z</time>
      </trkpt>
      <trkpt lat="47.31043" lon="-2.3946">
        <ele>36.599998474121</ele>
        <time>2020-01-30T09:40:51.000Z</time>
      </trkpt>
      <trkpt lat="47.31048" lon="-2.39462">
        <ele>36.200000762939</ele>
        <time>2020-01-30T09:40:52.000Z</time>
      </trkpt>
      <trkpt lat="47.31053" lon="-2.39461">
        <ele>35.799999237061</ele>
        <time>2020-01-30T09:40:53.000Z</time>
      </trkpt>
      <trkpt lat="47.31057" lon="-2.39458">
        <ele>35.400001525879</ele>
        <time>2020-01-30T09:40:54.000Z</time>
      </trkpt>
      <trkpt lat="47.31061" lon="-2.39454">
        <ele>35</ele>
        <time>2020-01-30T09:40:55.000Z</time>
      </trkpt>
      <trkpt lat="47.31066" lon="-2.39449">
        <ele>35</ele>
        <time>2020-01-30T09:40:56.000Z</time>
      </trkpt>
      <trkpt lat="47.3107" lon="-2.39443">
        <ele>35</ele>
        <time>2020-01-30T09:40:57.000Z</time>
      </trkpt>
      <trkpt lat="47.31087" lon="-2.39419">
        <ele>35</ele>
        <time>2020-01-30T09:41:02.000Z</time>
      </trkpt>
      <trkpt lat="47.31101" lon="-2.394">
        <ele>35</ele>
        <time>2020-01-30T09:41:06.000Z</time>
      </trkpt>
      <trkpt lat="47.31111" lon="-2.39386">
        <ele>35</ele>
        <time>2020-01-30T09:41:09.000Z</time>
      </trkpt>
      <trkpt lat="47.31127" lon="-2.39363">
        <ele>35</ele>
        <time>2020-01-30T09:41:14.000Z</time>
      </trkpt>
      <trkpt lat="47.31139" lon="-2.3935">
        <ele>35</ele>
        <time>2020-01-30T09:41:17.000Z</time>
      </trkpt>
      <trkpt lat="47.31154" lon="-2.39337">
        <ele>35</ele>
        <time>2020-01-30T09:41:20.000Z</time>
      </trkpt>
      <trkpt lat="47.3118" lon="-2.39319">
        <ele>35</ele>
        <time>2020-01-30T09:41:26.000Z</time>
      </trkpt>
      <trkpt lat="47.31192" lon="-2.3931">
        <ele>35.599998474121</ele>
        <time>2020-01-30T09:41:29.000Z</time>
      </trkpt>
      <trkpt lat="47.31197" lon="-2.39306">
        <ele>36</ele>
        <time>2020-01-30T09:41:30.000Z</time>
      </trkpt>
      <trkpt lat="47.31201" lon="-2.39303">
        <ele>36.400001525879</ele>
        <time>2020-01-30T09:41:31.000Z</time>
      </trkpt>
      <trkpt lat="47.31206" lon="-2.393">
        <ele>36.799999237061</ele>
        <time>2020-01-30T09:41:32.000Z</time>
      </trkpt>
      <trkpt lat="47.3121" lon="-2.39297">
        <ele>37.200000762939</ele>
        <time>2020-01-30T09:41:33.000Z</time>
      </trkpt>
      <trkpt lat="47.31231" lon="-2.39278">
        <ele>37.200000762939</ele>
        <time>2020-01-30T09:41:38.000Z</time>
      </trkpt>
      <trkpt lat="47.31235" lon="-2.39273">
        <ele>37.200000762939</ele>
        <time>2020-01-30T09:41:39.000Z</time>
      </trkpt>
      <trkpt lat="47.31246" lon="-2.3926">
        <ele>37.200000762939</ele>
        <time>2020-01-30T09:41:42.000Z</time>
      </trkpt>
      <trkpt lat="47.31269" lon="-2.39226">
        <ele>37.200000762939</ele>
        <time>2020-01-30T09:41:49.000Z</time>
      </trkpt>
      <trkpt lat="47.31291" lon="-2.39194">
        <ele>37.200000762939</ele>
        <time>2020-01-30T09:41:55.000Z</time>
      </trkpt>
      <trkpt lat="47.31296" lon="-2.39189">
        <ele>37.200000762939</ele>
        <time>2020-01-30T09:41:56.000Z</time>
      </trkpt>
      <trkpt lat="47.31324" lon="-2.39161">
        <ele>37.599998474121</ele>
        <time>2020-01-30T09:42:02.000Z</time>
      </trkpt>
      <trkpt lat="47.31329" lon="-2.39156">
        <ele>38</ele>
        <time>2020-01-30T09:42:03.000Z</time>
      </trkpt>
      <trkpt lat="47.31334" lon="-2.39151">
        <ele>38.599998474121</ele>
        <time>2020-01-30T09:42:04.000Z</time>
      </trkpt>
      <trkpt lat="47.31338" lon="-2.39146">
        <ele>39.400001525879</ele>
        <time>2020-01-30T09:42:05.000Z</time>
      </trkpt>
      <trkpt lat="47.31351" lon="-2.39131">
        <ele>39.400001525879</ele>
        <time>2020-01-30T09:42:08.000Z</time>
      </trkpt>
      <trkpt lat="47.31381" lon="-2.39099">
        <ele>39.400001525879</ele>
        <time>2020-01-30T09:42:15.000Z</time>
      </trkpt>
      <trkpt lat="47.3141" lon="-2.39061">
        <ele>39.400001525879</ele>
        <time>2020-01-30T09:42:21.000Z</time>
      </trkpt>
      <trkpt lat="47.31427" lon="-2.3903">
        <ele>39.400001525879</ele>
        <time>2020-01-30T09:42:25.000Z</time>
      </trkpt>
      <trkpt lat="47.3143" lon="-2.39022">
        <ele>39.400001525879</ele>
        <time>2020-01-30T09:42:26.000Z</time>
      </trkpt>
      <trkpt lat="47.31436" lon="-2.39007">
        <ele>39</ele>
        <time>2020-01-30T09:42:28.000Z</time>
      </trkpt>
      <trkpt lat="47.31439" lon="-2.38999">
        <ele>38.599998474121</ele>
        <time>2020-01-30T09:42:29.000Z</time>
      </trkpt>
      <trkpt lat="47.31441" lon="-2.38991">
        <ele>37.599998474121</ele>
        <time>2020-01-30T09:42:30.000Z</time>
      </trkpt>
      <trkpt lat="47.31444" lon="-2.38984">
        <ele>37.200000762939</ele>
        <time>2020-01-30T09:42:31.000Z</time>
      </trkpt>
      <trkpt lat="47.31451" lon="-2.38969">
        <ele>37.200000762939</ele>
        <time>2020-01-30T09:42:33.000Z</time>
      </trkpt>
      <trkpt lat="47.31475" lon="-2.38921">
        <ele>37.200000762939</ele>
        <time>2020-01-30T09:42:39.000Z</time>
      </trkpt>
      <trkpt lat="47.31516" lon="-2.38845">
        <ele>36</ele>
        <time>2020-01-30T09:42:46.000Z</time>
      </trkpt>
      <trkpt lat="47.31516" lon="-2.38845">
        <ele>36</ele>
        <time>2020-01-30T09:42:49.000Z</time>
      </trkpt>
      <trkpt lat="47.31519" lon="-2.38838">
        <ele>35.599998474121</ele>
        <time>2020-01-30T09:42:50.000Z</time>
      </trkpt>
      <trkpt lat="47.31523" lon="-2.3883">
        <ele>35.200000762939</ele>
        <time>2020-01-30T09:42:51.000Z</time>
      </trkpt>
      <trkpt lat="47.31527" lon="-2.38823">
        <ele>35.200000762939</ele>
        <time>2020-01-30T09:42:52.000Z</time>
      </trkpt>
      <trkpt lat="47.31534" lon="-2.38809">
        <ele>35.200000762939</ele>
        <time>2020-01-30T09:42:54.000Z</time>
      </trkpt>
      <trkpt lat="47.31559" lon="-2.38764">
        <ele>35.200000762939</ele>
        <time>2020-01-30T09:43:01.000Z</time>
      </trkpt>
      <trkpt lat="47.31584" lon="-2.38725">
        <ele>35.200000762939</ele>
        <time>2020-01-30T09:43:07.000Z</time>
      </trkpt>
      <trkpt lat="47.31593" lon="-2.38714">
        <ele>35.200000762939</ele>
        <time>2020-01-30T09:43:09.000Z</time>
      </trkpt>
      <trkpt lat="47.31605" lon="-2.38695">
        <ele>35.200000762939</ele>
        <time>2020-01-30T09:43:12.000Z</time>
      </trkpt>
      <trkpt lat="47.31635" lon="-2.3865">
        <ele>35.200000762939</ele>
        <time>2020-01-30T09:43:19.000Z</time>
      </trkpt>
      <trkpt lat="47.31666" lon="-2.38618">
        <ele>35.200000762939</ele>
        <time>2020-01-30T09:43:25.000Z</time>
      </trkpt>
      <trkpt lat="47.31709" lon="-2.3859">
        <ele>35.200000762939</ele>
        <time>2020-01-30T09:43:33.000Z</time>
      </trkpt>
      <trkpt lat="47.31756" lon="-2.38563">
        <ele>35.200000762939</ele>
        <time>2020-01-30T09:43:42.000Z</time>
      </trkpt>
      <trkpt lat="47.31786" lon="-2.38546">
        <ele>35.200000762939</ele>
        <time>2020-01-30T09:43:48.000Z</time>
      </trkpt>
      <trkpt lat="47.31791" lon="-2.38544">
        <ele>35.200000762939</ele>
        <time>2020-01-30T09:43:49.000Z</time>
      </trkpt>
      <trkpt lat="47.31806" lon="-2.38538">
        <ele>35.200000762939</ele>
        <time>2020-01-30T09:43:52.000Z</time>
      </trkpt>
      <trkpt lat="47.31816" lon="-2.38537">
        <ele>35.200000762939</ele>
        <time>2020-01-30T09:43:54.000Z</time>
      </trkpt>
      <trkpt lat="47.31821" lon="-2.38537">
        <ele>35.200000762939</ele>
        <time>2020-01-30T09:43:55.000Z</time>
      </trkpt>
      <trkpt lat="47.31831" lon="-2.38535">
        <ele>35.200000762939</ele>
        <time>2020-01-30T09:43:57.000Z</time>
      </trkpt>
      <trkpt lat="47.31851" lon="-2.38528">
        <ele>34.799999237061</ele>
        <time>2020-01-30T09:44:01.000Z</time>
      </trkpt>
      <trkpt lat="47.31855" lon="-2.38527">
        <ele>34.400001525879</ele>
        <time>2020-01-30T09:44:02.000Z</time>
      </trkpt>
      <trkpt lat="47.31859" lon="-2.38525">
        <ele>34</ele>
        <time>2020-01-30T09:44:03.000Z</time>
      </trkpt>
      <trkpt lat="47.31862" lon="-2.38523">
        <ele>33.599998474121</ele>
        <time>2020-01-30T09:44:04.000Z</time>
      </trkpt>
      <trkpt lat="47.31866" lon="-2.38522">
        <ele>33.200000762939</ele>
        <time>2020-01-30T09:44:05.000Z</time>
      </trkpt>
      <trkpt lat="47.31875" lon="-2.38519">
        <ele>33.200000762939</ele>
        <time>2020-01-30T09:44:08.000Z</time>
      </trkpt>
      <trkpt lat="47.31878" lon="-2.38518">
        <ele>32.599998474121</ele>
        <time>2020-01-30T09:44:09.000Z</time>
      </trkpt>
      <trkpt lat="47.31881" lon="-2.38517">
        <ele>32.200000762939</ele>
        <time>2020-01-30T09:44:10.000Z</time>
      </trkpt>
      <trkpt lat="47.31884" lon="-2.38516">
        <ele>31.799999237061</ele>
        <time>2020-01-30T09:44:11.000Z</time>
      </trkpt>
      <trkpt lat="47.31887" lon="-2.38515">
        <ele>31.39999961853</ele>
        <time>2020-01-30T09:44:12.000Z</time>
      </trkpt>
      <trkpt lat="47.31891" lon="-2.38513">
        <ele>31</ele>
        <time>2020-01-30T09:44:13.000Z</time>
      </trkpt>
      <trkpt lat="47.31895" lon="-2.3851">
        <ele>31</ele>
        <time>2020-01-30T09:44:14.000Z</time>
      </trkpt>
      <trkpt lat="47.31918" lon="-2.38496">
        <ele>30.60000038147</ele>
        <time>2020-01-30T09:44:20.000Z</time>
      </trkpt>
      <trkpt lat="47.31922" lon="-2.38494">
        <ele>30.200000762939</ele>
        <time>2020-01-30T09:44:21.000Z</time>
      </trkpt>
      <trkpt lat="47.31926" lon="-2.38492">
        <ele>29.799999237061</ele>
        <time>2020-01-30T09:44:22.000Z</time>
      </trkpt>
      <trkpt lat="47.31931" lon="-2.38491">
        <ele>29.39999961853</ele>
        <time>2020-01-30T09:44:23.000Z</time>
      </trkpt>
      <trkpt lat="47.31935" lon="-2.3849">
        <ele>28.799999237061</ele>
        <time>2020-01-30T09:44:24.000Z</time>
      </trkpt>
      <trkpt lat="47.31943" lon="-2.38489">
        <ele>28.799999237061</ele>
        <time>2020-01-30T09:44:26.000Z</time>
      </trkpt>
      <trkpt lat="47.31957" lon="-2.38485">
        <ele>28.799999237061</ele>
        <time>2020-01-30T09:44:30.000Z</time>
      </trkpt>
      <trkpt lat="47.31978" lon="-2.38477">
        <ele>28.799999237061</ele>
        <time>2020-01-30T09:44:36.000Z</time>
      </trkpt>
      <trkpt lat="47.31986" lon="-2.38473">
        <ele>28.39999961853</ele>
        <time>2020-01-30T09:44:39.000Z</time>
      </trkpt>
      <trkpt lat="47.31988" lon="-2.38471">
        <ele>28</ele>
        <time>2020-01-30T09:44:40.000Z</time>
      </trkpt>
      <trkpt lat="47.31991" lon="-2.38469">
        <ele>27.60000038147</ele>
        <time>2020-01-30T09:44:41.000Z</time>
      </trkpt>
      <trkpt lat="47.31995" lon="-2.38468">
        <ele>27.200000762939</ele>
        <time>2020-01-30T09:44:42.000Z</time>
      </trkpt>
      <trkpt lat="47.31999" lon="-2.38466">
        <ele>26.799999237061</ele>
        <time>2020-01-30T09:44:43.000Z</time>
      </trkpt>
      <trkpt lat="47.32002" lon="-2.38465">
        <ele>26.799999237061</ele>
        <time>2020-01-30T09:44:44.000Z</time>
      </trkpt>
      <trkpt lat="47.32023" lon="-2.38457">
        <ele>26.799999237061</ele>
        <time>2020-01-30T09:44:50.000Z</time>
      </trkpt>
      <trkpt lat="47.3205" lon="-2.38449">
        <ele>26.799999237061</ele>
        <time>2020-01-30T09:44:57.000Z</time>
      </trkpt>
      <trkpt lat="47.32065" lon="-2.38444">
        <ele>26.39999961853</ele>
        <time>2020-01-30T09:45:01.000Z</time>
      </trkpt>
      <trkpt lat="47.32069" lon="-2.38443">
        <ele>25.799999237061</ele>
        <time>2020-01-30T09:45:02.000Z</time>
      </trkpt>
      <trkpt lat="47.32072" lon="-2.3844">
        <ele>25.39999961853</ele>
        <time>2020-01-30T09:45:03.000Z</time>
      </trkpt>
      <trkpt lat="47.32075" lon="-2.38438">
        <ele>25</ele>
        <time>2020-01-30T09:45:04.000Z</time>
      </trkpt>
      <trkpt lat="47.32078" lon="-2.38436">
        <ele>24.60000038147</ele>
        <time>2020-01-30T09:45:05.000Z</time>
      </trkpt>
      <trkpt lat="47.32091" lon="-2.38431">
        <ele>24.60000038147</ele>
        <time>2020-01-30T09:45:09.000Z</time>
      </trkpt>
      <trkpt lat="47.32108" lon="-2.38423">
        <ele>24.60000038147</ele>
        <time>2020-01-30T09:45:14.000Z</time>
      </trkpt>
      <trkpt lat="47.32125" lon="-2.38414">
        <ele>24.60000038147</ele>
        <time>2020-01-30T09:45:20.000Z</time>
      </trkpt>
      <trkpt lat="47.32136" lon="-2.38404">
        <ele>24.60000038147</ele>
        <time>2020-01-30T09:45:25.000Z</time>
      </trkpt>
      <trkpt lat="47.32138" lon="-2.38397">
        <ele>24.200000762939</ele>
        <time>2020-01-30T09:45:29.000Z</time>
      </trkpt>
      <trkpt lat="47.3214" lon="-2.38394">
        <ele>23.799999237061</ele>
        <time>2020-01-30T09:45:30.000Z</time>
      </trkpt>
      <trkpt lat="47.32141" lon="-2.38391">
        <ele>23.39999961853</ele>
        <time>2020-01-30T09:45:31.000Z</time>
      </trkpt>
      <trkpt lat="47.32143" lon="-2.38388">
        <ele>23</ele>
        <time>2020-01-30T09:45:32.000Z</time>
      </trkpt>
      <trkpt lat="47.32144" lon="-2.38386">
        <ele>22.60000038147</ele>
        <time>2020-01-30T09:45:33.000Z</time>
      </trkpt>
      <trkpt lat="47.32146" lon="-2.38383">
        <ele>22.60000038147</ele>
        <time>2020-01-30T09:45:34.000Z</time>
      </trkpt>
      <trkpt lat="47.32157" lon="-2.3837">
        <ele>22.60000038147</ele>
        <time>2020-01-30T09:45:40.000Z</time>
      </trkpt>
      <trkpt lat="47.32168" lon="-2.38358">
        <ele>22.60000038147</ele>
        <time>2020-01-30T09:45:46.000Z</time>
      </trkpt>
      <trkpt lat="47.32176" lon="-2.38346">
        <ele>22.60000038147</ele>
        <time>2020-01-30T09:45:51.000Z</time>
      </trkpt>
      <trkpt lat="47.32182" lon="-2.38338">
        <ele>22.60000038147</ele>
        <time>2020-01-30T09:45:55.000Z</time>
      </trkpt>
      <trkpt lat="47.32186" lon="-2.38333">
        <ele>22.60000038147</ele>
        <time>2020-01-30T09:45:57.000Z</time>
      </trkpt>
      <trkpt lat="47.32189" lon="-2.38326">
        <ele>22.60000038147</ele>
        <time>2020-01-30T09:45:59.000Z</time>
      </trkpt>
      <trkpt lat="47.32197" lon="-2.38318">
        <ele>22.60000038147</ele>
        <time>2020-01-30T09:46:02.000Z</time>
      </trkpt>
      <trkpt lat="47.32208" lon="-2.38304">
        <ele>22.60000038147</ele>
        <time>2020-01-30T09:46:08.000Z</time>
      </trkpt>
      <trkpt lat="47.32218" lon="-2.38293">
        <ele>22.60000038147</ele>
        <time>2020-01-30T09:46:13.000Z</time>
      </trkpt>
      <trkpt lat="47.32231" lon="-2.38294">
        <ele>22.60000038147</ele>
        <time>2020-01-30T09:46:18.000Z</time>
      </trkpt>
      <trkpt lat="47.32247" lon="-2.3829">
        <ele>22.60000038147</ele>
        <time>2020-01-30T09:46:24.000Z</time>
      </trkpt>
      <trkpt lat="47.32259" lon="-2.38288">
        <ele>22.60000038147</ele>
        <time>2020-01-30T09:46:29.000Z</time>
      </trkpt>
      <trkpt lat="47.32275" lon="-2.38286">
        <ele>22.60000038147</ele>
        <time>2020-01-30T09:46:34.000Z</time>
      </trkpt>
      <trkpt lat="47.32297" lon="-2.38291">
        <ele>22.60000038147</ele>
        <time>2020-01-30T09:46:40.000Z</time>
      </trkpt>
      <trkpt lat="47.32318" lon="-2.38301">
        <ele>22.60000038147</ele>
        <time>2020-01-30T09:46:46.000Z</time>
      </trkpt>
      <trkpt lat="47.32338" lon="-2.3831">
        <ele>22.60000038147</ele>
        <time>2020-01-30T09:46:51.000Z</time>
      </trkpt>
      <trkpt lat="47.32352" lon="-2.38317">
        <ele>23</ele>
        <time>2020-01-30T09:46:55.000Z</time>
      </trkpt>
      <trkpt lat="47.32355" lon="-2.38319">
        <ele>23.39999961853</ele>
        <time>2020-01-30T09:46:56.000Z</time>
      </trkpt>
      <trkpt lat="47.32358" lon="-2.3832">
        <ele>23.799999237061</ele>
        <time>2020-01-30T09:46:57.000Z</time>
      </trkpt>
      <trkpt lat="47.32361" lon="-2.38321">
        <ele>24.200000762939</ele>
        <time>2020-01-30T09:46:58.000Z</time>
      </trkpt>
      <trkpt lat="47.32365" lon="-2.38322">
        <ele>24.60000038147</ele>
        <time>2020-01-30T09:46:59.000Z</time>
      </trkpt>
      <trkpt lat="47.32379" lon="-2.3833">
        <ele>24.60000038147</ele>
        <time>2020-01-30T09:47:03.000Z</time>
      </trkpt>
      <trkpt lat="47.32391" lon="-2.38335">
        <ele>24.60000038147</ele>
        <time>2020-01-30T09:47:07.000Z</time>
      </trkpt>
      <trkpt lat="47.32401" lon="-2.38341">
        <ele>25</ele>
        <time>2020-01-30T09:47:10.000Z</time>
      </trkpt>
      <trkpt lat="47.32405" lon="-2.38342">
        <ele>25.39999961853</ele>
        <time>2020-01-30T09:47:11.000Z</time>
      </trkpt>
      <trkpt lat="47.32408" lon="-2.38344">
        <ele>25.799999237061</ele>
        <time>2020-01-30T09:47:12.000Z</time>
      </trkpt>
      <trkpt lat="47.32412" lon="-2.38346">
        <ele>26.200000762939</ele>
        <time>2020-01-30T09:47:13.000Z</time>
      </trkpt>
      <trkpt lat="47.32416" lon="-2.38348">
        <ele>26.60000038147</ele>
        <time>2020-01-30T09:47:14.000Z</time>
      </trkpt>
      <trkpt lat="47.32433" lon="-2.38356">
        <ele>26.60000038147</ele>
        <time>2020-01-30T09:47:18.000Z</time>
      </trkpt>
      <trkpt lat="47.32454" lon="-2.38367">
        <ele>26.60000038147</ele>
        <time>2020-01-30T09:47:23.000Z</time>
      </trkpt>
      <trkpt lat="47.32471" lon="-2.38372">
        <ele>26.60000038147</ele>
        <time>2020-01-30T09:47:27.000Z</time>
      </trkpt>
      <trkpt lat="47.32475" lon="-2.38374">
        <ele>26.60000038147</ele>
        <time>2020-01-30T09:47:28.000Z</time>
      </trkpt>
      <trkpt lat="47.32498" lon="-2.38385">
        <ele>26.60000038147</ele>
        <time>2020-01-30T09:47:33.000Z</time>
      </trkpt>
      <trkpt lat="47.32516" lon="-2.38385">
        <ele>26.60000038147</ele>
        <time>2020-01-30T09:47:38.000Z</time>
      </trkpt>
      <trkpt lat="47.32518" lon="-2.38383">
        <ele>26.60000038147</ele>
        <time>2020-01-30T09:47:39.000Z</time>
      </trkpt>
      <trkpt lat="47.32522" lon="-2.38377">
        <ele>26.60000038147</ele>
        <time>2020-01-30T09:47:41.000Z</time>
      </trkpt>
      <trkpt lat="47.32526" lon="-2.38353">
        <ele>26.60000038147</ele>
        <time>2020-01-30T09:47:45.000Z</time>
      </trkpt>
      <trkpt lat="47.32528" lon="-2.3833">
        <ele>26.60000038147</ele>
        <time>2020-01-30T09:47:48.000Z</time>
      </trkpt>
      <trkpt lat="47.3253" lon="-2.38317">
        <ele>26.60000038147</ele>
        <time>2020-01-30T09:47:50.000Z</time>
      </trkpt>
      <trkpt lat="47.32543" lon="-2.38307">
        <ele>26.60000038147</ele>
        <time>2020-01-30T09:47:53.000Z</time>
      </trkpt>
      <trkpt lat="47.32548" lon="-2.38305">
        <ele>26.200000762939</ele>
        <time>2020-01-30T09:47:54.000Z</time>
      </trkpt>
      <trkpt lat="47.32554" lon="-2.38304">
        <ele>25.799999237061</ele>
        <time>2020-01-30T09:47:55.000Z</time>
      </trkpt>
      <trkpt lat="47.32559" lon="-2.38303">
        <ele>25.39999961853</ele>
        <time>2020-01-30T09:47:56.000Z</time>
      </trkpt>
      <trkpt lat="47.32565" lon="-2.38302">
        <ele>25</ele>
        <time>2020-01-30T09:47:57.000Z</time>
      </trkpt>
      <trkpt lat="47.32571" lon="-2.383">
        <ele>24.60000038147</ele>
        <time>2020-01-30T09:47:58.000Z</time>
      </trkpt>
      <trkpt lat="47.32595" lon="-2.38292">
        <ele>24.60000038147</ele>
        <time>2020-01-30T09:48:02.000Z</time>
      </trkpt>
      <trkpt lat="47.32607" lon="-2.38295">
        <ele>24.60000038147</ele>
        <time>2020-01-30T09:48:04.000Z</time>
      </trkpt>
      <trkpt lat="47.32626" lon="-2.38313">
        <ele>24.60000038147</ele>
        <time>2020-01-30T09:48:08.000Z</time>
      </trkpt>
      <trkpt lat="47.32647" lon="-2.3834">
        <ele>24.60000038147</ele>
        <time>2020-01-30T09:48:14.000Z</time>
      </trkpt>
      <trkpt lat="47.32654" lon="-2.38348">
        <ele>25</ele>
        <time>2020-01-30T09:48:16.000Z</time>
      </trkpt>
      <trkpt lat="47.32657" lon="-2.38352">
        <ele>25.39999961853</ele>
        <time>2020-01-30T09:48:17.000Z</time>
      </trkpt>
      <trkpt lat="47.3266" lon="-2.38355">
        <ele>25.799999237061</ele>
        <time>2020-01-30T09:48:18.000Z</time>
      </trkpt>
      <trkpt lat="47.32662" lon="-2.38359">
        <ele>26.200000762939</ele>
        <time>2020-01-30T09:48:19.000Z</time>
      </trkpt>
      <trkpt lat="47.32665" lon="-2.38362">
        <ele>26.799999237061</ele>
        <time>2020-01-30T09:48:20.000Z</time>
      </trkpt>
      <trkpt lat="47.32678" lon="-2.38382">
        <ele>26.799999237061</ele>
        <time>2020-01-30T09:48:26.000Z</time>
      </trkpt>
      <trkpt lat="47.32686" lon="-2.38392">
        <ele>27.200000762939</ele>
        <time>2020-01-30T09:48:29.000Z</time>
      </trkpt>
      <trkpt lat="47.32689" lon="-2.38396">
        <ele>27.60000038147</ele>
        <time>2020-01-30T09:48:30.000Z</time>
      </trkpt>
      <trkpt lat="47.32692" lon="-2.38398">
        <ele>28</ele>
        <time>2020-01-30T09:48:31.000Z</time>
      </trkpt>
      <trkpt lat="47.32695" lon="-2.38401">
        <ele>28.39999961853</ele>
        <time>2020-01-30T09:48:32.000Z</time>
      </trkpt>
      <trkpt lat="47.32698" lon="-2.38402">
        <ele>28.799999237061</ele>
        <time>2020-01-30T09:48:33.000Z</time>
      </trkpt>
      <trkpt lat="47.32718" lon="-2.38408">
        <ele>28.799999237061</ele>
        <time>2020-01-30T09:48:39.000Z</time>
      </trkpt>
      <trkpt lat="47.32724" lon="-2.38408">
        <ele>29.200000762939</ele>
        <time>2020-01-30T09:48:41.000Z</time>
      </trkpt>
      <trkpt lat="47.32726" lon="-2.38407">
        <ele>29.60000038147</ele>
        <time>2020-01-30T09:48:42.000Z</time>
      </trkpt>
      <trkpt lat="47.3273" lon="-2.38406">
        <ele>30</ele>
        <time>2020-01-30T09:48:43.000Z</time>
      </trkpt>
      <trkpt lat="47.32733" lon="-2.38404">
        <ele>30.39999961853</ele>
        <time>2020-01-30T09:48:44.000Z</time>
      </trkpt>
      <trkpt lat="47.32737" lon="-2.38403">
        <ele>31</ele>
        <time>2020-01-30T09:48:45.000Z</time>
      </trkpt>
      <trkpt lat="47.32748" lon="-2.38399">
        <ele>31</ele>
        <time>2020-01-30T09:48:49.000Z</time>
      </trkpt>
      <trkpt lat="47.32765" lon="-2.38396">
        <ele>31.39999961853</ele>
        <time>2020-01-30T09:48:54.000Z</time>
      </trkpt>
      <trkpt lat="47.32768" lon="-2.38395">
        <ele>31.799999237061</ele>
        <time>2020-01-30T09:48:55.000Z</time>
      </trkpt>
      <trkpt lat="47.32772" lon="-2.38394">
        <ele>32.200000762939</ele>
        <time>2020-01-30T09:48:56.000Z</time>
      </trkpt>
      <trkpt lat="47.32776" lon="-2.38393">
        <ele>32.599998474121</ele>
        <time>2020-01-30T09:48:57.000Z</time>
      </trkpt>
      <trkpt lat="47.32779" lon="-2.3839">
        <ele>33</ele>
        <time>2020-01-30T09:48:58.000Z</time>
      </trkpt>
      <trkpt lat="47.32781" lon="-2.38386">
        <ele>33</ele>
        <time>2020-01-30T09:48:59.000Z</time>
      </trkpt>
      <trkpt lat="47.32785" lon="-2.38369">
        <ele>33</ele>
        <time>2020-01-30T09:49:02.000Z</time>
      </trkpt>
      <trkpt lat="47.32788" lon="-2.38354">
        <ele>33</ele>
        <time>2020-01-30T09:49:04.000Z</time>
      </trkpt>
      <trkpt lat="47.32796" lon="-2.38312">
        <ele>32.400001525879</ele>
        <time>2020-01-30T09:49:09.000Z</time>
      </trkpt>
      <trkpt lat="47.32799" lon="-2.38303">
        <ele>32</ele>
        <time>2020-01-30T09:49:10.000Z</time>
      </trkpt>
      <trkpt lat="47.32802" lon="-2.38292">
        <ele>31.39999961853</ele>
        <time>2020-01-30T09:49:11.000Z</time>
      </trkpt>
      <trkpt lat="47.32805" lon="-2.38281">
        <ele>31</ele>
        <time>2020-01-30T09:49:12.000Z</time>
      </trkpt>
      <trkpt lat="47.32807" lon="-2.3827">
        <ele>30.60000038147</ele>
        <time>2020-01-30T09:49:13.000Z</time>
      </trkpt>
      <trkpt lat="47.32816" lon="-2.38237">
        <ele>30</ele>
        <time>2020-01-30T09:49:16.000Z</time>
      </trkpt>
      <trkpt lat="47.32819" lon="-2.38226">
        <ele>29.60000038147</ele>
        <time>2020-01-30T09:49:17.000Z</time>
      </trkpt>
      <trkpt lat="47.32822" lon="-2.38215">
        <ele>29.200000762939</ele>
        <time>2020-01-30T09:49:18.000Z</time>
      </trkpt>
      <trkpt lat="47.32825" lon="-2.38203">
        <ele>28.60000038147</ele>
        <time>2020-01-30T09:49:19.000Z</time>
      </trkpt>
      <trkpt lat="47.32829" lon="-2.38192">
        <ele>28.200000762939</ele>
        <time>2020-01-30T09:49:20.000Z</time>
      </trkpt>
      <trkpt lat="47.32838" lon="-2.38171">
        <ele>27.799999237061</ele>
        <time>2020-01-30T09:49:22.000Z</time>
      </trkpt>
      <trkpt lat="47.32843" lon="-2.38161">
        <ele>27.200000762939</ele>
        <time>2020-01-30T09:49:23.000Z</time>
      </trkpt>
      <trkpt lat="47.32848" lon="-2.38152">
        <ele>26.799999237061</ele>
        <time>2020-01-30T09:49:24.000Z</time>
      </trkpt>
      <trkpt lat="47.32852" lon="-2.38143">
        <ele>26.200000762939</ele>
        <time>2020-01-30T09:49:25.000Z</time>
      </trkpt>
      <trkpt lat="47.32858" lon="-2.38134">
        <ele>25.799999237061</ele>
        <time>2020-01-30T09:49:26.000Z</time>
      </trkpt>
      <trkpt lat="47.32874" lon="-2.38107">
        <ele>25.799999237061</ele>
        <time>2020-01-30T09:49:29.000Z</time>
      </trkpt>
      <trkpt lat="47.32879" lon="-2.38098">
        <ele>24.799999237061</ele>
        <time>2020-01-30T09:49:30.000Z</time>
      </trkpt>
      <trkpt lat="47.32884" lon="-2.3809">
        <ele>24.39999961853</ele>
        <time>2020-01-30T09:49:31.000Z</time>
      </trkpt>
      <trkpt lat="47.32889" lon="-2.38081">
        <ele>24</ele>
        <time>2020-01-30T09:49:32.000Z</time>
      </trkpt>
      <trkpt lat="47.32893" lon="-2.38073">
        <ele>23.60000038147</ele>
        <time>2020-01-30T09:49:33.000Z</time>
      </trkpt>
      <trkpt lat="47.32898" lon="-2.38065">
        <ele>23.200000762939</ele>
        <time>2020-01-30T09:49:34.000Z</time>
      </trkpt>
      <trkpt lat="47.32902" lon="-2.38058">
        <ele>22.799999237061</ele>
        <time>2020-01-30T09:49:35.000Z</time>
      </trkpt>
      <trkpt lat="47.32906" lon="-2.38052">
        <ele>22.39999961853</ele>
        <time>2020-01-30T09:49:36.000Z</time>
      </trkpt>
      <trkpt lat="47.32911" lon="-2.38045">
        <ele>22</ele>
        <time>2020-01-30T09:49:37.000Z</time>
      </trkpt>
      <trkpt lat="47.32914" lon="-2.38038">
        <ele>21.39999961853</ele>
        <time>2020-01-30T09:49:38.000Z</time>
      </trkpt>
      <trkpt lat="47.32922" lon="-2.38023">
        <ele>21.39999961853</ele>
        <time>2020-01-30T09:49:40.000Z</time>
      </trkpt>
      <trkpt lat="47.32938" lon="-2.38003">
        <ele>21.39999961853</ele>
        <time>2020-01-30T09:49:44.000Z</time>
      </trkpt>
      <trkpt lat="47.32943" lon="-2.37994">
        <ele>21.39999961853</ele>
        <time>2020-01-30T09:49:46.000Z</time>
      </trkpt>
      <trkpt lat="47.3295" lon="-2.37984">
        <ele>21.39999961853</ele>
        <time>2020-01-30T09:49:48.000Z</time>
      </trkpt>
      <trkpt lat="47.32968" lon="-2.37951">
        <ele>21.39999961853</ele>
        <time>2020-01-30T09:49:54.000Z</time>
      </trkpt>
      <trkpt lat="47.32993" lon="-2.37909">
        <ele>21.39999961853</ele>
        <time>2020-01-30T09:50:01.000Z</time>
      </trkpt>
      <trkpt lat="47.33013" lon="-2.37871">
        <ele>21</ele>
        <time>2020-01-30T09:50:07.000Z</time>
      </trkpt>
      <trkpt lat="47.33015" lon="-2.37865">
        <ele>20.60000038147</ele>
        <time>2020-01-30T09:50:08.000Z</time>
      </trkpt>
      <trkpt lat="47.33018" lon="-2.3786">
        <ele>20.200000762939</ele>
        <time>2020-01-30T09:50:09.000Z</time>
      </trkpt>
      <trkpt lat="47.33021" lon="-2.37855">
        <ele>19.799999237061</ele>
        <time>2020-01-30T09:50:10.000Z</time>
      </trkpt>
      <trkpt lat="47.33025" lon="-2.37851">
        <ele>19.39999961853</ele>
        <time>2020-01-30T09:50:11.000Z</time>
      </trkpt>
      <trkpt lat="47.33029" lon="-2.37847">
        <ele>19.39999961853</ele>
        <time>2020-01-30T09:50:12.000Z</time>
      </trkpt>
      <trkpt lat="47.33045" lon="-2.37826">
        <ele>19.39999961853</ele>
        <time>2020-01-30T09:50:17.000Z</time>
      </trkpt>
      <trkpt lat="47.33061" lon="-2.37809">
        <ele>19.39999961853</ele>
        <time>2020-01-30T09:50:22.000Z</time>
      </trkpt>
      <trkpt lat="47.33068" lon="-2.37802">
        <ele>19</ele>
        <time>2020-01-30T09:50:24.000Z</time>
      </trkpt>
      <trkpt lat="47.3307" lon="-2.37799">
        <ele>18.60000038147</ele>
        <time>2020-01-30T09:50:25.000Z</time>
      </trkpt>
      <trkpt lat="47.33073" lon="-2.37796">
        <ele>18.200000762939</ele>
        <time>2020-01-30T09:50:26.000Z</time>
      </trkpt>
      <trkpt lat="47.33076" lon="-2.37793">
        <ele>17.799999237061</ele>
        <time>2020-01-30T09:50:27.000Z</time>
      </trkpt>
      <trkpt lat="47.33079" lon="-2.37789">
        <ele>17.39999961853</ele>
        <time>2020-01-30T09:50:28.000Z</time>
      </trkpt>
      <trkpt lat="47.33095" lon="-2.37771">
        <ele>17.39999961853</ele>
        <time>2020-01-30T09:50:33.000Z</time>
      </trkpt>
      <trkpt lat="47.33109" lon="-2.37754">
        <ele>17.39999961853</ele>
        <time>2020-01-30T09:50:37.000Z</time>
      </trkpt>
      <trkpt lat="47.33114" lon="-2.37749">
        <ele>17</ele>
        <time>2020-01-30T09:50:38.000Z</time>
      </trkpt>
      <trkpt lat="47.3312" lon="-2.37745">
        <ele>16.60000038147</ele>
        <time>2020-01-30T09:50:39.000Z</time>
      </trkpt>
      <trkpt lat="47.33126" lon="-2.37741">
        <ele>16.200000762939</ele>
        <time>2020-01-30T09:50:40.000Z</time>
      </trkpt>
      <trkpt lat="47.33131" lon="-2.37739">
        <ele>15.800000190735</ele>
        <time>2020-01-30T09:50:41.000Z</time>
      </trkpt>
      <trkpt lat="47.33137" lon="-2.37738">
        <ele>15.39999961853</ele>
        <time>2020-01-30T09:50:42.000Z</time>
      </trkpt>
      <trkpt lat="47.33153" lon="-2.37748">
        <ele>15.39999961853</ele>
        <time>2020-01-30T09:50:45.000Z</time>
      </trkpt>
      <trkpt lat="47.3316" lon="-2.3776">
        <ele>15.39999961853</ele>
        <time>2020-01-30T09:50:47.000Z</time>
      </trkpt>
      <trkpt lat="47.33173" lon="-2.37783">
        <ele>15.39999961853</ele>
        <time>2020-01-30T09:50:51.000Z</time>
      </trkpt>
      <trkpt lat="47.33177" lon="-2.37788">
        <ele>15.39999961853</ele>
        <time>2020-01-30T09:50:52.000Z</time>
      </trkpt>
      <trkpt lat="47.33184" lon="-2.37802">
        <ele>15.800000190735</ele>
        <time>2020-01-30T09:50:55.000Z</time>
      </trkpt>
      <trkpt lat="47.33186" lon="-2.37807">
        <ele>16.200000762939</ele>
        <time>2020-01-30T09:50:56.000Z</time>
      </trkpt>
      <trkpt lat="47.33189" lon="-2.3781">
        <ele>16.799999237061</ele>
        <time>2020-01-30T09:50:57.000Z</time>
      </trkpt>
      <trkpt lat="47.33192" lon="-2.37812">
        <ele>17.200000762939</ele>
        <time>2020-01-30T09:50:58.000Z</time>
      </trkpt>
      <trkpt lat="47.33195" lon="-2.37815">
        <ele>17.60000038147</ele>
        <time>2020-01-30T09:50:59.000Z</time>
      </trkpt>
      <trkpt lat="47.33197" lon="-2.37817">
        <ele>17.60000038147</ele>
        <time>2020-01-30T09:51:00.000Z</time>
      </trkpt>
      <trkpt lat="47.33207" lon="-2.37833">
        <ele>17.60000038147</ele>
        <time>2020-01-30T09:51:05.000Z</time>
      </trkpt>
      <trkpt lat="47.33221" lon="-2.37851">
        <ele>17.60000038147</ele>
        <time>2020-01-30T09:51:11.000Z</time>
      </trkpt>
      <trkpt lat="47.33237" lon="-2.37865">
        <ele>18</ele>
        <time>2020-01-30T09:51:16.000Z</time>
      </trkpt>
      <trkpt lat="47.3324" lon="-2.37868">
        <ele>18.39999961853</ele>
        <time>2020-01-30T09:51:17.000Z</time>
      </trkpt>
      <trkpt lat="47.33243" lon="-2.3787">
        <ele>19</ele>
        <time>2020-01-30T09:51:18.000Z</time>
      </trkpt>
      <trkpt lat="47.33246" lon="-2.37872">
        <ele>19.39999961853</ele>
        <time>2020-01-30T09:51:19.000Z</time>
      </trkpt>
      <trkpt lat="47.33249" lon="-2.37875">
        <ele>19.799999237061</ele>
        <time>2020-01-30T09:51:20.000Z</time>
      </trkpt>
      <trkpt lat="47.33252" lon="-2.37877">
        <ele>19.799999237061</ele>
        <time>2020-01-30T09:51:21.000Z</time>
      </trkpt>
      <trkpt lat="47.33264" lon="-2.37889">
        <ele>19.799999237061</ele>
        <time>2020-01-30T09:51:26.000Z</time>
      </trkpt>
      <trkpt lat="47.33274" lon="-2.37901">
        <ele>20.200000762939</ele>
        <time>2020-01-30T09:51:30.000Z</time>
      </trkpt>
      <trkpt lat="47.33278" lon="-2.37904">
        <ele>20.60000038147</ele>
        <time>2020-01-30T09:51:31.000Z</time>
      </trkpt>
      <trkpt lat="47.33281" lon="-2.37907">
        <ele>21</ele>
        <time>2020-01-30T09:51:32.000Z</time>
      </trkpt>
      <trkpt lat="47.33284" lon="-2.37911">
        <ele>21.39999961853</ele>
        <time>2020-01-30T09:51:33.000Z</time>
      </trkpt>
      <trkpt lat="47.33286" lon="-2.37915">
        <ele>22</ele>
        <time>2020-01-30T09:51:34.000Z</time>
      </trkpt>
      <trkpt lat="47.33291" lon="-2.37921">
        <ele>22</ele>
        <time>2020-01-30T09:51:36.000Z</time>
      </trkpt>
      <trkpt lat="47.333" lon="-2.37933">
        <ele>22.39999961853</ele>
        <time>2020-01-30T09:51:40.000Z</time>
      </trkpt>
      <trkpt lat="47.33302" lon="-2.37936">
        <ele>22.799999237061</ele>
        <time>2020-01-30T09:51:41.000Z</time>
      </trkpt>
      <trkpt lat="47.33304" lon="-2.37939">
        <ele>23.200000762939</ele>
        <time>2020-01-30T09:51:42.000Z</time>
      </trkpt>
      <trkpt lat="47.33305" lon="-2.37943">
        <ele>23.60000038147</ele>
        <time>2020-01-30T09:51:43.000Z</time>
      </trkpt>
      <trkpt lat="47.33307" lon="-2.37945">
        <ele>24</ele>
        <time>2020-01-30T09:51:44.000Z</time>
      </trkpt>
      <trkpt lat="47.33315" lon="-2.37953">
        <ele>24</ele>
        <time>2020-01-30T09:51:47.000Z</time>
      </trkpt>
      <trkpt lat="47.33324" lon="-2.37962">
        <ele>24.39999961853</ele>
        <time>2020-01-30T09:51:51.000Z</time>
      </trkpt>
      <trkpt lat="47.33327" lon="-2.37963">
        <ele>24.799999237061</ele>
        <time>2020-01-30T09:51:52.000Z</time>
      </trkpt>
      <trkpt lat="47.33329" lon="-2.37963">
        <ele>25.200000762939</ele>
        <time>2020-01-30T09:51:53.000Z</time>
      </trkpt>
      <trkpt lat="47.33332" lon="-2.37962">
        <ele>25.60000038147</ele>
        <time>2020-01-30T09:51:54.000Z</time>
      </trkpt>
      <trkpt lat="47.33334" lon="-2.37962">
        <ele>26.200000762939</ele>
        <time>2020-01-30T09:51:55.000Z</time>
      </trkpt>
      <trkpt lat="47.3334" lon="-2.37965">
        <ele>26.200000762939</ele>
        <time>2020-01-30T09:51:58.000Z</time>
      </trkpt>
      <trkpt lat="47.33346" lon="-2.37977">
        <ele>26.200000762939</ele>
        <time>2020-01-30T09:52:04.000Z</time>
      </trkpt>
      <trkpt lat="47.33346" lon="-2.37989">
        <ele>26.200000762939</ele>
        <time>2020-01-30T09:52:10.000Z</time>
      </trkpt>
      <trkpt lat="47.33348" lon="-2.3799">
        <ele>26.200000762939</ele>
        <time>2020-01-30T09:52:11.000Z</time>
      </trkpt>
      <trkpt lat="47.3335" lon="-2.37995">
        <ele>26.60000038147</ele>
        <time>2020-01-30T09:52:14.000Z</time>
      </trkpt>
      <trkpt lat="47.3335" lon="-2.37997">
        <ele>27</ele>
        <time>2020-01-30T09:52:15.000Z</time>
      </trkpt>
      <trkpt lat="47.33351" lon="-2.37999">
        <ele>27.39999961853</ele>
        <time>2020-01-30T09:52:16.000Z</time>
      </trkpt>
      <trkpt lat="47.33352" lon="-2.38002">
        <ele>27.799999237061</ele>
        <time>2020-01-30T09:52:17.000Z</time>
      </trkpt>
      <trkpt lat="47.33353" lon="-2.38004">
        <ele>28.200000762939</ele>
        <time>2020-01-30T09:52:18.000Z</time>
      </trkpt>
      <trkpt lat="47.33355" lon="-2.38007">
        <ele>28.200000762939</ele>
        <time>2020-01-30T09:52:21.000Z</time>
      </trkpt>
      <trkpt lat="47.33356" lon="-2.38012">
        <ele>28.200000762939</ele>
        <time>2020-01-30T09:52:42.000Z</time>
      </trkpt>
      <trkpt lat="47.33357" lon="-2.38023">
        <ele>28.200000762939</ele>
        <time>2020-01-30T09:52:45.000Z</time>
      </trkpt>
      <trkpt lat="47.33361" lon="-2.38052">
        <ele>28.200000762939</ele>
        <time>2020-01-30T09:52:52.000Z</time>
      </trkpt>
      <trkpt lat="47.33362" lon="-2.3806">
        <ele>28.200000762939</ele>
        <time>2020-01-30T09:52:54.000Z</time>
      </trkpt>
      <trkpt lat="47.33363" lon="-2.38069">
        <ele>28.200000762939</ele>
        <time>2020-01-30T09:52:56.000Z</time>
      </trkpt>
      <trkpt lat="47.33371" lon="-2.38087">
        <ele>28.200000762939</ele>
        <time>2020-01-30T09:53:01.000Z</time>
      </trkpt>
      <trkpt lat="47.33376" lon="-2.38093">
        <ele>28.200000762939</ele>
        <time>2020-01-30T09:53:03.000Z</time>
      </trkpt>
      <trkpt lat="47.33382" lon="-2.38105">
        <ele>28.60000038147</ele>
        <time>2020-01-30T09:53:06.000Z</time>
      </trkpt>
      <trkpt lat="47.33384" lon="-2.38108">
        <ele>29</ele>
        <time>2020-01-30T09:53:07.000Z</time>
      </trkpt>
      <trkpt lat="47.33385" lon="-2.38111">
        <ele>29.39999961853</ele>
        <time>2020-01-30T09:53:08.000Z</time>
      </trkpt>
      <trkpt lat="47.33387" lon="-2.38115">
        <ele>29.799999237061</ele>
        <time>2020-01-30T09:53:09.000Z</time>
      </trkpt>
      <trkpt lat="47.33388" lon="-2.38118">
        <ele>30.200000762939</ele>
        <time>2020-01-30T09:53:10.000Z</time>
      </trkpt>
      <trkpt lat="47.33394" lon="-2.3813">
        <ele>30.200000762939</ele>
        <time>2020-01-30T09:53:14.000Z</time>
      </trkpt>
      <trkpt lat="47.334" lon="-2.38147">
        <ele>30.200000762939</ele>
        <time>2020-01-30T09:53:19.000Z</time>
      </trkpt>
      <trkpt lat="47.33401" lon="-2.38151">
        <ele>30.60000038147</ele>
        <time>2020-01-30T09:53:20.000Z</time>
      </trkpt>
      <trkpt lat="47.33402" lon="-2.38155">
        <ele>31</ele>
        <time>2020-01-30T09:53:21.000Z</time>
      </trkpt>
      <trkpt lat="47.33403" lon="-2.3816">
        <ele>31.39999961853</ele>
        <time>2020-01-30T09:53:22.000Z</time>
      </trkpt>
      <trkpt lat="47.33404" lon="-2.38165">
        <ele>31.799999237061</ele>
        <time>2020-01-30T09:53:23.000Z</time>
      </trkpt>
      <trkpt lat="47.33406" lon="-2.3817">
        <ele>32.400001525879</ele>
        <time>2020-01-30T09:53:24.000Z</time>
      </trkpt>
      <trkpt lat="47.33407" lon="-2.38179">
        <ele>32.400001525879</ele>
        <time>2020-01-30T09:53:26.000Z</time>
      </trkpt>
      <trkpt lat="47.33411" lon="-2.38223">
        <ele>32.400001525879</ele>
        <time>2020-01-30T09:53:34.000Z</time>
      </trkpt>
      <trkpt lat="47.33414" lon="-2.38256">
        <ele>32.400001525879</ele>
        <time>2020-01-30T09:53:40.000Z</time>
      </trkpt>
      <trkpt lat="47.3342" lon="-2.38296">
        <ele>32.400001525879</ele>
        <time>2020-01-30T09:53:47.000Z</time>
      </trkpt>
      <trkpt lat="47.33426" lon="-2.3833">
        <ele>32.400001525879</ele>
        <time>2020-01-30T09:53:54.000Z</time>
      </trkpt>
      <trkpt lat="47.33431" lon="-2.3836">
        <ele>32.400001525879</ele>
        <time>2020-01-30T09:54:00.000Z</time>
      </trkpt>
      <trkpt lat="47.33435" lon="-2.38374">
        <ele>32.400001525879</ele>
        <time>2020-01-30T09:54:05.000Z</time>
      </trkpt>
      <trkpt lat="47.33438" lon="-2.38378">
        <ele>32.400001525879</ele>
        <time>2020-01-30T09:54:10.000Z</time>
      </trkpt>
      <trkpt lat="47.33439" lon="-2.3838">
        <ele>32.400001525879</ele>
        <time>2020-01-30T09:54:19.000Z</time>
      </trkpt>
      <trkpt lat="47.3344" lon="-2.38398">
        <ele>32.400001525879</ele>
        <time>2020-01-30T09:54:25.000Z</time>
      </trkpt>
      <trkpt lat="47.33437" lon="-2.38417">
        <ele>32.400001525879</ele>
        <time>2020-01-30T09:54:28.000Z</time>
      </trkpt>
      <trkpt lat="47.33435" lon="-2.38423">
        <ele>32.400001525879</ele>
        <time>2020-01-30T09:54:29.000Z</time>
      </trkpt>
      <trkpt lat="47.33431" lon="-2.38456">
        <ele>32.400001525879</ele>
        <time>2020-01-30T09:54:34.000Z</time>
      </trkpt>
      <trkpt lat="47.3343" lon="-2.38462">
        <ele>32.400001525879</ele>
        <time>2020-01-30T09:54:35.000Z</time>
      </trkpt>
      <trkpt lat="47.33426" lon="-2.38505">
        <ele>32.400001525879</ele>
        <time>2020-01-30T09:54:41.000Z</time>
      </trkpt>
      <trkpt lat="47.33423" lon="-2.38546">
        <ele>32.400001525879</ele>
        <time>2020-01-30T09:54:47.000Z</time>
      </trkpt>
      <trkpt lat="47.3342" lon="-2.38567">
        <ele>32.799999237061</ele>
        <time>2020-01-30T09:54:50.000Z</time>
      </trkpt>
      <trkpt lat="47.3342" lon="-2.38574">
        <ele>33.200000762939</ele>
        <time>2020-01-30T09:54:51.000Z</time>
      </trkpt>
      <trkpt lat="47.33419" lon="-2.38581">
        <ele>33.599998474121</ele>
        <time>2020-01-30T09:54:52.000Z</time>
      </trkpt>
      <trkpt lat="47.33418" lon="-2.38587">
        <ele>34</ele>
        <time>2020-01-30T09:54:53.000Z</time>
      </trkpt>
      <trkpt lat="47.33417" lon="-2.38593">
        <ele>34.400001525879</ele>
        <time>2020-01-30T09:54:54.000Z</time>
      </trkpt>
      <trkpt lat="47.33416" lon="-2.386">
        <ele>34.400001525879</ele>
        <time>2020-01-30T09:54:55.000Z</time>
      </trkpt>
      <trkpt lat="47.33409" lon="-2.3866">
        <ele>34.400001525879</ele>
        <time>2020-01-30T09:55:04.000Z</time>
      </trkpt>
      <trkpt lat="47.33403" lon="-2.38714">
        <ele>34.400001525879</ele>
        <time>2020-01-30T09:55:12.000Z</time>
      </trkpt>
      <trkpt lat="47.33393" lon="-2.38787">
        <ele>34.400001525879</ele>
        <time>2020-01-30T09:55:23.000Z</time>
      </trkpt>
      <trkpt lat="47.33391" lon="-2.38818">
        <ele>34.400001525879</ele>
        <time>2020-01-30T09:55:28.000Z</time>
      </trkpt>
      <trkpt lat="47.33386" lon="-2.38854">
        <ele>34.400001525879</ele>
        <time>2020-01-30T09:55:34.000Z</time>
      </trkpt>
      <trkpt lat="47.33378" lon="-2.38918">
        <ele>34.400001525879</ele>
        <time>2020-01-30T09:55:42.000Z</time>
      </trkpt>
      <trkpt lat="47.3337" lon="-2.38989">
        <ele>34.799999237061</ele>
        <time>2020-01-30T09:55:51.000Z</time>
      </trkpt>
      <trkpt lat="47.33369" lon="-2.38997">
        <ele>35.200000762939</ele>
        <time>2020-01-30T09:55:52.000Z</time>
      </trkpt>
      <trkpt lat="47.33368" lon="-2.39004">
        <ele>35.799999237061</ele>
        <time>2020-01-30T09:55:53.000Z</time>
      </trkpt>
      <trkpt lat="47.33367" lon="-2.3901">
        <ele>36.200000762939</ele>
        <time>2020-01-30T09:55:54.000Z</time>
      </trkpt>
      <trkpt lat="47.33366" lon="-2.39017">
        <ele>36.599998474121</ele>
        <time>2020-01-30T09:55:55.000Z</time>
      </trkpt>
      <trkpt lat="47.33364" lon="-2.39031">
        <ele>37</ele>
        <time>2020-01-30T09:55:57.000Z</time>
      </trkpt>
      <trkpt lat="47.33363" lon="-2.39037">
        <ele>37.400001525879</ele>
        <time>2020-01-30T09:55:58.000Z</time>
      </trkpt>
      <trkpt lat="47.33363" lon="-2.39044">
        <ele>37.799999237061</ele>
        <time>2020-01-30T09:55:59.000Z</time>
      </trkpt>
      <trkpt lat="47.33362" lon="-2.3905">
        <ele>38.200000762939</ele>
        <time>2020-01-30T09:56:00.000Z</time>
      </trkpt>
      <trkpt lat="47.3336" lon="-2.39056">
        <ele>38.599998474121</ele>
        <time>2020-01-30T09:56:01.000Z</time>
      </trkpt>
      <trkpt lat="47.33354" lon="-2.39081">
        <ele>38.599998474121</ele>
        <time>2020-01-30T09:56:05.000Z</time>
      </trkpt>
      <trkpt lat="47.3335" lon="-2.391">
        <ele>38.599998474121</ele>
        <time>2020-01-30T09:56:08.000Z</time>
      </trkpt>
      <trkpt lat="47.33348" lon="-2.39119">
        <ele>38.599998474121</ele>
        <time>2020-01-30T09:56:11.000Z</time>
      </trkpt>
      <trkpt lat="47.33346" lon="-2.39126">
        <ele>38.599998474121</ele>
        <time>2020-01-30T09:56:12.000Z</time>
      </trkpt>
      <trkpt lat="47.33337" lon="-2.39171">
        <ele>38.599998474121</ele>
        <time>2020-01-30T09:56:19.000Z</time>
      </trkpt>
      <trkpt lat="47.33327" lon="-2.39218">
        <ele>38.599998474121</ele>
        <time>2020-01-30T09:56:26.000Z</time>
      </trkpt>
      <trkpt lat="47.33316" lon="-2.39266">
        <ele>38.599998474121</ele>
        <time>2020-01-30T09:56:33.000Z</time>
      </trkpt>
      <trkpt lat="47.33303" lon="-2.39328">
        <ele>38.599998474121</ele>
        <time>2020-01-30T09:56:42.000Z</time>
      </trkpt>
      <trkpt lat="47.3329" lon="-2.39377">
        <ele>38.599998474121</ele>
        <time>2020-01-30T09:56:49.000Z</time>
      </trkpt>
      <trkpt lat="47.3328" lon="-2.39422">
        <ele>38.599998474121</ele>
        <time>2020-01-30T09:56:56.000Z</time>
      </trkpt>
      <trkpt lat="47.3328" lon="-2.39428">
        <ele>38.599998474121</ele>
        <time>2020-01-30T09:56:57.000Z</time>
      </trkpt>
      <trkpt lat="47.33285" lon="-2.39436">
        <ele>38.599998474121</ele>
        <time>2020-01-30T09:56:59.000Z</time>
      </trkpt>
      <trkpt lat="47.33298" lon="-2.39437">
        <ele>38.599998474121</ele>
        <time>2020-01-30T09:57:02.000Z</time>
      </trkpt>
      <trkpt lat="47.3331" lon="-2.39434">
        <ele>38.599998474121</ele>
        <time>2020-01-30T09:57:04.000Z</time>
      </trkpt>
      <trkpt lat="47.33322" lon="-2.39431">
        <ele>38.200000762939</ele>
        <time>2020-01-30T09:57:06.000Z</time>
      </trkpt>
      <trkpt lat="47.33328" lon="-2.3943">
        <ele>37.799999237061</ele>
        <time>2020-01-30T09:57:07.000Z</time>
      </trkpt>
      <trkpt lat="47.33334" lon="-2.39429">
        <ele>37.400001525879</ele>
        <time>2020-01-30T09:57:08.000Z</time>
      </trkpt>
      <trkpt lat="47.3334" lon="-2.39427">
        <ele>37</ele>
        <time>2020-01-30T09:57:09.000Z</time>
      </trkpt>
      <trkpt lat="47.33346" lon="-2.39425">
        <ele>36.599998474121</ele>
        <time>2020-01-30T09:57:10.000Z</time>
      </trkpt>
      <trkpt lat="47.33364" lon="-2.39419">
        <ele>36.599998474121</ele>
        <time>2020-01-30T09:57:13.000Z</time>
      </trkpt>
      <trkpt lat="47.33396" lon="-2.39406">
        <ele>36.599998474121</ele>
        <time>2020-01-30T09:57:19.000Z</time>
      </trkpt>
      <trkpt lat="47.33414" lon="-2.39398">
        <ele>35.799999237061</ele>
        <time>2020-01-30T09:57:22.000Z</time>
      </trkpt>
      <trkpt lat="47.3342" lon="-2.39396">
        <ele>35.400001525879</ele>
        <time>2020-01-30T09:57:23.000Z</time>
      </trkpt>
      <trkpt lat="47.33426" lon="-2.39394">
        <ele>35</ele>
        <time>2020-01-30T09:57:24.000Z</time>
      </trkpt>
      <trkpt lat="47.33433" lon="-2.39391">
        <ele>34.599998474121</ele>
        <time>2020-01-30T09:57:25.000Z</time>
      </trkpt>
      <trkpt lat="47.33439" lon="-2.39389">
        <ele>34.599998474121</ele>
        <time>2020-01-30T09:57:26.000Z</time>
      </trkpt>
      <trkpt lat="47.33474" lon="-2.39377">
        <ele>34.599998474121</ele>
        <time>2020-01-30T09:57:32.000Z</time>
      </trkpt>
      <trkpt lat="47.33479" lon="-2.39377">
        <ele>34.599998474121</ele>
        <time>2020-01-30T09:57:33.000Z</time>
      </trkpt>
      <trkpt lat="47.33499" lon="-2.39372">
        <ele>34.599998474121</ele>
        <time>2020-01-30T09:57:37.000Z</time>
      </trkpt>
      <trkpt lat="47.33509" lon="-2.3937">
        <ele>34.599998474121</ele>
        <time>2020-01-30T09:57:39.000Z</time>
      </trkpt>
      <trkpt lat="47.33543" lon="-2.39365">
        <ele>34.599998474121</ele>
        <time>2020-01-30T09:57:45.000Z</time>
      </trkpt>
      <trkpt lat="47.33549" lon="-2.39363">
        <ele>34.200000762939</ele>
        <time>2020-01-30T09:57:46.000Z</time>
      </trkpt>
      <trkpt lat="47.33555" lon="-2.39361">
        <ele>33.400001525879</ele>
        <time>2020-01-30T09:57:47.000Z</time>
      </trkpt>
      <trkpt lat="47.33561" lon="-2.39359">
        <ele>33</ele>
        <time>2020-01-30T09:57:48.000Z</time>
      </trkpt>
      <trkpt lat="47.33568" lon="-2.39357">
        <ele>32.599998474121</ele>
        <time>2020-01-30T09:57:49.000Z</time>
      </trkpt>
      <trkpt lat="47.33587" lon="-2.39348">
        <ele>32.599998474121</ele>
        <time>2020-01-30T09:57:52.000Z</time>
      </trkpt>
      <trkpt lat="47.33612" lon="-2.39338">
        <ele>32.599998474121</ele>
        <time>2020-01-30T09:57:56.000Z</time>
      </trkpt>
      <trkpt lat="47.33623" lon="-2.3933">
        <ele>32.599998474121</ele>
        <time>2020-01-30T09:57:58.000Z</time>
      </trkpt>
      <trkpt lat="47.3364" lon="-2.39316">
        <ele>32</ele>
        <time>2020-01-30T09:58:01.000Z</time>
      </trkpt>
      <trkpt lat="47.33645" lon="-2.3931">
        <ele>31.60000038147</ele>
        <time>2020-01-30T09:58:02.000Z</time>
      </trkpt>
      <trkpt lat="47.3365" lon="-2.39305">
        <ele>31.200000762939</ele>
        <time>2020-01-30T09:58:03.000Z</time>
      </trkpt>
      <trkpt lat="47.33656" lon="-2.393">
        <ele>30.799999237061</ele>
        <time>2020-01-30T09:58:04.000Z</time>
      </trkpt>
      <trkpt lat="47.33662" lon="-2.39297">
        <ele>30.39999961853</ele>
        <time>2020-01-30T09:58:05.000Z</time>
      </trkpt>
      <trkpt lat="47.33675" lon="-2.39295">
        <ele>30.39999961853</ele>
        <time>2020-01-30T09:58:07.000Z</time>
      </trkpt>
      <trkpt lat="47.33696" lon="-2.39301">
        <ele>30.39999961853</ele>
        <time>2020-01-30T09:58:11.000Z</time>
      </trkpt>
      <trkpt lat="47.33706" lon="-2.39306">
        <ele>30.39999961853</ele>
        <time>2020-01-30T09:58:13.000Z</time>
      </trkpt>
      <trkpt lat="47.33713" lon="-2.39317">
        <ele>30.39999961853</ele>
        <time>2020-01-30T09:58:15.000Z</time>
      </trkpt>
      <trkpt lat="47.33716" lon="-2.39323">
        <ele>30.39999961853</ele>
        <time>2020-01-30T09:58:16.000Z</time>
      </trkpt>
      <trkpt lat="47.33718" lon="-2.39345">
        <ele>30.39999961853</ele>
        <time>2020-01-30T09:58:19.000Z</time>
      </trkpt>
      <trkpt lat="47.33717" lon="-2.39354">
        <ele>30.39999961853</ele>
        <time>2020-01-30T09:58:20.000Z</time>
      </trkpt>
      <trkpt lat="47.33712" lon="-2.39392">
        <ele>30.39999961853</ele>
        <time>2020-01-30T09:58:25.000Z</time>
      </trkpt>
      <trkpt lat="47.33707" lon="-2.39436">
        <ele>30.39999961853</ele>
        <time>2020-01-30T09:58:31.000Z</time>
      </trkpt>
      <trkpt lat="47.33705" lon="-2.39442">
        <ele>30.799999237061</ele>
        <time>2020-01-30T09:58:32.000Z</time>
      </trkpt>
      <trkpt lat="47.33704" lon="-2.39449">
        <ele>31.200000762939</ele>
        <time>2020-01-30T09:58:33.000Z</time>
      </trkpt>
      <trkpt lat="47.33702" lon="-2.39457">
        <ele>31.60000038147</ele>
        <time>2020-01-30T09:58:34.000Z</time>
      </trkpt>
      <trkpt lat="47.33699" lon="-2.39464">
        <ele>32</ele>
        <time>2020-01-30T09:58:35.000Z</time>
      </trkpt>
      <trkpt lat="47.33698" lon="-2.39472">
        <ele>32.400001525879</ele>
        <time>2020-01-30T09:58:36.000Z</time>
      </trkpt>
      <trkpt lat="47.33696" lon="-2.39479">
        <ele>32.400001525879</ele>
        <time>2020-01-30T09:58:37.000Z</time>
      </trkpt>
      <trkpt lat="47.3368" lon="-2.39522">
        <ele>32.400001525879</ele>
        <time>2020-01-30T09:58:43.000Z</time>
      </trkpt>
      <trkpt lat="47.33666" lon="-2.39565">
        <ele>32.400001525879</ele>
        <time>2020-01-30T09:58:49.000Z</time>
      </trkpt>
      <trkpt lat="47.33644" lon="-2.39626">
        <ele>32.400001525879</ele>
        <time>2020-01-30T09:58:57.000Z</time>
      </trkpt>
      <trkpt lat="47.33642" lon="-2.39634">
        <ele>31.799999237061</ele>
        <time>2020-01-30T09:58:58.000Z</time>
      </trkpt>
      <trkpt lat="47.33638" lon="-2.39642">
        <ele>31.39999961853</ele>
        <time>2020-01-30T09:58:59.000Z</time>
      </trkpt>
      <trkpt lat="47.33635" lon="-2.3965">
        <ele>31</ele>
        <time>2020-01-30T09:59:00.000Z</time>
      </trkpt>
      <trkpt lat="47.33631" lon="-2.39657">
        <ele>30</ele>
        <time>2020-01-30T09:59:01.000Z</time>
      </trkpt>
      <trkpt lat="47.33622" lon="-2.39669">
        <ele>30</ele>
        <time>2020-01-30T09:59:03.000Z</time>
      </trkpt>
      <trkpt lat="47.33605" lon="-2.39692">
        <ele>29.60000038147</ele>
        <time>2020-01-30T09:59:07.000Z</time>
      </trkpt>
      <trkpt lat="47.33602" lon="-2.39698">
        <ele>29.200000762939</ele>
        <time>2020-01-30T09:59:08.000Z</time>
      </trkpt>
      <trkpt lat="47.33598" lon="-2.39704">
        <ele>28.799999237061</ele>
        <time>2020-01-30T09:59:09.000Z</time>
      </trkpt>
      <trkpt lat="47.33595" lon="-2.39709">
        <ele>28.200000762939</ele>
        <time>2020-01-30T09:59:10.000Z</time>
      </trkpt>
      <trkpt lat="47.33592" lon="-2.39715">
        <ele>27.799999237061</ele>
        <time>2020-01-30T09:59:11.000Z</time>
      </trkpt>
      <trkpt lat="47.33572" lon="-2.39745">
        <ele>27.799999237061</ele>
        <time>2020-01-30T09:59:16.000Z</time>
      </trkpt>
      <trkpt lat="47.33567" lon="-2.39749">
        <ele>27.799999237061</ele>
        <time>2020-01-30T09:59:17.000Z</time>
      </trkpt>
      <trkpt lat="47.33549" lon="-2.39768">
        <ele>27.799999237061</ele>
        <time>2020-01-30T09:59:21.000Z</time>
      </trkpt>
      <trkpt lat="47.33541" lon="-2.39779">
        <ele>27.799999237061</ele>
        <time>2020-01-30T09:59:23.000Z</time>
      </trkpt>
      <trkpt lat="47.33537" lon="-2.39783">
        <ele>27.799999237061</ele>
        <time>2020-01-30T09:59:24.000Z</time>
      </trkpt>
      <trkpt lat="47.33525" lon="-2.398">
        <ele>27.799999237061</ele>
        <time>2020-01-30T09:59:27.000Z</time>
      </trkpt>
      <trkpt lat="47.33491" lon="-2.3985">
        <ele>27.799999237061</ele>
        <time>2020-01-30T09:59:36.000Z</time>
      </trkpt>
      <trkpt lat="47.33483" lon="-2.39861">
        <ele>28.39999961853</ele>
        <time>2020-01-30T09:59:38.000Z</time>
      </trkpt>
      <trkpt lat="47.33479" lon="-2.39866">
        <ele>28.799999237061</ele>
        <time>2020-01-30T09:59:39.000Z</time>
      </trkpt>
      <trkpt lat="47.33475" lon="-2.39871">
        <ele>29.200000762939</ele>
        <time>2020-01-30T09:59:40.000Z</time>
      </trkpt>
      <trkpt lat="47.33471" lon="-2.39876">
        <ele>29.60000038147</ele>
        <time>2020-01-30T09:59:41.000Z</time>
      </trkpt>
      <trkpt lat="47.33467" lon="-2.39882">
        <ele>30.200000762939</ele>
        <time>2020-01-30T09:59:42.000Z</time>
      </trkpt>
      <trkpt lat="47.33463" lon="-2.39887">
        <ele>30.200000762939</ele>
        <time>2020-01-30T09:59:43.000Z</time>
      </trkpt>
      <trkpt lat="47.33438" lon="-2.39921">
        <ele>30.200000762939</ele>
        <time>2020-01-30T09:59:50.000Z</time>
      </trkpt>
      <trkpt lat="47.33434" lon="-2.39925">
        <ele>31</ele>
        <time>2020-01-30T09:59:51.000Z</time>
      </trkpt>
      <trkpt lat="47.33432" lon="-2.39929">
        <ele>31.39999961853</ele>
        <time>2020-01-30T09:59:52.000Z</time>
      </trkpt>
      <trkpt lat="47.33429" lon="-2.39933">
        <ele>31.799999237061</ele>
        <time>2020-01-30T09:59:53.000Z</time>
      </trkpt>
      <trkpt lat="47.33427" lon="-2.39937">
        <ele>32.200000762939</ele>
        <time>2020-01-30T09:59:54.000Z</time>
      </trkpt>
      <trkpt lat="47.33421" lon="-2.39946">
        <ele>32.200000762939</ele>
        <time>2020-01-30T09:59:56.000Z</time>
      </trkpt>
      <trkpt lat="47.33407" lon="-2.39971">
        <ele>32.200000762939</ele>
        <time>2020-01-30T10:00:01.000Z</time>
      </trkpt>
      <trkpt lat="47.3339" lon="-2.39998">
        <ele>32.200000762939</ele>
        <time>2020-01-30T10:00:07.000Z</time>
      </trkpt>
      <trkpt lat="47.33376" lon="-2.40019">
        <ele>32.200000762939</ele>
        <time>2020-01-30T10:00:12.000Z</time>
      </trkpt>
      <trkpt lat="47.3337" lon="-2.4003">
        <ele>32.599998474121</ele>
        <time>2020-01-30T10:00:15.000Z</time>
      </trkpt>
      <trkpt lat="47.33368" lon="-2.40035">
        <ele>33</ele>
        <time>2020-01-30T10:00:16.000Z</time>
      </trkpt>
      <trkpt lat="47.33365" lon="-2.4004">
        <ele>33.400001525879</ele>
        <time>2020-01-30T10:00:17.000Z</time>
      </trkpt>
      <trkpt lat="47.33363" lon="-2.40045">
        <ele>33.799999237061</ele>
        <time>2020-01-30T10:00:18.000Z</time>
      </trkpt>
      <trkpt lat="47.33361" lon="-2.4005">
        <ele>34.200000762939</ele>
        <time>2020-01-30T10:00:19.000Z</time>
      </trkpt>
      <trkpt lat="47.33358" lon="-2.4007">
        <ele>34.200000762939</ele>
        <time>2020-01-30T10:00:22.000Z</time>
      </trkpt>
      <trkpt lat="47.33358" lon="-2.40077">
        <ele>34.200000762939</ele>
        <time>2020-01-30T10:00:23.000Z</time>
      </trkpt>
      <trkpt lat="47.33354" lon="-2.40117">
        <ele>34.200000762939</ele>
        <time>2020-01-30T10:00:28.000Z</time>
      </trkpt>
      <trkpt lat="47.33354" lon="-2.40125">
        <ele>34.799999237061</ele>
        <time>2020-01-30T10:00:29.000Z</time>
      </trkpt>
      <trkpt lat="47.33354" lon="-2.40133">
        <ele>35.200000762939</ele>
        <time>2020-01-30T10:00:30.000Z</time>
      </trkpt>
      <trkpt lat="47.33354" lon="-2.40141">
        <ele>35.599998474121</ele>
        <time>2020-01-30T10:00:31.000Z</time>
      </trkpt>
      <trkpt lat="47.33354" lon="-2.40148">
        <ele>36</ele>
        <time>2020-01-30T10:00:32.000Z</time>
      </trkpt>
      <trkpt lat="47.33353" lon="-2.40155">
        <ele>36.400001525879</ele>
        <time>2020-01-30T10:00:33.000Z</time>
      </trkpt>
      <trkpt lat="47.33352" lon="-2.40163">
        <ele>36.400001525879</ele>
        <time>2020-01-30T10:00:34.000Z</time>
      </trkpt>
      <trkpt lat="47.33349" lon="-2.40199">
        <ele>36.400001525879</ele>
        <time>2020-01-30T10:00:39.000Z</time>
      </trkpt>
      <trkpt lat="47.33344" lon="-2.40243">
        <ele>36.400001525879</ele>
        <time>2020-01-30T10:00:44.000Z</time>
      </trkpt>
      <trkpt lat="47.33337" lon="-2.40303">
        <ele>36.400001525879</ele>
        <time>2020-01-30T10:00:51.000Z</time>
      </trkpt>
      <trkpt lat="47.33334" lon="-2.40319">
        <ele>36.400001525879</ele>
        <time>2020-01-30T10:00:53.000Z</time>
      </trkpt>
      <trkpt lat="47.33327" lon="-2.40343">
        <ele>36.400001525879</ele>
        <time>2020-01-30T10:00:56.000Z</time>
      </trkpt>
      <trkpt lat="47.3332" lon="-2.40377">
        <ele>36</ele>
        <time>2020-01-30T10:01:00.000Z</time>
      </trkpt>
      <trkpt lat="47.3332" lon="-2.40388">
        <ele>35.400001525879</ele>
        <time>2020-01-30T10:01:01.000Z</time>
      </trkpt>
      <trkpt lat="47.33321" lon="-2.40398">
        <ele>35</ele>
        <time>2020-01-30T10:01:02.000Z</time>
      </trkpt>
      <trkpt lat="47.3332" lon="-2.40411">
        <ele>34.599998474121</ele>
        <time>2020-01-30T10:01:03.000Z</time>
      </trkpt>
      <trkpt lat="47.33319" lon="-2.40422">
        <ele>34.200000762939</ele>
        <time>2020-01-30T10:01:04.000Z</time>
      </trkpt>
      <trkpt lat="47.33317" lon="-2.40434">
        <ele>33.200000762939</ele>
        <time>2020-01-30T10:01:05.000Z</time>
      </trkpt>
      <trkpt lat="47.33315" lon="-2.40446">
        <ele>32.599998474121</ele>
        <time>2020-01-30T10:01:06.000Z</time>
      </trkpt>
      <trkpt lat="47.33315" lon="-2.40458">
        <ele>32.200000762939</ele>
        <time>2020-01-30T10:01:07.000Z</time>
      </trkpt>
      <trkpt lat="47.33314" lon="-2.40469">
        <ele>31.799999237061</ele>
        <time>2020-01-30T10:01:08.000Z</time>
      </trkpt>
      <trkpt lat="47.33306" lon="-2.40507">
        <ele>31.799999237061</ele>
        <time>2020-01-30T10:01:12.000Z</time>
      </trkpt>
      <trkpt lat="47.33303" lon="-2.40515">
        <ele>31.200000762939</ele>
        <time>2020-01-30T10:01:13.000Z</time>
      </trkpt>
      <trkpt lat="47.33299" lon="-2.40523">
        <ele>30.60000038147</ele>
        <time>2020-01-30T10:01:14.000Z</time>
      </trkpt>
      <trkpt lat="47.33295" lon="-2.4053">
        <ele>30.200000762939</ele>
        <time>2020-01-30T10:01:15.000Z</time>
      </trkpt>
      <trkpt lat="47.33291" lon="-2.40537">
        <ele>29.60000038147</ele>
        <time>2020-01-30T10:01:16.000Z</time>
      </trkpt>
      <trkpt lat="47.33287" lon="-2.40545">
        <ele>29</ele>
        <time>2020-01-30T10:01:17.000Z</time>
      </trkpt>
      <trkpt lat="47.33278" lon="-2.40568">
        <ele>29</ele>
        <time>2020-01-30T10:01:20.000Z</time>
      </trkpt>
      <trkpt lat="47.33273" lon="-2.40586">
        <ele>29</ele>
        <time>2020-01-30T10:01:22.000Z</time>
      </trkpt>
      <trkpt lat="47.3326" lon="-2.40633">
        <ele>29</ele>
        <time>2020-01-30T10:01:28.000Z</time>
      </trkpt>
      <trkpt lat="47.33246" lon="-2.4068">
        <ele>29</ele>
        <time>2020-01-30T10:01:34.000Z</time>
      </trkpt>
      <trkpt lat="47.33241" lon="-2.40705">
        <ele>29.60000038147</ele>
        <time>2020-01-30T10:01:37.000Z</time>
      </trkpt>
      <trkpt lat="47.3324" lon="-2.40714">
        <ele>30</ele>
        <time>2020-01-30T10:01:38.000Z</time>
      </trkpt>
      <trkpt lat="47.33238" lon="-2.40722">
        <ele>30.39999961853</ele>
        <time>2020-01-30T10:01:39.000Z</time>
      </trkpt>
      <trkpt lat="47.33237" lon="-2.4073">
        <ele>30.799999237061</ele>
        <time>2020-01-30T10:01:40.000Z</time>
      </trkpt>
      <trkpt lat="47.33236" lon="-2.40738">
        <ele>31.200000762939</ele>
        <time>2020-01-30T10:01:41.000Z</time>
      </trkpt>
      <trkpt lat="47.33233" lon="-2.40768">
        <ele>31.200000762939</ele>
        <time>2020-01-30T10:01:45.000Z</time>
      </trkpt>
      <trkpt lat="47.33232" lon="-2.40774">
        <ele>31.200000762939</ele>
        <time>2020-01-30T10:01:46.000Z</time>
      </trkpt>
      <trkpt lat="47.33223" lon="-2.40796">
        <ele>31.799999237061</ele>
        <time>2020-01-30T10:01:50.000Z</time>
      </trkpt>
      <trkpt lat="47.3322" lon="-2.40801">
        <ele>32.200000762939</ele>
        <time>2020-01-30T10:01:51.000Z</time>
      </trkpt>
      <trkpt lat="47.33217" lon="-2.40806">
        <ele>32.599998474121</ele>
        <time>2020-01-30T10:01:52.000Z</time>
      </trkpt>
      <trkpt lat="47.33215" lon="-2.40811">
        <ele>33</ele>
        <time>2020-01-30T10:01:53.000Z</time>
      </trkpt>
      <trkpt lat="47.33211" lon="-2.40817">
        <ele>33.400001525879</ele>
        <time>2020-01-30T10:01:54.000Z</time>
      </trkpt>
      <trkpt lat="47.33206" lon="-2.40827">
        <ele>33.400001525879</ele>
        <time>2020-01-30T10:01:56.000Z</time>
      </trkpt>
      <trkpt lat="47.33202" lon="-2.40832">
        <ele>33.400001525879</ele>
        <time>2020-01-30T10:01:57.000Z</time>
      </trkpt>
      <trkpt lat="47.33187" lon="-2.40854">
        <ele>33.400001525879</ele>
        <time>2020-01-30T10:02:02.000Z</time>
      </trkpt>
      <trkpt lat="47.33172" lon="-2.40878">
        <ele>33.799999237061</ele>
        <time>2020-01-30T10:02:07.000Z</time>
      </trkpt>
      <trkpt lat="47.33169" lon="-2.40883">
        <ele>34.200000762939</ele>
        <time>2020-01-30T10:02:08.000Z</time>
      </trkpt>
      <trkpt lat="47.33166" lon="-2.40888">
        <ele>34.599998474121</ele>
        <time>2020-01-30T10:02:09.000Z</time>
      </trkpt>
      <trkpt lat="47.33163" lon="-2.40893">
        <ele>35</ele>
        <time>2020-01-30T10:02:10.000Z</time>
      </trkpt>
      <trkpt lat="47.33161" lon="-2.40898">
        <ele>35.400001525879</ele>
        <time>2020-01-30T10:02:11.000Z</time>
      </trkpt>
      <trkpt lat="47.33149" lon="-2.4092">
        <ele>35.400001525879</ele>
        <time>2020-01-30T10:02:15.000Z</time>
      </trkpt>
      <trkpt lat="47.33143" lon="-2.4093">
        <ele>35.400001525879</ele>
        <time>2020-01-30T10:02:17.000Z</time>
      </trkpt>
      <trkpt lat="47.33132" lon="-2.40951">
        <ele>35.400001525879</ele>
        <time>2020-01-30T10:02:21.000Z</time>
      </trkpt>
      <trkpt lat="47.33115" lon="-2.40989">
        <ele>35.400001525879</ele>
        <time>2020-01-30T10:02:28.000Z</time>
      </trkpt>
      <trkpt lat="47.33104" lon="-2.41018">
        <ele>36</ele>
        <time>2020-01-30T10:02:33.000Z</time>
      </trkpt>
      <trkpt lat="47.33102" lon="-2.41024">
        <ele>36.400001525879</ele>
        <time>2020-01-30T10:02:34.000Z</time>
      </trkpt>
      <trkpt lat="47.331" lon="-2.4103">
        <ele>36.799999237061</ele>
        <time>2020-01-30T10:02:35.000Z</time>
      </trkpt>
      <trkpt lat="47.33098" lon="-2.41036">
        <ele>37.200000762939</ele>
        <time>2020-01-30T10:02:36.000Z</time>
      </trkpt>
      <trkpt lat="47.33095" lon="-2.41042">
        <ele>37.799999237061</ele>
        <time>2020-01-30T10:02:37.000Z</time>
      </trkpt>
      <trkpt lat="47.33093" lon="-2.41048">
        <ele>38.200000762939</ele>
        <time>2020-01-30T10:02:38.000Z</time>
      </trkpt>
      <trkpt lat="47.33091" lon="-2.41054">
        <ele>38.599998474121</ele>
        <time>2020-01-30T10:02:39.000Z</time>
      </trkpt>
      <trkpt lat="47.33089" lon="-2.4106">
        <ele>39.200000762939</ele>
        <time>2020-01-30T10:02:40.000Z</time>
      </trkpt>
      <trkpt lat="47.33087" lon="-2.41067">
        <ele>39.599998474121</ele>
        <time>2020-01-30T10:02:41.000Z</time>
      </trkpt>
      <trkpt lat="47.33085" lon="-2.41074">
        <ele>40.200000762939</ele>
        <time>2020-01-30T10:02:42.000Z</time>
      </trkpt>
      <trkpt lat="47.3308" lon="-2.41087">
        <ele>40.200000762939</ele>
        <time>2020-01-30T10:02:44.000Z</time>
      </trkpt>
      <trkpt lat="47.33071" lon="-2.41112">
        <ele>39.599998474121</ele>
        <time>2020-01-30T10:02:48.000Z</time>
      </trkpt>
      <trkpt lat="47.33068" lon="-2.41118">
        <ele>39.200000762939</ele>
        <time>2020-01-30T10:02:49.000Z</time>
      </trkpt>
      <trkpt lat="47.33066" lon="-2.41124">
        <ele>38.799999237061</ele>
        <time>2020-01-30T10:02:50.000Z</time>
      </trkpt>
      <trkpt lat="47.33063" lon="-2.41129">
        <ele>38.400001525879</ele>
        <time>2020-01-30T10:02:51.000Z</time>
      </trkpt>
      <trkpt lat="47.3306" lon="-2.41135">
        <ele>38</ele>
        <time>2020-01-30T10:02:52.000Z</time>
      </trkpt>
      <trkpt lat="47.3304" lon="-2.41174">
        <ele>38</ele>
        <time>2020-01-30T10:03:00.000Z</time>
      </trkpt>
      <trkpt lat="47.3303" lon="-2.41195">
        <ele>38</ele>
        <time>2020-01-30T10:03:04.000Z</time>
      </trkpt>
      <trkpt lat="47.33022" lon="-2.41211">
        <ele>38</ele>
        <time>2020-01-30T10:03:07.000Z</time>
      </trkpt>
      <trkpt lat="47.33007" lon="-2.41229">
        <ele>38</ele>
        <time>2020-01-30T10:03:12.000Z</time>
      </trkpt>
      <trkpt lat="47.32994" lon="-2.41242">
        <ele>38</ele>
        <time>2020-01-30T10:03:17.000Z</time>
      </trkpt>
      <trkpt lat="47.32991" lon="-2.41228">
        <ele>38</ele>
        <time>2020-01-30T10:03:20.000Z</time>
      </trkpt>
      <trkpt lat="47.32992" lon="-2.41207">
        <ele>38</ele>
        <time>2020-01-30T10:03:24.000Z</time>
      </trkpt>
      <trkpt lat="47.32993" lon="-2.41188">
        <ele>38</ele>
        <time>2020-01-30T10:03:28.000Z</time>
      </trkpt>
      <trkpt lat="47.32993" lon="-2.41163">
        <ele>38</ele>
        <time>2020-01-30T10:03:34.000Z</time>
      </trkpt>
      <trkpt lat="47.3299" lon="-2.41138">
        <ele>38</ele>
        <time>2020-01-30T10:03:40.000Z</time>
      </trkpt>
      <trkpt lat="47.32985" lon="-2.41106">
        <ele>38</ele>
        <time>2020-01-30T10:03:47.000Z</time>
      </trkpt>
      <trkpt lat="47.32983" lon="-2.41088">
        <ele>38.400001525879</ele>
        <time>2020-01-30T10:03:51.000Z</time>
      </trkpt>
      <trkpt lat="47.32983" lon="-2.41083">
        <ele>39</ele>
        <time>2020-01-30T10:03:52.000Z</time>
      </trkpt>
      <trkpt lat="47.32982" lon="-2.41078">
        <ele>39.400001525879</ele>
        <time>2020-01-30T10:03:53.000Z</time>
      </trkpt>
      <trkpt lat="47.32981" lon="-2.41073">
        <ele>39.799999237061</ele>
        <time>2020-01-30T10:03:54.000Z</time>
      </trkpt>
      <trkpt lat="47.32981" lon="-2.41068">
        <ele>40.200000762939</ele>
        <time>2020-01-30T10:03:55.000Z</time>
      </trkpt>
      <trkpt lat="47.32978" lon="-2.41038">
        <ele>40.200000762939</ele>
        <time>2020-01-30T10:04:01.000Z</time>
      </trkpt>
      <trkpt lat="47.32972" lon="-2.41014">
        <ele>40.200000762939</ele>
        <time>2020-01-30T10:04:06.000Z</time>
      </trkpt>
      <trkpt lat="47.32967" lon="-2.40978">
        <ele>40.200000762939</ele>
        <time>2020-01-30T10:04:12.000Z</time>
      </trkpt>
      <trkpt lat="47.32963" lon="-2.40948">
        <ele>40.599998474121</ele>
        <time>2020-01-30T10:04:17.000Z</time>
      </trkpt>
      <trkpt lat="47.32963" lon="-2.40942">
        <ele>41</ele>
        <time>2020-01-30T10:04:18.000Z</time>
      </trkpt>
      <trkpt lat="47.32962" lon="-2.40937">
        <ele>41.599998474121</ele>
        <time>2020-01-30T10:04:19.000Z</time>
      </trkpt>
      <trkpt lat="47.32962" lon="-2.40932">
        <ele>42</ele>
        <time>2020-01-30T10:04:20.000Z</time>
      </trkpt>
      <trkpt lat="47.32961" lon="-2.40928">
        <ele>42.400001525879</ele>
        <time>2020-01-30T10:04:21.000Z</time>
      </trkpt>
      <trkpt lat="47.32959" lon="-2.40909">
        <ele>42.400001525879</ele>
        <time>2020-01-30T10:04:25.000Z</time>
      </trkpt>
      <trkpt lat="47.32956" lon="-2.40887">
        <ele>42.400001525879</ele>
        <time>2020-01-30T10:04:30.000Z</time>
      </trkpt>
      <trkpt lat="47.32954" lon="-2.40855">
        <ele>42.400001525879</ele>
        <time>2020-01-30T10:04:37.000Z</time>
      </trkpt>
      <trkpt lat="47.32951" lon="-2.40844">
        <ele>42.400001525879</ele>
        <time>2020-01-30T10:04:42.000Z</time>
      </trkpt>
      <trkpt lat="47.3295" lon="-2.40835">
        <ele>42.400001525879</ele>
        <time>2020-01-30T10:04:48.000Z</time>
      </trkpt>
      <trkpt lat="47.32949" lon="-2.40827">
        <ele>42.400001525879</ele>
        <time>2020-01-30T10:04:55.000Z</time>
      </trkpt>
      <trkpt lat="47.32952" lon="-2.40824">
        <ele>42.400001525879</ele>
        <time>2020-01-30T10:05:00.000Z</time>
      </trkpt>
      <trkpt lat="47.32953" lon="-2.40819">
        <ele>42.400001525879</ele>
        <time>2020-01-30T10:05:02.000Z</time>
      </trkpt>
      <trkpt lat="47.32952" lon="-2.40809">
        <ele>42.400001525879</ele>
        <time>2020-01-30T10:05:05.000Z</time>
      </trkpt>
      <trkpt lat="47.32951" lon="-2.40796">
        <ele>42.400001525879</ele>
        <time>2020-01-30T10:05:08.000Z</time>
      </trkpt>
      <trkpt lat="47.32947" lon="-2.40751">
        <ele>42.400001525879</ele>
        <time>2020-01-30T10:05:16.000Z</time>
      </trkpt>
      <trkpt lat="47.32941" lon="-2.40702">
        <ele>42.400001525879</ele>
        <time>2020-01-30T10:05:23.000Z</time>
      </trkpt>
      <trkpt lat="47.32941" lon="-2.40647">
        <ele>42.400001525879</ele>
        <time>2020-01-30T10:05:29.000Z</time>
      </trkpt>
      <trkpt lat="47.32945" lon="-2.40627">
        <ele>41.799999237061</ele>
        <time>2020-01-30T10:05:31.000Z</time>
      </trkpt>
      <trkpt lat="47.32947" lon="-2.40617">
        <ele>41.400001525879</ele>
        <time>2020-01-30T10:05:32.000Z</time>
      </trkpt>
      <trkpt lat="47.32949" lon="-2.40608">
        <ele>40.799999237061</ele>
        <time>2020-01-30T10:05:33.000Z</time>
      </trkpt>
      <trkpt lat="47.32951" lon="-2.406">
        <ele>40.400001525879</ele>
        <time>2020-01-30T10:05:34.000Z</time>
      </trkpt>
      <trkpt lat="47.32953" lon="-2.40593">
        <ele>39.799999237061</ele>
        <time>2020-01-30T10:05:35.000Z</time>
      </trkpt>
      <trkpt lat="47.32954" lon="-2.40588">
        <ele>39.400001525879</ele>
        <time>2020-01-30T10:05:36.000Z</time>
      </trkpt>
      <trkpt lat="47.32956" lon="-2.40582">
        <ele>38.599998474121</ele>
        <time>2020-01-30T10:05:37.000Z</time>
      </trkpt>
      <trkpt lat="47.32956" lon="-2.40577">
        <ele>38.200000762939</ele>
        <time>2020-01-30T10:05:38.000Z</time>
      </trkpt>
      <trkpt lat="47.32956" lon="-2.40573">
        <ele>37.799999237061</ele>
        <time>2020-01-30T10:05:39.000Z</time>
      </trkpt>
      <trkpt lat="47.32954" lon="-2.40571">
        <ele>37.799999237061</ele>
        <time>2020-01-30T10:05:40.000Z</time>
      </trkpt>
      <trkpt lat="47.32952" lon="-2.40569">
        <ele>37.799999237061</ele>
        <time>2020-01-30T10:05:41.000Z</time>
      </trkpt>
      <trkpt lat="47.32947" lon="-2.40566">
        <ele>37.799999237061</ele>
        <time>2020-01-30T10:05:43.000Z</time>
      </trkpt>
      <trkpt lat="47.32939" lon="-2.40566">
        <ele>37.799999237061</ele>
        <time>2020-01-30T10:05:45.000Z</time>
      </trkpt>
      <trkpt lat="47.32935" lon="-2.40566">
        <ele>37.799999237061</ele>
        <time>2020-01-30T10:05:46.000Z</time>
      </trkpt>
      <trkpt lat="47.32916" lon="-2.40569">
        <ele>38.200000762939</ele>
        <time>2020-01-30T10:05:51.000Z</time>
      </trkpt>
      <trkpt lat="47.32912" lon="-2.40571">
        <ele>38.599998474121</ele>
        <time>2020-01-30T10:05:52.000Z</time>
      </trkpt>
      <trkpt lat="47.32909" lon="-2.40573">
        <ele>39</ele>
        <time>2020-01-30T10:05:53.000Z</time>
      </trkpt>
      <trkpt lat="47.32905" lon="-2.40575">
        <ele>39.599998474121</ele>
        <time>2020-01-30T10:05:54.000Z</time>
      </trkpt>
      <trkpt lat="47.32901" lon="-2.40577">
        <ele>40</ele>
        <time>2020-01-30T10:05:55.000Z</time>
      </trkpt>
      <trkpt lat="47.32892" lon="-2.40586">
        <ele>40</ele>
        <time>2020-01-30T10:05:58.000Z</time>
      </trkpt>
      <trkpt lat="47.32878" lon="-2.40595">
        <ele>40</ele>
        <time>2020-01-30T10:06:03.000Z</time>
      </trkpt>
      <trkpt lat="47.32876" lon="-2.40597">
        <ele>40</ele>
        <time>2020-01-30T10:06:07.000Z</time>
      </trkpt>
      <trkpt lat="47.32873" lon="-2.40601">
        <ele>40</ele>
        <time>2020-01-30T10:06:12.000Z</time>
      </trkpt>
      <trkpt lat="47.32867" lon="-2.40604">
        <ele>40</ele>
        <time>2020-01-30T10:06:14.000Z</time>
      </trkpt>
      <trkpt lat="47.32843" lon="-2.40618">
        <ele>40</ele>
        <time>2020-01-30T10:06:20.000Z</time>
      </trkpt>
      <trkpt lat="47.32834" lon="-2.40621">
        <ele>40</ele>
        <time>2020-01-30T10:06:22.000Z</time>
      </trkpt>
      <trkpt lat="47.32825" lon="-2.40625">
        <ele>40</ele>
        <time>2020-01-30T10:06:24.000Z</time>
      </trkpt>
      <trkpt lat="47.32816" lon="-2.4063">
        <ele>40</ele>
        <time>2020-01-30T10:06:26.000Z</time>
      </trkpt>
      <trkpt lat="47.32784" lon="-2.40653">
        <ele>40</ele>
        <time>2020-01-30T10:06:34.000Z</time>
      </trkpt>
      <trkpt lat="47.3277" lon="-2.40666">
        <ele>40</ele>
        <time>2020-01-30T10:06:40.000Z</time>
      </trkpt>
      <trkpt lat="47.32764" lon="-2.4066">
        <ele>40</ele>
        <time>2020-01-30T10:06:44.000Z</time>
      </trkpt>
      <trkpt lat="47.32763" lon="-2.40651">
        <ele>40</ele>
        <time>2020-01-30T10:06:46.000Z</time>
      </trkpt>
      <trkpt lat="47.32762" lon="-2.40634">
        <ele>40</ele>
        <time>2020-01-30T10:06:49.000Z</time>
      </trkpt>
      <trkpt lat="47.32763" lon="-2.40598">
        <ele>40</ele>
        <time>2020-01-30T10:06:55.000Z</time>
      </trkpt>
      <trkpt lat="47.32761" lon="-2.40562">
        <ele>40</ele>
        <time>2020-01-30T10:07:01.000Z</time>
      </trkpt>
      <trkpt lat="47.32759" lon="-2.40556">
        <ele>40.400001525879</ele>
        <time>2020-01-30T10:07:02.000Z</time>
      </trkpt>
      <trkpt lat="47.32757" lon="-2.40551">
        <ele>40.799999237061</ele>
        <time>2020-01-30T10:07:03.000Z</time>
      </trkpt>
      <trkpt lat="47.32755" lon="-2.40546">
        <ele>41.200000762939</ele>
        <time>2020-01-30T10:07:04.000Z</time>
      </trkpt>
      <trkpt lat="47.32752" lon="-2.40541">
        <ele>41.599998474121</ele>
        <time>2020-01-30T10:07:05.000Z</time>
      </trkpt>
      <trkpt lat="47.32749" lon="-2.40538">
        <ele>42</ele>
        <time>2020-01-30T10:07:06.000Z</time>
      </trkpt>
      <trkpt lat="47.32743" lon="-2.40531">
        <ele>42</ele>
        <time>2020-01-30T10:07:08.000Z</time>
      </trkpt>
      <trkpt lat="47.32727" lon="-2.40532">
        <ele>42</ele>
        <time>2020-01-30T10:07:12.000Z</time>
      </trkpt>
      <trkpt lat="47.32715" lon="-2.40551">
        <ele>43</ele>
        <time>2020-01-30T10:07:16.000Z</time>
      </trkpt>
      <trkpt lat="47.32713" lon="-2.40556">
        <ele>43.400001525879</ele>
        <time>2020-01-30T10:07:17.000Z</time>
      </trkpt>
      <trkpt lat="47.3271" lon="-2.40562">
        <ele>43.799999237061</ele>
        <time>2020-01-30T10:07:18.000Z</time>
      </trkpt>
      <trkpt lat="47.32708" lon="-2.40568">
        <ele>44.400001525879</ele>
        <time>2020-01-30T10:07:19.000Z</time>
      </trkpt>
      <trkpt lat="47.32703" lon="-2.40586">
        <ele>44.400001525879</ele>
        <time>2020-01-30T10:07:22.000Z</time>
      </trkpt>
      <trkpt lat="47.32694" lon="-2.40615">
        <ele>44.400001525879</ele>
        <time>2020-01-30T10:07:27.000Z</time>
      </trkpt>
      <trkpt lat="47.32692" lon="-2.4062">
        <ele>44.400001525879</ele>
        <time>2020-01-30T10:07:28.000Z</time>
      </trkpt>
      <trkpt lat="47.32689" lon="-2.40625">
        <ele>44.400001525879</ele>
        <time>2020-01-30T10:07:29.000Z</time>
      </trkpt>
      <trkpt lat="47.32677" lon="-2.40642">
        <ele>44.400001525879</ele>
        <time>2020-01-30T10:07:33.000Z</time>
      </trkpt>
      <trkpt lat="47.32651" lon="-2.40659">
        <ele>44.400001525879</ele>
        <time>2020-01-30T10:07:40.000Z</time>
      </trkpt>
      <trkpt lat="47.32619" lon="-2.40667">
        <ele>44.400001525879</ele>
        <time>2020-01-30T10:07:48.000Z</time>
      </trkpt>
      <trkpt lat="47.3261" lon="-2.40669">
        <ele>44.799999237061</ele>
        <time>2020-01-30T10:07:51.000Z</time>
      </trkpt>
      <trkpt lat="47.32607" lon="-2.40667">
        <ele>45.200000762939</ele>
        <time>2020-01-30T10:07:52.000Z</time>
      </trkpt>
      <trkpt lat="47.32604" lon="-2.40666">
        <ele>45.599998474121</ele>
        <time>2020-01-30T10:07:53.000Z</time>
      </trkpt>
      <trkpt lat="47.32601" lon="-2.40664">
        <ele>46</ele>
        <time>2020-01-30T10:07:54.000Z</time>
      </trkpt>
      <trkpt lat="47.32599" lon="-2.40661">
        <ele>46.400001525879</ele>
        <time>2020-01-30T10:07:55.000Z</time>
      </trkpt>
      <trkpt lat="47.32596" lon="-2.4065">
        <ele>46.400001525879</ele>
        <time>2020-01-30T10:07:58.000Z</time>
      </trkpt>
      <trkpt lat="47.32591" lon="-2.40633">
        <ele>46.400001525879</ele>
        <time>2020-01-30T10:08:03.000Z</time>
      </trkpt>
      <trkpt lat="47.32581" lon="-2.40617">
        <ele>46.400001525879</ele>
        <time>2020-01-30T10:08:07.000Z</time>
      </trkpt>
      <trkpt lat="47.32574" lon="-2.40591">
        <ele>46.400001525879</ele>
        <time>2020-01-30T10:08:11.000Z</time>
      </trkpt>
      <trkpt lat="47.32571" lon="-2.40577">
        <ele>46.400001525879</ele>
        <time>2020-01-30T10:08:13.000Z</time>
      </trkpt>
      <trkpt lat="47.32565" lon="-2.40548">
        <ele>46.400001525879</ele>
        <time>2020-01-30T10:08:17.000Z</time>
      </trkpt>
      <trkpt lat="47.32555" lon="-2.40496">
        <ele>46.400001525879</ele>
        <time>2020-01-30T10:08:24.000Z</time>
      </trkpt>
      <trkpt lat="47.32547" lon="-2.40442">
        <ele>46.400001525879</ele>
        <time>2020-01-30T10:08:31.000Z</time>
      </trkpt>
      <trkpt lat="47.3254" lon="-2.40383">
        <ele>46.400001525879</ele>
        <time>2020-01-30T10:08:39.000Z</time>
      </trkpt>
      <trkpt lat="47.32536" lon="-2.40331">
        <ele>46.400001525879</ele>
        <time>2020-01-30T10:08:46.000Z</time>
      </trkpt>
      <trkpt lat="47.32533" lon="-2.40278">
        <ele>46.400001525879</ele>
        <time>2020-01-30T10:08:54.000Z</time>
      </trkpt>
      <trkpt lat="47.3253" lon="-2.40272">
        <ele>46.400001525879</ele>
        <time>2020-01-30T10:08:55.000Z</time>
      </trkpt>
      <trkpt lat="47.32523" lon="-2.40264">
        <ele>46.400001525879</ele>
        <time>2020-01-30T10:08:57.000Z</time>
      </trkpt>
      <trkpt lat="47.32509" lon="-2.40262">
        <ele>46.400001525879</ele>
        <time>2020-01-30T10:09:00.000Z</time>
      </trkpt>
      <trkpt lat="47.32472" lon="-2.40262">
        <ele>46.400001525879</ele>
        <time>2020-01-30T10:09:07.000Z</time>
      </trkpt>
      <trkpt lat="47.32461" lon="-2.40263">
        <ele>46.400001525879</ele>
        <time>2020-01-30T10:09:09.000Z</time>
      </trkpt>
      <trkpt lat="47.32434" lon="-2.40269">
        <ele>46.400001525879</ele>
        <time>2020-01-30T10:09:14.000Z</time>
      </trkpt>
      <trkpt lat="47.32403" lon="-2.40274">
        <ele>46.400001525879</ele>
        <time>2020-01-30T10:09:20.000Z</time>
      </trkpt>
      <trkpt lat="47.32369" lon="-2.40284">
        <ele>46.400001525879</ele>
        <time>2020-01-30T10:09:27.000Z</time>
      </trkpt>
      <trkpt lat="47.32341" lon="-2.40291">
        <ele>46.400001525879</ele>
        <time>2020-01-30T10:09:33.000Z</time>
      </trkpt>
      <trkpt lat="47.32318" lon="-2.40295">
        <ele>46.400001525879</ele>
        <time>2020-01-30T10:09:38.000Z</time>
      </trkpt>
      <trkpt lat="47.32311" lon="-2.40296">
        <ele>46.400001525879</ele>
        <time>2020-01-30T10:09:40.000Z</time>
      </trkpt>
      <trkpt lat="47.32296" lon="-2.40303">
        <ele>46.400001525879</ele>
        <time>2020-01-30T10:09:44.000Z</time>
      </trkpt>
      <trkpt lat="47.3229" lon="-2.40315">
        <ele>46.400001525879</ele>
        <time>2020-01-30T10:09:47.000Z</time>
      </trkpt>
      <trkpt lat="47.32289" lon="-2.4034">
        <ele>46.400001525879</ele>
        <time>2020-01-30T10:09:51.000Z</time>
      </trkpt>
      <trkpt lat="47.3229" lon="-2.4038">
        <ele>46.400001525879</ele>
        <time>2020-01-30T10:09:57.000Z</time>
      </trkpt>
      <trkpt lat="47.32291" lon="-2.40407">
        <ele>46.400001525879</ele>
        <time>2020-01-30T10:10:02.000Z</time>
      </trkpt>
      <trkpt lat="47.32286" lon="-2.40414">
        <ele>46.400001525879</ele>
        <time>2020-01-30T10:10:04.000Z</time>
      </trkpt>
      <trkpt lat="47.32282" lon="-2.40417">
        <ele>46.400001525879</ele>
        <time>2020-01-30T10:10:05.000Z</time>
      </trkpt>
      <trkpt lat="47.32269" lon="-2.4042">
        <ele>46.400001525879</ele>
        <time>2020-01-30T10:10:08.000Z</time>
      </trkpt>
      <trkpt lat="47.32264" lon="-2.40436">
        <ele>46.400001525879</ele>
        <time>2020-01-30T10:10:11.000Z</time>
      </trkpt>
      <trkpt lat="47.32263" lon="-2.40443">
        <ele>46.400001525879</ele>
        <time>2020-01-30T10:10:12.000Z</time>
      </trkpt>
      <trkpt lat="47.32256" lon="-2.40478">
        <ele>46.400001525879</ele>
        <time>2020-01-30T10:10:17.000Z</time>
      </trkpt>
      <trkpt lat="47.32249" lon="-2.40508">
        <ele>46.400001525879</ele>
        <time>2020-01-30T10:10:23.000Z</time>
      </trkpt>
      <trkpt lat="47.32249" lon="-2.4051">
        <ele>46</ele>
        <time>2020-01-30T10:10:24.000Z</time>
      </trkpt>
      <trkpt lat="47.32249" lon="-2.40512">
        <ele>45.599998474121</ele>
        <time>2020-01-30T10:10:25.000Z</time>
      </trkpt>
      <trkpt lat="47.32248" lon="-2.40515">
        <ele>45.200000762939</ele>
        <time>2020-01-30T10:10:26.000Z</time>
      </trkpt>
      <trkpt lat="47.32248" lon="-2.40518">
        <ele>44.599998474121</ele>
        <time>2020-01-30T10:10:27.000Z</time>
      </trkpt>
      <trkpt lat="47.32249" lon="-2.4052">
        <ele>44.200000762939</ele>
        <time>2020-01-30T10:10:28.000Z</time>
      </trkpt>
      <trkpt lat="47.3225" lon="-2.40521">
        <ele>44.200000762939</ele>
        <time>2020-01-30T10:10:29.000Z</time>
      </trkpt>
      <trkpt lat="47.3226" lon="-2.40522">
        <ele>44.200000762939</ele>
        <time>2020-01-30T10:10:34.000Z</time>
      </trkpt>
      <trkpt lat="47.32263" lon="-2.40523">
        <ele>44.200000762939</ele>
        <time>2020-01-30T10:10:35.000Z</time>
      </trkpt>
      <trkpt lat="47.32276" lon="-2.40527">
        <ele>44.200000762939</ele>
        <time>2020-01-30T10:10:40.000Z</time>
      </trkpt>
      <trkpt lat="47.32287" lon="-2.40529">
        <ele>44.200000762939</ele>
        <time>2020-01-30T10:10:46.000Z</time>
      </trkpt>
      <trkpt lat="47.32296" lon="-2.40533">
        <ele>44.200000762939</ele>
        <time>2020-01-30T10:10:51.000Z</time>
      </trkpt>
      <trkpt lat="47.32294" lon="-2.40538">
        <ele>44.200000762939</ele>
        <time>2020-01-30T10:10:55.000Z</time>
      </trkpt>
      <trkpt lat="47.3229" lon="-2.40536">
        <ele>44.200000762939</ele>
        <time>2020-01-30T10:10:57.000Z</time>
      </trkpt>
      <trkpt lat="47.32284" lon="-2.40534">
        <ele>44.200000762939</ele>
        <time>2020-01-30T10:11:00.000Z</time>
      </trkpt>
      <trkpt lat="47.32267" lon="-2.40531">
        <ele>44.200000762939</ele>
        <time>2020-01-30T10:11:05.000Z</time>
      </trkpt>
      <trkpt lat="47.32259" lon="-2.40529">
        <ele>44.200000762939</ele>
        <time>2020-01-30T10:11:07.000Z</time>
      </trkpt>
      <trkpt lat="47.32249" lon="-2.40527">
        <ele>44.200000762939</ele>
        <time>2020-01-30T10:11:10.000Z</time>
      </trkpt>
      <trkpt lat="47.32245" lon="-2.40537">
        <ele>44.200000762939</ele>
        <time>2020-01-30T10:11:13.000Z</time>
      </trkpt>
      <trkpt lat="47.32238" lon="-2.40563">
        <ele>44.200000762939</ele>
        <time>2020-01-30T10:11:18.000Z</time>
      </trkpt>
      <trkpt lat="47.32234" lon="-2.40599">
        <ele>44.200000762939</ele>
        <time>2020-01-30T10:11:25.000Z</time>
      </trkpt>
      <trkpt lat="47.32238" lon="-2.40609">
        <ele>44.200000762939</ele>
        <time>2020-01-30T10:11:28.000Z</time>
      </trkpt>
      <trkpt lat="47.32241" lon="-2.4061">
        <ele>44.200000762939</ele>
        <time>2020-01-30T10:11:29.000Z</time>
      </trkpt>
      <trkpt lat="47.3225" lon="-2.40613">
        <ele>44.200000762939</ele>
        <time>2020-01-30T10:11:33.000Z</time>
      </trkpt>
      <trkpt lat="47.32255" lon="-2.40613">
        <ele>44.200000762939</ele>
        <time>2020-01-30T10:11:35.000Z</time>
      </trkpt>
      <trkpt lat="47.32269" lon="-2.40618">
        <ele>44.200000762939</ele>
        <time>2020-01-30T10:11:40.000Z</time>
      </trkpt>
      <trkpt lat="47.32278" lon="-2.40627">
        <ele>44.200000762939</ele>
        <time>2020-01-30T10:11:44.000Z</time>
      </trkpt>
      <trkpt lat="47.32281" lon="-2.40628">
        <ele>44.200000762939</ele>
        <time>2020-01-30T10:11:45.000Z</time>
      </trkpt>
      <trkpt lat="47.32285" lon="-2.40644">
        <ele>44.200000762939</ele>
        <time>2020-01-30T10:11:49.000Z</time>
      </trkpt>
      <trkpt lat="47.32284" lon="-2.40664">
        <ele>44.200000762939</ele>
        <time>2020-01-30T10:11:55.000Z</time>
      </trkpt>
      <trkpt lat="47.32281" lon="-2.40696">
        <ele>44.200000762939</ele>
        <time>2020-01-30T10:12:02.000Z</time>
      </trkpt>
      <trkpt lat="47.32279" lon="-2.40734">
        <ele>44.200000762939</ele>
        <time>2020-01-30T10:12:10.000Z</time>
      </trkpt>
      <trkpt lat="47.32277" lon="-2.40767">
        <ele>44.200000762939</ele>
        <time>2020-01-30T10:12:17.000Z</time>
      </trkpt>
      <trkpt lat="47.32279" lon="-2.40795">
        <ele>44.200000762939</ele>
        <time>2020-01-30T10:12:23.000Z</time>
      </trkpt>
      <trkpt lat="47.32284" lon="-2.40807">
        <ele>44.200000762939</ele>
        <time>2020-01-30T10:12:28.000Z</time>
      </trkpt>
      <trkpt lat="47.32283" lon="-2.40807">
        <ele>44.200000762939</ele>
        <time>2020-01-30T10:12:29.000Z</time>
      </trkpt>
      <trkpt lat="47.32287" lon="-2.4081">
        <ele>44.200000762939</ele>
        <time>2020-01-30T10:12:47.000Z</time>
      </trkpt>
      <trkpt lat="47.32287" lon="-2.40811">
        <ele>44.200000762939</ele>
        <time>2020-01-30T10:12:48.000Z</time>
      </trkpt>
      <trkpt lat="47.32287" lon="-2.40814">
        <ele>44.200000762939</ele>
        <time>2020-01-30T10:12:50.000Z</time>
      </trkpt>
      <trkpt lat="47.32286" lon="-2.40817">
        <ele>44.200000762939</ele>
        <time>2020-01-30T10:13:07.000Z</time>
      </trkpt>
      <trkpt lat="47.32287" lon="-2.40815">
        <ele>44.200000762939</ele>
        <time>2020-01-30T10:13:08.000Z</time>
      </trkpt>
      <trkpt lat="47.32299" lon="-2.40811">
        <ele>44.200000762939</ele>
        <time>2020-01-30T10:13:13.000Z</time>
      </trkpt>
      <trkpt lat="47.3231" lon="-2.40824">
        <ele>44.200000762939</ele>
        <time>2020-01-30T10:13:17.000Z</time>
      </trkpt>
      <trkpt lat="47.32313" lon="-2.40827">
        <ele>44.200000762939</ele>
        <time>2020-01-30T10:13:18.000Z</time>
      </trkpt>
      <trkpt lat="47.32334" lon="-2.40848">
        <ele>44.200000762939</ele>
        <time>2020-01-30T10:13:24.000Z</time>
      </trkpt>
      <trkpt lat="47.32337" lon="-2.40851">
        <ele>44.799999237061</ele>
        <time>2020-01-30T10:13:25.000Z</time>
      </trkpt>
      <trkpt lat="47.3234" lon="-2.40853">
        <ele>45.200000762939</ele>
        <time>2020-01-30T10:13:26.000Z</time>
      </trkpt>
      <trkpt lat="47.32343" lon="-2.40856">
        <ele>45.599998474121</ele>
        <time>2020-01-30T10:13:27.000Z</time>
      </trkpt>
      <trkpt lat="47.32347" lon="-2.40857">
        <ele>46</ele>
        <time>2020-01-30T10:13:28.000Z</time>
      </trkpt>
      <trkpt lat="47.3235" lon="-2.40859">
        <ele>46.400001525879</ele>
        <time>2020-01-30T10:13:29.000Z</time>
      </trkpt>
      <trkpt lat="47.32357" lon="-2.40865">
        <ele>46.400001525879</ele>
        <time>2020-01-30T10:13:31.000Z</time>
      </trkpt>
      <trkpt lat="47.32368" lon="-2.40869">
        <ele>46.400001525879</ele>
        <time>2020-01-30T10:13:34.000Z</time>
      </trkpt>
      <trkpt lat="47.32372" lon="-2.40867">
        <ele>46.400001525879</ele>
        <time>2020-01-30T10:13:35.000Z</time>
      </trkpt>
      <trkpt lat="47.32392" lon="-2.40856">
        <ele>46.400001525879</ele>
        <time>2020-01-30T10:13:41.000Z</time>
      </trkpt>
      <trkpt lat="47.32397" lon="-2.40855">
        <ele>46.400001525879</ele>
        <time>2020-01-30T10:13:43.000Z</time>
      </trkpt>
      <trkpt lat="47.32398" lon="-2.40854">
        <ele>46.400001525879</ele>
        <time>2020-01-30T10:13:44.000Z</time>
      </trkpt>
      <trkpt lat="47.32397" lon="-2.40853">
        <ele>46.400001525879</ele>
        <time>2020-01-30T10:13:45.000Z</time>
      </trkpt>
      <trkpt lat="47.32392" lon="-2.40852">
        <ele>46.400001525879</ele>
        <time>2020-01-30T10:13:48.000Z</time>
      </trkpt>
      <trkpt lat="47.3239" lon="-2.40855">
        <ele>46.400001525879</ele>
        <time>2020-01-30T10:13:49.000Z</time>
      </trkpt>
      <trkpt lat="47.32381" lon="-2.40862">
        <ele>46.400001525879</ele>
        <time>2020-01-30T10:13:52.000Z</time>
      </trkpt>
      <trkpt lat="47.32366" lon="-2.40867">
        <ele>46.400001525879</ele>
        <time>2020-01-30T10:13:56.000Z</time>
      </trkpt>
      <trkpt lat="47.32362" lon="-2.40865">
        <ele>46.400001525879</ele>
        <time>2020-01-30T10:13:57.000Z</time>
      </trkpt>
      <trkpt lat="47.32339" lon="-2.40846">
        <ele>46.400001525879</ele>
        <time>2020-01-30T10:14:03.000Z</time>
      </trkpt>
      <trkpt lat="47.32339" lon="-2.40831">
        <ele>46.400001525879</ele>
        <time>2020-01-30T10:14:06.000Z</time>
      </trkpt>
      <trkpt lat="47.32341" lon="-2.40826">
        <ele>46.400001525879</ele>
        <time>2020-01-30T10:14:07.000Z</time>
      </trkpt>
      <trkpt lat="47.32349" lon="-2.40814">
        <ele>46.400001525879</ele>
        <time>2020-01-30T10:14:10.000Z</time>
      </trkpt>
      <trkpt lat="47.32355" lon="-2.40806">
        <ele>46.400001525879</ele>
        <time>2020-01-30T10:14:12.000Z</time>
      </trkpt>
      <trkpt lat="47.32371" lon="-2.40788">
        <ele>46.400001525879</ele>
        <time>2020-01-30T10:14:18.000Z</time>
      </trkpt>
      <trkpt lat="47.32373" lon="-2.40781">
        <ele>46.400001525879</ele>
        <time>2020-01-30T10:14:20.000Z</time>
      </trkpt>
      <trkpt lat="47.32371" lon="-2.40776">
        <ele>46.400001525879</ele>
        <time>2020-01-30T10:14:22.000Z</time>
      </trkpt>
      <trkpt lat="47.32368" lon="-2.40775">
        <ele>46.400001525879</ele>
        <time>2020-01-30T10:14:25.000Z</time>
      </trkpt>
      <trkpt lat="47.32366" lon="-2.40783">
        <ele>44.400001525879</ele>
        <time>2020-01-30T10:27:16.000Z</time>
      </trkpt>
      <trkpt lat="47.32358" lon="-2.40793">
        <ele>44.400001525879</ele>
        <time>2020-01-30T10:27:21.000Z</time>
      </trkpt>
      <trkpt lat="47.32356" lon="-2.40796">
        <ele>44.400001525879</ele>
        <time>2020-01-30T10:27:22.000Z</time>
      </trkpt>
      <trkpt lat="47.32347" lon="-2.40807">
        <ele>44.400001525879</ele>
        <time>2020-01-30T10:27:28.000Z</time>
      </trkpt>
      <trkpt lat="47.32334" lon="-2.40816">
        <ele>44.400001525879</ele>
        <time>2020-01-30T10:27:36.000Z</time>
      </trkpt>
      <trkpt lat="47.32331" lon="-2.40824">
        <ele>44.400001525879</ele>
        <time>2020-01-30T10:27:41.000Z</time>
      </trkpt>
      <trkpt lat="47.3233" lon="-2.40826">
        <ele>44.400001525879</ele>
        <time>2020-01-30T10:27:47.000Z</time>
      </trkpt>
      <trkpt lat="47.32324" lon="-2.40828">
        <ele>44.400001525879</ele>
        <time>2020-01-30T10:27:50.000Z</time>
      </trkpt>
      <trkpt lat="47.32315" lon="-2.40825">
        <ele>44.400001525879</ele>
        <time>2020-01-30T10:27:54.000Z</time>
      </trkpt>
      <trkpt lat="47.32306" lon="-2.40817">
        <ele>44.400001525879</ele>
        <time>2020-01-30T10:27:57.000Z</time>
      </trkpt>
      <trkpt lat="47.32296" lon="-2.40809">
        <ele>44</ele>
        <time>2020-01-30T10:28:00.000Z</time>
      </trkpt>
      <trkpt lat="47.32292" lon="-2.40806">
        <ele>43.599998474121</ele>
        <time>2020-01-30T10:28:01.000Z</time>
      </trkpt>
      <trkpt lat="47.32289" lon="-2.40803">
        <ele>43.200000762939</ele>
        <time>2020-01-30T10:28:02.000Z</time>
      </trkpt>
      <trkpt lat="47.32285" lon="-2.40799">
        <ele>42.799999237061</ele>
        <time>2020-01-30T10:28:03.000Z</time>
      </trkpt>
      <trkpt lat="47.32282" lon="-2.40793">
        <ele>42.400001525879</ele>
        <time>2020-01-30T10:28:04.000Z</time>
      </trkpt>
      <trkpt lat="47.3228" lon="-2.40786">
        <ele>42.400001525879</ele>
        <time>2020-01-30T10:28:05.000Z</time>
      </trkpt>
      <trkpt lat="47.3228" lon="-2.40759">
        <ele>42.400001525879</ele>
        <time>2020-01-30T10:28:09.000Z</time>
      </trkpt>
      <trkpt lat="47.32281" lon="-2.40725">
        <ele>42.400001525879</ele>
        <time>2020-01-30T10:28:14.000Z</time>
      </trkpt>
      <trkpt lat="47.32282" lon="-2.40712">
        <ele>42.400001525879</ele>
        <time>2020-01-30T10:28:16.000Z</time>
      </trkpt>
      <trkpt lat="47.32285" lon="-2.40669">
        <ele>42.400001525879</ele>
        <time>2020-01-30T10:28:23.000Z</time>
      </trkpt>
      <trkpt lat="47.32287" lon="-2.4065">
        <ele>42.400001525879</ele>
        <time>2020-01-30T10:28:26.000Z</time>
      </trkpt>
      <trkpt lat="47.32286" lon="-2.40641">
        <ele>42.400001525879</ele>
        <time>2020-01-30T10:28:28.000Z</time>
      </trkpt>
      <trkpt lat="47.32284" lon="-2.40638">
        <ele>42.400001525879</ele>
        <time>2020-01-30T10:28:29.000Z</time>
      </trkpt>
      <trkpt lat="47.32276" lon="-2.40626">
        <ele>42.400001525879</ele>
        <time>2020-01-30T10:28:33.000Z</time>
      </trkpt>
      <trkpt lat="47.32272" lon="-2.40623">
        <ele>42.400001525879</ele>
        <time>2020-01-30T10:28:35.000Z</time>
      </trkpt>
      <trkpt lat="47.32265" lon="-2.40622">
        <ele>42.400001525879</ele>
        <time>2020-01-30T10:28:37.000Z</time>
      </trkpt>
      <trkpt lat="47.32242" lon="-2.40616">
        <ele>42.400001525879</ele>
        <time>2020-01-30T10:28:43.000Z</time>
      </trkpt>
      <trkpt lat="47.3223" lon="-2.40623">
        <ele>42.400001525879</ele>
        <time>2020-01-30T10:28:47.000Z</time>
      </trkpt>
      <trkpt lat="47.32227" lon="-2.40642">
        <ele>42.400001525879</ele>
        <time>2020-01-30T10:28:50.000Z</time>
      </trkpt>
      <trkpt lat="47.32226" lon="-2.40649">
        <ele>42.400001525879</ele>
        <time>2020-01-30T10:28:51.000Z</time>
      </trkpt>
      <trkpt lat="47.32223" lon="-2.40691">
        <ele>42.400001525879</ele>
        <time>2020-01-30T10:28:57.000Z</time>
      </trkpt>
      <trkpt lat="47.3222" lon="-2.40729">
        <ele>42.400001525879</ele>
        <time>2020-01-30T10:29:04.000Z</time>
      </trkpt>
      <trkpt lat="47.32217" lon="-2.40772">
        <ele>42.400001525879</ele>
        <time>2020-01-30T10:29:11.000Z</time>
      </trkpt>
      <trkpt lat="47.32213" lon="-2.40798">
        <ele>42.400001525879</ele>
        <time>2020-01-30T10:29:16.000Z</time>
      </trkpt>
      <trkpt lat="47.32211" lon="-2.40799">
        <ele>42.400001525879</ele>
        <time>2020-01-30T10:29:17.000Z</time>
      </trkpt>
      <trkpt lat="47.32208" lon="-2.40797">
        <ele>42.400001525879</ele>
        <time>2020-01-30T10:29:19.000Z</time>
      </trkpt>
      <trkpt lat="47.32205" lon="-2.40792">
        <ele>42.400001525879</ele>
        <time>2020-01-30T10:29:21.000Z</time>
      </trkpt>
      <trkpt lat="47.322" lon="-2.40787">
        <ele>42.400001525879</ele>
        <time>2020-01-30T10:29:24.000Z</time>
      </trkpt>
      <trkpt lat="47.32189" lon="-2.4077">
        <ele>42.400001525879</ele>
        <time>2020-01-30T10:29:28.000Z</time>
      </trkpt>
      <trkpt lat="47.3217" lon="-2.40745">
        <ele>42.400001525879</ele>
        <time>2020-01-30T10:29:34.000Z</time>
      </trkpt>
      <trkpt lat="47.32145" lon="-2.40713">
        <ele>42.400001525879</ele>
        <time>2020-01-30T10:29:41.000Z</time>
      </trkpt>
      <trkpt lat="47.32115" lon="-2.40679">
        <ele>42.400001525879</ele>
        <time>2020-01-30T10:29:48.000Z</time>
      </trkpt>
      <trkpt lat="47.32083" lon="-2.40646">
        <ele>42.400001525879</ele>
        <time>2020-01-30T10:29:55.000Z</time>
      </trkpt>
      <trkpt lat="47.32055" lon="-2.40619">
        <ele>42.400001525879</ele>
        <time>2020-01-30T10:30:01.000Z</time>
      </trkpt>
      <trkpt lat="47.32044" lon="-2.40611">
        <ele>42.400001525879</ele>
        <time>2020-01-30T10:30:03.000Z</time>
      </trkpt>
      <trkpt lat="47.32029" lon="-2.40597">
        <ele>41.799999237061</ele>
        <time>2020-01-30T10:30:06.000Z</time>
      </trkpt>
      <trkpt lat="47.32023" lon="-2.40593">
        <ele>41.400001525879</ele>
        <time>2020-01-30T10:30:07.000Z</time>
      </trkpt>
      <trkpt lat="47.32018" lon="-2.40588">
        <ele>41</ele>
        <time>2020-01-30T10:30:08.000Z</time>
      </trkpt>
      <trkpt lat="47.32012" lon="-2.40583">
        <ele>40.599998474121</ele>
        <time>2020-01-30T10:30:09.000Z</time>
      </trkpt>
      <trkpt lat="47.32006" lon="-2.40579">
        <ele>40.200000762939</ele>
        <time>2020-01-30T10:30:10.000Z</time>
      </trkpt>
      <trkpt lat="47.31975" lon="-2.40555">
        <ele>40.200000762939</ele>
        <time>2020-01-30T10:30:16.000Z</time>
      </trkpt>
      <trkpt lat="47.3194" lon="-2.4053">
        <ele>40.200000762939</ele>
        <time>2020-01-30T10:30:23.000Z</time>
      </trkpt>
      <trkpt lat="47.31913" lon="-2.40509">
        <ele>40.200000762939</ele>
        <time>2020-01-30T10:30:28.000Z</time>
      </trkpt>
      <trkpt lat="47.31908" lon="-2.40505">
        <ele>40.200000762939</ele>
        <time>2020-01-30T10:30:29.000Z</time>
      </trkpt>
      <trkpt lat="47.31893" lon="-2.40492">
        <ele>39.799999237061</ele>
        <time>2020-01-30T10:30:32.000Z</time>
      </trkpt>
      <trkpt lat="47.31887" lon="-2.40488">
        <ele>39.400001525879</ele>
        <time>2020-01-30T10:30:33.000Z</time>
      </trkpt>
      <trkpt lat="47.31881" lon="-2.40483">
        <ele>39</ele>
        <time>2020-01-30T10:30:34.000Z</time>
      </trkpt>
      <trkpt lat="47.31875" lon="-2.40478">
        <ele>38.599998474121</ele>
        <time>2020-01-30T10:30:35.000Z</time>
      </trkpt>
      <trkpt lat="47.3187" lon="-2.40475">
        <ele>38.200000762939</ele>
        <time>2020-01-30T10:30:36.000Z</time>
      </trkpt>
      <trkpt lat="47.31854" lon="-2.40463">
        <ele>38.200000762939</ele>
        <time>2020-01-30T10:30:39.000Z</time>
      </trkpt>
      <trkpt lat="47.31822" lon="-2.40438">
        <ele>38.200000762939</ele>
        <time>2020-01-30T10:30:45.000Z</time>
      </trkpt>
      <trkpt lat="47.31787" lon="-2.40411">
        <ele>37.599998474121</ele>
        <time>2020-01-30T10:30:51.000Z</time>
      </trkpt>
      <trkpt lat="47.3178" lon="-2.40406">
        <ele>37.200000762939</ele>
        <time>2020-01-30T10:30:52.000Z</time>
      </trkpt>
      <trkpt lat="47.31775" lon="-2.40401">
        <ele>36.799999237061</ele>
        <time>2020-01-30T10:30:53.000Z</time>
      </trkpt>
      <trkpt lat="47.31769" lon="-2.40396">
        <ele>36.400001525879</ele>
        <time>2020-01-30T10:30:54.000Z</time>
      </trkpt>
      <trkpt lat="47.31763" lon="-2.40391">
        <ele>36</ele>
        <time>2020-01-30T10:30:55.000Z</time>
      </trkpt>
      <trkpt lat="47.31747" lon="-2.40378">
        <ele>36</ele>
        <time>2020-01-30T10:30:58.000Z</time>
      </trkpt>
      <trkpt lat="47.31742" lon="-2.40375">
        <ele>36</ele>
        <time>2020-01-30T10:30:59.000Z</time>
      </trkpt>
      <trkpt lat="47.31721" lon="-2.4036">
        <ele>36</ele>
        <time>2020-01-30T10:31:03.000Z</time>
      </trkpt>
      <trkpt lat="47.31703" lon="-2.40346">
        <ele>35.599998474121</ele>
        <time>2020-01-30T10:31:07.000Z</time>
      </trkpt>
      <trkpt lat="47.31698" lon="-2.40342">
        <ele>35.200000762939</ele>
        <time>2020-01-30T10:31:08.000Z</time>
      </trkpt>
      <trkpt lat="47.31694" lon="-2.40339">
        <ele>34.799999237061</ele>
        <time>2020-01-30T10:31:09.000Z</time>
      </trkpt>
      <trkpt lat="47.31689" lon="-2.40335">
        <ele>34.400001525879</ele>
        <time>2020-01-30T10:31:10.000Z</time>
      </trkpt>
      <trkpt lat="47.31685" lon="-2.40333">
        <ele>34</ele>
        <time>2020-01-30T10:31:11.000Z</time>
      </trkpt>
      <trkpt lat="47.31675" lon="-2.40327">
        <ele>34</ele>
        <time>2020-01-30T10:31:14.000Z</time>
      </trkpt>
      <trkpt lat="47.3166" lon="-2.4031">
        <ele>34</ele>
        <time>2020-01-30T10:31:19.000Z</time>
      </trkpt>
      <trkpt lat="47.3164" lon="-2.40297">
        <ele>34</ele>
        <time>2020-01-30T10:31:23.000Z</time>
      </trkpt>
      <trkpt lat="47.31635" lon="-2.40293">
        <ele>34</ele>
        <time>2020-01-30T10:31:24.000Z</time>
      </trkpt>
      <trkpt lat="47.31613" lon="-2.40278">
        <ele>33.599998474121</ele>
        <time>2020-01-30T10:31:28.000Z</time>
      </trkpt>
      <trkpt lat="47.31608" lon="-2.40274">
        <ele>33.200000762939</ele>
        <time>2020-01-30T10:31:29.000Z</time>
      </trkpt>
      <trkpt lat="47.31602" lon="-2.4027">
        <ele>32.799999237061</ele>
        <time>2020-01-30T10:31:30.000Z</time>
      </trkpt>
      <trkpt lat="47.31597" lon="-2.40265">
        <ele>32.400001525879</ele>
        <time>2020-01-30T10:31:31.000Z</time>
      </trkpt>
      <trkpt lat="47.31591" lon="-2.4026">
        <ele>31.799999237061</ele>
        <time>2020-01-30T10:31:32.000Z</time>
      </trkpt>
      <trkpt lat="47.31568" lon="-2.40243">
        <ele>31.799999237061</ele>
        <time>2020-01-30T10:31:36.000Z</time>
      </trkpt>
      <trkpt lat="47.31554" lon="-2.40234">
        <ele>31.799999237061</ele>
        <time>2020-01-30T10:31:39.000Z</time>
      </trkpt>
      <trkpt lat="47.31546" lon="-2.4023">
        <ele>31.799999237061</ele>
        <time>2020-01-30T10:31:41.000Z</time>
      </trkpt>
      <trkpt lat="47.31529" lon="-2.40218">
        <ele>31.799999237061</ele>
        <time>2020-01-30T10:31:45.000Z</time>
      </trkpt>
      <trkpt lat="47.31519" lon="-2.40212">
        <ele>31.799999237061</ele>
        <time>2020-01-30T10:31:47.000Z</time>
      </trkpt>
      <trkpt lat="47.31514" lon="-2.40208">
        <ele>31.39999961853</ele>
        <time>2020-01-30T10:31:48.000Z</time>
      </trkpt>
      <trkpt lat="47.3151" lon="-2.40205">
        <ele>31</ele>
        <time>2020-01-30T10:31:49.000Z</time>
      </trkpt>
      <trkpt lat="47.31505" lon="-2.40202">
        <ele>30.60000038147</ele>
        <time>2020-01-30T10:31:50.000Z</time>
      </trkpt>
      <trkpt lat="47.31499" lon="-2.40199">
        <ele>29.799999237061</ele>
        <time>2020-01-30T10:31:51.000Z</time>
      </trkpt>
      <trkpt lat="47.31494" lon="-2.40194">
        <ele>29.799999237061</ele>
        <time>2020-01-30T10:31:52.000Z</time>
      </trkpt>
      <trkpt lat="47.31489" lon="-2.40191">
        <ele>29.799999237061</ele>
        <time>2020-01-30T10:31:53.000Z</time>
      </trkpt>
      <trkpt lat="47.31459" lon="-2.4017">
        <ele>29.799999237061</ele>
        <time>2020-01-30T10:31:59.000Z</time>
      </trkpt>
      <trkpt lat="47.31442" lon="-2.40156">
        <ele>29.799999237061</ele>
        <time>2020-01-30T10:32:03.000Z</time>
      </trkpt>
      <trkpt lat="47.31437" lon="-2.40153">
        <ele>29.799999237061</ele>
        <time>2020-01-30T10:32:04.000Z</time>
      </trkpt>
      <trkpt lat="47.31421" lon="-2.40144">
        <ele>29.799999237061</ele>
        <time>2020-01-30T10:32:08.000Z</time>
      </trkpt>
      <trkpt lat="47.31417" lon="-2.4014">
        <ele>29.39999961853</ele>
        <time>2020-01-30T10:32:09.000Z</time>
      </trkpt>
      <trkpt lat="47.31412" lon="-2.40136">
        <ele>29</ele>
        <time>2020-01-30T10:32:10.000Z</time>
      </trkpt>
      <trkpt lat="47.31407" lon="-2.40133">
        <ele>28.60000038147</ele>
        <time>2020-01-30T10:32:11.000Z</time>
      </trkpt>
      <trkpt lat="47.31402" lon="-2.4013">
        <ele>28.200000762939</ele>
        <time>2020-01-30T10:32:12.000Z</time>
      </trkpt>
      <trkpt lat="47.31398" lon="-2.40128">
        <ele>27.799999237061</ele>
        <time>2020-01-30T10:32:13.000Z</time>
      </trkpt>
      <trkpt lat="47.3139" lon="-2.40123">
        <ele>27.799999237061</ele>
        <time>2020-01-30T10:32:15.000Z</time>
      </trkpt>
      <trkpt lat="47.3136" lon="-2.40104">
        <ele>27.799999237061</ele>
        <time>2020-01-30T10:32:21.000Z</time>
      </trkpt>
      <trkpt lat="47.31349" lon="-2.40099">
        <ele>27.799999237061</ele>
        <time>2020-01-30T10:32:23.000Z</time>
      </trkpt>
      <trkpt lat="47.31334" lon="-2.40093">
        <ele>27.799999237061</ele>
        <time>2020-01-30T10:32:26.000Z</time>
      </trkpt>
      <trkpt lat="47.31308" lon="-2.40079">
        <ele>27.39999961853</ele>
        <time>2020-01-30T10:32:32.000Z</time>
      </trkpt>
      <trkpt lat="47.31303" lon="-2.40078">
        <ele>27</ele>
        <time>2020-01-30T10:32:33.000Z</time>
      </trkpt>
      <trkpt lat="47.31299" lon="-2.40077">
        <ele>26.39999961853</ele>
        <time>2020-01-30T10:32:34.000Z</time>
      </trkpt>
      <trkpt lat="47.31296" lon="-2.40076">
        <ele>26</ele>
        <time>2020-01-30T10:32:35.000Z</time>
      </trkpt>
      <trkpt lat="47.31292" lon="-2.40075">
        <ele>25.60000038147</ele>
        <time>2020-01-30T10:32:36.000Z</time>
      </trkpt>
      <trkpt lat="47.31287" lon="-2.40074">
        <ele>25.60000038147</ele>
        <time>2020-01-30T10:32:37.000Z</time>
      </trkpt>
      <trkpt lat="47.3127" lon="-2.40069">
        <ele>25.60000038147</ele>
        <time>2020-01-30T10:32:41.000Z</time>
      </trkpt>
      <trkpt lat="47.31265" lon="-2.40064">
        <ele>25.60000038147</ele>
        <time>2020-01-30T10:32:42.000Z</time>
      </trkpt>
      <trkpt lat="47.31252" lon="-2.40053">
        <ele>25.60000038147</ele>
        <time>2020-01-30T10:32:46.000Z</time>
      </trkpt>
      <trkpt lat="47.31243" lon="-2.40048">
        <ele>25.60000038147</ele>
        <time>2020-01-30T10:32:50.000Z</time>
      </trkpt>
      <trkpt lat="47.31241" lon="-2.40046">
        <ele>25.60000038147</ele>
        <time>2020-01-30T10:32:51.000Z</time>
      </trkpt>
      <trkpt lat="47.31235" lon="-2.4003">
        <ele>25.60000038147</ele>
        <time>2020-01-30T10:32:56.000Z</time>
      </trkpt>
      <trkpt lat="47.31229" lon="-2.4001">
        <ele>25.60000038147</ele>
        <time>2020-01-30T10:33:02.000Z</time>
      </trkpt>
      <trkpt lat="47.31223" lon="-2.39992">
        <ele>25.60000038147</ele>
        <time>2020-01-30T10:33:08.000Z</time>
      </trkpt>
      <trkpt lat="47.31221" lon="-2.39986">
        <ele>26</ele>
        <time>2020-01-30T10:33:10.000Z</time>
      </trkpt>
      <trkpt lat="47.31219" lon="-2.39983">
        <ele>26.39999961853</ele>
        <time>2020-01-30T10:33:11.000Z</time>
      </trkpt>
      <trkpt lat="47.31219" lon="-2.3998">
        <ele>26.799999237061</ele>
        <time>2020-01-30T10:33:12.000Z</time>
      </trkpt>
      <trkpt lat="47.31218" lon="-2.39976">
        <ele>27.200000762939</ele>
        <time>2020-01-30T10:33:13.000Z</time>
      </trkpt>
      <trkpt lat="47.31218" lon="-2.39973">
        <ele>27.60000038147</ele>
        <time>2020-01-30T10:33:14.000Z</time>
      </trkpt>
      <trkpt lat="47.31214" lon="-2.39959">
        <ele>27.60000038147</ele>
        <time>2020-01-30T10:33:18.000Z</time>
      </trkpt>
      <trkpt lat="47.31213" lon="-2.39955">
        <ele>27.60000038147</ele>
        <time>2020-01-30T10:33:19.000Z</time>
      </trkpt>
      <trkpt lat="47.31206" lon="-2.39935">
        <ele>27.60000038147</ele>
        <time>2020-01-30T10:33:25.000Z</time>
      </trkpt>
      <trkpt lat="47.31195" lon="-2.39906">
        <ele>27.60000038147</ele>
        <time>2020-01-30T10:33:32.000Z</time>
      </trkpt>
      <trkpt lat="47.31192" lon="-2.39899">
        <ele>28</ele>
        <time>2020-01-30T10:33:34.000Z</time>
      </trkpt>
      <trkpt lat="47.31191" lon="-2.39896">
        <ele>28.39999961853</ele>
        <time>2020-01-30T10:33:35.000Z</time>
      </trkpt>
      <trkpt lat="47.31191" lon="-2.39896">
        <ele>29</ele>
        <time>2020-01-30T10:33:36.000Z</time>
      </trkpt>
      <trkpt lat="47.31185" lon="-2.3988">
        <ele>33.799999237061</ele>
        <time>2020-01-30T10:33:48.000Z</time>
      </trkpt>
      <trkpt lat="47.31183" lon="-2.39868">
        <ele>33.400001525879</ele>
        <time>2020-01-30T10:33:50.000Z</time>
      </trkpt>
      <trkpt lat="47.31181" lon="-2.39862">
        <ele>33</ele>
        <time>2020-01-30T10:33:51.000Z</time>
      </trkpt>
      <trkpt lat="47.3118" lon="-2.39857">
        <ele>32.599998474121</ele>
        <time>2020-01-30T10:33:52.000Z</time>
      </trkpt>
      <trkpt lat="47.31179" lon="-2.39853">
        <ele>32</ele>
        <time>2020-01-30T10:33:53.000Z</time>
      </trkpt>
      <trkpt lat="47.31178" lon="-2.39849">
        <ele>31.60000038147</ele>
        <time>2020-01-30T10:33:54.000Z</time>
      </trkpt>
      <trkpt lat="47.31174" lon="-2.39838">
        <ele>31.60000038147</ele>
        <time>2020-01-30T10:33:57.000Z</time>
      </trkpt>
      <trkpt lat="47.31162" lon="-2.39813">
        <ele>31.60000038147</ele>
        <time>2020-01-30T10:34:03.000Z</time>
      </trkpt>
      <trkpt lat="47.31148" lon="-2.39783">
        <ele>31.60000038147</ele>
        <time>2020-01-30T10:34:10.000Z</time>
      </trkpt>
      <trkpt lat="47.31138" lon="-2.39753">
        <ele>31.60000038147</ele>
        <time>2020-01-30T10:34:16.000Z</time>
      </trkpt>
      <trkpt lat="47.31125" lon="-2.39714">
        <ele>31.60000038147</ele>
        <time>2020-01-30T10:34:24.000Z</time>
      </trkpt>
      <trkpt lat="47.31108" lon="-2.39668">
        <ele>31.60000038147</ele>
        <time>2020-01-30T10:34:33.000Z</time>
      </trkpt>
      <trkpt lat="47.31106" lon="-2.39663">
        <ele>32</ele>
        <time>2020-01-30T10:34:34.000Z</time>
      </trkpt>
      <trkpt lat="47.31104" lon="-2.39657">
        <ele>32.400001525879</ele>
        <time>2020-01-30T10:34:35.000Z</time>
      </trkpt>
      <trkpt lat="47.31102" lon="-2.39651">
        <ele>32.799999237061</ele>
        <time>2020-01-30T10:34:36.000Z</time>
      </trkpt>
      <trkpt lat="47.31101" lon="-2.39646">
        <ele>33.400001525879</ele>
        <time>2020-01-30T10:34:37.000Z</time>
      </trkpt>
      <trkpt lat="47.31099" lon="-2.39641">
        <ele>33.799999237061</ele>
        <time>2020-01-30T10:34:38.000Z</time>
      </trkpt>
      <trkpt lat="47.31089" lon="-2.39614">
        <ele>33.799999237061</ele>
        <time>2020-01-30T10:34:43.000Z</time>
      </trkpt>
      <trkpt lat="47.31083" lon="-2.39597">
        <ele>33.799999237061</ele>
        <time>2020-01-30T10:34:46.000Z</time>
      </trkpt>
      <trkpt lat="47.31075" lon="-2.39574">
        <ele>33.799999237061</ele>
        <time>2020-01-30T10:34:50.000Z</time>
      </trkpt>
      <trkpt lat="47.31059" lon="-2.39524">
        <ele>33.799999237061</ele>
        <time>2020-01-30T10:34:57.000Z</time>
      </trkpt>
      <trkpt lat="47.31041" lon="-2.39466">
        <ele>33.799999237061</ele>
        <time>2020-01-30T10:35:03.000Z</time>
      </trkpt>
      <trkpt lat="47.31022" lon="-2.39415">
        <ele>33.799999237061</ele>
        <time>2020-01-30T10:35:09.000Z</time>
      </trkpt>
      <trkpt lat="47.30999" lon="-2.39348">
        <ele>33.799999237061</ele>
        <time>2020-01-30T10:35:17.000Z</time>
      </trkpt>
      <trkpt lat="47.30977" lon="-2.39284">
        <ele>33.799999237061</ele>
        <time>2020-01-30T10:35:25.000Z</time>
      </trkpt>
      <trkpt lat="47.30959" lon="-2.39239">
        <ele>34.200000762939</ele>
        <time>2020-01-30T10:35:31.000Z</time>
      </trkpt>
      <trkpt lat="47.30956" lon="-2.39232">
        <ele>34.599998474121</ele>
        <time>2020-01-30T10:35:32.000Z</time>
      </trkpt>
      <trkpt lat="47.30953" lon="-2.39225">
        <ele>35</ele>
        <time>2020-01-30T10:35:33.000Z</time>
      </trkpt>
      <trkpt lat="47.3095" lon="-2.39219">
        <ele>35.799999237061</ele>
        <time>2020-01-30T10:35:34.000Z</time>
      </trkpt>
      <trkpt lat="47.30936" lon="-2.39186">
        <ele>35.799999237061</ele>
        <time>2020-01-30T10:35:39.000Z</time>
      </trkpt>
      <trkpt lat="47.30914" lon="-2.39131">
        <ele>35.799999237061</ele>
        <time>2020-01-30T10:35:47.000Z</time>
      </trkpt>
      <trkpt lat="47.30898" lon="-2.39075">
        <ele>35.799999237061</ele>
        <time>2020-01-30T10:35:55.000Z</time>
      </trkpt>
      <trkpt lat="47.30898" lon="-2.39036">
        <ele>35.799999237061</ele>
        <time>2020-01-30T10:36:00.000Z</time>
      </trkpt>
      <trkpt lat="47.309" lon="-2.3902">
        <ele>35.799999237061</ele>
        <time>2020-01-30T10:36:02.000Z</time>
      </trkpt>
      <trkpt lat="47.30903" lon="-2.38989">
        <ele>35.799999237061</ele>
        <time>2020-01-30T10:36:06.000Z</time>
      </trkpt>
      <trkpt lat="47.30907" lon="-2.38974">
        <ele>35.799999237061</ele>
        <time>2020-01-30T10:36:08.000Z</time>
      </trkpt>
      <trkpt lat="47.30911" lon="-2.3896">
        <ele>35.799999237061</ele>
        <time>2020-01-30T10:36:10.000Z</time>
      </trkpt>
      <trkpt lat="47.30915" lon="-2.38954">
        <ele>35.799999237061</ele>
        <time>2020-01-30T10:36:11.000Z</time>
      </trkpt>
      <trkpt lat="47.30928" lon="-2.38928">
        <ele>35.799999237061</ele>
        <time>2020-01-30T10:36:15.000Z</time>
      </trkpt>
      <trkpt lat="47.30929" lon="-2.38911">
        <ele>35.799999237061</ele>
        <time>2020-01-30T10:36:17.000Z</time>
      </trkpt>
      <trkpt lat="47.3092" lon="-2.38891">
        <ele>35.799999237061</ele>
        <time>2020-01-30T10:36:20.000Z</time>
      </trkpt>
      <trkpt lat="47.30905" lon="-2.38883">
        <ele>35.799999237061</ele>
        <time>2020-01-30T10:36:23.000Z</time>
      </trkpt>
      <trkpt lat="47.30895" lon="-2.38884">
        <ele>35.799999237061</ele>
        <time>2020-01-30T10:36:25.000Z</time>
      </trkpt>
      <trkpt lat="47.30886" lon="-2.38884">
        <ele>35.799999237061</ele>
        <time>2020-01-30T10:36:27.000Z</time>
      </trkpt>
      <trkpt lat="47.30877" lon="-2.38877">
        <ele>35.400001525879</ele>
        <time>2020-01-30T10:36:29.000Z</time>
      </trkpt>
      <trkpt lat="47.30873" lon="-2.38871">
        <ele>35</ele>
        <time>2020-01-30T10:36:30.000Z</time>
      </trkpt>
      <trkpt lat="47.30872" lon="-2.38864">
        <ele>34.599998474121</ele>
        <time>2020-01-30T10:36:31.000Z</time>
      </trkpt>
      <trkpt lat="47.30872" lon="-2.38856">
        <ele>34</ele>
        <time>2020-01-30T10:36:32.000Z</time>
      </trkpt>
      <trkpt lat="47.30873" lon="-2.38848">
        <ele>33.599998474121</ele>
        <time>2020-01-30T10:36:33.000Z</time>
      </trkpt>
      <trkpt lat="47.30876" lon="-2.38842">
        <ele>33.599998474121</ele>
        <time>2020-01-30T10:36:34.000Z</time>
      </trkpt>
      <trkpt lat="47.30881" lon="-2.38809">
        <ele>33.599998474121</ele>
        <time>2020-01-30T10:36:39.000Z</time>
      </trkpt>
      <trkpt lat="47.30872" lon="-2.38795">
        <ele>33.599998474121</ele>
        <time>2020-01-30T10:36:42.000Z</time>
      </trkpt>
      <trkpt lat="47.30858" lon="-2.38791">
        <ele>33.599998474121</ele>
        <time>2020-01-30T10:36:45.000Z</time>
      </trkpt>
      <trkpt lat="47.30853" lon="-2.3879">
        <ele>33.599998474121</ele>
        <time>2020-01-30T10:36:46.000Z</time>
      </trkpt>
      <trkpt lat="47.3083" lon="-2.38785">
        <ele>34</ele>
        <time>2020-01-30T10:36:51.000Z</time>
      </trkpt>
      <trkpt lat="47.30825" lon="-2.38784">
        <ele>34.400001525879</ele>
        <time>2020-01-30T10:36:52.000Z</time>
      </trkpt>
      <trkpt lat="47.30821" lon="-2.38783">
        <ele>34.799999237061</ele>
        <time>2020-01-30T10:36:53.000Z</time>
      </trkpt>
      <trkpt lat="47.30818" lon="-2.38781">
        <ele>35.200000762939</ele>
        <time>2020-01-30T10:36:54.000Z</time>
      </trkpt>
      <trkpt lat="47.30814" lon="-2.38779">
        <ele>35.599998474121</ele>
        <time>2020-01-30T10:36:55.000Z</time>
      </trkpt>
      <trkpt lat="47.30806" lon="-2.38773">
        <ele>35.599998474121</ele>
        <time>2020-01-30T10:36:57.000Z</time>
      </trkpt>
      <trkpt lat="47.30795" lon="-2.38763">
        <ele>35.599998474121</ele>
        <time>2020-01-30T10:37:00.000Z</time>
      </trkpt>
      <trkpt lat="47.30787" lon="-2.38751">
        <ele>35.599998474121</ele>
        <time>2020-01-30T10:37:03.000Z</time>
      </trkpt>
      <trkpt lat="47.30783" lon="-2.38741">
        <ele>35.599998474121</ele>
        <time>2020-01-30T10:37:05.000Z</time>
      </trkpt>
      <trkpt lat="47.30777" lon="-2.38723">
        <ele>35.599998474121</ele>
        <time>2020-01-30T10:37:08.000Z</time>
      </trkpt>
      <trkpt lat="47.30762" lon="-2.38674">
        <ele>35.599998474121</ele>
        <time>2020-01-30T10:37:16.000Z</time>
      </trkpt>
      <trkpt lat="47.30744" lon="-2.38612">
        <ele>35.599998474121</ele>
        <time>2020-01-30T10:37:26.000Z</time>
      </trkpt>
      <trkpt lat="47.30724" lon="-2.38546">
        <ele>35.599998474121</ele>
        <time>2020-01-30T10:37:35.000Z</time>
      </trkpt>
      <trkpt lat="47.307" lon="-2.38472">
        <ele>36.200000762939</ele>
        <time>2020-01-30T10:37:45.000Z</time>
      </trkpt>
      <trkpt lat="47.30698" lon="-2.38464">
        <ele>36.599998474121</ele>
        <time>2020-01-30T10:37:46.000Z</time>
      </trkpt>
      <trkpt lat="47.30696" lon="-2.38458">
        <ele>37</ele>
        <time>2020-01-30T10:37:47.000Z</time>
      </trkpt>
      <trkpt lat="47.30694" lon="-2.3845">
        <ele>37.599998474121</ele>
        <time>2020-01-30T10:37:48.000Z</time>
      </trkpt>
      <trkpt lat="47.30692" lon="-2.38443">
        <ele>38</ele>
        <time>2020-01-30T10:37:49.000Z</time>
      </trkpt>
      <trkpt lat="47.30682" lon="-2.38405">
        <ele>38</ele>
        <time>2020-01-30T10:37:54.000Z</time>
      </trkpt>
      <trkpt lat="47.30664" lon="-2.38326">
        <ele>38</ele>
        <time>2020-01-30T10:38:04.000Z</time>
      </trkpt>
      <trkpt lat="47.30649" lon="-2.38266">
        <ele>38</ele>
        <time>2020-01-30T10:38:11.000Z</time>
      </trkpt>
      <trkpt lat="47.30631" lon="-2.38198">
        <ele>38</ele>
        <time>2020-01-30T10:38:19.000Z</time>
      </trkpt>
      <trkpt lat="47.30612" lon="-2.38127">
        <ele>38</ele>
        <time>2020-01-30T10:38:27.000Z</time>
      </trkpt>
      <trkpt lat="47.30607" lon="-2.38109">
        <ele>38</ele>
        <time>2020-01-30T10:38:29.000Z</time>
      </trkpt>
      <trkpt lat="47.30599" lon="-2.38085">
        <ele>38</ele>
        <time>2020-01-30T10:38:32.000Z</time>
      </trkpt>
      <trkpt lat="47.30584" lon="-2.38027">
        <ele>38</ele>
        <time>2020-01-30T10:38:39.000Z</time>
      </trkpt>
      <trkpt lat="47.30581" lon="-2.38012">
        <ele>37.599998474121</ele>
        <time>2020-01-30T10:38:41.000Z</time>
      </trkpt>
      <trkpt lat="47.3058" lon="-2.38004">
        <ele>37.200000762939</ele>
        <time>2020-01-30T10:38:42.000Z</time>
      </trkpt>
      <trkpt lat="47.3058" lon="-2.37995">
        <ele>36.799999237061</ele>
        <time>2020-01-30T10:38:43.000Z</time>
      </trkpt>
      <trkpt lat="47.30581" lon="-2.37987">
        <ele>36.400001525879</ele>
        <time>2020-01-30T10:38:44.000Z</time>
      </trkpt>
      <trkpt lat="47.30582" lon="-2.37979">
        <ele>36</ele>
        <time>2020-01-30T10:38:45.000Z</time>
      </trkpt>
      <trkpt lat="47.30583" lon="-2.3796">
        <ele>36</ele>
        <time>2020-01-30T10:38:48.000Z</time>
      </trkpt>
      <trkpt lat="47.30581" lon="-2.37948">
        <ele>35.599998474121</ele>
        <time>2020-01-30T10:38:50.000Z</time>
      </trkpt>
      <trkpt lat="47.30579" lon="-2.37942">
        <ele>35.200000762939</ele>
        <time>2020-01-30T10:38:51.000Z</time>
      </trkpt>
      <trkpt lat="47.30577" lon="-2.37936">
        <ele>34.400001525879</ele>
        <time>2020-01-30T10:38:52.000Z</time>
      </trkpt>
      <trkpt lat="47.30573" lon="-2.37932">
        <ele>34</ele>
        <time>2020-01-30T10:38:53.000Z</time>
      </trkpt>
      <trkpt lat="47.30555" lon="-2.37908">
        <ele>34</ele>
        <time>2020-01-30T10:38:58.000Z</time>
      </trkpt>
      <trkpt lat="47.30549" lon="-2.37896">
        <ele>34</ele>
        <time>2020-01-30T10:39:00.000Z</time>
      </trkpt>
      <trkpt lat="47.30545" lon="-2.37881">
        <ele>34</ele>
        <time>2020-01-30T10:39:02.000Z</time>
      </trkpt>
      <trkpt lat="47.3054" lon="-2.37858">
        <ele>34</ele>
        <time>2020-01-30T10:39:05.000Z</time>
      </trkpt>
      <trkpt lat="47.30536" lon="-2.37844">
        <ele>34</ele>
        <time>2020-01-30T10:39:07.000Z</time>
      </trkpt>
      <trkpt lat="47.30524" lon="-2.37806">
        <ele>34</ele>
        <time>2020-01-30T10:39:12.000Z</time>
      </trkpt>
      <trkpt lat="47.30506" lon="-2.37744">
        <ele>34</ele>
        <time>2020-01-30T10:39:20.000Z</time>
      </trkpt>
      <trkpt lat="47.3049" lon="-2.37689">
        <ele>34</ele>
        <time>2020-01-30T10:39:27.000Z</time>
      </trkpt>
      <trkpt lat="47.30476" lon="-2.3764">
        <ele>34</ele>
        <time>2020-01-30T10:39:33.000Z</time>
      </trkpt>
      <trkpt lat="47.30458" lon="-2.37572">
        <ele>34</ele>
        <time>2020-01-30T10:39:41.000Z</time>
      </trkpt>
      <trkpt lat="47.30442" lon="-2.37513">
        <ele>34</ele>
        <time>2020-01-30T10:39:48.000Z</time>
      </trkpt>
      <trkpt lat="47.30422" lon="-2.3745">
        <ele>34</ele>
        <time>2020-01-30T10:39:56.000Z</time>
      </trkpt>
      <trkpt lat="47.3042" lon="-2.37442">
        <ele>34.400001525879</ele>
        <time>2020-01-30T10:39:57.000Z</time>
      </trkpt>
      <trkpt lat="47.30417" lon="-2.37434">
        <ele>34.799999237061</ele>
        <time>2020-01-30T10:39:58.000Z</time>
      </trkpt>
      <trkpt lat="47.30415" lon="-2.37426">
        <ele>35.200000762939</ele>
        <time>2020-01-30T10:39:59.000Z</time>
      </trkpt>
      <trkpt lat="47.30413" lon="-2.37419">
        <ele>35.599998474121</ele>
        <time>2020-01-30T10:40:00.000Z</time>
      </trkpt>
      <trkpt lat="47.3041" lon="-2.37411">
        <ele>36</ele>
        <time>2020-01-30T10:40:01.000Z</time>
      </trkpt>
      <trkpt lat="47.30401" lon="-2.3738">
        <ele>36</ele>
        <time>2020-01-30T10:40:05.000Z</time>
      </trkpt>
      <trkpt lat="47.30386" lon="-2.37335">
        <ele>36.400001525879</ele>
        <time>2020-01-30T10:40:11.000Z</time>
      </trkpt>
      <trkpt lat="47.30384" lon="-2.37327">
        <ele>36.799999237061</ele>
        <time>2020-01-30T10:40:12.000Z</time>
      </trkpt>
      <trkpt lat="47.30382" lon="-2.37319">
        <ele>37.200000762939</ele>
        <time>2020-01-30T10:40:13.000Z</time>
      </trkpt>
      <trkpt lat="47.3038" lon="-2.37312">
        <ele>37.599998474121</ele>
        <time>2020-01-30T10:40:14.000Z</time>
      </trkpt>
      <trkpt lat="47.30377" lon="-2.37304">
        <ele>38</ele>
        <time>2020-01-30T10:40:15.000Z</time>
      </trkpt>
      <trkpt lat="47.30366" lon="-2.37265">
        <ele>38</ele>
        <time>2020-01-30T10:40:20.000Z</time>
      </trkpt>
      <trkpt lat="47.30356" lon="-2.37233">
        <ele>38.599998474121</ele>
        <time>2020-01-30T10:40:24.000Z</time>
      </trkpt>
      <trkpt lat="47.30354" lon="-2.37225">
        <ele>39</ele>
        <time>2020-01-30T10:40:25.000Z</time>
      </trkpt>
      <trkpt lat="47.30352" lon="-2.37217">
        <ele>39.400001525879</ele>
        <time>2020-01-30T10:40:26.000Z</time>
      </trkpt>
      <trkpt lat="47.30349" lon="-2.3721">
        <ele>40</ele>
        <time>2020-01-30T10:40:27.000Z</time>
      </trkpt>
      <trkpt lat="47.30347" lon="-2.37202">
        <ele>40.400001525879</ele>
        <time>2020-01-30T10:40:28.000Z</time>
      </trkpt>
      <trkpt lat="47.30345" lon="-2.37195">
        <ele>40.400001525879</ele>
        <time>2020-01-30T10:40:29.000Z</time>
      </trkpt>
      <trkpt lat="47.30325" lon="-2.37132">
        <ele>40.400001525879</ele>
        <time>2020-01-30T10:40:37.000Z</time>
      </trkpt>
      <trkpt lat="47.30323" lon="-2.37124">
        <ele>40.799999237061</ele>
        <time>2020-01-30T10:40:38.000Z</time>
      </trkpt>
      <trkpt lat="47.3032" lon="-2.37116">
        <ele>41.200000762939</ele>
        <time>2020-01-30T10:40:39.000Z</time>
      </trkpt>
      <trkpt lat="47.30317" lon="-2.37108">
        <ele>41.599998474121</ele>
        <time>2020-01-30T10:40:40.000Z</time>
      </trkpt>
      <trkpt lat="47.30315" lon="-2.371">
        <ele>42</ele>
        <time>2020-01-30T10:40:41.000Z</time>
      </trkpt>
      <trkpt lat="47.30312" lon="-2.37092">
        <ele>42.400001525879</ele>
        <time>2020-01-30T10:40:42.000Z</time>
      </trkpt>
      <trkpt lat="47.30304" lon="-2.37068">
        <ele>42.400001525879</ele>
        <time>2020-01-30T10:40:45.000Z</time>
      </trkpt>
      <trkpt lat="47.30289" lon="-2.37024">
        <ele>42.400001525879</ele>
        <time>2020-01-30T10:40:51.000Z</time>
      </trkpt>
      <trkpt lat="47.30273" lon="-2.36984">
        <ele>42.400001525879</ele>
        <time>2020-01-30T10:40:58.000Z</time>
      </trkpt>
      <trkpt lat="47.30258" lon="-2.36947">
        <ele>42.400001525879</ele>
        <time>2020-01-30T10:41:03.000Z</time>
      </trkpt>
      <trkpt lat="47.30235" lon="-2.36888">
        <ele>42.400001525879</ele>
        <time>2020-01-30T10:41:09.000Z</time>
      </trkpt>
      <trkpt lat="47.3023" lon="-2.36876">
        <ele>42</ele>
        <time>2020-01-30T10:41:10.000Z</time>
      </trkpt>
      <trkpt lat="47.30226" lon="-2.36865">
        <ele>41.599998474121</ele>
        <time>2020-01-30T10:41:11.000Z</time>
      </trkpt>
      <trkpt lat="47.30221" lon="-2.36853">
        <ele>41.200000762939</ele>
        <time>2020-01-30T10:41:12.000Z</time>
      </trkpt>
      <trkpt lat="47.30217" lon="-2.36841">
        <ele>40.599998474121</ele>
        <time>2020-01-30T10:41:13.000Z</time>
      </trkpt>
      <trkpt lat="47.30212" lon="-2.3683">
        <ele>40.200000762939</ele>
        <time>2020-01-30T10:41:14.000Z</time>
      </trkpt>
      <trkpt lat="47.30203" lon="-2.36806">
        <ele>40.200000762939</ele>
        <time>2020-01-30T10:41:16.000Z</time>
      </trkpt>
      <trkpt lat="47.30194" lon="-2.36782">
        <ele>39.799999237061</ele>
        <time>2020-01-30T10:41:18.000Z</time>
      </trkpt>
      <trkpt lat="47.3019" lon="-2.3677">
        <ele>39.200000762939</ele>
        <time>2020-01-30T10:41:19.000Z</time>
      </trkpt>
      <trkpt lat="47.30186" lon="-2.36759">
        <ele>38.799999237061</ele>
        <time>2020-01-30T10:41:20.000Z</time>
      </trkpt>
      <trkpt lat="47.30182" lon="-2.36748">
        <ele>37.200000762939</ele>
        <time>2020-01-30T10:41:21.000Z</time>
      </trkpt>
      <trkpt lat="47.30179" lon="-2.36737">
        <ele>36.599998474121</ele>
        <time>2020-01-30T10:41:22.000Z</time>
      </trkpt>
      <trkpt lat="47.30177" lon="-2.36727">
        <ele>35.799999237061</ele>
        <time>2020-01-30T10:41:23.000Z</time>
      </trkpt>
      <trkpt lat="47.30174" lon="-2.36717">
        <ele>35</ele>
        <time>2020-01-30T10:41:24.000Z</time>
      </trkpt>
      <trkpt lat="47.30169" lon="-2.367">
        <ele>35</ele>
        <time>2020-01-30T10:41:26.000Z</time>
      </trkpt>
      <trkpt lat="47.30166" lon="-2.36692">
        <ele>35</ele>
        <time>2020-01-30T10:41:27.000Z</time>
      </trkpt>
      <trkpt lat="47.30163" lon="-2.36686">
        <ele>34.599998474121</ele>
        <time>2020-01-30T10:41:28.000Z</time>
      </trkpt>
      <trkpt lat="47.3016" lon="-2.3668">
        <ele>34.200000762939</ele>
        <time>2020-01-30T10:41:29.000Z</time>
      </trkpt>
      <trkpt lat="47.30156" lon="-2.36673">
        <ele>33.799999237061</ele>
        <time>2020-01-30T10:41:30.000Z</time>
      </trkpt>
      <trkpt lat="47.30153" lon="-2.36667">
        <ele>33.400001525879</ele>
        <time>2020-01-30T10:41:31.000Z</time>
      </trkpt>
      <trkpt lat="47.30149" lon="-2.3666">
        <ele>32.799999237061</ele>
        <time>2020-01-30T10:41:32.000Z</time>
      </trkpt>
      <trkpt lat="47.30146" lon="-2.36652">
        <ele>32.200000762939</ele>
        <time>2020-01-30T10:41:33.000Z</time>
      </trkpt>
      <trkpt lat="47.30142" lon="-2.36644">
        <ele>31.60000038147</ele>
        <time>2020-01-30T10:41:34.000Z</time>
      </trkpt>
      <trkpt lat="47.30138" lon="-2.36635">
        <ele>31.200000762939</ele>
        <time>2020-01-30T10:41:35.000Z</time>
      </trkpt>
      <trkpt lat="47.30135" lon="-2.36626">
        <ele>30.60000038147</ele>
        <time>2020-01-30T10:41:36.000Z</time>
      </trkpt>
      <trkpt lat="47.30131" lon="-2.36617">
        <ele>30.60000038147</ele>
        <time>2020-01-30T10:41:37.000Z</time>
      </trkpt>
      <trkpt lat="47.30123" lon="-2.36574">
        <ele>30.60000038147</ele>
        <time>2020-01-30T10:41:41.000Z</time>
      </trkpt>
      <trkpt lat="47.30114" lon="-2.36505">
        <ele>29.799999237061</ele>
        <time>2020-01-30T10:41:47.000Z</time>
      </trkpt>
      <trkpt lat="47.30112" lon="-2.36493">
        <ele>29.39999961853</ele>
        <time>2020-01-30T10:41:48.000Z</time>
      </trkpt>
      <trkpt lat="47.30111" lon="-2.3648">
        <ele>29</ele>
        <time>2020-01-30T10:41:49.000Z</time>
      </trkpt>
      <trkpt lat="47.30109" lon="-2.36469">
        <ele>28.39999961853</ele>
        <time>2020-01-30T10:41:50.000Z</time>
      </trkpt>
      <trkpt lat="47.301" lon="-2.36396">
        <ele>28.39999961853</ele>
        <time>2020-01-30T10:41:56.000Z</time>
      </trkpt>
      <trkpt lat="47.30098" lon="-2.36384">
        <ele>28</ele>
        <time>2020-01-30T10:41:57.000Z</time>
      </trkpt>
      <trkpt lat="47.30098" lon="-2.36372">
        <ele>27.60000038147</ele>
        <time>2020-01-30T10:41:58.000Z</time>
      </trkpt>
      <trkpt lat="47.30097" lon="-2.36361">
        <ele>27.200000762939</ele>
        <time>2020-01-30T10:41:59.000Z</time>
      </trkpt>
      <trkpt lat="47.30096" lon="-2.3635">
        <ele>26.799999237061</ele>
        <time>2020-01-30T10:42:00.000Z</time>
      </trkpt>
      <trkpt lat="47.30095" lon="-2.36339">
        <ele>26.39999961853</ele>
        <time>2020-01-30T10:42:01.000Z</time>
      </trkpt>
      <trkpt lat="47.30094" lon="-2.36328">
        <ele>26.39999961853</ele>
        <time>2020-01-30T10:42:02.000Z</time>
      </trkpt>
      <trkpt lat="47.3009" lon="-2.36285">
        <ele>26</ele>
        <time>2020-01-30T10:42:06.000Z</time>
      </trkpt>
      <trkpt lat="47.30089" lon="-2.36273">
        <ele>25.60000038147</ele>
        <time>2020-01-30T10:42:07.000Z</time>
      </trkpt>
      <trkpt lat="47.30088" lon="-2.36261">
        <ele>25.200000762939</ele>
        <time>2020-01-30T10:42:08.000Z</time>
      </trkpt>
      <trkpt lat="47.30088" lon="-2.36249">
        <ele>24.60000038147</ele>
        <time>2020-01-30T10:42:09.000Z</time>
      </trkpt>
      <trkpt lat="47.30087" lon="-2.36237">
        <ele>24.200000762939</ele>
        <time>2020-01-30T10:42:10.000Z</time>
      </trkpt>
      <trkpt lat="47.30086" lon="-2.36185">
        <ele>24.200000762939</ele>
        <time>2020-01-30T10:42:14.000Z</time>
      </trkpt>
      <trkpt lat="47.30095" lon="-2.36103">
        <ele>24.200000762939</ele>
        <time>2020-01-30T10:42:20.000Z</time>
      </trkpt>
      <trkpt lat="47.30103" lon="-2.36024">
        <ele>24.200000762939</ele>
        <time>2020-01-30T10:42:26.000Z</time>
      </trkpt>
      <trkpt lat="47.30113" lon="-2.35957">
        <ele>24.200000762939</ele>
        <time>2020-01-30T10:42:32.000Z</time>
      </trkpt>
      <trkpt lat="47.30128" lon="-2.35884">
        <ele>24.200000762939</ele>
        <time>2020-01-30T10:42:39.000Z</time>
      </trkpt>
      <trkpt lat="47.30139" lon="-2.35821">
        <ele>24.200000762939</ele>
        <time>2020-01-30T10:42:46.000Z</time>
      </trkpt>
      <trkpt lat="47.30139" lon="-2.35767">
        <ele>24.200000762939</ele>
        <time>2020-01-30T10:42:52.000Z</time>
      </trkpt>
      <trkpt lat="47.30138" lon="-2.35758">
        <ele>24.60000038147</ele>
        <time>2020-01-30T10:42:53.000Z</time>
      </trkpt>
      <trkpt lat="47.30138" lon="-2.3575">
        <ele>25</ele>
        <time>2020-01-30T10:42:54.000Z</time>
      </trkpt>
      <trkpt lat="47.30138" lon="-2.35742">
        <ele>25.60000038147</ele>
        <time>2020-01-30T10:42:55.000Z</time>
      </trkpt>
      <trkpt lat="47.30137" lon="-2.35734">
        <ele>26</ele>
        <time>2020-01-30T10:42:56.000Z</time>
      </trkpt>
      <trkpt lat="47.30136" lon="-2.35727">
        <ele>26.39999961853</ele>
        <time>2020-01-30T10:42:57.000Z</time>
      </trkpt>
      <trkpt lat="47.30136" lon="-2.3572">
        <ele>26.799999237061</ele>
        <time>2020-01-30T10:42:58.000Z</time>
      </trkpt>
      <trkpt lat="47.30135" lon="-2.35713">
        <ele>27.200000762939</ele>
        <time>2020-01-30T10:42:59.000Z</time>
      </trkpt>
      <trkpt lat="47.30135" lon="-2.35706">
        <ele>27.60000038147</ele>
        <time>2020-01-30T10:43:00.000Z</time>
      </trkpt>
      <trkpt lat="47.30135" lon="-2.357">
        <ele>28.39999961853</ele>
        <time>2020-01-30T10:43:01.000Z</time>
      </trkpt>
      <trkpt lat="47.30133" lon="-2.35669">
        <ele>28.39999961853</ele>
        <time>2020-01-30T10:43:06.000Z</time>
      </trkpt>
      <trkpt lat="47.30132" lon="-2.35663">
        <ele>28.799999237061</ele>
        <time>2020-01-30T10:43:07.000Z</time>
      </trkpt>
      <trkpt lat="47.30132" lon="-2.35657">
        <ele>29.39999961853</ele>
        <time>2020-01-30T10:43:08.000Z</time>
      </trkpt>
      <trkpt lat="47.30132" lon="-2.35651">
        <ele>29.799999237061</ele>
        <time>2020-01-30T10:43:09.000Z</time>
      </trkpt>
      <trkpt lat="47.30131" lon="-2.35644">
        <ele>30.200000762939</ele>
        <time>2020-01-30T10:43:10.000Z</time>
      </trkpt>
      <trkpt lat="47.30131" lon="-2.35637">
        <ele>30.60000038147</ele>
        <time>2020-01-30T10:43:11.000Z</time>
      </trkpt>
      <trkpt lat="47.30129" lon="-2.35623">
        <ele>30.60000038147</ele>
        <time>2020-01-30T10:43:13.000Z</time>
      </trkpt>
      <trkpt lat="47.30124" lon="-2.35599">
        <ele>30.200000762939</ele>
        <time>2020-01-30T10:43:17.000Z</time>
      </trkpt>
      <trkpt lat="47.30125" lon="-2.35594">
        <ele>29.799999237061</ele>
        <time>2020-01-30T10:43:18.000Z</time>
      </trkpt>
      <trkpt lat="47.30127" lon="-2.35588">
        <ele>29.200000762939</ele>
        <time>2020-01-30T10:43:19.000Z</time>
      </trkpt>
      <trkpt lat="47.30128" lon="-2.35581">
        <ele>28.799999237061</ele>
        <time>2020-01-30T10:43:20.000Z</time>
      </trkpt>
      <trkpt lat="47.30128" lon="-2.35574">
        <ele>28.39999961853</ele>
        <time>2020-01-30T10:43:21.000Z</time>
      </trkpt>
      <trkpt lat="47.30129" lon="-2.35567">
        <ele>28.39999961853</ele>
        <time>2020-01-30T10:43:22.000Z</time>
      </trkpt>
      <trkpt lat="47.30127" lon="-2.35533">
        <ele>28.39999961853</ele>
        <time>2020-01-30T10:43:26.000Z</time>
      </trkpt>
      <trkpt lat="47.30126" lon="-2.35504">
        <ele>28.39999961853</ele>
        <time>2020-01-30T10:43:29.000Z</time>
      </trkpt>
      <trkpt lat="47.30124" lon="-2.35495">
        <ele>27.799999237061</ele>
        <time>2020-01-30T10:43:30.000Z</time>
      </trkpt>
      <trkpt lat="47.30122" lon="-2.35485">
        <ele>27.39999961853</ele>
        <time>2020-01-30T10:43:31.000Z</time>
      </trkpt>
      <trkpt lat="47.3012" lon="-2.35476">
        <ele>27</ele>
        <time>2020-01-30T10:43:32.000Z</time>
      </trkpt>
      <trkpt lat="47.30116" lon="-2.35467">
        <ele>26.60000038147</ele>
        <time>2020-01-30T10:43:33.000Z</time>
      </trkpt>
      <trkpt lat="47.30112" lon="-2.35459">
        <ele>26</ele>
        <time>2020-01-30T10:43:34.000Z</time>
      </trkpt>
      <trkpt lat="47.30096" lon="-2.35435">
        <ele>26</ele>
        <time>2020-01-30T10:43:37.000Z</time>
      </trkpt>
      <trkpt lat="47.30085" lon="-2.3542">
        <ele>26</ele>
        <time>2020-01-30T10:43:39.000Z</time>
      </trkpt>
      <trkpt lat="47.30075" lon="-2.35405">
        <ele>25.60000038147</ele>
        <time>2020-01-30T10:43:41.000Z</time>
      </trkpt>
      <trkpt lat="47.3007" lon="-2.35397">
        <ele>25.200000762939</ele>
        <time>2020-01-30T10:43:42.000Z</time>
      </trkpt>
      <trkpt lat="47.30065" lon="-2.35389">
        <ele>24.799999237061</ele>
        <time>2020-01-30T10:43:43.000Z</time>
      </trkpt>
      <trkpt lat="47.30061" lon="-2.35381">
        <ele>24.200000762939</ele>
        <time>2020-01-30T10:43:44.000Z</time>
      </trkpt>
      <trkpt lat="47.30057" lon="-2.35374">
        <ele>23.799999237061</ele>
        <time>2020-01-30T10:43:45.000Z</time>
      </trkpt>
      <trkpt lat="47.30053" lon="-2.35365">
        <ele>23.799999237061</ele>
        <time>2020-01-30T10:43:46.000Z</time>
      </trkpt>
      <trkpt lat="47.30028" lon="-2.35308">
        <ele>23.799999237061</ele>
        <time>2020-01-30T10:43:53.000Z</time>
      </trkpt>
      <trkpt lat="47.30025" lon="-2.353">
        <ele>23.39999961853</ele>
        <time>2020-01-30T10:43:54.000Z</time>
      </trkpt>
      <trkpt lat="47.30022" lon="-2.35293">
        <ele>23</ele>
        <time>2020-01-30T10:43:55.000Z</time>
      </trkpt>
      <trkpt lat="47.30019" lon="-2.35285">
        <ele>22.39999961853</ele>
        <time>2020-01-30T10:43:56.000Z</time>
      </trkpt>
      <trkpt lat="47.30016" lon="-2.35278">
        <ele>22</ele>
        <time>2020-01-30T10:43:57.000Z</time>
      </trkpt>
      <trkpt lat="47.30012" lon="-2.3527">
        <ele>21.60000038147</ele>
        <time>2020-01-30T10:43:58.000Z</time>
      </trkpt>
      <trkpt lat="47.30006" lon="-2.35256">
        <ele>21.60000038147</ele>
        <time>2020-01-30T10:44:00.000Z</time>
      </trkpt>
      <trkpt lat="47.30002" lon="-2.35248">
        <ele>21.60000038147</ele>
        <time>2020-01-30T10:44:01.000Z</time>
      </trkpt>
      <trkpt lat="47.2999" lon="-2.35215">
        <ele>21.60000038147</ele>
        <time>2020-01-30T10:44:05.000Z</time>
      </trkpt>
      <trkpt lat="47.29988" lon="-2.35205">
        <ele>21.60000038147</ele>
        <time>2020-01-30T10:44:06.000Z</time>
      </trkpt>
      <trkpt lat="47.29981" lon="-2.3517">
        <ele>21.60000038147</ele>
        <time>2020-01-30T10:44:10.000Z</time>
      </trkpt>
      <trkpt lat="47.2998" lon="-2.35161">
        <ele>21.60000038147</ele>
        <time>2020-01-30T10:44:11.000Z</time>
      </trkpt>
      <trkpt lat="47.2998" lon="-2.35132">
        <ele>21.60000038147</ele>
        <time>2020-01-30T10:44:14.000Z</time>
      </trkpt>
      <trkpt lat="47.29982" lon="-2.35103">
        <ele>21.60000038147</ele>
        <time>2020-01-30T10:44:17.000Z</time>
      </trkpt>
      <trkpt lat="47.29986" lon="-2.35039">
        <ele>21.60000038147</ele>
        <time>2020-01-30T10:44:24.000Z</time>
      </trkpt>
      <trkpt lat="47.29991" lon="-2.34967">
        <ele>21.60000038147</ele>
        <time>2020-01-30T10:44:32.000Z</time>
      </trkpt>
      <trkpt lat="47.29992" lon="-2.34913">
        <ele>21.60000038147</ele>
        <time>2020-01-30T10:44:38.000Z</time>
      </trkpt>
      <trkpt lat="47.29984" lon="-2.34847">
        <ele>21.60000038147</ele>
        <time>2020-01-30T10:44:45.000Z</time>
      </trkpt>
      <trkpt lat="47.29976" lon="-2.34775">
        <ele>21.60000038147</ele>
        <time>2020-01-30T10:44:52.000Z</time>
      </trkpt>
      <trkpt lat="47.29965" lon="-2.34686">
        <ele>21.60000038147</ele>
        <time>2020-01-30T10:45:00.000Z</time>
      </trkpt>
      <trkpt lat="47.29964" lon="-2.34675">
        <ele>21.60000038147</ele>
        <time>2020-01-30T10:45:01.000Z</time>
      </trkpt>
      <trkpt lat="47.29962" lon="-2.34665">
        <ele>21.200000762939</ele>
        <time>2020-01-30T10:45:02.000Z</time>
      </trkpt>
      <trkpt lat="47.29961" lon="-2.34655">
        <ele>20.799999237061</ele>
        <time>2020-01-30T10:45:03.000Z</time>
      </trkpt>
      <trkpt lat="47.2996" lon="-2.34645">
        <ele>19.799999237061</ele>
        <time>2020-01-30T10:45:04.000Z</time>
      </trkpt>
      <trkpt lat="47.29958" lon="-2.34635">
        <ele>19.39999961853</ele>
        <time>2020-01-30T10:45:05.000Z</time>
      </trkpt>
      <trkpt lat="47.29956" lon="-2.34616">
        <ele>19.39999961853</ele>
        <time>2020-01-30T10:45:07.000Z</time>
      </trkpt>
      <trkpt lat="47.29952" lon="-2.34582">
        <ele>19.39999961853</ele>
        <time>2020-01-30T10:45:11.000Z</time>
      </trkpt>
      <trkpt lat="47.2995" lon="-2.34567">
        <ele>19.39999961853</ele>
        <time>2020-01-30T10:45:13.000Z</time>
      </trkpt>
      <trkpt lat="47.29946" lon="-2.3454">
        <ele>19.39999961853</ele>
        <time>2020-01-30T10:45:16.000Z</time>
      </trkpt>
      <trkpt lat="47.29944" lon="-2.3452">
        <ele>19.39999961853</ele>
        <time>2020-01-30T10:45:18.000Z</time>
      </trkpt>
      <trkpt lat="47.29942" lon="-2.34502">
        <ele>19.799999237061</ele>
        <time>2020-01-30T10:45:20.000Z</time>
      </trkpt>
      <trkpt lat="47.29941" lon="-2.34492">
        <ele>20.39999961853</ele>
        <time>2020-01-30T10:45:21.000Z</time>
      </trkpt>
      <trkpt lat="47.2994" lon="-2.34483">
        <ele>20.799999237061</ele>
        <time>2020-01-30T10:45:22.000Z</time>
      </trkpt>
      <trkpt lat="47.29939" lon="-2.34474">
        <ele>21.200000762939</ele>
        <time>2020-01-30T10:45:23.000Z</time>
      </trkpt>
      <trkpt lat="47.29938" lon="-2.34465">
        <ele>21.60000038147</ele>
        <time>2020-01-30T10:45:24.000Z</time>
      </trkpt>
      <trkpt lat="47.29935" lon="-2.34448">
        <ele>21.60000038147</ele>
        <time>2020-01-30T10:45:26.000Z</time>
      </trkpt>
      <trkpt lat="47.29928" lon="-2.34385">
        <ele>21.60000038147</ele>
        <time>2020-01-30T10:45:33.000Z</time>
      </trkpt>
      <trkpt lat="47.29918" lon="-2.34305">
        <ele>21.60000038147</ele>
        <time>2020-01-30T10:45:42.000Z</time>
      </trkpt>
      <trkpt lat="47.29916" lon="-2.34296">
        <ele>21.60000038147</ele>
        <time>2020-01-30T10:45:43.000Z</time>
      </trkpt>
      <trkpt lat="47.29912" lon="-2.34279">
        <ele>21.60000038147</ele>
        <time>2020-01-30T10:45:45.000Z</time>
      </trkpt>
      <trkpt lat="47.29903" lon="-2.34257">
        <ele>21.60000038147</ele>
        <time>2020-01-30T10:45:48.000Z</time>
      </trkpt>
      <trkpt lat="47.299" lon="-2.3425">
        <ele>21.200000762939</ele>
        <time>2020-01-30T10:45:49.000Z</time>
      </trkpt>
      <trkpt lat="47.29895" lon="-2.34242">
        <ele>20.799999237061</ele>
        <time>2020-01-30T10:45:50.000Z</time>
      </trkpt>
      <trkpt lat="47.29891" lon="-2.34234">
        <ele>20.39999961853</ele>
        <time>2020-01-30T10:45:51.000Z</time>
      </trkpt>
      <trkpt lat="47.29887" lon="-2.34227">
        <ele>19.799999237061</ele>
        <time>2020-01-30T10:45:52.000Z</time>
      </trkpt>
      <trkpt lat="47.29882" lon="-2.34219">
        <ele>19.39999961853</ele>
        <time>2020-01-30T10:45:53.000Z</time>
      </trkpt>
      <trkpt lat="47.29877" lon="-2.34211">
        <ele>19.39999961853</ele>
        <time>2020-01-30T10:45:54.000Z</time>
      </trkpt>
      <trkpt lat="47.29846" lon="-2.34166">
        <ele>19.39999961853</ele>
        <time>2020-01-30T10:46:00.000Z</time>
      </trkpt>
      <trkpt lat="47.29836" lon="-2.34154">
        <ele>19</ele>
        <time>2020-01-30T10:46:02.000Z</time>
      </trkpt>
      <trkpt lat="47.29831" lon="-2.34149">
        <ele>18.60000038147</ele>
        <time>2020-01-30T10:46:03.000Z</time>
      </trkpt>
      <trkpt lat="47.29827" lon="-2.34144">
        <ele>18.200000762939</ele>
        <time>2020-01-30T10:46:04.000Z</time>
      </trkpt>
      <trkpt lat="47.29822" lon="-2.34139">
        <ele>17.60000038147</ele>
        <time>2020-01-30T10:46:05.000Z</time>
      </trkpt>
      <trkpt lat="47.29817" lon="-2.34133">
        <ele>17.200000762939</ele>
        <time>2020-01-30T10:46:06.000Z</time>
      </trkpt>
      <trkpt lat="47.29792" lon="-2.34098">
        <ele>17.200000762939</ele>
        <time>2020-01-30T10:46:12.000Z</time>
      </trkpt>
      <trkpt lat="47.29769" lon="-2.34062">
        <ele>17.200000762939</ele>
        <time>2020-01-30T10:46:18.000Z</time>
      </trkpt>
      <trkpt lat="47.29737" lon="-2.34014">
        <ele>17.200000762939</ele>
        <time>2020-01-30T10:46:26.000Z</time>
      </trkpt>
      <trkpt lat="47.29713" lon="-2.33983">
        <ele>17.200000762939</ele>
        <time>2020-01-30T10:46:32.000Z</time>
      </trkpt>
      <trkpt lat="47.2971" lon="-2.33977">
        <ele>17.200000762939</ele>
        <time>2020-01-30T10:46:33.000Z</time>
      </trkpt>
      <trkpt lat="47.297" lon="-2.33962">
        <ele>17.200000762939</ele>
        <time>2020-01-30T10:46:36.000Z</time>
      </trkpt>
      <trkpt lat="47.29695" lon="-2.33956">
        <ele>17.200000762939</ele>
        <time>2020-01-30T10:46:38.000Z</time>
      </trkpt>
      <trkpt lat="47.29684" lon="-2.33936">
        <ele>17.200000762939</ele>
        <time>2020-01-30T10:46:43.000Z</time>
      </trkpt>
      <trkpt lat="47.29682" lon="-2.33931">
        <ele>16.39999961853</ele>
        <time>2020-01-30T10:46:44.000Z</time>
      </trkpt>
      <trkpt lat="47.29678" lon="-2.33925">
        <ele>16</ele>
        <time>2020-01-30T10:46:45.000Z</time>
      </trkpt>
      <trkpt lat="47.29675" lon="-2.33918">
        <ele>15.60000038147</ele>
        <time>2020-01-30T10:46:46.000Z</time>
      </trkpt>
      <trkpt lat="47.29672" lon="-2.33912">
        <ele>15.199999809265</ele>
        <time>2020-01-30T10:46:47.000Z</time>
      </trkpt>
      <trkpt lat="47.29669" lon="-2.33905">
        <ele>15.199999809265</ele>
        <time>2020-01-30T10:46:48.000Z</time>
      </trkpt>
      <trkpt lat="47.29655" lon="-2.33877">
        <ele>15.199999809265</ele>
        <time>2020-01-30T10:46:52.000Z</time>
      </trkpt>
      <trkpt lat="47.29646" lon="-2.33854">
        <ele>15.199999809265</ele>
        <time>2020-01-30T10:46:55.000Z</time>
      </trkpt>
      <trkpt lat="47.29642" lon="-2.33846">
        <ele>14.800000190735</ele>
        <time>2020-01-30T10:46:56.000Z</time>
      </trkpt>
      <trkpt lat="47.29638" lon="-2.33837">
        <ele>14.39999961853</ele>
        <time>2020-01-30T10:46:57.000Z</time>
      </trkpt>
      <trkpt lat="47.29633" lon="-2.33828">
        <ele>14</ele>
        <time>2020-01-30T10:46:58.000Z</time>
      </trkpt>
      <trkpt lat="47.29629" lon="-2.33819">
        <ele>13.60000038147</ele>
        <time>2020-01-30T10:46:59.000Z</time>
      </trkpt>
      <trkpt lat="47.29624" lon="-2.3381">
        <ele>13.199999809265</ele>
        <time>2020-01-30T10:47:00.000Z</time>
      </trkpt>
      <trkpt lat="47.29601" lon="-2.33763">
        <ele>12.800000190735</ele>
        <time>2020-01-30T10:47:05.000Z</time>
      </trkpt>
      <trkpt lat="47.29596" lon="-2.33754">
        <ele>12.199999809265</ele>
        <time>2020-01-30T10:47:06.000Z</time>
      </trkpt>
      <trkpt lat="47.29591" lon="-2.33746">
        <ele>11.800000190735</ele>
        <time>2020-01-30T10:47:07.000Z</time>
      </trkpt>
      <trkpt lat="47.29585" lon="-2.33737">
        <ele>11</ele>
        <time>2020-01-30T10:47:08.000Z</time>
      </trkpt>
      <trkpt lat="47.29564" lon="-2.33711">
        <ele>11</ele>
        <time>2020-01-30T10:47:12.000Z</time>
      </trkpt>
      <trkpt lat="47.29546" lon="-2.33704">
        <ele>11</ele>
        <time>2020-01-30T10:47:15.000Z</time>
      </trkpt>
      <trkpt lat="47.29524" lon="-2.33715">
        <ele>11</ele>
        <time>2020-01-30T10:47:19.000Z</time>
      </trkpt>
      <trkpt lat="47.2949" lon="-2.33732">
        <ele>11</ele>
        <time>2020-01-30T10:47:26.000Z</time>
      </trkpt>
      <trkpt lat="47.2948" lon="-2.33735">
        <ele>11</ele>
        <time>2020-01-30T10:47:28.000Z</time>
      </trkpt>
      <trkpt lat="47.29464" lon="-2.33736">
        <ele>11</ele>
        <time>2020-01-30T10:47:31.000Z</time>
      </trkpt>
      <trkpt lat="47.29436" lon="-2.33737">
        <ele>11</ele>
        <time>2020-01-30T10:47:36.000Z</time>
      </trkpt>
      <trkpt lat="47.29399" lon="-2.33741">
        <ele>11</ele>
        <time>2020-01-30T10:47:42.000Z</time>
      </trkpt>
      <trkpt lat="47.29379" lon="-2.3374">
        <ele>11</ele>
        <time>2020-01-30T10:47:46.000Z</time>
      </trkpt>
      <trkpt lat="47.29361" lon="-2.33742">
        <ele>11.39999961853</ele>
        <time>2020-01-30T10:47:51.000Z</time>
      </trkpt>
      <trkpt lat="47.29358" lon="-2.33742">
        <ele>11.800000190735</ele>
        <time>2020-01-30T10:47:52.000Z</time>
      </trkpt>
      <trkpt lat="47.29356" lon="-2.33742">
        <ele>12.199999809265</ele>
        <time>2020-01-30T10:47:53.000Z</time>
      </trkpt>
      <trkpt lat="47.29355" lon="-2.33742">
        <ele>12.800000190735</ele>
        <time>2020-01-30T10:47:54.000Z</time>
      </trkpt>
      <trkpt lat="47.29354" lon="-2.33741">
        <ele>13.199999809265</ele>
        <time>2020-01-30T10:47:55.000Z</time>
      </trkpt>
      <trkpt lat="47.29352" lon="-2.3374">
        <ele>13.199999809265</ele>
        <time>2020-01-30T10:47:56.000Z</time>
      </trkpt>
      <trkpt lat="47.29347" lon="-2.33739">
        <ele>13.199999809265</ele>
        <time>2020-01-30T10:48:00.000Z</time>
      </trkpt>
      <trkpt lat="47.29344" lon="-2.3374">
        <ele>13.199999809265</ele>
        <time>2020-01-30T10:48:01.000Z</time>
      </trkpt>
      <trkpt lat="47.29322" lon="-2.33746">
        <ele>13.199999809265</ele>
        <time>2020-01-30T10:48:08.000Z</time>
      </trkpt>
      <trkpt lat="47.293" lon="-2.33749">
        <ele>13.199999809265</ele>
        <time>2020-01-30T10:48:14.000Z</time>
      </trkpt>
      <trkpt lat="47.29283" lon="-2.3375">
        <ele>13.199999809265</ele>
        <time>2020-01-30T10:48:20.000Z</time>
      </trkpt>
      <trkpt lat="47.29268" lon="-2.33752">
        <ele>13.199999809265</ele>
        <time>2020-01-30T10:48:28.000Z</time>
      </trkpt>
      <trkpt lat="47.29268" lon="-2.33752">
        <ele>13.199999809265</ele>
        <time>2020-01-30T10:48:29.000Z</time>
      </trkpt>
      <trkpt lat="47.29274" lon="-2.33752">
        <ele>13.199999809265</ele>
        <time>2020-01-30T10:50:04.000Z</time>
      </trkpt>
      <trkpt lat="47.29277" lon="-2.33751">
        <ele>13.199999809265</ele>
        <time>2020-01-30T10:50:06.000Z</time>
      </trkpt>
      <trkpt lat="47.29287" lon="-2.33749">
        <ele>13.199999809265</ele>
        <time>2020-01-30T10:50:11.000Z</time>
      </trkpt>
      <trkpt lat="47.29289" lon="-2.33749">
        <ele>13.199999809265</ele>
        <time>2020-01-30T10:50:12.000Z</time>
      </trkpt>
      <trkpt lat="47.29302" lon="-2.33751">
        <ele>13.199999809265</ele>
        <time>2020-01-30T10:50:18.000Z</time>
      </trkpt>
      <trkpt lat="47.29318" lon="-2.33747">
        <ele>13.199999809265</ele>
        <time>2020-01-30T10:50:23.000Z</time>
      </trkpt>
      <trkpt lat="47.29335" lon="-2.33741">
        <ele>13.199999809265</ele>
        <time>2020-01-30T10:50:29.000Z</time>
      </trkpt>
      <trkpt lat="47.29346" lon="-2.33736">
        <ele>13.199999809265</ele>
        <time>2020-01-30T10:50:34.000Z</time>
      </trkpt>
      <trkpt lat="47.29342" lon="-2.33724">
        <ele>13.199999809265</ele>
        <time>2020-01-30T10:50:38.000Z</time>
      </trkpt>
      <trkpt lat="47.2933" lon="-2.33698">
        <ele>13.199999809265</ele>
        <time>2020-01-30T10:50:43.000Z</time>
      </trkpt>
      <trkpt lat="47.29324" lon="-2.3368">
        <ele>13.199999809265</ele>
        <time>2020-01-30T10:50:46.000Z</time>
      </trkpt>
      <trkpt lat="47.29322" lon="-2.33666">
        <ele>13.199999809265</ele>
        <time>2020-01-30T10:50:48.000Z</time>
      </trkpt>
      <trkpt lat="47.29322" lon="-2.33658">
        <ele>13.199999809265</ele>
        <time>2020-01-30T10:50:49.000Z</time>
      </trkpt>
      <trkpt lat="47.29326" lon="-2.33637">
        <ele>13.199999809265</ele>
        <time>2020-01-30T10:50:52.000Z</time>
      </trkpt>
      <trkpt lat="47.29342" lon="-2.33617">
        <ele>13.199999809265</ele>
        <time>2020-01-30T10:50:56.000Z</time>
      </trkpt>
      <trkpt lat="47.29379" lon="-2.33582">
        <ele>13.199999809265</ele>
        <time>2020-01-30T10:51:04.000Z</time>
      </trkpt>
      <trkpt lat="47.29403" lon="-2.33546">
        <ele>13.199999809265</ele>
        <time>2020-01-30T10:51:10.000Z</time>
      </trkpt>
      <trkpt lat="47.29429" lon="-2.33504">
        <ele>13.199999809265</ele>
        <time>2020-01-30T10:51:17.000Z</time>
      </trkpt>
      <trkpt lat="47.29455" lon="-2.33456">
        <ele>13.199999809265</ele>
        <time>2020-01-30T10:51:25.000Z</time>
      </trkpt>
      <trkpt lat="47.29454" lon="-2.33436">
        <ele>13.199999809265</ele>
        <time>2020-01-30T10:51:28.000Z</time>
      </trkpt>
      <trkpt lat="47.29449" lon="-2.33423">
        <ele>13.199999809265</ele>
        <time>2020-01-30T10:51:30.000Z</time>
      </trkpt>
      <trkpt lat="47.29443" lon="-2.3341">
        <ele>13.199999809265</ele>
        <time>2020-01-30T10:51:32.000Z</time>
      </trkpt>
      <trkpt lat="47.29437" lon="-2.33397">
        <ele>13.199999809265</ele>
        <time>2020-01-30T10:51:34.000Z</time>
      </trkpt>
      <trkpt lat="47.29431" lon="-2.33366">
        <ele>13.199999809265</ele>
        <time>2020-01-30T10:51:38.000Z</time>
      </trkpt>
      <trkpt lat="47.29431" lon="-2.33351">
        <ele>13.199999809265</ele>
        <time>2020-01-30T10:51:40.000Z</time>
      </trkpt>
      <trkpt lat="47.29431" lon="-2.33327">
        <ele>13.199999809265</ele>
        <time>2020-01-30T10:51:43.000Z</time>
      </trkpt>
      <trkpt lat="47.29431" lon="-2.33319">
        <ele>13.199999809265</ele>
        <time>2020-01-30T10:51:44.000Z</time>
      </trkpt>
      <trkpt lat="47.29427" lon="-2.33277">
        <ele>13.199999809265</ele>
        <time>2020-01-30T10:51:49.000Z</time>
      </trkpt>
      <trkpt lat="47.29415" lon="-2.33212">
        <ele>13.199999809265</ele>
        <time>2020-01-30T10:51:57.000Z</time>
      </trkpt>
      <trkpt lat="47.29403" lon="-2.33173">
        <ele>13.199999809265</ele>
        <time>2020-01-30T10:52:03.000Z</time>
      </trkpt>
      <trkpt lat="47.29401" lon="-2.33167">
        <ele>13.199999809265</ele>
        <time>2020-01-30T10:52:04.000Z</time>
      </trkpt>
      <trkpt lat="47.29395" lon="-2.33154">
        <ele>13.199999809265</ele>
        <time>2020-01-30T10:52:06.000Z</time>
      </trkpt>
      <trkpt lat="47.29383" lon="-2.33135">
        <ele>13.199999809265</ele>
        <time>2020-01-30T10:52:09.000Z</time>
      </trkpt>
      <trkpt lat="47.29374" lon="-2.33124">
        <ele>13.199999809265</ele>
        <time>2020-01-30T10:52:11.000Z</time>
      </trkpt>
      <trkpt lat="47.29364" lon="-2.33119">
        <ele>13.199999809265</ele>
        <time>2020-01-30T10:52:13.000Z</time>
      </trkpt>
      <trkpt lat="47.29349" lon="-2.33125">
        <ele>13.199999809265</ele>
        <time>2020-01-30T10:52:16.000Z</time>
      </trkpt>
      <trkpt lat="47.29338" lon="-2.33131">
        <ele>13.199999809265</ele>
        <time>2020-01-30T10:52:18.000Z</time>
      </trkpt>
      <trkpt lat="47.29333" lon="-2.33134">
        <ele>13.60000038147</ele>
        <time>2020-01-30T10:52:19.000Z</time>
      </trkpt>
      <trkpt lat="47.29328" lon="-2.33138">
        <ele>14</ele>
        <time>2020-01-30T10:52:20.000Z</time>
      </trkpt>
      <trkpt lat="47.29323" lon="-2.33142">
        <ele>14.39999961853</ele>
        <time>2020-01-30T10:52:21.000Z</time>
      </trkpt>
      <trkpt lat="47.29318" lon="-2.33146">
        <ele>14.800000190735</ele>
        <time>2020-01-30T10:52:22.000Z</time>
      </trkpt>
      <trkpt lat="47.29313" lon="-2.33152">
        <ele>15.199999809265</ele>
        <time>2020-01-30T10:52:23.000Z</time>
      </trkpt>
      <trkpt lat="47.29291" lon="-2.33181">
        <ele>15.199999809265</ele>
        <time>2020-01-30T10:52:28.000Z</time>
      </trkpt>
      <trkpt lat="47.29287" lon="-2.33186">
        <ele>15.199999809265</ele>
        <time>2020-01-30T10:52:29.000Z</time>
      </trkpt>
      <trkpt lat="47.29277" lon="-2.3319">
        <ele>15.199999809265</ele>
        <time>2020-01-30T10:52:31.000Z</time>
      </trkpt>
      <trkpt lat="47.29266" lon="-2.33177">
        <ele>15.199999809265</ele>
        <time>2020-01-30T10:52:34.000Z</time>
      </trkpt>
      <trkpt lat="47.29262" lon="-2.3317">
        <ele>15.199999809265</ele>
        <time>2020-01-30T10:52:35.000Z</time>
      </trkpt>
      <trkpt lat="47.29258" lon="-2.33163">
        <ele>14.800000190735</ele>
        <time>2020-01-30T10:52:36.000Z</time>
      </trkpt>
      <trkpt lat="47.29255" lon="-2.33156">
        <ele>14.199999809265</ele>
        <time>2020-01-30T10:52:37.000Z</time>
      </trkpt>
      <trkpt lat="47.29251" lon="-2.33149">
        <ele>13.800000190735</ele>
        <time>2020-01-30T10:52:38.000Z</time>
      </trkpt>
      <trkpt lat="47.29248" lon="-2.33141">
        <ele>13.199999809265</ele>
        <time>2020-01-30T10:52:39.000Z</time>
      </trkpt>
      <trkpt lat="47.29244" lon="-2.33134">
        <ele>12.800000190735</ele>
        <time>2020-01-30T10:52:40.000Z</time>
      </trkpt>
      <trkpt lat="47.29213" lon="-2.33072">
        <ele>12.800000190735</ele>
        <time>2020-01-30T10:52:48.000Z</time>
      </trkpt>
      <trkpt lat="47.29195" lon="-2.33038">
        <ele>12.39999961853</ele>
        <time>2020-01-30T10:52:53.000Z</time>
      </trkpt>
      <trkpt lat="47.29192" lon="-2.33031">
        <ele>11.60000038147</ele>
        <time>2020-01-30T10:52:54.000Z</time>
      </trkpt>
      <trkpt lat="47.29189" lon="-2.33024">
        <ele>11</ele>
        <time>2020-01-30T10:52:55.000Z</time>
      </trkpt>
      <trkpt lat="47.29186" lon="-2.33019">
        <ele>10.60000038147</ele>
        <time>2020-01-30T10:52:56.000Z</time>
      </trkpt>
      <trkpt lat="47.29174" lon="-2.33">
        <ele>10.60000038147</ele>
        <time>2020-01-30T10:53:00.000Z</time>
      </trkpt>
      <trkpt lat="47.29171" lon="-2.32999">
        <ele>10.60000038147</ele>
        <time>2020-01-30T10:53:01.000Z</time>
      </trkpt>
      <trkpt lat="47.29166" lon="-2.33003">
        <ele>10.60000038147</ele>
        <time>2020-01-30T10:53:03.000Z</time>
      </trkpt>
      <trkpt lat="47.2916" lon="-2.33013">
        <ele>10.60000038147</ele>
        <time>2020-01-30T10:53:05.000Z</time>
      </trkpt>
      <trkpt lat="47.29151" lon="-2.3303">
        <ele>10.60000038147</ele>
        <time>2020-01-30T10:53:08.000Z</time>
      </trkpt>
      <trkpt lat="47.29133" lon="-2.33053">
        <ele>10.60000038147</ele>
        <time>2020-01-30T10:53:12.000Z</time>
      </trkpt>
      <trkpt lat="47.29129" lon="-2.3306">
        <ele>10.60000038147</ele>
        <time>2020-01-30T10:53:13.000Z</time>
      </trkpt>
      <trkpt lat="47.291" lon="-2.33101">
        <ele>10.60000038147</ele>
        <time>2020-01-30T10:53:20.000Z</time>
      </trkpt>
      <trkpt lat="47.29077" lon="-2.33129">
        <ele>10.60000038147</ele>
        <time>2020-01-30T10:53:26.000Z</time>
      </trkpt>
      <trkpt lat="47.29043" lon="-2.33158">
        <ele>10.60000038147</ele>
        <time>2020-01-30T10:53:33.000Z</time>
      </trkpt>
      <trkpt lat="47.29015" lon="-2.33178">
        <ele>10.60000038147</ele>
        <time>2020-01-30T10:53:39.000Z</time>
      </trkpt>
      <trkpt lat="47.29" lon="-2.33189">
        <ele>10.60000038147</ele>
        <time>2020-01-30T10:53:42.000Z</time>
      </trkpt>
      <trkpt lat="47.28987" lon="-2.33202">
        <ele>10.60000038147</ele>
        <time>2020-01-30T10:53:45.000Z</time>
      </trkpt>
      <trkpt lat="47.28979" lon="-2.33212">
        <ele>10.60000038147</ele>
        <time>2020-01-30T10:53:47.000Z</time>
      </trkpt>
      <trkpt lat="47.28965" lon="-2.33235">
        <ele>10.60000038147</ele>
        <time>2020-01-30T10:53:51.000Z</time>
      </trkpt>
      <trkpt lat="47.28958" lon="-2.3325">
        <ele>11</ele>
        <time>2020-01-30T10:53:53.000Z</time>
      </trkpt>
      <trkpt lat="47.28955" lon="-2.33258">
        <ele>11.39999961853</ele>
        <time>2020-01-30T10:53:54.000Z</time>
      </trkpt>
      <trkpt lat="47.28952" lon="-2.33266">
        <ele>11.800000190735</ele>
        <time>2020-01-30T10:53:55.000Z</time>
      </trkpt>
      <trkpt lat="47.28949" lon="-2.33273">
        <ele>12.199999809265</ele>
        <time>2020-01-30T10:53:56.000Z</time>
      </trkpt>
      <trkpt lat="47.28945" lon="-2.3328">
        <ele>12.60000038147</ele>
        <time>2020-01-30T10:53:57.000Z</time>
      </trkpt>
      <trkpt lat="47.28933" lon="-2.33305">
        <ele>12.60000038147</ele>
        <time>2020-01-30T10:54:01.000Z</time>
      </trkpt>
      <trkpt lat="47.28931" lon="-2.33311">
        <ele>12.60000038147</ele>
        <time>2020-01-30T10:54:02.000Z</time>
      </trkpt>
      <trkpt lat="47.28922" lon="-2.33339">
        <ele>12.60000038147</ele>
        <time>2020-01-30T10:54:06.000Z</time>
      </trkpt>
      <trkpt lat="47.2892" lon="-2.33348">
        <ele>12.60000038147</ele>
        <time>2020-01-30T10:54:07.000Z</time>
      </trkpt>
      <trkpt lat="47.28904" lon="-2.33414">
        <ele>12.60000038147</ele>
        <time>2020-01-30T10:54:15.000Z</time>
      </trkpt>
      <trkpt lat="47.28896" lon="-2.33436">
        <ele>12.60000038147</ele>
        <time>2020-01-30T10:54:18.000Z</time>
      </trkpt>
      <trkpt lat="47.28889" lon="-2.33447">
        <ele>12.60000038147</ele>
        <time>2020-01-30T10:54:20.000Z</time>
      </trkpt>
      <trkpt lat="47.28867" lon="-2.33467">
        <ele>12.60000038147</ele>
        <time>2020-01-30T10:54:25.000Z</time>
      </trkpt>
      <trkpt lat="47.28856" lon="-2.3347">
        <ele>12.60000038147</ele>
        <time>2020-01-30T10:54:27.000Z</time>
      </trkpt>
      <trkpt lat="47.28839" lon="-2.33474">
        <ele>12.60000038147</ele>
        <time>2020-01-30T10:54:30.000Z</time>
      </trkpt>
      <trkpt lat="47.28798" lon="-2.33481">
        <ele>12.60000038147</ele>
        <time>2020-01-30T10:54:37.000Z</time>
      </trkpt>
      <trkpt lat="47.28752" lon="-2.33488">
        <ele>12.60000038147</ele>
        <time>2020-01-30T10:54:45.000Z</time>
      </trkpt>
      <trkpt lat="47.28724" lon="-2.33494">
        <ele>12.60000038147</ele>
        <time>2020-01-30T10:54:51.000Z</time>
      </trkpt>
      <trkpt lat="47.28712" lon="-2.33495">
        <ele>12.60000038147</ele>
        <time>2020-01-30T10:54:55.000Z</time>
      </trkpt>
      <trkpt lat="47.28699" lon="-2.33489">
        <ele>12.60000038147</ele>
        <time>2020-01-30T10:54:59.000Z</time>
      </trkpt>
      <trkpt lat="47.28677" lon="-2.33462">
        <ele>12.60000038147</ele>
        <time>2020-01-30T10:55:05.000Z</time>
      </trkpt>
      <trkpt lat="47.2866" lon="-2.33439">
        <ele>12.60000038147</ele>
        <time>2020-01-30T10:55:09.000Z</time>
      </trkpt>
      <trkpt lat="47.28653" lon="-2.33428">
        <ele>12.60000038147</ele>
        <time>2020-01-30T10:55:11.000Z</time>
      </trkpt>
      <trkpt lat="47.28646" lon="-2.33415">
        <ele>12.60000038147</ele>
        <time>2020-01-30T10:55:13.000Z</time>
      </trkpt>
      <trkpt lat="47.28629" lon="-2.33382">
        <ele>12.60000038147</ele>
        <time>2020-01-30T10:55:18.000Z</time>
      </trkpt>
      <trkpt lat="47.28613" lon="-2.3334">
        <ele>12.60000038147</ele>
        <time>2020-01-30T10:55:24.000Z</time>
      </trkpt>
      <trkpt lat="47.28599" lon="-2.333">
        <ele>12.60000038147</ele>
        <time>2020-01-30T10:55:30.000Z</time>
      </trkpt>
      <trkpt lat="47.28597" lon="-2.33292">
        <ele>12.199999809265</ele>
        <time>2020-01-30T10:55:31.000Z</time>
      </trkpt>
      <trkpt lat="47.28595" lon="-2.33283">
        <ele>11.800000190735</ele>
        <time>2020-01-30T10:55:32.000Z</time>
      </trkpt>
      <trkpt lat="47.28592" lon="-2.33275">
        <ele>11.39999961853</ele>
        <time>2020-01-30T10:55:33.000Z</time>
      </trkpt>
      <trkpt lat="47.28589" lon="-2.33267">
        <ele>11</ele>
        <time>2020-01-30T10:55:34.000Z</time>
      </trkpt>
      <trkpt lat="47.28587" lon="-2.33259">
        <ele>10.60000038147</ele>
        <time>2020-01-30T10:55:35.000Z</time>
      </trkpt>
      <trkpt lat="47.28564" lon="-2.33188">
        <ele>10.60000038147</ele>
        <time>2020-01-30T10:55:43.000Z</time>
      </trkpt>
      <trkpt lat="47.28556" lon="-2.33161">
        <ele>9.8000001907349</ele>
        <time>2020-01-30T10:55:46.000Z</time>
      </trkpt>
      <trkpt lat="47.28554" lon="-2.33153">
        <ele>9.1999998092651</ele>
        <time>2020-01-30T10:55:47.000Z</time>
      </trkpt>
      <trkpt lat="47.28551" lon="-2.33144">
        <ele>8.8000001907349</ele>
        <time>2020-01-30T10:55:48.000Z</time>
      </trkpt>
      <trkpt lat="47.28549" lon="-2.33134">
        <ele>8.3999996185303</ele>
        <time>2020-01-30T10:55:49.000Z</time>
      </trkpt>
      <trkpt lat="47.28546" lon="-2.33125">
        <ele>8.3999996185303</ele>
        <time>2020-01-30T10:55:50.000Z</time>
      </trkpt>
      <trkpt lat="47.28533" lon="-2.33074">
        <ele>8</ele>
        <time>2020-01-30T10:55:55.000Z</time>
      </trkpt>
      <trkpt lat="47.28531" lon="-2.33064">
        <ele>7.4000000953674</ele>
        <time>2020-01-30T10:55:56.000Z</time>
      </trkpt>
      <trkpt lat="47.28529" lon="-2.33054">
        <ele>7</ele>
        <time>2020-01-30T10:55:57.000Z</time>
      </trkpt>
      <trkpt lat="47.28527" lon="-2.33045">
        <ele>6.5999999046326</ele>
        <time>2020-01-30T10:55:58.000Z</time>
      </trkpt>
      <trkpt lat="47.28524" lon="-2.33035">
        <ele>6.1999998092651</ele>
        <time>2020-01-30T10:55:59.000Z</time>
      </trkpt>
      <trkpt lat="47.28515" lon="-2.32995">
        <ele>6.1999998092651</ele>
        <time>2020-01-30T10:56:03.000Z</time>
      </trkpt>
      <trkpt lat="47.28508" lon="-2.32965">
        <ele>5.5999999046326</ele>
        <time>2020-01-30T10:56:06.000Z</time>
      </trkpt>
      <trkpt lat="47.28506" lon="-2.32956">
        <ele>5.1999998092651</ele>
        <time>2020-01-30T10:56:07.000Z</time>
      </trkpt>
      <trkpt lat="47.28504" lon="-2.32946">
        <ele>4.8000001907349</ele>
        <time>2020-01-30T10:56:08.000Z</time>
      </trkpt>
      <trkpt lat="47.28502" lon="-2.32936">
        <ele>4.4000000953674</ele>
        <time>2020-01-30T10:56:09.000Z</time>
      </trkpt>
      <trkpt lat="47.28499" lon="-2.32927">
        <ele>4</ele>
        <time>2020-01-30T10:56:10.000Z</time>
      </trkpt>
      <trkpt lat="47.28496" lon="-2.32917">
        <ele>4</ele>
        <time>2020-01-30T10:56:11.000Z</time>
      </trkpt>
      <trkpt lat="47.28483" lon="-2.3286">
        <ele>4</ele>
        <time>2020-01-30T10:56:17.000Z</time>
      </trkpt>
      <trkpt lat="47.28472" lon="-2.32818">
        <ele>4</ele>
        <time>2020-01-30T10:56:22.000Z</time>
      </trkpt>
      <trkpt lat="47.28458" lon="-2.32769">
        <ele>4</ele>
        <time>2020-01-30T10:56:28.000Z</time>
      </trkpt>
      <trkpt lat="47.28441" lon="-2.32713">
        <ele>4</ele>
        <time>2020-01-30T10:56:35.000Z</time>
      </trkpt>
      <trkpt lat="47.28427" lon="-2.32663">
        <ele>4</ele>
        <time>2020-01-30T10:56:41.000Z</time>
      </trkpt>
      <trkpt lat="47.28411" lon="-2.32613">
        <ele>4</ele>
        <time>2020-01-30T10:56:48.000Z</time>
      </trkpt>
      <trkpt lat="47.28401" lon="-2.32605">
        <ele>4</ele>
        <time>2020-01-30T10:56:51.000Z</time>
      </trkpt>
      <trkpt lat="47.28398" lon="-2.32605">
        <ele>4</ele>
        <time>2020-01-30T10:56:54.000Z</time>
      </trkpt>
      <trkpt lat="47.28395" lon="-2.32602">
        <ele>4</ele>
        <time>2020-01-30T10:56:57.000Z</time>
      </trkpt>
      <trkpt lat="47.28393" lon="-2.32599">
        <ele>4</ele>
        <time>2020-01-30T10:56:59.000Z</time>
      </trkpt>
      <trkpt lat="47.28387" lon="-2.32586">
        <ele>4</ele>
        <time>2020-01-30T10:57:06.000Z</time>
      </trkpt>
      <trkpt lat="47.28385" lon="-2.32585">
        <ele>4</ele>
        <time>2020-01-30T10:57:07.000Z</time>
      </trkpt>
      <trkpt lat="47.28379" lon="-2.32587">
        <ele>4</ele>
        <time>2020-01-30T10:57:10.000Z</time>
      </trkpt>
      <trkpt lat="47.28377" lon="-2.32587">
        <ele>4</ele>
        <time>2020-01-30T10:57:11.000Z</time>
      </trkpt>
      <trkpt lat="47.28365" lon="-2.32588">
        <ele>4</ele>
        <time>2020-01-30T10:57:17.000Z</time>
      </trkpt>
      <trkpt lat="47.28359" lon="-2.32584">
        <ele>4</ele>
        <time>2020-01-30T10:57:21.000Z</time>
      </trkpt>
      <trkpt lat="47.28359" lon="-2.32581">
        <ele>4</ele>
        <time>2020-01-30T10:57:22.000Z</time>
      </trkpt>
      <trkpt lat="47.28357" lon="-2.32565">
        <ele>4</ele>
        <time>2020-01-30T10:57:27.000Z</time>
      </trkpt>
      <trkpt lat="47.28358" lon="-2.32552">
        <ele>4</ele>
        <time>2020-01-30T10:57:30.000Z</time>
      </trkpt>
      <trkpt lat="47.28358" lon="-2.32541">
        <ele>4</ele>
        <time>2020-01-30T10:57:33.000Z</time>
      </trkpt>
      <trkpt lat="47.28357" lon="-2.32536">
        <ele>4</ele>
        <time>2020-01-30T10:57:35.000Z</time>
      </trkpt>
      <trkpt lat="47.28352" lon="-2.32533">
        <ele>4</ele>
        <time>2020-01-30T10:57:37.000Z</time>
      </trkpt>
      <trkpt lat="47.28336" lon="-2.32531">
        <ele>4</ele>
        <time>2020-01-30T10:57:42.000Z</time>
      </trkpt>
      <trkpt lat="47.28311" lon="-2.32529">
        <ele>4</ele>
        <time>2020-01-30T10:57:48.000Z</time>
      </trkpt>
      <trkpt lat="47.28278" lon="-2.32521">
        <ele>4</ele>
        <time>2020-01-30T10:57:55.000Z</time>
      </trkpt>
      <trkpt lat="47.28259" lon="-2.3251">
        <ele>4</ele>
        <time>2020-01-30T10:58:00.000Z</time>
      </trkpt>
      <trkpt lat="47.28239" lon="-2.32486">
        <ele>4</ele>
        <time>2020-01-30T10:58:06.000Z</time>
      </trkpt>
      <trkpt lat="47.28217" lon="-2.32466">
        <ele>4</ele>
        <time>2020-01-30T10:58:12.000Z</time>
      </trkpt>
      <trkpt lat="47.28187" lon="-2.32457">
        <ele>4</ele>
        <time>2020-01-30T10:58:18.000Z</time>
      </trkpt>
      <trkpt lat="47.28153" lon="-2.32458">
        <ele>4</ele>
        <time>2020-01-30T10:58:25.000Z</time>
      </trkpt>
      <trkpt lat="47.28133" lon="-2.32458">
        <ele>4</ele>
        <time>2020-01-30T10:58:29.000Z</time>
      </trkpt>
      <trkpt lat="47.28129" lon="-2.32459">
        <ele>4</ele>
        <time>2020-01-30T10:58:30.000Z</time>
      </trkpt>
      <trkpt lat="47.2811" lon="-2.32452">
        <ele>4</ele>
        <time>2020-01-30T10:58:35.000Z</time>
      </trkpt>
      <trkpt lat="47.28095" lon="-2.3244">
        <ele>4</ele>
        <time>2020-01-30T10:58:39.000Z</time>
      </trkpt>
      <trkpt lat="47.28076" lon="-2.32434">
        <ele>4</ele>
        <time>2020-01-30T10:58:44.000Z</time>
      </trkpt>
      <trkpt lat="47.28057" lon="-2.32433">
        <ele>4</ele>
        <time>2020-01-30T10:58:48.000Z</time>
      </trkpt>
      <trkpt lat="47.28047" lon="-2.32432">
        <ele>4.4000000953674</ele>
        <time>2020-01-30T10:58:50.000Z</time>
      </trkpt>
      <trkpt lat="47.28042" lon="-2.32432">
        <ele>4.8000001907349</ele>
        <time>2020-01-30T10:58:51.000Z</time>
      </trkpt>
      <trkpt lat="47.28037" lon="-2.32432">
        <ele>5.1999998092651</ele>
        <time>2020-01-30T10:58:52.000Z</time>
      </trkpt>
      <trkpt lat="47.28032" lon="-2.32432">
        <ele>5.5999999046326</ele>
        <time>2020-01-30T10:58:53.000Z</time>
      </trkpt>
      <trkpt lat="47.28027" lon="-2.3243">
        <ele>6</ele>
        <time>2020-01-30T10:58:54.000Z</time>
      </trkpt>
      <trkpt lat="47.28017" lon="-2.32428">
        <ele>6</ele>
        <time>2020-01-30T10:58:56.000Z</time>
      </trkpt>
      <trkpt lat="47.28002" lon="-2.32424">
        <ele>6</ele>
        <time>2020-01-30T10:58:59.000Z</time>
      </trkpt>
      <trkpt lat="47.27987" lon="-2.3242">
        <ele>6</ele>
        <time>2020-01-30T10:59:02.000Z</time>
      </trkpt>
      <trkpt lat="47.27966" lon="-2.32411">
        <ele>6</ele>
        <time>2020-01-30T10:59:07.000Z</time>
      </trkpt>
      <trkpt lat="47.2795" lon="-2.32403">
        <ele>6</ele>
        <time>2020-01-30T10:59:12.000Z</time>
      </trkpt>
      <trkpt lat="47.27939" lon="-2.324">
        <ele>6</ele>
        <time>2020-01-30T10:59:17.000Z</time>
      </trkpt>
      <trkpt lat="47.27935" lon="-2.32399">
        <ele>6</ele>
        <time>2020-01-30T10:59:21.000Z</time>
      </trkpt>
      <trkpt lat="47.27893" lon="-2.32414">
        <ele>6</ele>
        <time>2020-01-30T11:00:51.000Z</time>
      </trkpt>
      <trkpt lat="47.27887" lon="-2.32417">
        <ele>6</ele>
        <time>2020-01-30T11:00:55.000Z</time>
      </trkpt>
      <trkpt lat="47.27885" lon="-2.32421">
        <ele>6</ele>
        <time>2020-01-30T11:00:58.000Z</time>
      </trkpt>
      <trkpt lat="47.27882" lon="-2.32426">
        <ele>6</ele>
        <time>2020-01-30T11:01:00.000Z</time>
      </trkpt>
      <trkpt lat="47.27881" lon="-2.32431">
        <ele>6</ele>
        <time>2020-01-30T11:01:02.000Z</time>
      </trkpt>
      <trkpt lat="47.27879" lon="-2.32435">
        <ele>6</ele>
        <time>2020-01-30T11:01:04.000Z</time>
      </trkpt>
      <trkpt lat="47.27878" lon="-2.32437">
        <ele>6</ele>
        <time>2020-01-30T11:01:05.000Z</time>
      </trkpt>
      <trkpt lat="47.27872" lon="-2.32446">
        <ele>6</ele>
        <time>2020-01-30T11:01:10.000Z</time>
      </trkpt>
      <trkpt lat="47.27869" lon="-2.32451">
        <ele>6</ele>
        <time>2020-01-30T11:01:13.000Z</time>
      </trkpt>
      <trkpt lat="47.27867" lon="-2.32453">
        <ele>6</ele>
        <time>2020-01-30T11:01:15.000Z</time>
      </trkpt>
      <trkpt lat="47.27858" lon="-2.32458">
        <ele>6</ele>
        <time>2020-01-30T11:01:21.000Z</time>
      </trkpt>
      <trkpt lat="47.27854" lon="-2.32464">
        <ele>6</ele>
        <time>2020-01-30T11:01:26.000Z</time>
      </trkpt>
      <trkpt lat="47.27841" lon="-2.32486">
        <ele>6</ele>
        <time>2020-01-30T11:01:46.000Z</time>
      </trkpt>
      <trkpt lat="47.27838" lon="-2.32493">
        <ele>5.5999999046326</ele>
        <time>2020-01-30T11:01:49.000Z</time>
      </trkpt>
      <trkpt lat="47.27837" lon="-2.32495">
        <ele>5</ele>
        <time>2020-01-30T11:01:50.000Z</time>
      </trkpt>
      <trkpt lat="47.27836" lon="-2.32496">
        <ele>4.5999999046326</ele>
        <time>2020-01-30T11:01:51.000Z</time>
      </trkpt>
      <trkpt lat="47.27835" lon="-2.32499">
        <ele>4.1999998092651</ele>
        <time>2020-01-30T11:01:52.000Z</time>
      </trkpt>
      <trkpt lat="47.27834" lon="-2.32501">
        <ele>3.7999999523163</ele>
        <time>2020-01-30T11:01:53.000Z</time>
      </trkpt>
      <trkpt lat="47.27829" lon="-2.32508">
        <ele>3.7999999523163</ele>
        <time>2020-01-30T11:01:58.000Z</time>
      </trkpt>
      <trkpt lat="47.27822" lon="-2.32516">
        <ele>3.7999999523163</ele>
        <time>2020-01-30T11:02:04.000Z</time>
      </trkpt>
      <trkpt lat="47.27814" lon="-2.32528">
        <ele>3.7999999523163</ele>
        <time>2020-01-30T11:02:09.000Z</time>
      </trkpt>
      <trkpt lat="47.27811" lon="-2.32533">
        <ele>3.7999999523163</ele>
        <time>2020-01-30T11:02:11.000Z</time>
      </trkpt>
      <trkpt lat="47.27806" lon="-2.32538">
        <ele>3.7999999523163</ele>
        <time>2020-01-30T11:02:13.000Z</time>
      </trkpt>
      <trkpt lat="47.27794" lon="-2.32558">
        <ele>3.7999999523163</ele>
        <time>2020-01-30T11:02:19.000Z</time>
      </trkpt>
      <trkpt lat="47.27786" lon="-2.3257">
        <ele>3.7999999523163</ele>
        <time>2020-01-30T11:02:24.000Z</time>
      </trkpt>
      <trkpt lat="47.27776" lon="-2.32584">
        <ele>3.7999999523163</ele>
        <time>2020-01-30T11:02:29.000Z</time>
      </trkpt>
      <trkpt lat="47.27762" lon="-2.32606">
        <ele>3.7999999523163</ele>
        <time>2020-01-30T11:02:36.000Z</time>
      </trkpt>
      <trkpt lat="47.27751" lon="-2.32628">
        <ele>3.7999999523163</ele>
        <time>2020-01-30T11:02:42.000Z</time>
      </trkpt>
      <trkpt lat="47.2774" lon="-2.32653">
        <ele>3.7999999523163</ele>
        <time>2020-01-30T11:02:47.000Z</time>
      </trkpt>
      <trkpt lat="47.27733" lon="-2.32665">
        <ele>3.7999999523163</ele>
        <time>2020-01-30T11:02:49.000Z</time>
      </trkpt>
      <trkpt lat="47.27728" lon="-2.32676">
        <ele>3.7999999523163</ele>
        <time>2020-01-30T11:02:51.000Z</time>
      </trkpt>
      <trkpt lat="47.27717" lon="-2.32689">
        <ele>3.7999999523163</ele>
        <time>2020-01-30T11:02:55.000Z</time>
      </trkpt>
      <trkpt lat="47.27715" lon="-2.32691">
        <ele>3.7999999523163</ele>
        <time>2020-01-30T11:02:56.000Z</time>
      </trkpt>
      <trkpt lat="47.2771" lon="-2.32705">
        <ele>3.7999999523163</ele>
        <time>2020-01-30T11:03:01.000Z</time>
      </trkpt>
      <trkpt lat="47.27708" lon="-2.32711">
        <ele>3.4000000953674</ele>
        <time>2020-01-30T11:03:05.000Z</time>
      </trkpt>
      <trkpt lat="47.27708" lon="-2.32711">
        <ele>2.7999999523163</ele>
        <time>2020-01-30T11:03:06.000Z</time>
      </trkpt>
      <trkpt lat="47.27705" lon="-2.32715">
        <ele>1.3999999761581</ele>
        <time>2020-01-30T11:03:09.000Z</time>
      </trkpt>
      <trkpt lat="47.27704" lon="-2.32718">
        <ele>1.6000000238419</ele>
        <time>2020-01-30T11:03:10.000Z</time>
      </trkpt>
      <trkpt lat="47.27702" lon="-2.3272">
        <ele>1.7999999523163</ele>
        <time>2020-01-30T11:03:11.000Z</time>
      </trkpt>
      <trkpt lat="47.277" lon="-2.32722">
        <ele>1.7999999523163</ele>
        <time>2020-01-30T11:03:12.000Z</time>
      </trkpt>
      <trkpt lat="47.27689" lon="-2.32729">
        <ele>1.7999999523163</ele>
        <time>2020-01-30T11:03:16.000Z</time>
      </trkpt>
      <trkpt lat="47.27679" lon="-2.32731">
        <ele>1.7999999523163</ele>
        <time>2020-01-30T11:03:20.000Z</time>
      </trkpt>
      <trkpt lat="47.27662" lon="-2.32719">
        <ele>1.7999999523163</ele>
        <time>2020-01-30T11:03:25.000Z</time>
      </trkpt>
      <trkpt lat="47.27643" lon="-2.32708">
        <ele>1.7999999523163</ele>
        <time>2020-01-30T11:03:30.000Z</time>
      </trkpt>
      <trkpt lat="47.27634" lon="-2.32701">
        <ele>1.7999999523163</ele>
        <time>2020-01-30T11:03:33.000Z</time>
      </trkpt>
      <trkpt lat="47.27629" lon="-2.32695">
        <ele>1.7999999523163</ele>
        <time>2020-01-30T11:03:35.000Z</time>
      </trkpt>
      <trkpt lat="47.27619" lon="-2.32685">
        <ele>1.7999999523163</ele>
        <time>2020-01-30T11:03:40.000Z</time>
      </trkpt>
      <trkpt lat="47.27615" lon="-2.32686">
        <ele>1.7999999523163</ele>
        <time>2020-01-30T11:03:41.000Z</time>
      </trkpt>
      <trkpt lat="47.27603" lon="-2.32701">
        <ele>1.7999999523163</ele>
        <time>2020-01-30T11:03:45.000Z</time>
      </trkpt>
      <trkpt lat="47.27596" lon="-2.32719">
        <ele>1.7999999523163</ele>
        <time>2020-01-30T11:03:50.000Z</time>
      </trkpt>
      <trkpt lat="47.27593" lon="-2.32737">
        <ele>1.7999999523163</ele>
        <time>2020-01-30T11:03:55.000Z</time>
      </trkpt>
      <trkpt lat="47.2759" lon="-2.32759">
        <ele>1.7999999523163</ele>
        <time>2020-01-30T11:04:01.000Z</time>
      </trkpt>
      <trkpt lat="47.27585" lon="-2.32783">
        <ele>1.7999999523163</ele>
        <time>2020-01-30T11:04:07.000Z</time>
      </trkpt>
      <trkpt lat="47.27581" lon="-2.32793">
        <ele>1.7999999523163</ele>
        <time>2020-01-30T11:04:10.000Z</time>
      </trkpt>
      <trkpt lat="47.27578" lon="-2.32797">
        <ele>1.7999999523163</ele>
        <time>2020-01-30T11:04:12.000Z</time>
      </trkpt>
      <trkpt lat="47.27573" lon="-2.3281">
        <ele>1.7999999523163</ele>
        <time>2020-01-30T11:04:16.000Z</time>
      </trkpt>
      <trkpt lat="47.27571" lon="-2.32815">
        <ele>1.7999999523163</ele>
        <time>2020-01-30T11:04:18.000Z</time>
      </trkpt>
      <trkpt lat="47.27569" lon="-2.32822">
        <ele>1.7999999523163</ele>
        <time>2020-01-30T11:04:22.000Z</time>
      </trkpt>
      <trkpt lat="47.27569" lon="-2.32825">
        <ele>1.7999999523163</ele>
        <time>2020-01-30T11:04:23.000Z</time>
      </trkpt>
      <trkpt lat="47.27566" lon="-2.32832">
        <ele>1.7999999523163</ele>
        <time>2020-01-30T11:04:26.000Z</time>
      </trkpt>
      <trkpt lat="47.2756" lon="-2.32836">
        <ele>1.7999999523163</ele>
        <time>2020-01-30T11:04:28.000Z</time>
      </trkpt>
      <trkpt lat="47.27554" lon="-2.3284">
        <ele>1.7999999523163</ele>
        <time>2020-01-30T11:04:30.000Z</time>
      </trkpt>
      <trkpt lat="47.27528" lon="-2.32864">
        <ele>1.7999999523163</ele>
        <time>2020-01-30T11:04:38.000Z</time>
      </trkpt>
      <trkpt lat="47.27514" lon="-2.32889">
        <ele>1.7999999523163</ele>
        <time>2020-01-30T11:04:44.000Z</time>
      </trkpt>
      <trkpt lat="47.27506" lon="-2.32916">
        <ele>1.7999999523163</ele>
        <time>2020-01-30T11:04:50.000Z</time>
      </trkpt>
      <trkpt lat="47.27498" lon="-2.32945">
        <ele>1.7999999523163</ele>
        <time>2020-01-30T11:04:56.000Z</time>
      </trkpt>
      <trkpt lat="47.27486" lon="-2.32978">
        <ele>1.7999999523163</ele>
        <time>2020-01-30T11:05:04.000Z</time>
      </trkpt>
      <trkpt lat="47.27477" lon="-2.33005">
        <ele>1.7999999523163</ele>
        <time>2020-01-30T11:05:10.000Z</time>
      </trkpt>
      <trkpt lat="47.27466" lon="-2.33033">
        <ele>1.7999999523163</ele>
        <time>2020-01-30T11:05:16.000Z</time>
      </trkpt>
      <trkpt lat="47.27464" lon="-2.33055">
        <ele>1.7999999523163</ele>
        <time>2020-01-30T11:05:21.000Z</time>
      </trkpt>
      <trkpt lat="47.27458" lon="-2.3308">
        <ele>1.7999999523163</ele>
        <time>2020-01-30T11:05:26.000Z</time>
      </trkpt>
      <trkpt lat="47.27446" lon="-2.33107">
        <ele>1.7999999523163</ele>
        <time>2020-01-30T11:05:32.000Z</time>
      </trkpt>
      <trkpt lat="47.27439" lon="-2.3315">
        <ele>1.7999999523163</ele>
        <time>2020-01-30T11:05:40.000Z</time>
      </trkpt>
      <trkpt lat="47.27437" lon="-2.33161">
        <ele>2.2000000476837</ele>
        <time>2020-01-30T11:05:42.000Z</time>
      </trkpt>
      <trkpt lat="47.27436" lon="-2.33166">
        <ele>2.5999999046326</ele>
        <time>2020-01-30T11:05:43.000Z</time>
      </trkpt>
      <trkpt lat="47.27435" lon="-2.33171">
        <ele>3</ele>
        <time>2020-01-30T11:05:44.000Z</time>
      </trkpt>
      <trkpt lat="47.27434" lon="-2.33176">
        <ele>3.4000000953674</ele>
        <time>2020-01-30T11:05:45.000Z</time>
      </trkpt>
      <trkpt lat="47.27432" lon="-2.33181">
        <ele>3.7999999523163</ele>
        <time>2020-01-30T11:05:46.000Z</time>
      </trkpt>
      <trkpt lat="47.27432" lon="-2.33186">
        <ele>3.7999999523163</ele>
        <time>2020-01-30T11:05:47.000Z</time>
      </trkpt>
      <trkpt lat="47.27424" lon="-2.3322">
        <ele>3.7999999523163</ele>
        <time>2020-01-30T11:05:54.000Z</time>
      </trkpt>
      <trkpt lat="47.27418" lon="-2.3324">
        <ele>3.7999999523163</ele>
        <time>2020-01-30T11:05:58.000Z</time>
      </trkpt>
      <trkpt lat="47.27416" lon="-2.33246">
        <ele>3.7999999523163</ele>
        <time>2020-01-30T11:05:59.000Z</time>
      </trkpt>
      <trkpt lat="47.27402" lon="-2.33291">
        <ele>3.7999999523163</ele>
        <time>2020-01-30T11:06:06.000Z</time>
      </trkpt>
      <trkpt lat="47.27397" lon="-2.33318">
        <ele>3.7999999523163</ele>
        <time>2020-01-30T11:06:10.000Z</time>
      </trkpt>
      <trkpt lat="47.27397" lon="-2.33326">
        <ele>3.7999999523163</ele>
        <time>2020-01-30T11:06:11.000Z</time>
      </trkpt>
      <trkpt lat="47.27397" lon="-2.33347">
        <ele>3.7999999523163</ele>
        <time>2020-01-30T11:06:14.000Z</time>
      </trkpt>
      <trkpt lat="47.27394" lon="-2.33357">
        <ele>3.7999999523163</ele>
        <time>2020-01-30T11:06:16.000Z</time>
      </trkpt>
      <trkpt lat="47.27379" lon="-2.33358">
        <ele>3.7999999523163</ele>
        <time>2020-01-30T11:06:19.000Z</time>
      </trkpt>
      <trkpt lat="47.27369" lon="-2.33353">
        <ele>3.7999999523163</ele>
        <time>2020-01-30T11:06:21.000Z</time>
      </trkpt>
      <trkpt lat="47.27351" lon="-2.3335">
        <ele>3.7999999523163</ele>
        <time>2020-01-30T11:06:24.000Z</time>
      </trkpt>
      <trkpt lat="47.27322" lon="-2.33348">
        <ele>3.7999999523163</ele>
        <time>2020-01-30T11:06:29.000Z</time>
      </trkpt>
      <trkpt lat="47.27299" lon="-2.3335">
        <ele>3.7999999523163</ele>
        <time>2020-01-30T11:06:33.000Z</time>
      </trkpt>
      <trkpt lat="47.27282" lon="-2.33355">
        <ele>3.7999999523163</ele>
        <time>2020-01-30T11:06:36.000Z</time>
      </trkpt>
      <trkpt lat="47.2727" lon="-2.33359">
        <ele>3.7999999523163</ele>
        <time>2020-01-30T11:06:38.000Z</time>
      </trkpt>
      <trkpt lat="47.27255" lon="-2.3337">
        <ele>3.7999999523163</ele>
        <time>2020-01-30T11:06:41.000Z</time>
      </trkpt>
      <trkpt lat="47.27251" lon="-2.33374">
        <ele>3.7999999523163</ele>
        <time>2020-01-30T11:06:42.000Z</time>
      </trkpt>
      <trkpt lat="47.2722" lon="-2.33408">
        <ele>3.7999999523163</ele>
        <time>2020-01-30T11:06:48.000Z</time>
      </trkpt>
      <trkpt lat="47.272" lon="-2.33426">
        <ele>3.7999999523163</ele>
        <time>2020-01-30T11:06:52.000Z</time>
      </trkpt>
      <trkpt lat="47.2719" lon="-2.33432">
        <ele>3.7999999523163</ele>
        <time>2020-01-30T11:06:54.000Z</time>
      </trkpt>
      <trkpt lat="47.27158" lon="-2.33447">
        <ele>3.7999999523163</ele>
        <time>2020-01-30T11:07:00.000Z</time>
      </trkpt>
      <trkpt lat="47.27134" lon="-2.33472">
        <ele>3.7999999523163</ele>
        <time>2020-01-30T11:07:05.000Z</time>
      </trkpt>
      <trkpt lat="47.27105" lon="-2.33518">
        <ele>3.7999999523163</ele>
        <time>2020-01-30T11:07:12.000Z</time>
      </trkpt>
      <trkpt lat="47.27092" lon="-2.33546">
        <ele>3.7999999523163</ele>
        <time>2020-01-30T11:07:17.000Z</time>
      </trkpt>
      <trkpt lat="47.27089" lon="-2.33548">
        <ele>3.7999999523163</ele>
        <time>2020-01-30T11:07:18.000Z</time>
      </trkpt>
      <trkpt lat="47.27081" lon="-2.33544">
        <ele>3.7999999523163</ele>
        <time>2020-01-30T11:07:20.000Z</time>
      </trkpt>
      <trkpt lat="47.27071" lon="-2.33534">
        <ele>3.7999999523163</ele>
        <time>2020-01-30T11:07:23.000Z</time>
      </trkpt>
      <trkpt lat="47.2706" lon="-2.33522">
        <ele>3.7999999523163</ele>
        <time>2020-01-30T11:07:26.000Z</time>
      </trkpt>
      <trkpt lat="47.27057" lon="-2.33517">
        <ele>3.7999999523163</ele>
        <time>2020-01-30T11:07:27.000Z</time>
      </trkpt>
      <trkpt lat="47.27043" lon="-2.33497">
        <ele>3.7999999523163</ele>
        <time>2020-01-30T11:07:31.000Z</time>
      </trkpt>
      <trkpt lat="47.27021" lon="-2.33455">
        <ele>3.7999999523163</ele>
        <time>2020-01-30T11:07:38.000Z</time>
      </trkpt>
      <trkpt lat="47.27" lon="-2.33404">
        <ele>3.7999999523163</ele>
        <time>2020-01-30T11:07:46.000Z</time>
      </trkpt>
      <trkpt lat="47.26992" lon="-2.33386">
        <ele>3.7999999523163</ele>
        <time>2020-01-30T11:07:49.000Z</time>
      </trkpt>
      <trkpt lat="47.2698" lon="-2.33375">
        <ele>3.7999999523163</ele>
        <time>2020-01-30T11:07:52.000Z</time>
      </trkpt>
      <trkpt lat="47.26965" lon="-2.33378">
        <ele>3.7999999523163</ele>
        <time>2020-01-30T11:07:55.000Z</time>
      </trkpt>
      <trkpt lat="47.26949" lon="-2.33385">
        <ele>3.7999999523163</ele>
        <time>2020-01-30T11:07:58.000Z</time>
      </trkpt>
      <trkpt lat="47.26938" lon="-2.3339">
        <ele>3.7999999523163</ele>
        <time>2020-01-30T11:08:00.000Z</time>
      </trkpt>
      <trkpt lat="47.26904" lon="-2.33407">
        <ele>3.7999999523163</ele>
        <time>2020-01-30T11:08:06.000Z</time>
      </trkpt>
      <trkpt lat="47.26882" lon="-2.33417">
        <ele>3.7999999523163</ele>
        <time>2020-01-30T11:08:10.000Z</time>
      </trkpt>
      <trkpt lat="47.26877" lon="-2.33434">
        <ele>3.7999999523163</ele>
        <time>2020-01-30T11:08:13.000Z</time>
      </trkpt>
      <trkpt lat="47.26878" lon="-2.33466">
        <ele>3.7999999523163</ele>
        <time>2020-01-30T11:08:16.000Z</time>
      </trkpt>
      <trkpt lat="47.26883" lon="-2.33489">
        <ele>3.7999999523163</ele>
        <time>2020-01-30T11:08:18.000Z</time>
      </trkpt>
      <trkpt lat="47.26886" lon="-2.335">
        <ele>3.7999999523163</ele>
        <time>2020-01-30T11:08:19.000Z</time>
      </trkpt>
      <trkpt lat="47.2689" lon="-2.33526">
        <ele>3.7999999523163</ele>
        <time>2020-01-30T11:08:22.000Z</time>
      </trkpt>
      <trkpt lat="47.26883" lon="-2.33536">
        <ele>3.7999999523163</ele>
        <time>2020-01-30T11:08:24.000Z</time>
      </trkpt>
      <trkpt lat="47.26865" lon="-2.3354">
        <ele>3.7999999523163</ele>
        <time>2020-01-30T11:08:27.000Z</time>
      </trkpt>
      <trkpt lat="47.26832" lon="-2.33552">
        <ele>3.7999999523163</ele>
        <time>2020-01-30T11:08:32.000Z</time>
      </trkpt>
      <trkpt lat="47.2679" lon="-2.33568">
        <ele>3.7999999523163</ele>
        <time>2020-01-30T11:08:39.000Z</time>
      </trkpt>
      <trkpt lat="47.26785" lon="-2.33569">
        <ele>3.7999999523163</ele>
        <time>2020-01-30T11:08:40.000Z</time>
      </trkpt>
      <trkpt lat="47.26779" lon="-2.3357">
        <ele>3.7999999523163</ele>
        <time>2020-01-30T11:08:43.000Z</time>
      </trkpt>
      <trkpt lat="47.26777" lon="-2.33555">
        <ele>3.7999999523163</ele>
        <time>2020-01-30T11:08:46.000Z</time>
      </trkpt>
      <trkpt lat="47.26772" lon="-2.33527">
        <ele>3.7999999523163</ele>
        <time>2020-01-30T11:08:50.000Z</time>
      </trkpt>
      <trkpt lat="47.26762" lon="-2.33481">
        <ele>3.7999999523163</ele>
        <time>2020-01-30T11:08:56.000Z</time>
      </trkpt>
      <trkpt lat="47.26758" lon="-2.33451">
        <ele>3.4000000953674</ele>
        <time>2020-01-30T11:09:00.000Z</time>
      </trkpt>
      <trkpt lat="47.26756" lon="-2.33444">
        <ele>3</ele>
        <time>2020-01-30T11:09:01.000Z</time>
      </trkpt>
      <trkpt lat="47.26755" lon="-2.33436">
        <ele>2.5999999046326</ele>
        <time>2020-01-30T11:09:02.000Z</time>
      </trkpt>
      <trkpt lat="47.26754" lon="-2.33428">
        <ele>2.2000000476837</ele>
        <time>2020-01-30T11:09:03.000Z</time>
      </trkpt>
      <trkpt lat="47.26753" lon="-2.3342">
        <ele>1.7999999523163</ele>
        <time>2020-01-30T11:09:04.000Z</time>
      </trkpt>
      <trkpt lat="47.26753" lon="-2.33413">
        <ele>1.7999999523163</ele>
        <time>2020-01-30T11:09:05.000Z</time>
      </trkpt>
      <trkpt lat="47.26752" lon="-2.33394">
        <ele>1.7999999523163</ele>
        <time>2020-01-30T11:09:07.000Z</time>
      </trkpt>
      <trkpt lat="47.26747" lon="-2.33345">
        <ele>1.7999999523163</ele>
        <time>2020-01-30T11:09:13.000Z</time>
      </trkpt>
      <trkpt lat="47.26742" lon="-2.33335">
        <ele>1.7999999523163</ele>
        <time>2020-01-30T11:09:16.000Z</time>
      </trkpt>
      <trkpt lat="47.2674" lon="-2.33333">
        <ele>1.7999999523163</ele>
        <time>2020-01-30T11:09:17.000Z</time>
      </trkpt>
      <trkpt lat="47.2673" lon="-2.3333">
        <ele>1.7999999523163</ele>
        <time>2020-01-30T11:09:20.000Z</time>
      </trkpt>
      <trkpt lat="47.26719" lon="-2.33323">
        <ele>1.7999999523163</ele>
        <time>2020-01-30T11:09:23.000Z</time>
      </trkpt>
      <trkpt lat="47.26713" lon="-2.33314">
        <ele>1.7999999523163</ele>
        <time>2020-01-30T11:09:25.000Z</time>
      </trkpt>
      <trkpt lat="47.26707" lon="-2.33286">
        <ele>1.7999999523163</ele>
        <time>2020-01-30T11:09:29.000Z</time>
      </trkpt>
      <trkpt lat="47.26705" lon="-2.33279">
        <ele>1.7999999523163</ele>
        <time>2020-01-30T11:09:30.000Z</time>
      </trkpt>
      <trkpt lat="47.26704" lon="-2.33272">
        <ele>1.7999999523163</ele>
        <time>2020-01-30T11:09:31.000Z</time>
      </trkpt>
      <trkpt lat="47.26703" lon="-2.33252">
        <ele>1.7999999523163</ele>
        <time>2020-01-30T11:09:34.000Z</time>
      </trkpt>
      <trkpt lat="47.26702" lon="-2.33246">
        <ele>1.7999999523163</ele>
        <time>2020-01-30T11:09:35.000Z</time>
      </trkpt>
      <trkpt lat="47.267" lon="-2.3324">
        <ele>1.7999999523163</ele>
        <time>2020-01-30T11:09:36.000Z</time>
      </trkpt>
      <trkpt lat="47.26695" lon="-2.33221">
        <ele>1.7999999523163</ele>
        <time>2020-01-30T11:09:39.000Z</time>
      </trkpt>
      <trkpt lat="47.26695" lon="-2.33208">
        <ele>1.7999999523163</ele>
        <time>2020-01-30T11:09:41.000Z</time>
      </trkpt>
      <trkpt lat="47.26692" lon="-2.33195">
        <ele>1.7999999523163</ele>
        <time>2020-01-30T11:09:43.000Z</time>
      </trkpt>
      <trkpt lat="47.26688" lon="-2.33177">
        <ele>1.7999999523163</ele>
        <time>2020-01-30T11:09:46.000Z</time>
      </trkpt>
      <trkpt lat="47.26685" lon="-2.33174">
        <ele>1.7999999523163</ele>
        <time>2020-01-30T11:09:47.000Z</time>
      </trkpt>
      <trkpt lat="47.26676" lon="-2.33164">
        <ele>1.3999999761581</ele>
        <time>2020-01-30T11:09:50.000Z</time>
      </trkpt>
      <trkpt lat="47.26673" lon="-2.33164">
        <ele>1</ele>
        <time>2020-01-30T11:09:51.000Z</time>
      </trkpt>
      <trkpt lat="47.26671" lon="-2.33165">
        <ele>0.60000002384186</ele>
        <time>2020-01-30T11:09:52.000Z</time>
      </trkpt>
      <trkpt lat="47.26668" lon="-2.33166">
        <ele>0.20000000298023</ele>
        <time>2020-01-30T11:09:53.000Z</time>
      </trkpt>
      <trkpt lat="47.26665" lon="-2.3317">
        <ele>-0.20000000298023</ele>
        <time>2020-01-30T11:09:54.000Z</time>
      </trkpt>
      <trkpt lat="47.26662" lon="-2.33173">
        <ele>-0.20000000298023</ele>
        <time>2020-01-30T11:09:55.000Z</time>
      </trkpt>
      <trkpt lat="47.26658" lon="-2.33177">
        <ele>-0.20000000298023</ele>
        <time>2020-01-30T11:09:56.000Z</time>
      </trkpt>
      <trkpt lat="47.26632" lon="-2.33203">
        <ele>-0.20000000298023</ele>
        <time>2020-01-30T11:10:02.000Z</time>
      </trkpt>
      <trkpt lat="47.26612" lon="-2.33225">
        <ele>-0.20000000298023</ele>
        <time>2020-01-30T11:10:07.000Z</time>
      </trkpt>
      <trkpt lat="47.26607" lon="-2.33229">
        <ele>-0.20000000298023</ele>
        <time>2020-01-30T11:10:08.000Z</time>
      </trkpt>
      <trkpt lat="47.26583" lon="-2.33253">
        <ele>-0.20000000298023</ele>
        <time>2020-01-30T11:10:14.000Z</time>
      </trkpt>
      <trkpt lat="47.26557" lon="-2.33278">
        <ele>-0.20000000298023</ele>
        <time>2020-01-30T11:10:20.000Z</time>
      </trkpt>
      <trkpt lat="47.2654" lon="-2.33298">
        <ele>-0.20000000298023</ele>
        <time>2020-01-30T11:10:25.000Z</time>
      </trkpt>
      <trkpt lat="47.26531" lon="-2.33296">
        <ele>-0.20000000298023</ele>
        <time>2020-01-30T11:10:28.000Z</time>
      </trkpt>
      <trkpt lat="47.2652" lon="-2.33283">
        <ele>-0.20000000298023</ele>
        <time>2020-01-30T11:10:32.000Z</time>
      </trkpt>
      <trkpt lat="47.26514" lon="-2.33287">
        <ele>-0.20000000298023</ele>
        <time>2020-01-30T11:10:34.000Z</time>
      </trkpt>
      <trkpt lat="47.2651" lon="-2.33285">
        <ele>-0.20000000298023</ele>
        <time>2020-01-30T11:10:35.000Z</time>
      </trkpt>
      <trkpt lat="47.26496" lon="-2.33278">
        <ele>-0.20000000298023</ele>
        <time>2020-01-30T11:10:39.000Z</time>
      </trkpt>
      <trkpt lat="47.26484" lon="-2.33279">
        <ele>-0.20000000298023</ele>
        <time>2020-01-30T11:10:42.000Z</time>
      </trkpt>
      <trkpt lat="47.2648" lon="-2.33278">
        <ele>-0.20000000298023</ele>
        <time>2020-01-30T11:10:43.000Z</time>
      </trkpt>
      <trkpt lat="47.26453" lon="-2.33272">
        <ele>-0.20000000298023</ele>
        <time>2020-01-30T11:10:49.000Z</time>
      </trkpt>
      <trkpt lat="47.26448" lon="-2.33271">
        <ele>-0.20000000298023</ele>
        <time>2020-01-30T11:10:50.000Z</time>
      </trkpt>
      <trkpt lat="47.26434" lon="-2.33269">
        <ele>-0.60000002384186</ele>
        <time>2020-01-30T11:10:53.000Z</time>
      </trkpt>
      <trkpt lat="47.26429" lon="-2.33268">
        <ele>-1</ele>
        <time>2020-01-30T11:10:54.000Z</time>
      </trkpt>
      <trkpt lat="47.26424" lon="-2.33267">
        <ele>-1.3999999761581</ele>
        <time>2020-01-30T11:10:55.000Z</time>
      </trkpt>
      <trkpt lat="47.26418" lon="-2.33267">
        <ele>-1.7999999523163</ele>
        <time>2020-01-30T11:10:56.000Z</time>
      </trkpt>
      <trkpt lat="47.26413" lon="-2.33266">
        <ele>-2.2000000476837</ele>
        <time>2020-01-30T11:10:57.000Z</time>
      </trkpt>
      <trkpt lat="47.26392" lon="-2.33262">
        <ele>-2.2000000476837</ele>
        <time>2020-01-30T11:11:01.000Z</time>
      </trkpt>
      <trkpt lat="47.26383" lon="-2.33253">
        <ele>-2.2000000476837</ele>
        <time>2020-01-30T11:11:03.000Z</time>
      </trkpt>
      <trkpt lat="47.26378" lon="-2.33233">
        <ele>-2.2000000476837</ele>
        <time>2020-01-30T11:11:06.000Z</time>
      </trkpt>
      <trkpt lat="47.26377" lon="-2.33217">
        <ele>-2.2000000476837</ele>
        <time>2020-01-30T11:11:08.000Z</time>
      </trkpt>
      <trkpt lat="47.26375" lon="-2.33192">
        <ele>-2.2000000476837</ele>
        <time>2020-01-30T11:11:11.000Z</time>
      </trkpt>
      <trkpt lat="47.26374" lon="-2.33136">
        <ele>-2.2000000476837</ele>
        <time>2020-01-30T11:11:17.000Z</time>
      </trkpt>
      <trkpt lat="47.26368" lon="-2.33072">
        <ele>-2.2000000476837</ele>
        <time>2020-01-30T11:11:24.000Z</time>
      </trkpt>
      <trkpt lat="47.26367" lon="-2.32998">
        <ele>-2.2000000476837</ele>
        <time>2020-01-30T11:11:32.000Z</time>
      </trkpt>
      <trkpt lat="47.26366" lon="-2.32989">
        <ele>-2.2000000476837</ele>
        <time>2020-01-30T11:11:33.000Z</time>
      </trkpt>
      <trkpt lat="47.26354" lon="-2.32968">
        <ele>-2.2000000476837</ele>
        <time>2020-01-30T11:11:36.000Z</time>
      </trkpt>
      <trkpt lat="47.2634" lon="-2.32939">
        <ele>-2.2000000476837</ele>
        <time>2020-01-30T11:11:40.000Z</time>
      </trkpt>
      <trkpt lat="47.26337" lon="-2.32931">
        <ele>-2.2000000476837</ele>
        <time>2020-01-30T11:11:41.000Z</time>
      </trkpt>
      <trkpt lat="47.26324" lon="-2.32889">
        <ele>-2.2000000476837</ele>
        <time>2020-01-30T11:11:46.000Z</time>
      </trkpt>
      <trkpt lat="47.26315" lon="-2.32866">
        <ele>-2.2000000476837</ele>
        <time>2020-01-30T11:11:49.000Z</time>
      </trkpt>
      <trkpt lat="47.26305" lon="-2.32857">
        <ele>-2.2000000476837</ele>
        <time>2020-01-30T11:11:51.000Z</time>
      </trkpt>
      <trkpt lat="47.26285" lon="-2.32842">
        <ele>-2.2000000476837</ele>
        <time>2020-01-30T11:11:55.000Z</time>
      </trkpt>
      <trkpt lat="47.26283" lon="-2.32817">
        <ele>-2.2000000476837</ele>
        <time>2020-01-30T11:11:58.000Z</time>
      </trkpt>
      <trkpt lat="47.26276" lon="-2.32792">
        <ele>-2.2000000476837</ele>
        <time>2020-01-30T11:12:01.000Z</time>
      </trkpt>
      <trkpt lat="47.26273" lon="-2.32784">
        <ele>-2.5999999046326</ele>
        <time>2020-01-30T11:12:02.000Z</time>
      </trkpt>
      <trkpt lat="47.26269" lon="-2.32776">
        <ele>-3</ele>
        <time>2020-01-30T11:12:03.000Z</time>
      </trkpt>
      <trkpt lat="47.26265" lon="-2.32769">
        <ele>-3.4000000953674</ele>
        <time>2020-01-30T11:12:04.000Z</time>
      </trkpt>
      <trkpt lat="47.26262" lon="-2.32762">
        <ele>-3.7999999523163</ele>
        <time>2020-01-30T11:12:05.000Z</time>
      </trkpt>
      <trkpt lat="47.26257" lon="-2.32755">
        <ele>-4.1999998092651</ele>
        <time>2020-01-30T11:12:06.000Z</time>
      </trkpt>
      <trkpt lat="47.26249" lon="-2.32742">
        <ele>-4.1999998092651</ele>
        <time>2020-01-30T11:12:08.000Z</time>
      </trkpt>
      <trkpt lat="47.26224" lon="-2.32708">
        <ele>-4.1999998092651</ele>
        <time>2020-01-30T11:12:14.000Z</time>
      </trkpt>
      <trkpt lat="47.26215" lon="-2.32699">
        <ele>-4.1999998092651</ele>
        <time>2020-01-30T11:12:16.000Z</time>
      </trkpt>
      <trkpt lat="47.26201" lon="-2.32685">
        <ele>-4.1999998092651</ele>
        <time>2020-01-30T11:12:19.000Z</time>
      </trkpt>
      <trkpt lat="47.26174" lon="-2.32657">
        <ele>-4.1999998092651</ele>
        <time>2020-01-30T11:12:25.000Z</time>
      </trkpt>
      <trkpt lat="47.26164" lon="-2.32649">
        <ele>-4.1999998092651</ele>
        <time>2020-01-30T11:12:27.000Z</time>
      </trkpt>
      <trkpt lat="47.26148" lon="-2.32643">
        <ele>-4.1999998092651</ele>
        <time>2020-01-30T11:12:30.000Z</time>
      </trkpt>
      <trkpt lat="47.26119" lon="-2.32635">
        <ele>-4.1999998092651</ele>
        <time>2020-01-30T11:12:35.000Z</time>
      </trkpt>
      <trkpt lat="47.26113" lon="-2.32636">
        <ele>-4.1999998092651</ele>
        <time>2020-01-30T11:12:36.000Z</time>
      </trkpt>
      <trkpt lat="47.2609" lon="-2.32639">
        <ele>-4.1999998092651</ele>
        <time>2020-01-30T11:12:40.000Z</time>
      </trkpt>
      <trkpt lat="47.26042" lon="-2.32649">
        <ele>-4.1999998092651</ele>
        <time>2020-01-30T11:12:48.000Z</time>
      </trkpt>
      <trkpt lat="47.26009" lon="-2.32654">
        <ele>-4.1999998092651</ele>
        <time>2020-01-30T11:12:54.000Z</time>
      </trkpt>
      <trkpt lat="47.25978" lon="-2.32656">
        <ele>-4.1999998092651</ele>
        <time>2020-01-30T11:13:00.000Z</time>
      </trkpt>
      <trkpt lat="47.25973" lon="-2.32655">
        <ele>-4.1999998092651</ele>
        <time>2020-01-30T11:13:01.000Z</time>
      </trkpt>
      <trkpt lat="47.25962" lon="-2.32655">
        <ele>-4.1999998092651</ele>
        <time>2020-01-30T11:13:03.000Z</time>
      </trkpt>
      <trkpt lat="47.25951" lon="-2.32654">
        <ele>-4.1999998092651</ele>
        <time>2020-01-30T11:13:05.000Z</time>
      </trkpt>
      <trkpt lat="47.25946" lon="-2.32649">
        <ele>-4.1999998092651</ele>
        <time>2020-01-30T11:13:06.000Z</time>
      </trkpt>
      <trkpt lat="47.2593" lon="-2.32627">
        <ele>-4.1999998092651</ele>
        <time>2020-01-30T11:13:10.000Z</time>
      </trkpt>
      <trkpt lat="47.25921" lon="-2.32616">
        <ele>-4.5999999046326</ele>
        <time>2020-01-30T11:13:12.000Z</time>
      </trkpt>
      <trkpt lat="47.25917" lon="-2.32611">
        <ele>-5</ele>
        <time>2020-01-30T11:13:13.000Z</time>
      </trkpt>
      <trkpt lat="47.25913" lon="-2.32605">
        <ele>-5.4000000953674</ele>
        <time>2020-01-30T11:13:14.000Z</time>
      </trkpt>
      <trkpt lat="47.25909" lon="-2.32599">
        <ele>-5.8000001907349</ele>
        <time>2020-01-30T11:13:15.000Z</time>
      </trkpt>
      <trkpt lat="47.25905" lon="-2.32594">
        <ele>-6.1999998092651</ele>
        <time>2020-01-30T11:13:16.000Z</time>
      </trkpt>
      <trkpt lat="47.25896" lon="-2.32584">
        <ele>-6.1999998092651</ele>
        <time>2020-01-30T11:13:18.000Z</time>
      </trkpt>
      <trkpt lat="47.25891" lon="-2.3258">
        <ele>-6.1999998092651</ele>
        <time>2020-01-30T11:13:19.000Z</time>
      </trkpt>
      <trkpt lat="47.25873" lon="-2.32562">
        <ele>-6.1999998092651</ele>
        <time>2020-01-30T11:13:23.000Z</time>
      </trkpt>
      <trkpt lat="47.25845" lon="-2.32525">
        <ele>-6.1999998092651</ele>
        <time>2020-01-30T11:13:30.000Z</time>
      </trkpt>
      <trkpt lat="47.25836" lon="-2.32509">
        <ele>-6.1999998092651</ele>
        <time>2020-01-30T11:13:33.000Z</time>
      </trkpt>
      <trkpt lat="47.25829" lon="-2.325">
        <ele>-6.1999998092651</ele>
        <time>2020-01-30T11:13:35.000Z</time>
      </trkpt>
      <trkpt lat="47.25814" lon="-2.32484">
        <ele>-6.1999998092651</ele>
        <time>2020-01-30T11:13:39.000Z</time>
      </trkpt>
      <trkpt lat="47.25806" lon="-2.3248">
        <ele>-6.1999998092651</ele>
        <time>2020-01-30T11:13:41.000Z</time>
      </trkpt>
      <trkpt lat="47.25791" lon="-2.32481">
        <ele>-6.1999998092651</ele>
        <time>2020-01-30T11:13:45.000Z</time>
      </trkpt>
      <trkpt lat="47.2578" lon="-2.3248">
        <ele>-6.1999998092651</ele>
        <time>2020-01-30T11:13:48.000Z</time>
      </trkpt>
      <trkpt lat="47.25778" lon="-2.32475">
        <ele>-6.1999998092651</ele>
        <time>2020-01-30T11:13:49.000Z</time>
      </trkpt>
      <trkpt lat="47.25773" lon="-2.32452">
        <ele>-6.1999998092651</ele>
        <time>2020-01-30T11:13:53.000Z</time>
      </trkpt>
      <trkpt lat="47.25767" lon="-2.32436">
        <ele>-6.1999998092651</ele>
        <time>2020-01-30T11:13:56.000Z</time>
      </trkpt>
      <trkpt lat="47.25759" lon="-2.32432">
        <ele>-6.1999998092651</ele>
        <time>2020-01-30T11:13:58.000Z</time>
      </trkpt>
      <trkpt lat="47.25748" lon="-2.32429">
        <ele>-6.1999998092651</ele>
        <time>2020-01-30T11:14:00.000Z</time>
      </trkpt>
      <trkpt lat="47.25743" lon="-2.32429">
        <ele>-6.1999998092651</ele>
        <time>2020-01-30T11:14:01.000Z</time>
      </trkpt>
      <trkpt lat="47.25733" lon="-2.32429">
        <ele>-6.1999998092651</ele>
        <time>2020-01-30T11:14:03.000Z</time>
      </trkpt>
      <trkpt lat="47.25718" lon="-2.32426">
        <ele>-6.1999998092651</ele>
        <time>2020-01-30T11:14:06.000Z</time>
      </trkpt>
      <trkpt lat="47.25708" lon="-2.32426">
        <ele>-6.1999998092651</ele>
        <time>2020-01-30T11:14:08.000Z</time>
      </trkpt>
      <trkpt lat="47.25676" lon="-2.32423">
        <ele>-6.1999998092651</ele>
        <time>2020-01-30T11:14:15.000Z</time>
      </trkpt>
      <trkpt lat="47.25673" lon="-2.32423">
        <ele>-6.1999998092651</ele>
        <time>2020-01-30T11:14:16.000Z</time>
      </trkpt>
      <trkpt lat="47.25655" lon="-2.32421">
        <ele>-6.1999998092651</ele>
        <time>2020-01-30T11:14:20.000Z</time>
      </trkpt>
      <trkpt lat="47.2565" lon="-2.32404">
        <ele>-6.1999998092651</ele>
        <time>2020-01-30T11:14:23.000Z</time>
      </trkpt>
      <trkpt lat="47.25652" lon="-2.3239">
        <ele>-6.1999998092651</ele>
        <time>2020-01-30T11:14:25.000Z</time>
      </trkpt>
      <trkpt lat="47.25652" lon="-2.32374">
        <ele>-6.1999998092651</ele>
        <time>2020-01-30T11:14:27.000Z</time>
      </trkpt>
      <trkpt lat="47.25649" lon="-2.32317">
        <ele>-6.1999998092651</ele>
        <time>2020-01-30T11:14:35.000Z</time>
      </trkpt>
      <trkpt lat="47.25648" lon="-2.32298">
        <ele>-6.1999998092651</ele>
        <time>2020-01-30T11:14:38.000Z</time>
      </trkpt>
      <trkpt lat="47.25648" lon="-2.32271">
        <ele>-6.1999998092651</ele>
        <time>2020-01-30T11:14:42.000Z</time>
      </trkpt>
      <trkpt lat="47.25646" lon="-2.32253">
        <ele>-6.1999998092651</ele>
        <time>2020-01-30T11:14:45.000Z</time>
      </trkpt>
      <trkpt lat="47.25646" lon="-2.32242">
        <ele>-6.1999998092651</ele>
        <time>2020-01-30T11:14:47.000Z</time>
      </trkpt>
      <trkpt lat="47.25645" lon="-2.32236">
        <ele>-6.1999998092651</ele>
        <time>2020-01-30T11:14:48.000Z</time>
      </trkpt>
      <trkpt lat="47.25644" lon="-2.32222">
        <ele>-6.1999998092651</ele>
        <time>2020-01-30T11:14:50.000Z</time>
      </trkpt>
      <trkpt lat="47.2564" lon="-2.32204">
        <ele>-6.1999998092651</ele>
        <time>2020-01-30T11:14:53.000Z</time>
      </trkpt>
      <trkpt lat="47.2564" lon="-2.32197">
        <ele>-6.1999998092651</ele>
        <time>2020-01-30T11:14:54.000Z</time>
      </trkpt>
      <trkpt lat="47.25635" lon="-2.32177">
        <ele>-6.1999998092651</ele>
        <time>2020-01-30T11:14:57.000Z</time>
      </trkpt>
      <trkpt lat="47.25631" lon="-2.32163">
        <ele>-6.1999998092651</ele>
        <time>2020-01-30T11:14:59.000Z</time>
      </trkpt>
      <trkpt lat="47.25623" lon="-2.32133">
        <ele>-6.5999999046326</ele>
        <time>2020-01-30T11:15:03.000Z</time>
      </trkpt>
      <trkpt lat="47.2562" lon="-2.32126">
        <ele>-7</ele>
        <time>2020-01-30T11:15:04.000Z</time>
      </trkpt>
      <trkpt lat="47.25619" lon="-2.32119">
        <ele>-7.4000000953674</ele>
        <time>2020-01-30T11:15:05.000Z</time>
      </trkpt>
      <trkpt lat="47.25615" lon="-2.32111">
        <ele>-8.3999996185303</ele>
        <time>2020-01-30T11:15:06.000Z</time>
      </trkpt>
      <trkpt lat="47.25593" lon="-2.32052">
        <ele>-8.3999996185303</ele>
        <time>2020-01-30T11:15:14.000Z</time>
      </trkpt>
      <trkpt lat="47.25575" lon="-2.32003">
        <ele>-8.3999996185303</ele>
        <time>2020-01-30T11:15:21.000Z</time>
      </trkpt>
      <trkpt lat="47.25572" lon="-2.31989">
        <ele>-8.3999996185303</ele>
        <time>2020-01-30T11:15:23.000Z</time>
      </trkpt>
      <trkpt lat="47.25565" lon="-2.31972">
        <ele>-8.3999996185303</ele>
        <time>2020-01-30T11:15:26.000Z</time>
      </trkpt>
      <trkpt lat="47.2556" lon="-2.31951">
        <ele>-8.3999996185303</ele>
        <time>2020-01-30T11:15:30.000Z</time>
      </trkpt>
      <trkpt lat="47.25559" lon="-2.31946">
        <ele>-8.3999996185303</ele>
        <time>2020-01-30T11:15:31.000Z</time>
      </trkpt>
      <trkpt lat="47.25557" lon="-2.31918">
        <ele>-8.3999996185303</ele>
        <time>2020-01-30T11:15:38.000Z</time>
      </trkpt>
      <trkpt lat="47.25554" lon="-2.31914">
        <ele>-8.3999996185303</ele>
        <time>2020-01-30T11:15:41.000Z</time>
      </trkpt>
      <trkpt lat="47.25549" lon="-2.31917">
        <ele>-8.3999996185303</ele>
        <time>2020-01-30T11:15:43.000Z</time>
      </trkpt>
      <trkpt lat="47.25538" lon="-2.31918">
        <ele>-8.3999996185303</ele>
        <time>2020-01-30T11:15:47.000Z</time>
      </trkpt>
      <trkpt lat="47.25536" lon="-2.31914">
        <ele>-8.3999996185303</ele>
        <time>2020-01-30T11:15:48.000Z</time>
      </trkpt>
      <trkpt lat="47.25534" lon="-2.31891">
        <ele>-8.3999996185303</ele>
        <time>2020-01-30T11:15:53.000Z</time>
      </trkpt>
      <trkpt lat="47.2553" lon="-2.31863">
        <ele>-8.8000001907349</ele>
        <time>2020-01-30T11:16:00.000Z</time>
      </trkpt>
      <trkpt lat="47.25529" lon="-2.3186">
        <ele>-9.1999998092651</ele>
        <time>2020-01-30T11:16:01.000Z</time>
      </trkpt>
      <trkpt lat="47.25529" lon="-2.31857">
        <ele>-9.8000001907349</ele>
        <time>2020-01-30T11:16:02.000Z</time>
      </trkpt>
      <trkpt lat="47.25527" lon="-2.31855">
        <ele>-9.3999996185303</ele>
        <time>2020-01-30T11:16:03.000Z</time>
      </trkpt>
      <trkpt lat="47.25527" lon="-2.31853">
        <ele>-9.1999998092651</ele>
        <time>2020-01-30T11:16:04.000Z</time>
      </trkpt>
      <trkpt lat="47.25526" lon="-2.31852">
        <ele>-9</ele>
        <time>2020-01-30T11:16:05.000Z</time>
      </trkpt>
      <trkpt lat="47.25526" lon="-2.31851">
        <ele>-8.6000003814697</ele>
        <time>2020-01-30T11:16:06.000Z</time>
      </trkpt>
      <trkpt lat="47.25526" lon="-2.31849">
        <ele>-4.4000000953674</ele>
        <time>2020-01-30T11:29:59.000Z</time>
      </trkpt>
      <trkpt lat="47.25524" lon="-2.31841">
        <ele>-4.4000000953674</ele>
        <time>2020-01-30T11:30:02.000Z</time>
      </trkpt>
      <trkpt lat="47.25524" lon="-2.31838">
        <ele>-4.4000000953674</ele>
        <time>2020-01-30T11:30:03.000Z</time>
      </trkpt>
      <trkpt lat="47.25526" lon="-2.31832">
        <ele>-4.4000000953674</ele>
        <time>2020-01-30T11:30:05.000Z</time>
      </trkpt>
      <trkpt lat="47.25526" lon="-2.31816">
        <ele>-4.4000000953674</ele>
        <time>2020-01-30T11:30:09.000Z</time>
      </trkpt>
      <trkpt lat="47.25531" lon="-2.31812">
        <ele>-4.4000000953674</ele>
        <time>2020-01-30T11:30:12.000Z</time>
      </trkpt>
      <trkpt lat="47.25537" lon="-2.3181">
        <ele>-4.4000000953674</ele>
        <time>2020-01-30T11:30:14.000Z</time>
      </trkpt>
      <trkpt lat="47.2555" lon="-2.31806">
        <ele>-4.4000000953674</ele>
        <time>2020-01-30T11:30:18.000Z</time>
      </trkpt>
      <trkpt lat="47.25553" lon="-2.318">
        <ele>-4.4000000953674</ele>
        <time>2020-01-30T11:30:20.000Z</time>
      </trkpt>
      <trkpt lat="47.25557" lon="-2.31794">
        <ele>-4.4000000953674</ele>
        <time>2020-01-30T11:30:22.000Z</time>
      </trkpt>
      <trkpt lat="47.25569" lon="-2.31774">
        <ele>-4.4000000953674</ele>
        <time>2020-01-30T11:30:27.000Z</time>
      </trkpt>
      <trkpt lat="47.25586" lon="-2.31747">
        <ele>-4.4000000953674</ele>
        <time>2020-01-30T11:30:32.000Z</time>
      </trkpt>
      <trkpt lat="47.25596" lon="-2.3172">
        <ele>-4.4000000953674</ele>
        <time>2020-01-30T11:30:36.000Z</time>
      </trkpt>
      <trkpt lat="47.25599" lon="-2.31716">
        <ele>-4.4000000953674</ele>
        <time>2020-01-30T11:30:37.000Z</time>
      </trkpt>
      <trkpt lat="47.25607" lon="-2.3171">
        <ele>-4.4000000953674</ele>
        <time>2020-01-30T11:30:39.000Z</time>
      </trkpt>
      <trkpt lat="47.25617" lon="-2.31707">
        <ele>-4.4000000953674</ele>
        <time>2020-01-30T11:30:41.000Z</time>
      </trkpt>
      <trkpt lat="47.25633" lon="-2.31703">
        <ele>-4.4000000953674</ele>
        <time>2020-01-30T11:30:44.000Z</time>
      </trkpt>
      <trkpt lat="47.25653" lon="-2.3168">
        <ele>-4.4000000953674</ele>
        <time>2020-01-30T11:30:48.000Z</time>
      </trkpt>
      <trkpt lat="47.25663" lon="-2.31661">
        <ele>-4.4000000953674</ele>
        <time>2020-01-30T11:30:51.000Z</time>
      </trkpt>
      <trkpt lat="47.25676" lon="-2.31667">
        <ele>-4.4000000953674</ele>
        <time>2020-01-30T11:30:54.000Z</time>
      </trkpt>
      <trkpt lat="47.25692" lon="-2.31676">
        <ele>-4.4000000953674</ele>
        <time>2020-01-30T11:30:57.000Z</time>
      </trkpt>
      <trkpt lat="47.25698" lon="-2.31678">
        <ele>-4.4000000953674</ele>
        <time>2020-01-30T11:30:58.000Z</time>
      </trkpt>
      <trkpt lat="47.25717" lon="-2.31689">
        <ele>-4.4000000953674</ele>
        <time>2020-01-30T11:31:01.000Z</time>
      </trkpt>
      <trkpt lat="47.25723" lon="-2.31693">
        <ele>-4.4000000953674</ele>
        <time>2020-01-30T11:31:02.000Z</time>
      </trkpt>
      <trkpt lat="47.25741" lon="-2.3169">
        <ele>-4.4000000953674</ele>
        <time>2020-01-30T11:31:05.000Z</time>
      </trkpt>
      <trkpt lat="47.25755" lon="-2.31678">
        <ele>-4.4000000953674</ele>
        <time>2020-01-30T11:31:09.000Z</time>
      </trkpt>
      <trkpt lat="47.2576" lon="-2.31674">
        <ele>-4.4000000953674</ele>
        <time>2020-01-30T11:31:10.000Z</time>
      </trkpt>
      <trkpt lat="47.2579" lon="-2.31649">
        <ele>-4.4000000953674</ele>
        <time>2020-01-30T11:31:17.000Z</time>
      </trkpt>
      <trkpt lat="47.25821" lon="-2.31627">
        <ele>-4.4000000953674</ele>
        <time>2020-01-30T11:31:24.000Z</time>
      </trkpt>
      <trkpt lat="47.25829" lon="-2.31619">
        <ele>-4.4000000953674</ele>
        <time>2020-01-30T11:31:26.000Z</time>
      </trkpt>
      <trkpt lat="47.25845" lon="-2.31604">
        <ele>-4.4000000953674</ele>
        <time>2020-01-30T11:31:30.000Z</time>
      </trkpt>
      <trkpt lat="47.25877" lon="-2.31574">
        <ele>-4.4000000953674</ele>
        <time>2020-01-30T11:31:36.000Z</time>
      </trkpt>
      <trkpt lat="47.25882" lon="-2.31567">
        <ele>-4.4000000953674</ele>
        <time>2020-01-30T11:31:37.000Z</time>
      </trkpt>
      <trkpt lat="47.25891" lon="-2.3155">
        <ele>-4.4000000953674</ele>
        <time>2020-01-30T11:31:39.000Z</time>
      </trkpt>
      <trkpt lat="47.25897" lon="-2.31534">
        <ele>-4.4000000953674</ele>
        <time>2020-01-30T11:31:41.000Z</time>
      </trkpt>
      <trkpt lat="47.259" lon="-2.31528">
        <ele>-4.4000000953674</ele>
        <time>2020-01-30T11:31:42.000Z</time>
      </trkpt>
      <trkpt lat="47.25903" lon="-2.31523">
        <ele>-4.4000000953674</ele>
        <time>2020-01-30T11:31:43.000Z</time>
      </trkpt>
      <trkpt lat="47.25913" lon="-2.3151">
        <ele>-4.4000000953674</ele>
        <time>2020-01-30T11:31:47.000Z</time>
      </trkpt>
      <trkpt lat="47.25912" lon="-2.31504">
        <ele>-4.4000000953674</ele>
        <time>2020-01-30T11:31:51.000Z</time>
      </trkpt>
      <trkpt lat="47.25915" lon="-2.31492">
        <ele>-4.4000000953674</ele>
        <time>2020-01-30T11:31:55.000Z</time>
      </trkpt>
      <trkpt lat="47.25919" lon="-2.3148">
        <ele>-4.4000000953674</ele>
        <time>2020-01-30T11:31:57.000Z</time>
      </trkpt>
      <trkpt lat="47.25927" lon="-2.31461">
        <ele>-4.4000000953674</ele>
        <time>2020-01-30T11:32:00.000Z</time>
      </trkpt>
      <trkpt lat="47.2593" lon="-2.31458">
        <ele>-4.4000000953674</ele>
        <time>2020-01-30T11:32:01.000Z</time>
      </trkpt>
      <trkpt lat="47.25937" lon="-2.31458">
        <ele>-4.4000000953674</ele>
        <time>2020-01-30T11:32:03.000Z</time>
      </trkpt>
      <trkpt lat="47.25952" lon="-2.31463">
        <ele>-4.4000000953674</ele>
        <time>2020-01-30T11:32:07.000Z</time>
      </trkpt>
      <trkpt lat="47.25957" lon="-2.31452">
        <ele>-4.4000000953674</ele>
        <time>2020-01-30T11:32:10.000Z</time>
      </trkpt>
      <trkpt lat="47.25958" lon="-2.31447">
        <ele>-4.4000000953674</ele>
        <time>2020-01-30T11:32:11.000Z</time>
      </trkpt>
      <trkpt lat="47.25966" lon="-2.31427">
        <ele>-4.4000000953674</ele>
        <time>2020-01-30T11:32:15.000Z</time>
      </trkpt>
      <trkpt lat="47.2597" lon="-2.31425">
        <ele>-4.4000000953674</ele>
        <time>2020-01-30T11:32:16.000Z</time>
      </trkpt>
      <trkpt lat="47.25979" lon="-2.31425">
        <ele>-4.4000000953674</ele>
        <time>2020-01-30T11:32:18.000Z</time>
      </trkpt>
      <trkpt lat="47.25991" lon="-2.31429">
        <ele>-4.4000000953674</ele>
        <time>2020-01-30T11:32:20.000Z</time>
      </trkpt>
      <trkpt lat="47.25995" lon="-2.31433">
        <ele>-4.4000000953674</ele>
        <time>2020-01-30T11:32:21.000Z</time>
      </trkpt>
      <trkpt lat="47.25999" lon="-2.31436">
        <ele>-4.4000000953674</ele>
        <time>2020-01-30T11:32:22.000Z</time>
      </trkpt>
      <trkpt lat="47.26021" lon="-2.31452">
        <ele>-4.4000000953674</ele>
        <time>2020-01-30T11:32:27.000Z</time>
      </trkpt>
      <trkpt lat="47.2605" lon="-2.3147">
        <ele>-4.4000000953674</ele>
        <time>2020-01-30T11:32:34.000Z</time>
      </trkpt>
      <trkpt lat="47.26059" lon="-2.31478">
        <ele>-4.4000000953674</ele>
        <time>2020-01-30T11:32:37.000Z</time>
      </trkpt>
      <trkpt lat="47.26059" lon="-2.31482">
        <ele>-4.4000000953674</ele>
        <time>2020-01-30T11:32:38.000Z</time>
      </trkpt>
      <trkpt lat="47.2605" lon="-2.31497">
        <ele>-4.4000000953674</ele>
        <time>2020-01-30T11:32:42.000Z</time>
      </trkpt>
      <trkpt lat="47.26043" lon="-2.315">
        <ele>-4.4000000953674</ele>
        <time>2020-01-30T11:32:44.000Z</time>
      </trkpt>
      <trkpt lat="47.26039" lon="-2.31507">
        <ele>-4.4000000953674</ele>
        <time>2020-01-30T11:32:46.000Z</time>
      </trkpt>
      <trkpt lat="47.26048" lon="-2.31522">
        <ele>-4.4000000953674</ele>
        <time>2020-01-30T11:32:49.000Z</time>
      </trkpt>
      <trkpt lat="47.26059" lon="-2.31539">
        <ele>-4.4000000953674</ele>
        <time>2020-01-30T11:32:52.000Z</time>
      </trkpt>
      <trkpt lat="47.26064" lon="-2.3155">
        <ele>-4.4000000953674</ele>
        <time>2020-01-30T11:32:54.000Z</time>
      </trkpt>
      <trkpt lat="47.26067" lon="-2.31556">
        <ele>-4.4000000953674</ele>
        <time>2020-01-30T11:32:55.000Z</time>
      </trkpt>
      <trkpt lat="47.26074" lon="-2.31574">
        <ele>-4.4000000953674</ele>
        <time>2020-01-30T11:32:59.000Z</time>
      </trkpt>
      <trkpt lat="47.26076" lon="-2.31575">
        <ele>-4.4000000953674</ele>
        <time>2020-01-30T11:33:00.000Z</time>
      </trkpt>
      <trkpt lat="47.26078" lon="-2.31576">
        <ele>-4.4000000953674</ele>
        <time>2020-01-30T11:33:02.000Z</time>
      </trkpt>
      <trkpt lat="47.26079" lon="-2.31578">
        <ele>-4.4000000953674</ele>
        <time>2020-01-30T11:33:03.000Z</time>
      </trkpt>
      <trkpt lat="47.26085" lon="-2.31585">
        <ele>-4.4000000953674</ele>
        <time>2020-01-30T11:33:06.000Z</time>
      </trkpt>
      <trkpt lat="47.26095" lon="-2.31597">
        <ele>-4.4000000953674</ele>
        <time>2020-01-30T11:33:09.000Z</time>
      </trkpt>
      <trkpt lat="47.26101" lon="-2.31608">
        <ele>-4.4000000953674</ele>
        <time>2020-01-30T11:33:11.000Z</time>
      </trkpt>
      <trkpt lat="47.26109" lon="-2.31616">
        <ele>-4.4000000953674</ele>
        <time>2020-01-30T11:33:13.000Z</time>
      </trkpt>
      <trkpt lat="47.26118" lon="-2.31618">
        <ele>-4.4000000953674</ele>
        <time>2020-01-30T11:33:15.000Z</time>
      </trkpt>
      <trkpt lat="47.26127" lon="-2.31615">
        <ele>-4.4000000953674</ele>
        <time>2020-01-30T11:33:17.000Z</time>
      </trkpt>
      <trkpt lat="47.26146" lon="-2.3161">
        <ele>-4.4000000953674</ele>
        <time>2020-01-30T11:33:21.000Z</time>
      </trkpt>
      <trkpt lat="47.26171" lon="-2.316">
        <ele>-4.4000000953674</ele>
        <time>2020-01-30T11:33:26.000Z</time>
      </trkpt>
      <trkpt lat="47.26176" lon="-2.31599">
        <ele>-4.4000000953674</ele>
        <time>2020-01-30T11:33:27.000Z</time>
      </trkpt>
      <trkpt lat="47.26211" lon="-2.3159">
        <ele>-4.4000000953674</ele>
        <time>2020-01-30T11:33:34.000Z</time>
      </trkpt>
      <trkpt lat="47.26216" lon="-2.3159">
        <ele>-4.4000000953674</ele>
        <time>2020-01-30T11:33:35.000Z</time>
      </trkpt>
      <trkpt lat="47.2622" lon="-2.3159">
        <ele>-4.4000000953674</ele>
        <time>2020-01-30T11:33:36.000Z</time>
      </trkpt>
      <trkpt lat="47.26232" lon="-2.31597">
        <ele>-4.4000000953674</ele>
        <time>2020-01-30T11:33:39.000Z</time>
      </trkpt>
      <trkpt lat="47.26235" lon="-2.31599">
        <ele>-4.4000000953674</ele>
        <time>2020-01-30T11:33:40.000Z</time>
      </trkpt>
      <trkpt lat="47.26239" lon="-2.31603">
        <ele>-4.4000000953674</ele>
        <time>2020-01-30T11:33:41.000Z</time>
      </trkpt>
      <trkpt lat="47.26249" lon="-2.31615">
        <ele>-4.4000000953674</ele>
        <time>2020-01-30T11:33:44.000Z</time>
      </trkpt>
      <trkpt lat="47.26252" lon="-2.3162">
        <ele>-4.4000000953674</ele>
        <time>2020-01-30T11:33:45.000Z</time>
      </trkpt>
      <trkpt lat="47.26255" lon="-2.31625">
        <ele>-4.4000000953674</ele>
        <time>2020-01-30T11:33:46.000Z</time>
      </trkpt>
      <trkpt lat="47.26266" lon="-2.3165">
        <ele>-4.4000000953674</ele>
        <time>2020-01-30T11:33:51.000Z</time>
      </trkpt>
      <trkpt lat="47.26275" lon="-2.31668">
        <ele>-4.4000000953674</ele>
        <time>2020-01-30T11:33:55.000Z</time>
      </trkpt>
      <trkpt lat="47.26292" lon="-2.317">
        <ele>-4.4000000953674</ele>
        <time>2020-01-30T11:34:01.000Z</time>
      </trkpt>
      <trkpt lat="47.26304" lon="-2.31707">
        <ele>-4.4000000953674</ele>
        <time>2020-01-30T11:34:05.000Z</time>
      </trkpt>
      <trkpt lat="47.26307" lon="-2.31707">
        <ele>-4.4000000953674</ele>
        <time>2020-01-30T11:34:06.000Z</time>
      </trkpt>
      <trkpt lat="47.26326" lon="-2.31702">
        <ele>-4.4000000953674</ele>
        <time>2020-01-30T11:34:11.000Z</time>
      </trkpt>
      <trkpt lat="47.26329" lon="-2.31697">
        <ele>-4.4000000953674</ele>
        <time>2020-01-30T11:34:12.000Z</time>
      </trkpt>
      <trkpt lat="47.26333" lon="-2.31688">
        <ele>-4.4000000953674</ele>
        <time>2020-01-30T11:34:14.000Z</time>
      </trkpt>
      <trkpt lat="47.2634" lon="-2.31685">
        <ele>-4.4000000953674</ele>
        <time>2020-01-30T11:34:16.000Z</time>
      </trkpt>
      <trkpt lat="47.26344" lon="-2.31683">
        <ele>-4.4000000953674</ele>
        <time>2020-01-30T11:34:17.000Z</time>
      </trkpt>
      <trkpt lat="47.26361" lon="-2.31674">
        <ele>-4.4000000953674</ele>
        <time>2020-01-30T11:34:22.000Z</time>
      </trkpt>
      <trkpt lat="47.26384" lon="-2.31663">
        <ele>-4.4000000953674</ele>
        <time>2020-01-30T11:34:28.000Z</time>
      </trkpt>
      <trkpt lat="47.26399" lon="-2.31656">
        <ele>-4.4000000953674</ele>
        <time>2020-01-30T11:34:33.000Z</time>
      </trkpt>
      <trkpt lat="47.26412" lon="-2.31643">
        <ele>-4.4000000953674</ele>
        <time>2020-01-30T11:34:38.000Z</time>
      </trkpt>
      <trkpt lat="47.26411" lon="-2.31623">
        <ele>-4.4000000953674</ele>
        <time>2020-01-30T11:34:42.000Z</time>
      </trkpt>
      <trkpt lat="47.26411" lon="-2.31617">
        <ele>-4.4000000953674</ele>
        <time>2020-01-30T11:34:43.000Z</time>
      </trkpt>
      <trkpt lat="47.26411" lon="-2.3158">
        <ele>-4.4000000953674</ele>
        <time>2020-01-30T11:34:50.000Z</time>
      </trkpt>
      <trkpt lat="47.26409" lon="-2.31557">
        <ele>-4.4000000953674</ele>
        <time>2020-01-30T11:34:55.000Z</time>
      </trkpt>
      <trkpt lat="47.26413" lon="-2.31549">
        <ele>-4.4000000953674</ele>
        <time>2020-01-30T11:34:58.000Z</time>
      </trkpt>
      <trkpt lat="47.26415" lon="-2.3155">
        <ele>-4.4000000953674</ele>
        <time>2020-01-30T11:34:59.000Z</time>
      </trkpt>
      <trkpt lat="47.26416" lon="-2.31551">
        <ele>-4.4000000953674</ele>
        <time>2020-01-30T11:35:01.000Z</time>
      </trkpt>
    </trkseg>
  </trk>
</gpx>